<?xml version="1.0" encoding="UTF-8" standalone="no" ?>
<gpx xmlns="http://www.topografix.com/GPX/1/1" xmlns:xsi="http://www.w3.org/2001/XMLSchema-instance" xsi:schemaLocation="http://www.topografix.com/GPX/1/1 http://www.topografix.com/GPX/1/1/gpx.xsd" version="1.1" creator="VisuGPX - https://www.visugpx.com">
  <metadata>
    <name>lundi 2015 01 05</name>
    <desc><![CDATA[rando du lundi]]></desc>
  </metadata>
  <trk>
    <name><![CDATA[05/01/2015 20:18]]></name>
    <desc><![CDATA[]]></desc>
    <trkseg>
      <trkpt lat="48.85758" lon="2.34709">
        <ele>107.7</ele>
        <time>2015-01-05T19:18:27.665Z</time>
      </trkpt>
      <trkpt lat="48.85755" lon="2.34712">
        <ele>109.3</ele>
        <time>2015-01-05T19:18:56.806Z</time>
      </trkpt>
      <trkpt lat="48.85755" lon="2.34712">
        <ele>109.1</ele>
        <time>2015-01-05T19:18:57.818Z</time>
      </trkpt>
      <trkpt lat="48.85753" lon="2.34712">
        <ele>109.1</ele>
        <time>2015-01-05T19:18:58.656Z</time>
      </trkpt>
      <trkpt lat="48.8575" lon="2.3471">
        <ele>109.3</ele>
        <time>2015-01-05T19:19:01.677Z</time>
      </trkpt>
      <trkpt lat="48.8575" lon="2.3471">
        <ele>109.5</ele>
        <time>2015-01-05T19:19:02.699Z</time>
      </trkpt>
      <trkpt lat="48.85749" lon="2.3471">
        <ele>109.6</ele>
        <time>2015-01-05T19:19:23.699Z</time>
      </trkpt>
      <trkpt lat="48.8575" lon="2.34712">
        <ele>111.8</ele>
        <time>2015-01-05T19:19:24.721Z</time>
      </trkpt>
      <trkpt lat="48.8575" lon="2.34713">
        <ele>111.9</ele>
        <time>2015-01-05T19:19:25.662Z</time>
      </trkpt>
      <trkpt lat="48.8575" lon="2.34713">
        <ele>111.8</ele>
        <time>2015-01-05T19:19:26.701Z</time>
      </trkpt>
      <trkpt lat="48.8575" lon="2.34712">
        <ele>111.8</ele>
        <time>2015-01-05T19:19:27.735Z</time>
      </trkpt>
      <trkpt lat="48.8575" lon="2.34712">
        <ele>111.8</ele>
        <time>2015-01-05T19:20:52.800Z</time>
      </trkpt>
      <trkpt lat="48.85741" lon="2.34734">
        <ele>109.7</ele>
        <time>2015-01-05T19:20:53.796Z</time>
      </trkpt>
      <trkpt lat="48.85741" lon="2.34735">
        <ele>109.7</ele>
        <time>2015-01-05T19:20:54.677Z</time>
      </trkpt>
      <trkpt lat="48.85741" lon="2.34735">
        <ele>109.9</ele>
        <time>2015-01-05T19:20:55.704Z</time>
      </trkpt>
      <trkpt lat="48.85741" lon="2.34734">
        <ele>109.7</ele>
        <time>2015-01-05T19:21:12.716Z</time>
      </trkpt>
      <trkpt lat="48.85744" lon="2.34735">
        <ele>110.3</ele>
        <time>2015-01-05T19:21:13.813Z</time>
      </trkpt>
      <trkpt lat="48.85745" lon="2.34736">
        <ele>110.3</ele>
        <time>2015-01-05T19:21:15.726Z</time>
      </trkpt>
      <trkpt lat="48.85746" lon="2.34737">
        <ele>110.4</ele>
        <time>2015-01-05T19:21:16.724Z</time>
      </trkpt>
      <trkpt lat="48.85747" lon="2.3474">
        <ele>111.2</ele>
        <time>2015-01-05T19:21:19.674Z</time>
      </trkpt>
      <trkpt lat="48.85747" lon="2.34742">
        <ele>111.8</ele>
        <time>2015-01-05T19:21:20.717Z</time>
      </trkpt>
      <trkpt lat="48.85746" lon="2.34743">
        <ele>112.2</ele>
        <time>2015-01-05T19:21:21.732Z</time>
      </trkpt>
      <trkpt lat="48.85746" lon="2.34743">
        <ele>112.5</ele>
        <time>2015-01-05T19:21:22.735Z</time>
      </trkpt>
      <trkpt lat="48.85746" lon="2.34741">
        <ele>112.2</ele>
        <time>2015-01-05T19:21:23.753Z</time>
      </trkpt>
      <trkpt lat="48.85746" lon="2.34739">
        <ele>112</ele>
        <time>2015-01-05T19:21:24.658Z</time>
      </trkpt>
      <trkpt lat="48.85745" lon="2.34728">
        <ele>110.3</ele>
        <time>2015-01-05T19:21:28.684Z</time>
      </trkpt>
      <trkpt lat="48.85745" lon="2.34725">
        <ele>109.7</ele>
        <time>2015-01-05T19:21:29.689Z</time>
      </trkpt>
      <trkpt lat="48.85745" lon="2.34712">
        <ele>108.2</ele>
        <time>2015-01-05T19:21:35.730Z</time>
      </trkpt>
      <trkpt lat="48.85744" lon="2.3471">
        <ele>107.9</ele>
        <time>2015-01-05T19:21:36.684Z</time>
      </trkpt>
      <trkpt lat="48.85743" lon="2.34706">
        <ele>107.4</ele>
        <time>2015-01-05T19:21:38.720Z</time>
      </trkpt>
      <trkpt lat="48.85742" lon="2.34705">
        <ele>107.2</ele>
        <time>2015-01-05T19:21:39.841Z</time>
      </trkpt>
      <trkpt lat="48.85741" lon="2.34706">
        <ele>105.8</ele>
        <time>2015-01-05T19:21:57.750Z</time>
      </trkpt>
      <trkpt lat="48.8574" lon="2.34708">
        <ele>101.1</ele>
        <time>2015-01-05T19:21:58.665Z</time>
      </trkpt>
      <trkpt lat="48.8574" lon="2.34707">
        <ele>100.6</ele>
        <time>2015-01-05T19:22:00.687Z</time>
      </trkpt>
      <trkpt lat="48.85739" lon="2.34707">
        <ele>100.1</ele>
        <time>2015-01-05T19:22:01.713Z</time>
      </trkpt>
      <trkpt lat="48.85739" lon="2.34707">
        <ele>100.1</ele>
        <time>2015-01-05T19:22:07.712Z</time>
      </trkpt>
      <trkpt lat="48.85739" lon="2.34707">
        <ele>99.4</ele>
        <time>2015-01-05T19:22:08.762Z</time>
      </trkpt>
      <trkpt lat="48.85732" lon="2.34706">
        <ele>97.7</ele>
        <time>2015-01-05T19:22:13.739Z</time>
      </trkpt>
      <trkpt lat="48.85729" lon="2.34705">
        <ele>97.4</ele>
        <time>2015-01-05T19:22:14.766Z</time>
      </trkpt>
      <trkpt lat="48.85721" lon="2.347">
        <ele>96.7</ele>
        <time>2015-01-05T19:22:17.685Z</time>
      </trkpt>
      <trkpt lat="48.85718" lon="2.34699">
        <ele>96.6</ele>
        <time>2015-01-05T19:22:18.698Z</time>
      </trkpt>
      <trkpt lat="48.8571" lon="2.34695">
        <ele>95.8</ele>
        <time>2015-01-05T19:22:21.694Z</time>
      </trkpt>
      <trkpt lat="48.85706" lon="2.34693">
        <ele>95.6</ele>
        <time>2015-01-05T19:22:22.707Z</time>
      </trkpt>
      <trkpt lat="48.857" lon="2.34689">
        <ele>95.2</ele>
        <time>2015-01-05T19:22:24.657Z</time>
      </trkpt>
      <trkpt lat="48.85697" lon="2.34686">
        <ele>94.8</ele>
        <time>2015-01-05T19:22:25.677Z</time>
      </trkpt>
      <trkpt lat="48.85692" lon="2.34682">
        <ele>94.5</ele>
        <time>2015-01-05T19:22:27.718Z</time>
      </trkpt>
      <trkpt lat="48.85689" lon="2.3468">
        <ele>94.2</ele>
        <time>2015-01-05T19:22:28.731Z</time>
      </trkpt>
      <trkpt lat="48.85684" lon="2.34676">
        <ele>93.6</ele>
        <time>2015-01-05T19:22:30.666Z</time>
      </trkpt>
      <trkpt lat="48.85681" lon="2.34674">
        <ele>93.4</ele>
        <time>2015-01-05T19:22:31.677Z</time>
      </trkpt>
      <trkpt lat="48.85674" lon="2.3467">
        <ele>92.9</ele>
        <time>2015-01-05T19:22:33.753Z</time>
      </trkpt>
      <trkpt lat="48.8567" lon="2.34668">
        <ele>92.9</ele>
        <time>2015-01-05T19:22:34.633Z</time>
      </trkpt>
      <trkpt lat="48.85664" lon="2.34664">
        <ele>92.9</ele>
        <time>2015-01-05T19:22:36.693Z</time>
      </trkpt>
      <trkpt lat="48.85662" lon="2.34663">
        <ele>92.9</ele>
        <time>2015-01-05T19:22:37.712Z</time>
      </trkpt>
      <trkpt lat="48.85655" lon="2.34658">
        <ele>92.7</ele>
        <time>2015-01-05T19:22:39.731Z</time>
      </trkpt>
      <trkpt lat="48.85652" lon="2.34656">
        <ele>92.6</ele>
        <time>2015-01-05T19:22:40.776Z</time>
      </trkpt>
      <trkpt lat="48.85646" lon="2.34652">
        <ele>92.6</ele>
        <time>2015-01-05T19:22:42.668Z</time>
      </trkpt>
      <trkpt lat="48.85644" lon="2.3465">
        <ele>92.3</ele>
        <time>2015-01-05T19:22:43.677Z</time>
      </trkpt>
      <trkpt lat="48.85636" lon="2.34644">
        <ele>92</ele>
        <time>2015-01-05T19:22:46.758Z</time>
      </trkpt>
      <trkpt lat="48.85632" lon="2.34643">
        <ele>91.5</ele>
        <time>2015-01-05T19:22:47.667Z</time>
      </trkpt>
      <trkpt lat="48.85626" lon="2.3464">
        <ele>91</ele>
        <time>2015-01-05T19:22:49.692Z</time>
      </trkpt>
      <trkpt lat="48.85622" lon="2.34638">
        <ele>90.6</ele>
        <time>2015-01-05T19:22:50.696Z</time>
      </trkpt>
      <trkpt lat="48.85617" lon="2.34633">
        <ele>90.6</ele>
        <time>2015-01-05T19:22:52.790Z</time>
      </trkpt>
      <trkpt lat="48.85614" lon="2.34631">
        <ele>90.5</ele>
        <time>2015-01-05T19:22:53.652Z</time>
      </trkpt>
      <trkpt lat="48.85609" lon="2.34627">
        <ele>90.3</ele>
        <time>2015-01-05T19:22:56.406Z</time>
      </trkpt>
      <trkpt lat="48.85606" lon="2.34625">
        <ele>90.3</ele>
        <time>2015-01-05T19:22:56.816Z</time>
      </trkpt>
      <trkpt lat="48.85598" lon="2.34621">
        <ele>90.5</ele>
        <time>2015-01-05T19:22:59.779Z</time>
      </trkpt>
      <trkpt lat="48.85595" lon="2.34619">
        <ele>90.6</ele>
        <time>2015-01-05T19:23:00.669Z</time>
      </trkpt>
      <trkpt lat="48.85587" lon="2.34613">
        <ele>90.8</ele>
        <time>2015-01-05T19:23:04.725Z</time>
      </trkpt>
      <trkpt lat="48.85584" lon="2.34611">
        <ele>90.9</ele>
        <time>2015-01-05T19:23:05.741Z</time>
      </trkpt>
      <trkpt lat="48.85575" lon="2.34608">
        <ele>91</ele>
        <time>2015-01-05T19:23:07.662Z</time>
      </trkpt>
      <trkpt lat="48.85571" lon="2.34607">
        <ele>91</ele>
        <time>2015-01-05T19:23:08.684Z</time>
      </trkpt>
      <trkpt lat="48.85567" lon="2.34605">
        <ele>91.1</ele>
        <time>2015-01-05T19:23:09.721Z</time>
      </trkpt>
      <trkpt lat="48.85562" lon="2.34601">
        <ele>91.4</ele>
        <time>2015-01-05T19:23:10.732Z</time>
      </trkpt>
      <trkpt lat="48.85555" lon="2.34594">
        <ele>91.5</ele>
        <time>2015-01-05T19:23:12.647Z</time>
      </trkpt>
      <trkpt lat="48.85552" lon="2.34589">
        <ele>91.6</ele>
        <time>2015-01-05T19:23:13.685Z</time>
      </trkpt>
      <trkpt lat="48.85547" lon="2.34581">
        <ele>91.9</ele>
        <time>2015-01-05T19:23:15.722Z</time>
      </trkpt>
      <trkpt lat="48.85544" lon="2.34578">
        <ele>91.9</ele>
        <time>2015-01-05T19:23:16.778Z</time>
      </trkpt>
      <trkpt lat="48.85538" lon="2.34573">
        <ele>92.2</ele>
        <time>2015-01-05T19:23:18.679Z</time>
      </trkpt>
      <trkpt lat="48.85534" lon="2.3457">
        <ele>92.2</ele>
        <time>2015-01-05T19:23:19.697Z</time>
      </trkpt>
      <trkpt lat="48.85529" lon="2.34566">
        <ele>92.3</ele>
        <time>2015-01-05T19:23:20.729Z</time>
      </trkpt>
      <trkpt lat="48.85525" lon="2.34562">
        <ele>92.4</ele>
        <time>2015-01-05T19:23:21.732Z</time>
      </trkpt>
      <trkpt lat="48.8552" lon="2.34559">
        <ele>92.4</ele>
        <time>2015-01-05T19:23:22.741Z</time>
      </trkpt>
      <trkpt lat="48.85517" lon="2.34556">
        <ele>92.5</ele>
        <time>2015-01-05T19:23:23.746Z</time>
      </trkpt>
      <trkpt lat="48.85512" lon="2.34552">
        <ele>92.5</ele>
        <time>2015-01-05T19:23:24.642Z</time>
      </trkpt>
      <trkpt lat="48.85508" lon="2.34548">
        <ele>92.5</ele>
        <time>2015-01-05T19:23:25.678Z</time>
      </trkpt>
      <trkpt lat="48.85502" lon="2.34543">
        <ele>92.5</ele>
        <time>2015-01-05T19:23:27.841Z</time>
      </trkpt>
      <trkpt lat="48.85499" lon="2.3454">
        <ele>92.5</ele>
        <time>2015-01-05T19:23:28.734Z</time>
      </trkpt>
      <trkpt lat="48.85494" lon="2.34537">
        <ele>92.6</ele>
        <time>2015-01-05T19:23:29.669Z</time>
      </trkpt>
      <trkpt lat="48.8549" lon="2.34533">
        <ele>92.7</ele>
        <time>2015-01-05T19:23:30.671Z</time>
      </trkpt>
      <trkpt lat="48.85486" lon="2.3453">
        <ele>92.7</ele>
        <time>2015-01-05T19:23:31.683Z</time>
      </trkpt>
      <trkpt lat="48.85481" lon="2.34527">
        <ele>92.7</ele>
        <time>2015-01-05T19:23:32.727Z</time>
      </trkpt>
      <trkpt lat="48.85476" lon="2.34523">
        <ele>92.7</ele>
        <time>2015-01-05T19:23:33.645Z</time>
      </trkpt>
      <trkpt lat="48.85471" lon="2.34517">
        <ele>92.5</ele>
        <time>2015-01-05T19:23:34.676Z</time>
      </trkpt>
      <trkpt lat="48.85467" lon="2.34512">
        <ele>92.4</ele>
        <time>2015-01-05T19:23:35.695Z</time>
      </trkpt>
      <trkpt lat="48.85463" lon="2.34507">
        <ele>92.3</ele>
        <time>2015-01-05T19:23:36.726Z</time>
      </trkpt>
      <trkpt lat="48.85458" lon="2.34501">
        <ele>92.2</ele>
        <time>2015-01-05T19:23:37.926Z</time>
      </trkpt>
      <trkpt lat="48.85453" lon="2.34496">
        <ele>92.3</ele>
        <time>2015-01-05T19:23:38.693Z</time>
      </trkpt>
      <trkpt lat="48.85447" lon="2.34492">
        <ele>92.2</ele>
        <time>2015-01-05T19:23:39.692Z</time>
      </trkpt>
      <trkpt lat="48.85443" lon="2.34487">
        <ele>92</ele>
        <time>2015-01-05T19:23:40.701Z</time>
      </trkpt>
      <trkpt lat="48.85438" lon="2.34483">
        <ele>92</ele>
        <time>2015-01-05T19:23:41.725Z</time>
      </trkpt>
      <trkpt lat="48.85433" lon="2.34478">
        <ele>92.3</ele>
        <time>2015-01-05T19:23:42.745Z</time>
      </trkpt>
      <trkpt lat="48.85427" lon="2.34473">
        <ele>92.4</ele>
        <time>2015-01-05T19:23:43.685Z</time>
      </trkpt>
      <trkpt lat="48.85422" lon="2.34469">
        <ele>92.5</ele>
        <time>2015-01-05T19:23:44.803Z</time>
      </trkpt>
      <trkpt lat="48.85415" lon="2.34462">
        <ele>92.2</ele>
        <time>2015-01-05T19:23:46.678Z</time>
      </trkpt>
      <trkpt lat="48.85411" lon="2.3446">
        <ele>91.9</ele>
        <time>2015-01-05T19:23:47.690Z</time>
      </trkpt>
      <trkpt lat="48.85405" lon="2.34454">
        <ele>91.2</ele>
        <time>2015-01-05T19:23:49.691Z</time>
      </trkpt>
      <trkpt lat="48.85402" lon="2.34452">
        <ele>91</ele>
        <time>2015-01-05T19:23:50.725Z</time>
      </trkpt>
      <trkpt lat="48.85396" lon="2.34447">
        <ele>90.4</ele>
        <time>2015-01-05T19:23:52.683Z</time>
      </trkpt>
      <trkpt lat="48.85394" lon="2.34444">
        <ele>90.3</ele>
        <time>2015-01-05T19:23:53.682Z</time>
      </trkpt>
      <trkpt lat="48.85388" lon="2.34439">
        <ele>89.5</ele>
        <time>2015-01-05T19:23:58.695Z</time>
      </trkpt>
      <trkpt lat="48.85388" lon="2.34439">
        <ele>89.5</ele>
        <time>2015-01-05T19:23:59.704Z</time>
      </trkpt>
      <trkpt lat="48.85388" lon="2.34439">
        <ele>89.3</ele>
        <time>2015-01-05T19:24:10.665Z</time>
      </trkpt>
      <trkpt lat="48.85385" lon="2.34441">
        <ele>84.9</ele>
        <time>2015-01-05T19:24:11.677Z</time>
      </trkpt>
      <trkpt lat="48.85384" lon="2.34442">
        <ele>85.3</ele>
        <time>2015-01-05T19:24:12.710Z</time>
      </trkpt>
      <trkpt lat="48.85383" lon="2.34443">
        <ele>86.2</ele>
        <time>2015-01-05T19:24:13.737Z</time>
      </trkpt>
      <trkpt lat="48.85383" lon="2.34444">
        <ele>86.4</ele>
        <time>2015-01-05T19:24:14.772Z</time>
      </trkpt>
      <trkpt lat="48.85382" lon="2.34444">
        <ele>87</ele>
        <time>2015-01-05T19:24:15.685Z</time>
      </trkpt>
      <trkpt lat="48.85378" lon="2.34438">
        <ele>86</ele>
        <time>2015-01-05T19:24:18.736Z</time>
      </trkpt>
      <trkpt lat="48.85375" lon="2.34434">
        <ele>85.4</ele>
        <time>2015-01-05T19:24:19.756Z</time>
      </trkpt>
      <trkpt lat="48.85372" lon="2.34425">
        <ele>84.3</ele>
        <time>2015-01-05T19:24:21.669Z</time>
      </trkpt>
      <trkpt lat="48.85369" lon="2.3442">
        <ele>83.9</ele>
        <time>2015-01-05T19:24:22.678Z</time>
      </trkpt>
      <trkpt lat="48.85366" lon="2.34416">
        <ele>84</ele>
        <time>2015-01-05T19:24:23.685Z</time>
      </trkpt>
      <trkpt lat="48.85362" lon="2.34411">
        <ele>84.1</ele>
        <time>2015-01-05T19:24:24.696Z</time>
      </trkpt>
      <trkpt lat="48.85355" lon="2.34401">
        <ele>84.3</ele>
        <time>2015-01-05T19:24:26.727Z</time>
      </trkpt>
      <trkpt lat="48.8535" lon="2.34395">
        <ele>83.9</ele>
        <time>2015-01-05T19:24:27.744Z</time>
      </trkpt>
      <trkpt lat="48.85343" lon="2.34388">
        <ele>83.5</ele>
        <time>2015-01-05T19:24:28.749Z</time>
      </trkpt>
      <trkpt lat="48.85338" lon="2.34381">
        <ele>83.1</ele>
        <time>2015-01-05T19:24:29.766Z</time>
      </trkpt>
      <trkpt lat="48.85333" lon="2.34374">
        <ele>83</ele>
        <time>2015-01-05T19:24:30.690Z</time>
      </trkpt>
      <trkpt lat="48.85329" lon="2.34368">
        <ele>82.8</ele>
        <time>2015-01-05T19:24:31.678Z</time>
      </trkpt>
      <trkpt lat="48.85327" lon="2.34362">
        <ele>82.8</ele>
        <time>2015-01-05T19:24:32.731Z</time>
      </trkpt>
      <trkpt lat="48.85323" lon="2.34356">
        <ele>83.1</ele>
        <time>2015-01-05T19:24:33.732Z</time>
      </trkpt>
      <trkpt lat="48.85319" lon="2.3435">
        <ele>83.2</ele>
        <time>2015-01-05T19:24:34.675Z</time>
      </trkpt>
      <trkpt lat="48.85316" lon="2.34345">
        <ele>83.3</ele>
        <time>2015-01-05T19:24:35.678Z</time>
      </trkpt>
      <trkpt lat="48.8531" lon="2.34335">
        <ele>83.3</ele>
        <time>2015-01-05T19:24:37.696Z</time>
      </trkpt>
      <trkpt lat="48.85307" lon="2.34332">
        <ele>83.1</ele>
        <time>2015-01-05T19:24:38.776Z</time>
      </trkpt>
      <trkpt lat="48.85301" lon="2.34324">
        <ele>82.7</ele>
        <time>2015-01-05T19:24:41.684Z</time>
      </trkpt>
      <trkpt lat="48.85302" lon="2.3432">
        <ele>82.2</ele>
        <time>2015-01-05T19:24:42.696Z</time>
      </trkpt>
      <trkpt lat="48.853" lon="2.34311">
        <ele>81.7</ele>
        <time>2015-01-05T19:24:44.720Z</time>
      </trkpt>
      <trkpt lat="48.85298" lon="2.34306">
        <ele>81.6</ele>
        <time>2015-01-05T19:24:45.734Z</time>
      </trkpt>
      <trkpt lat="48.85295" lon="2.34295">
        <ele>81.4</ele>
        <time>2015-01-05T19:24:48.693Z</time>
      </trkpt>
      <trkpt lat="48.85292" lon="2.3429">
        <ele>81.6</ele>
        <time>2015-01-05T19:24:49.707Z</time>
      </trkpt>
      <trkpt lat="48.85288" lon="2.34282">
        <ele>81.8</ele>
        <time>2015-01-05T19:24:51.655Z</time>
      </trkpt>
      <trkpt lat="48.85286" lon="2.3428">
        <ele>81.9</ele>
        <time>2015-01-05T19:24:52.669Z</time>
      </trkpt>
      <trkpt lat="48.8528" lon="2.34273">
        <ele>82</ele>
        <time>2015-01-05T19:24:55.697Z</time>
      </trkpt>
      <trkpt lat="48.85278" lon="2.34271">
        <ele>82.1</ele>
        <time>2015-01-05T19:24:56.711Z</time>
      </trkpt>
      <trkpt lat="48.85275" lon="2.34264">
        <ele>82.2</ele>
        <time>2015-01-05T19:24:58.657Z</time>
      </trkpt>
      <trkpt lat="48.85272" lon="2.3426">
        <ele>82.3</ele>
        <time>2015-01-05T19:24:59.776Z</time>
      </trkpt>
      <trkpt lat="48.85269" lon="2.34252">
        <ele>82.6</ele>
        <time>2015-01-05T19:25:01.656Z</time>
      </trkpt>
      <trkpt lat="48.85267" lon="2.34246">
        <ele>83.3</ele>
        <time>2015-01-05T19:25:02.731Z</time>
      </trkpt>
      <trkpt lat="48.85264" lon="2.34239">
        <ele>83.7</ele>
        <time>2015-01-05T19:25:03.728Z</time>
      </trkpt>
      <trkpt lat="48.85261" lon="2.34233">
        <ele>84.1</ele>
        <time>2015-01-05T19:25:04.733Z</time>
      </trkpt>
      <trkpt lat="48.85256" lon="2.34223">
        <ele>84.5</ele>
        <time>2015-01-05T19:25:06.655Z</time>
      </trkpt>
      <trkpt lat="48.85252" lon="2.3422">
        <ele>84.7</ele>
        <time>2015-01-05T19:25:07.666Z</time>
      </trkpt>
      <trkpt lat="48.85252" lon="2.34215">
        <ele>84.7</ele>
        <time>2015-01-05T19:25:08.721Z</time>
      </trkpt>
      <trkpt lat="48.85253" lon="2.34205">
        <ele>84</ele>
        <time>2015-01-05T19:25:09.724Z</time>
      </trkpt>
      <trkpt lat="48.85253" lon="2.34194">
        <ele>83.6</ele>
        <time>2015-01-05T19:25:10.740Z</time>
      </trkpt>
      <trkpt lat="48.8525" lon="2.34185">
        <ele>83.4</ele>
        <time>2015-01-05T19:25:11.652Z</time>
      </trkpt>
      <trkpt lat="48.85244" lon="2.34172">
        <ele>82.8</ele>
        <time>2015-01-05T19:25:12.665Z</time>
      </trkpt>
      <trkpt lat="48.85239" lon="2.34165">
        <ele>82.6</ele>
        <time>2015-01-05T19:25:13.669Z</time>
      </trkpt>
      <trkpt lat="48.85236" lon="2.34157">
        <ele>82.3</ele>
        <time>2015-01-05T19:25:14.691Z</time>
      </trkpt>
      <trkpt lat="48.85235" lon="2.3415">
        <ele>82</ele>
        <time>2015-01-05T19:25:15.690Z</time>
      </trkpt>
      <trkpt lat="48.85234" lon="2.34143">
        <ele>82.1</ele>
        <time>2015-01-05T19:25:16.698Z</time>
      </trkpt>
      <trkpt lat="48.85233" lon="2.34136">
        <ele>81.9</ele>
        <time>2015-01-05T19:25:17.733Z</time>
      </trkpt>
      <trkpt lat="48.85231" lon="2.34129">
        <ele>81.7</ele>
        <time>2015-01-05T19:25:18.725Z</time>
      </trkpt>
      <trkpt lat="48.8523" lon="2.34117">
        <ele>81.9</ele>
        <time>2015-01-05T19:25:20.767Z</time>
      </trkpt>
      <trkpt lat="48.8523" lon="2.3411">
        <ele>82.1</ele>
        <time>2015-01-05T19:25:21.666Z</time>
      </trkpt>
      <trkpt lat="48.85231" lon="2.34098">
        <ele>82.4</ele>
        <time>2015-01-05T19:25:23.743Z</time>
      </trkpt>
      <trkpt lat="48.85232" lon="2.34091">
        <ele>82.4</ele>
        <time>2015-01-05T19:25:24.752Z</time>
      </trkpt>
      <trkpt lat="48.85232" lon="2.34085">
        <ele>82.5</ele>
        <time>2015-01-05T19:25:25.667Z</time>
      </trkpt>
      <trkpt lat="48.85233" lon="2.34074">
        <ele>84.3</ele>
        <time>2015-01-05T19:25:26.697Z</time>
      </trkpt>
      <trkpt lat="48.8523" lon="2.34064">
        <ele>84.4</ele>
        <time>2015-01-05T19:25:28.724Z</time>
      </trkpt>
      <trkpt lat="48.85228" lon="2.34061">
        <ele>84.1</ele>
        <time>2015-01-05T19:25:29.683Z</time>
      </trkpt>
      <trkpt lat="48.85224" lon="2.34051">
        <ele>83.6</ele>
        <time>2015-01-05T19:25:33.707Z</time>
      </trkpt>
      <trkpt lat="48.85223" lon="2.34048">
        <ele>83.6</ele>
        <time>2015-01-05T19:25:34.688Z</time>
      </trkpt>
      <trkpt lat="48.85218" lon="2.3404">
        <ele>84</ele>
        <time>2015-01-05T19:25:38.800Z</time>
      </trkpt>
      <trkpt lat="48.85217" lon="2.34039">
        <ele>83.9</ele>
        <time>2015-01-05T19:25:39.665Z</time>
      </trkpt>
      <trkpt lat="48.85216" lon="2.34038">
        <ele>84</ele>
        <time>2015-01-05T19:25:40.701Z</time>
      </trkpt>
      <trkpt lat="48.85215" lon="2.34039">
        <ele>84.1</ele>
        <time>2015-01-05T19:25:41.710Z</time>
      </trkpt>
      <trkpt lat="48.85215" lon="2.34039">
        <ele>84</ele>
        <time>2015-01-05T19:25:42.726Z</time>
      </trkpt>
      <trkpt lat="48.85215" lon="2.34039">
        <ele>83.7</ele>
        <time>2015-01-05T19:25:43.741Z</time>
      </trkpt>
      <trkpt lat="48.8521" lon="2.34037">
        <ele>83.9</ele>
        <time>2015-01-05T19:25:53.708Z</time>
      </trkpt>
      <trkpt lat="48.85199" lon="2.34031">
        <ele>85</ele>
        <time>2015-01-05T19:25:54.721Z</time>
      </trkpt>
      <trkpt lat="48.85198" lon="2.34021">
        <ele>84.3</ele>
        <time>2015-01-05T19:25:58.658Z</time>
      </trkpt>
      <trkpt lat="48.85197" lon="2.34018">
        <ele>84.1</ele>
        <time>2015-01-05T19:25:59.661Z</time>
      </trkpt>
      <trkpt lat="48.85194" lon="2.34006">
        <ele>83.5</ele>
        <time>2015-01-05T19:26:02.725Z</time>
      </trkpt>
      <trkpt lat="48.85192" lon="2.34004">
        <ele>83.5</ele>
        <time>2015-01-05T19:26:03.663Z</time>
      </trkpt>
      <trkpt lat="48.85187" lon="2.34001">
        <ele>83.5</ele>
        <time>2015-01-05T19:26:07.771Z</time>
      </trkpt>
      <trkpt lat="48.85182" lon="2.33998">
        <ele>83.5</ele>
        <time>2015-01-05T19:26:08.776Z</time>
      </trkpt>
      <trkpt lat="48.85179" lon="2.33986">
        <ele>86.3</ele>
        <time>2015-01-05T19:26:20.769Z</time>
      </trkpt>
      <trkpt lat="48.85179" lon="2.33982">
        <ele>86.1</ele>
        <time>2015-01-05T19:26:21.654Z</time>
      </trkpt>
      <trkpt lat="48.8518" lon="2.33971">
        <ele>86</ele>
        <time>2015-01-05T19:26:24.710Z</time>
      </trkpt>
      <trkpt lat="48.8518" lon="2.33968">
        <ele>86</ele>
        <time>2015-01-05T19:26:25.757Z</time>
      </trkpt>
      <trkpt lat="48.8518" lon="2.33955">
        <ele>86.8</ele>
        <time>2015-01-05T19:26:32.719Z</time>
      </trkpt>
      <trkpt lat="48.85178" lon="2.33953">
        <ele>87.4</ele>
        <time>2015-01-05T19:26:33.652Z</time>
      </trkpt>
      <trkpt lat="48.85173" lon="2.33952">
        <ele>87.5</ele>
        <time>2015-01-05T19:26:34.677Z</time>
      </trkpt>
      <trkpt lat="48.85168" lon="2.33952">
        <ele>87.5</ele>
        <time>2015-01-05T19:26:35.682Z</time>
      </trkpt>
      <trkpt lat="48.85115" lon="2.33955">
        <ele>87.4</ele>
        <time>2015-01-05T19:26:51.690Z</time>
      </trkpt>
      <trkpt lat="48.85076" lon="2.33974">
        <ele>88.2</ele>
        <time>2015-01-05T19:27:03.653Z</time>
      </trkpt>
      <trkpt lat="48.85072" lon="2.33979">
        <ele>88.4</ele>
        <time>2015-01-05T19:27:06.538Z</time>
      </trkpt>
      <trkpt lat="48.85068" lon="2.33981">
        <ele>88.5</ele>
        <time>2015-01-05T19:27:06.685Z</time>
      </trkpt>
      <trkpt lat="48.8506" lon="2.33983">
        <ele>88.8</ele>
        <time>2015-01-05T19:27:08.680Z</time>
      </trkpt>
      <trkpt lat="48.85054" lon="2.33984">
        <ele>88.8</ele>
        <time>2015-01-05T19:27:09.720Z</time>
      </trkpt>
      <trkpt lat="48.85049" lon="2.33985">
        <ele>88.8</ele>
        <time>2015-01-05T19:27:10.649Z</time>
      </trkpt>
      <trkpt lat="48.85044" lon="2.33985">
        <ele>88.9</ele>
        <time>2015-01-05T19:27:11.668Z</time>
      </trkpt>
      <trkpt lat="48.85036" lon="2.33985">
        <ele>88.8</ele>
        <time>2015-01-05T19:27:12.669Z</time>
      </trkpt>
      <trkpt lat="48.8503" lon="2.33987">
        <ele>88.9</ele>
        <time>2015-01-05T19:27:13.679Z</time>
      </trkpt>
      <trkpt lat="48.85024" lon="2.33996">
        <ele>89</ele>
        <time>2015-01-05T19:27:16.698Z</time>
      </trkpt>
      <trkpt lat="48.85023" lon="2.33998">
        <ele>89</ele>
        <time>2015-01-05T19:27:17.650Z</time>
      </trkpt>
      <trkpt lat="48.85017" lon="2.34003">
        <ele>88.9</ele>
        <time>2015-01-05T19:27:19.693Z</time>
      </trkpt>
      <trkpt lat="48.85014" lon="2.34006">
        <ele>88.9</ele>
        <time>2015-01-05T19:27:20.699Z</time>
      </trkpt>
      <trkpt lat="48.85009" lon="2.34015">
        <ele>89.4</ele>
        <time>2015-01-05T19:27:23.729Z</time>
      </trkpt>
      <trkpt lat="48.85009" lon="2.34019">
        <ele>89.9</ele>
        <time>2015-01-05T19:27:24.644Z</time>
      </trkpt>
      <trkpt lat="48.85008" lon="2.3403">
        <ele>90.5</ele>
        <time>2015-01-05T19:27:27.779Z</time>
      </trkpt>
      <trkpt lat="48.85008" lon="2.34033">
        <ele>90.7</ele>
        <time>2015-01-05T19:27:28.694Z</time>
      </trkpt>
      <trkpt lat="48.85009" lon="2.34046">
        <ele>91</ele>
        <time>2015-01-05T19:27:32.866Z</time>
      </trkpt>
      <trkpt lat="48.8501" lon="2.34049">
        <ele>91.1</ele>
        <time>2015-01-05T19:27:33.633Z</time>
      </trkpt>
      <trkpt lat="48.85012" lon="2.3406">
        <ele>91.2</ele>
        <time>2015-01-05T19:27:36.654Z</time>
      </trkpt>
      <trkpt lat="48.85013" lon="2.34064">
        <ele>91.1</ele>
        <time>2015-01-05T19:27:37.682Z</time>
      </trkpt>
      <trkpt lat="48.85015" lon="2.34077">
        <ele>91</ele>
        <time>2015-01-05T19:27:40.706Z</time>
      </trkpt>
      <trkpt lat="48.85015" lon="2.3408">
        <ele>91</ele>
        <time>2015-01-05T19:27:41.725Z</time>
      </trkpt>
      <trkpt lat="48.85016" lon="2.34093">
        <ele>91.4</ele>
        <time>2015-01-05T19:27:44.839Z</time>
      </trkpt>
      <trkpt lat="48.85016" lon="2.34098">
        <ele>91.5</ele>
        <time>2015-01-05T19:27:45.652Z</time>
      </trkpt>
      <trkpt lat="48.85017" lon="2.34108">
        <ele>91.5</ele>
        <time>2015-01-05T19:27:48.143Z</time>
      </trkpt>
      <trkpt lat="48.85017" lon="2.34113">
        <ele>91.5</ele>
        <time>2015-01-05T19:27:48.652Z</time>
      </trkpt>
      <trkpt lat="48.85018" lon="2.34122">
        <ele>91.5</ele>
        <time>2015-01-05T19:27:50.666Z</time>
      </trkpt>
      <trkpt lat="48.8502" lon="2.34127">
        <ele>91.3</ele>
        <time>2015-01-05T19:27:51.661Z</time>
      </trkpt>
      <trkpt lat="48.85024" lon="2.34137">
        <ele>91</ele>
        <time>2015-01-05T19:27:53.710Z</time>
      </trkpt>
      <trkpt lat="48.85026" lon="2.34141">
        <ele>91</ele>
        <time>2015-01-05T19:27:54.730Z</time>
      </trkpt>
      <trkpt lat="48.85025" lon="2.34148">
        <ele>90.8</ele>
        <time>2015-01-05T19:27:56.719Z</time>
      </trkpt>
      <trkpt lat="48.85024" lon="2.34154">
        <ele>91</ele>
        <time>2015-01-05T19:27:57.698Z</time>
      </trkpt>
      <trkpt lat="48.85023" lon="2.34166">
        <ele>91.1</ele>
        <time>2015-01-05T19:27:59.648Z</time>
      </trkpt>
      <trkpt lat="48.85024" lon="2.34171">
        <ele>90.9</ele>
        <time>2015-01-05T19:28:00.652Z</time>
      </trkpt>
      <trkpt lat="48.85024" lon="2.34183">
        <ele>89.5</ele>
        <time>2015-01-05T19:28:02.741Z</time>
      </trkpt>
      <trkpt lat="48.85025" lon="2.3419">
        <ele>88.5</ele>
        <time>2015-01-05T19:28:03.697Z</time>
      </trkpt>
      <trkpt lat="48.85025" lon="2.34197">
        <ele>87.6</ele>
        <time>2015-01-05T19:28:05.428Z</time>
      </trkpt>
      <trkpt lat="48.85026" lon="2.34204">
        <ele>86.2</ele>
        <time>2015-01-05T19:28:05.641Z</time>
      </trkpt>
      <trkpt lat="48.85028" lon="2.34211">
        <ele>85.4</ele>
        <time>2015-01-05T19:28:06.652Z</time>
      </trkpt>
      <trkpt lat="48.85028" lon="2.34217">
        <ele>84.7</ele>
        <time>2015-01-05T19:28:07.687Z</time>
      </trkpt>
      <trkpt lat="48.85029" lon="2.34231">
        <ele>85.3</ele>
        <time>2015-01-05T19:28:09.706Z</time>
      </trkpt>
      <trkpt lat="48.85029" lon="2.34236">
        <ele>85.2</ele>
        <time>2015-01-05T19:28:10.720Z</time>
      </trkpt>
      <trkpt lat="48.85028" lon="2.34245">
        <ele>84.7</ele>
        <time>2015-01-05T19:28:13.514Z</time>
      </trkpt>
      <trkpt lat="48.85026" lon="2.3425">
        <ele>84.5</ele>
        <time>2015-01-05T19:28:13.659Z</time>
      </trkpt>
      <trkpt lat="48.85024" lon="2.34259">
        <ele>84.5</ele>
        <time>2015-01-05T19:28:15.727Z</time>
      </trkpt>
      <trkpt lat="48.85022" lon="2.34263">
        <ele>84.6</ele>
        <time>2015-01-05T19:28:16.741Z</time>
      </trkpt>
      <trkpt lat="48.85019" lon="2.34272">
        <ele>85</ele>
        <time>2015-01-05T19:28:18.661Z</time>
      </trkpt>
      <trkpt lat="48.85017" lon="2.34277">
        <ele>85.3</ele>
        <time>2015-01-05T19:28:19.677Z</time>
      </trkpt>
      <trkpt lat="48.85014" lon="2.34284">
        <ele>85.3</ele>
        <time>2015-01-05T19:28:21.727Z</time>
      </trkpt>
      <trkpt lat="48.85011" lon="2.34287">
        <ele>85.3</ele>
        <time>2015-01-05T19:28:22.737Z</time>
      </trkpt>
      <trkpt lat="48.85006" lon="2.34298">
        <ele>85.2</ele>
        <time>2015-01-05T19:28:25.687Z</time>
      </trkpt>
      <trkpt lat="48.85006" lon="2.34302">
        <ele>85.2</ele>
        <time>2015-01-05T19:28:26.702Z</time>
      </trkpt>
      <trkpt lat="48.85005" lon="2.34312">
        <ele>84.4</ele>
        <time>2015-01-05T19:28:28.717Z</time>
      </trkpt>
      <trkpt lat="48.85003" lon="2.34317">
        <ele>84.3</ele>
        <time>2015-01-05T19:28:29.728Z</time>
      </trkpt>
      <trkpt lat="48.85001" lon="2.34327">
        <ele>83.8</ele>
        <time>2015-01-05T19:28:31.660Z</time>
      </trkpt>
      <trkpt lat="48.85" lon="2.34331">
        <ele>83.5</ele>
        <time>2015-01-05T19:28:32.827Z</time>
      </trkpt>
      <trkpt lat="48.84997" lon="2.34339">
        <ele>82.9</ele>
        <time>2015-01-05T19:28:34.671Z</time>
      </trkpt>
      <trkpt lat="48.84995" lon="2.34343">
        <ele>82.4</ele>
        <time>2015-01-05T19:28:35.676Z</time>
      </trkpt>
      <trkpt lat="48.84991" lon="2.34355">
        <ele>81.9</ele>
        <time>2015-01-05T19:28:38.744Z</time>
      </trkpt>
      <trkpt lat="48.84989" lon="2.34359">
        <ele>81.8</ele>
        <time>2015-01-05T19:28:39.657Z</time>
      </trkpt>
      <trkpt lat="48.84986" lon="2.34367">
        <ele>81.4</ele>
        <time>2015-01-05T19:28:41.797Z</time>
      </trkpt>
      <trkpt lat="48.84984" lon="2.34372">
        <ele>81.2</ele>
        <time>2015-01-05T19:28:42.694Z</time>
      </trkpt>
      <trkpt lat="48.84981" lon="2.34381">
        <ele>81.2</ele>
        <time>2015-01-05T19:28:44.798Z</time>
      </trkpt>
      <trkpt lat="48.8498" lon="2.34386">
        <ele>81.3</ele>
        <time>2015-01-05T19:28:45.665Z</time>
      </trkpt>
      <trkpt lat="48.84978" lon="2.34397">
        <ele>81.2</ele>
        <time>2015-01-05T19:28:47.980Z</time>
      </trkpt>
      <trkpt lat="48.84976" lon="2.34402">
        <ele>81.1</ele>
        <time>2015-01-05T19:28:48.713Z</time>
      </trkpt>
      <trkpt lat="48.84973" lon="2.34411">
        <ele>81.3</ele>
        <time>2015-01-05T19:28:50.697Z</time>
      </trkpt>
      <trkpt lat="48.84971" lon="2.34416">
        <ele>81.5</ele>
        <time>2015-01-05T19:28:51.696Z</time>
      </trkpt>
      <trkpt lat="48.84968" lon="2.34427">
        <ele>81.7</ele>
        <time>2015-01-05T19:28:53.650Z</time>
      </trkpt>
      <trkpt lat="48.84966" lon="2.34433">
        <ele>81.6</ele>
        <time>2015-01-05T19:28:54.678Z</time>
      </trkpt>
      <trkpt lat="48.84963" lon="2.34443">
        <ele>81.4</ele>
        <time>2015-01-05T19:28:56.740Z</time>
      </trkpt>
      <trkpt lat="48.84962" lon="2.34449">
        <ele>81</ele>
        <time>2015-01-05T19:28:57.689Z</time>
      </trkpt>
      <trkpt lat="48.84959" lon="2.34461">
        <ele>80.4</ele>
        <time>2015-01-05T19:28:59.703Z</time>
      </trkpt>
      <trkpt lat="48.84957" lon="2.34466">
        <ele>80.3</ele>
        <time>2015-01-05T19:29:00.713Z</time>
      </trkpt>
      <trkpt lat="48.84955" lon="2.34477">
        <ele>79.9</ele>
        <time>2015-01-05T19:29:03.166Z</time>
      </trkpt>
      <trkpt lat="48.84954" lon="2.34482">
        <ele>79.9</ele>
        <time>2015-01-05T19:29:03.672Z</time>
      </trkpt>
      <trkpt lat="48.84952" lon="2.34494">
        <ele>80.7</ele>
        <time>2015-01-05T19:29:05.717Z</time>
      </trkpt>
      <trkpt lat="48.84951" lon="2.34499">
        <ele>80.7</ele>
        <time>2015-01-05T19:29:06.636Z</time>
      </trkpt>
      <trkpt lat="48.84948" lon="2.3451">
        <ele>80.9</ele>
        <time>2015-01-05T19:29:08.691Z</time>
      </trkpt>
      <trkpt lat="48.84947" lon="2.34515">
        <ele>81</ele>
        <time>2015-01-05T19:29:09.700Z</time>
      </trkpt>
      <trkpt lat="48.84944" lon="2.34526">
        <ele>81</ele>
        <time>2015-01-05T19:29:11.669Z</time>
      </trkpt>
      <trkpt lat="48.84943" lon="2.34532">
        <ele>80.9</ele>
        <time>2015-01-05T19:29:12.660Z</time>
      </trkpt>
      <trkpt lat="48.8494" lon="2.34544">
        <ele>81</ele>
        <time>2015-01-05T19:29:14.691Z</time>
      </trkpt>
      <trkpt lat="48.84939" lon="2.3455">
        <ele>81.4</ele>
        <time>2015-01-05T19:29:15.697Z</time>
      </trkpt>
      <trkpt lat="48.84935" lon="2.34561">
        <ele>81.2</ele>
        <time>2015-01-05T19:29:18.439Z</time>
      </trkpt>
      <trkpt lat="48.84934" lon="2.34567">
        <ele>81.4</ele>
        <time>2015-01-05T19:29:18.640Z</time>
      </trkpt>
      <trkpt lat="48.84932" lon="2.34578">
        <ele>81.2</ele>
        <time>2015-01-05T19:29:20.728Z</time>
      </trkpt>
      <trkpt lat="48.84931" lon="2.34583">
        <ele>81.1</ele>
        <time>2015-01-05T19:29:21.729Z</time>
      </trkpt>
      <trkpt lat="48.84929" lon="2.34593">
        <ele>80.9</ele>
        <time>2015-01-05T19:29:23.843Z</time>
      </trkpt>
      <trkpt lat="48.84928" lon="2.34598">
        <ele>81</ele>
        <time>2015-01-05T19:29:24.658Z</time>
      </trkpt>
      <trkpt lat="48.84927" lon="2.34608">
        <ele>81</ele>
        <time>2015-01-05T19:29:26.676Z</time>
      </trkpt>
      <trkpt lat="48.84926" lon="2.34613">
        <ele>81</ele>
        <time>2015-01-05T19:29:27.682Z</time>
      </trkpt>
      <trkpt lat="48.84924" lon="2.34624">
        <ele>81.3</ele>
        <time>2015-01-05T19:29:29.698Z</time>
      </trkpt>
      <trkpt lat="48.84922" lon="2.34629">
        <ele>81.5</ele>
        <time>2015-01-05T19:29:30.712Z</time>
      </trkpt>
      <trkpt lat="48.84918" lon="2.34638">
        <ele>81</ele>
        <time>2015-01-05T19:29:32.748Z</time>
      </trkpt>
      <trkpt lat="48.84915" lon="2.34641">
        <ele>81</ele>
        <time>2015-01-05T19:29:33.643Z</time>
      </trkpt>
      <trkpt lat="48.84908" lon="2.34644">
        <ele>82.5</ele>
        <time>2015-01-05T19:29:36.704Z</time>
      </trkpt>
      <trkpt lat="48.84906" lon="2.34643">
        <ele>83.1</ele>
        <time>2015-01-05T19:29:37.734Z</time>
      </trkpt>
      <trkpt lat="48.84897" lon="2.34641">
        <ele>86</ele>
        <time>2015-01-05T19:29:43.416Z</time>
      </trkpt>
      <trkpt lat="48.84895" lon="2.34641">
        <ele>85.7</ele>
        <time>2015-01-05T19:29:43.711Z</time>
      </trkpt>
      <trkpt lat="48.84887" lon="2.34643">
        <ele>86.4</ele>
        <time>2015-01-05T19:29:48.469Z</time>
      </trkpt>
      <trkpt lat="48.84885" lon="2.34644">
        <ele>86.3</ele>
        <time>2015-01-05T19:29:48.670Z</time>
      </trkpt>
      <trkpt lat="48.84878" lon="2.34647">
        <ele>87.6</ele>
        <time>2015-01-05T19:29:55.676Z</time>
      </trkpt>
      <trkpt lat="48.84876" lon="2.34648">
        <ele>87.4</ele>
        <time>2015-01-05T19:29:56.799Z</time>
      </trkpt>
      <trkpt lat="48.84867" lon="2.3465">
        <ele>87.3</ele>
        <time>2015-01-05T19:29:59.666Z</time>
      </trkpt>
      <trkpt lat="48.84864" lon="2.3465">
        <ele>87.4</ele>
        <time>2015-01-05T19:30:00.678Z</time>
      </trkpt>
      <trkpt lat="48.84857" lon="2.34649">
        <ele>87.4</ele>
        <time>2015-01-05T19:30:03.644Z</time>
      </trkpt>
      <trkpt lat="48.84854" lon="2.34648">
        <ele>87.4</ele>
        <time>2015-01-05T19:30:03.686Z</time>
      </trkpt>
      <trkpt lat="48.84845" lon="2.34648">
        <ele>87.4</ele>
        <time>2015-01-05T19:30:06.648Z</time>
      </trkpt>
      <trkpt lat="48.84824" lon="2.34664">
        <ele>86.1</ele>
        <time>2015-01-05T19:30:15.702Z</time>
      </trkpt>
      <trkpt lat="48.84817" lon="2.34671">
        <ele>86.2</ele>
        <time>2015-01-05T19:30:18.790Z</time>
      </trkpt>
      <trkpt lat="48.84816" lon="2.34673">
        <ele>86.2</ele>
        <time>2015-01-05T19:30:19.646Z</time>
      </trkpt>
      <trkpt lat="48.84814" lon="2.34685">
        <ele>86.4</ele>
        <time>2015-01-05T19:30:23.817Z</time>
      </trkpt>
      <trkpt lat="48.84813" lon="2.34686">
        <ele>86.4</ele>
        <time>2015-01-05T19:30:24.645Z</time>
      </trkpt>
      <trkpt lat="48.8481" lon="2.34691">
        <ele>86.6</ele>
        <time>2015-01-05T19:30:28.813Z</time>
      </trkpt>
      <trkpt lat="48.8481" lon="2.34692">
        <ele>86.8</ele>
        <time>2015-01-05T19:30:30.650Z</time>
      </trkpt>
      <trkpt lat="48.8481" lon="2.34693">
        <ele>86.7</ele>
        <time>2015-01-05T19:30:31.666Z</time>
      </trkpt>
      <trkpt lat="48.84805" lon="2.34695">
        <ele>87.1</ele>
        <time>2015-01-05T19:30:39.728Z</time>
      </trkpt>
      <trkpt lat="48.84802" lon="2.34702">
        <ele>87.7</ele>
        <time>2015-01-05T19:30:40.739Z</time>
      </trkpt>
      <trkpt lat="48.84795" lon="2.3471">
        <ele>88.6</ele>
        <time>2015-01-05T19:30:45.792Z</time>
      </trkpt>
      <trkpt lat="48.84794" lon="2.34711">
        <ele>88.9</ele>
        <time>2015-01-05T19:30:46.672Z</time>
      </trkpt>
      <trkpt lat="48.84792" lon="2.34723">
        <ele>87</ele>
        <time>2015-01-05T19:31:13.364Z</time>
      </trkpt>
      <trkpt lat="48.84792" lon="2.34724">
        <ele>86.9</ele>
        <time>2015-01-05T19:31:13.770Z</time>
      </trkpt>
      <trkpt lat="48.84792" lon="2.34735">
        <ele>87.1</ele>
        <time>2015-01-05T19:31:26.682Z</time>
      </trkpt>
      <trkpt lat="48.84791" lon="2.34738">
        <ele>87.2</ele>
        <time>2015-01-05T19:31:27.621Z</time>
      </trkpt>
      <trkpt lat="48.84786" lon="2.34749">
        <ele>87.2</ele>
        <time>2015-01-05T19:31:32.935Z</time>
      </trkpt>
      <trkpt lat="48.84785" lon="2.34752">
        <ele>87.2</ele>
        <time>2015-01-05T19:31:33.708Z</time>
      </trkpt>
      <trkpt lat="48.84781" lon="2.3476">
        <ele>86.7</ele>
        <time>2015-01-05T19:31:36.722Z</time>
      </trkpt>
      <trkpt lat="48.8478" lon="2.34763">
        <ele>86.5</ele>
        <time>2015-01-05T19:31:37.722Z</time>
      </trkpt>
      <trkpt lat="48.84775" lon="2.34768">
        <ele>86.1</ele>
        <time>2015-01-05T19:31:39.650Z</time>
      </trkpt>
      <trkpt lat="48.84771" lon="2.34769">
        <ele>85.8</ele>
        <time>2015-01-05T19:31:40.657Z</time>
      </trkpt>
      <trkpt lat="48.84763" lon="2.34771">
        <ele>85.6</ele>
        <time>2015-01-05T19:31:43.101Z</time>
      </trkpt>
      <trkpt lat="48.8476" lon="2.34772">
        <ele>85.3</ele>
        <time>2015-01-05T19:31:43.685Z</time>
      </trkpt>
      <trkpt lat="48.84754" lon="2.34776">
        <ele>84.7</ele>
        <time>2015-01-05T19:31:45.728Z</time>
      </trkpt>
      <trkpt lat="48.84751" lon="2.34779">
        <ele>84.2</ele>
        <time>2015-01-05T19:31:46.679Z</time>
      </trkpt>
      <trkpt lat="48.84745" lon="2.34785">
        <ele>83.8</ele>
        <time>2015-01-05T19:31:48.701Z</time>
      </trkpt>
      <trkpt lat="48.84743" lon="2.34788">
        <ele>83.7</ele>
        <time>2015-01-05T19:31:49.705Z</time>
      </trkpt>
      <trkpt lat="48.84741" lon="2.34792">
        <ele>83.4</ele>
        <time>2015-01-05T19:31:50.723Z</time>
      </trkpt>
      <trkpt lat="48.84745" lon="2.34802">
        <ele>82.8</ele>
        <time>2015-01-05T19:31:51.733Z</time>
      </trkpt>
      <trkpt lat="48.84739" lon="2.34806">
        <ele>82.7</ele>
        <time>2015-01-05T19:31:53.248Z</time>
      </trkpt>
      <trkpt lat="48.84735" lon="2.34807">
        <ele>82.4</ele>
        <time>2015-01-05T19:31:54.652Z</time>
      </trkpt>
      <trkpt lat="48.84732" lon="2.34818">
        <ele>81.4</ele>
        <time>2015-01-05T19:31:58.310Z</time>
      </trkpt>
      <trkpt lat="48.8473" lon="2.34821">
        <ele>81.5</ele>
        <time>2015-01-05T19:31:58.645Z</time>
      </trkpt>
      <trkpt lat="48.84725" lon="2.34829">
        <ele>81.8</ele>
        <time>2015-01-05T19:32:01.792Z</time>
      </trkpt>
      <trkpt lat="48.84722" lon="2.34837">
        <ele>83.5</ele>
        <time>2015-01-05T19:32:02.719Z</time>
      </trkpt>
      <trkpt lat="48.84717" lon="2.34845">
        <ele>84.8</ele>
        <time>2015-01-05T19:32:04.669Z</time>
      </trkpt>
      <trkpt lat="48.84715" lon="2.34848">
        <ele>84.8</ele>
        <time>2015-01-05T19:32:05.652Z</time>
      </trkpt>
      <trkpt lat="48.8471" lon="2.34853">
        <ele>84.9</ele>
        <time>2015-01-05T19:32:08.440Z</time>
      </trkpt>
      <trkpt lat="48.84707" lon="2.34855">
        <ele>84.8</ele>
        <time>2015-01-05T19:32:08.776Z</time>
      </trkpt>
      <trkpt lat="48.84699" lon="2.3486">
        <ele>84.6</ele>
        <time>2015-01-05T19:32:11.715Z</time>
      </trkpt>
      <trkpt lat="48.84697" lon="2.34861">
        <ele>84.5</ele>
        <time>2015-01-05T19:32:12.612Z</time>
      </trkpt>
      <trkpt lat="48.84689" lon="2.34865">
        <ele>84.3</ele>
        <time>2015-01-05T19:32:15.680Z</time>
      </trkpt>
      <trkpt lat="48.84687" lon="2.34867">
        <ele>84.4</ele>
        <time>2015-01-05T19:32:16.688Z</time>
      </trkpt>
      <trkpt lat="48.8468" lon="2.34869">
        <ele>84.6</ele>
        <time>2015-01-05T19:32:18.614Z</time>
      </trkpt>
      <trkpt lat="48.84677" lon="2.34871">
        <ele>84.7</ele>
        <time>2015-01-05T19:32:19.682Z</time>
      </trkpt>
      <trkpt lat="48.8467" lon="2.34876">
        <ele>84.9</ele>
        <time>2015-01-05T19:32:21.707Z</time>
      </trkpt>
      <trkpt lat="48.84666" lon="2.34881">
        <ele>85.2</ele>
        <time>2015-01-05T19:32:22.721Z</time>
      </trkpt>
      <trkpt lat="48.8466" lon="2.34883">
        <ele>85.4</ele>
        <time>2015-01-05T19:32:23.617Z</time>
      </trkpt>
      <trkpt lat="48.84655" lon="2.34885">
        <ele>85.7</ele>
        <time>2015-01-05T19:32:24.652Z</time>
      </trkpt>
      <trkpt lat="48.84647" lon="2.34888">
        <ele>86</ele>
        <time>2015-01-05T19:32:26.752Z</time>
      </trkpt>
      <trkpt lat="48.84642" lon="2.34889">
        <ele>85.8</ele>
        <time>2015-01-05T19:32:27.649Z</time>
      </trkpt>
      <trkpt lat="48.84636" lon="2.34892">
        <ele>85.9</ele>
        <time>2015-01-05T19:32:29.670Z</time>
      </trkpt>
      <trkpt lat="48.84632" lon="2.34893">
        <ele>86</ele>
        <time>2015-01-05T19:32:30.700Z</time>
      </trkpt>
      <trkpt lat="48.84626" lon="2.34896">
        <ele>87</ele>
        <time>2015-01-05T19:32:32.803Z</time>
      </trkpt>
      <trkpt lat="48.84622" lon="2.34901">
        <ele>87.4</ele>
        <time>2015-01-05T19:32:33.751Z</time>
      </trkpt>
      <trkpt lat="48.84616" lon="2.34907">
        <ele>88.1</ele>
        <time>2015-01-05T19:32:35.653Z</time>
      </trkpt>
      <trkpt lat="48.84614" lon="2.3491">
        <ele>87.9</ele>
        <time>2015-01-05T19:32:36.671Z</time>
      </trkpt>
      <trkpt lat="48.84609" lon="2.34921">
        <ele>87.8</ele>
        <time>2015-01-05T19:32:39.706Z</time>
      </trkpt>
      <trkpt lat="48.84608" lon="2.34925">
        <ele>87.7</ele>
        <time>2015-01-05T19:32:40.612Z</time>
      </trkpt>
      <trkpt lat="48.84605" lon="2.34934">
        <ele>87.5</ele>
        <time>2015-01-05T19:32:42.926Z</time>
      </trkpt>
      <trkpt lat="48.84604" lon="2.34939">
        <ele>87.4</ele>
        <time>2015-01-05T19:32:43.683Z</time>
      </trkpt>
      <trkpt lat="48.84601" lon="2.34949">
        <ele>87.4</ele>
        <time>2015-01-05T19:32:45.693Z</time>
      </trkpt>
      <trkpt lat="48.846" lon="2.34954">
        <ele>87.5</ele>
        <time>2015-01-05T19:32:46.694Z</time>
      </trkpt>
      <trkpt lat="48.84596" lon="2.34966">
        <ele>87.5</ele>
        <time>2015-01-05T19:32:48.712Z</time>
      </trkpt>
      <trkpt lat="48.84596" lon="2.34972">
        <ele>87.6</ele>
        <time>2015-01-05T19:32:49.713Z</time>
      </trkpt>
      <trkpt lat="48.84595" lon="2.34985">
        <ele>87.6</ele>
        <time>2015-01-05T19:32:51.616Z</time>
      </trkpt>
      <trkpt lat="48.84595" lon="2.34993">
        <ele>87.6</ele>
        <time>2015-01-05T19:32:52.643Z</time>
      </trkpt>
      <trkpt lat="48.84595" lon="2.35">
        <ele>87.6</ele>
        <time>2015-01-05T19:32:53.660Z</time>
      </trkpt>
      <trkpt lat="48.84595" lon="2.35008">
        <ele>87.6</ele>
        <time>2015-01-05T19:32:54.674Z</time>
      </trkpt>
      <trkpt lat="48.84594" lon="2.35015">
        <ele>87.7</ele>
        <time>2015-01-05T19:32:55.695Z</time>
      </trkpt>
      <trkpt lat="48.84594" lon="2.35022">
        <ele>87.8</ele>
        <time>2015-01-05T19:32:56.711Z</time>
      </trkpt>
      <trkpt lat="48.84597" lon="2.35033">
        <ele>88.4</ele>
        <time>2015-01-05T19:32:58.657Z</time>
      </trkpt>
      <trkpt lat="48.84599" lon="2.35037">
        <ele>88.7</ele>
        <time>2015-01-05T19:32:59.666Z</time>
      </trkpt>
      <trkpt lat="48.84603" lon="2.35046">
        <ele>93.6</ele>
        <time>2015-01-05T19:33:04.730Z</time>
      </trkpt>
      <trkpt lat="48.84602" lon="2.35047">
        <ele>94.8</ele>
        <time>2015-01-05T19:33:05.743Z</time>
      </trkpt>
      <trkpt lat="48.84602" lon="2.35048">
        <ele>95.9</ele>
        <time>2015-01-05T19:33:06.685Z</time>
      </trkpt>
      <trkpt lat="48.84602" lon="2.3506">
        <ele>99.1</ele>
        <time>2015-01-05T19:33:17.656Z</time>
      </trkpt>
      <trkpt lat="48.84605" lon="2.35064">
        <ele>99.1</ele>
        <time>2015-01-05T19:33:18.685Z</time>
      </trkpt>
      <trkpt lat="48.84611" lon="2.35072">
        <ele>99.5</ele>
        <time>2015-01-05T19:33:20.716Z</time>
      </trkpt>
      <trkpt lat="48.84615" lon="2.35077">
        <ele>99.8</ele>
        <time>2015-01-05T19:33:21.646Z</time>
      </trkpt>
      <trkpt lat="48.84621" lon="2.35084">
        <ele>100</ele>
        <time>2015-01-05T19:33:23.640Z</time>
      </trkpt>
      <trkpt lat="48.84625" lon="2.35088">
        <ele>100.4</ele>
        <time>2015-01-05T19:33:24.741Z</time>
      </trkpt>
      <trkpt lat="48.84632" lon="2.35096">
        <ele>100.6</ele>
        <time>2015-01-05T19:33:26.681Z</time>
      </trkpt>
      <trkpt lat="48.84636" lon="2.351">
        <ele>100.8</ele>
        <time>2015-01-05T19:33:27.708Z</time>
      </trkpt>
      <trkpt lat="48.84641" lon="2.35106">
        <ele>100.8</ele>
        <time>2015-01-05T19:33:29.647Z</time>
      </trkpt>
      <trkpt lat="48.84643" lon="2.3511">
        <ele>100.9</ele>
        <time>2015-01-05T19:33:30.673Z</time>
      </trkpt>
      <trkpt lat="48.84649" lon="2.35117">
        <ele>101.5</ele>
        <time>2015-01-05T19:33:33.730Z</time>
      </trkpt>
      <trkpt lat="48.84651" lon="2.35121">
        <ele>102.1</ele>
        <time>2015-01-05T19:33:34.673Z</time>
      </trkpt>
      <trkpt lat="48.84657" lon="2.35131">
        <ele>102.7</ele>
        <time>2015-01-05T19:33:37.643Z</time>
      </trkpt>
      <trkpt lat="48.84659" lon="2.35133">
        <ele>102.9</ele>
        <time>2015-01-05T19:33:38.662Z</time>
      </trkpt>
      <trkpt lat="48.84659" lon="2.35145">
        <ele>101.3</ele>
        <time>2015-01-05T19:33:46.688Z</time>
      </trkpt>
      <trkpt lat="48.84659" lon="2.35147">
        <ele>101.1</ele>
        <time>2015-01-05T19:33:47.690Z</time>
      </trkpt>
      <trkpt lat="48.84659" lon="2.35147">
        <ele>100.8</ele>
        <time>2015-01-05T19:33:48.644Z</time>
      </trkpt>
      <trkpt lat="48.84658" lon="2.3515">
        <ele>100.5</ele>
        <time>2015-01-05T19:33:53.811Z</time>
      </trkpt>
      <trkpt lat="48.84656" lon="2.35155">
        <ele>100.5</ele>
        <time>2015-01-05T19:33:54.666Z</time>
      </trkpt>
      <trkpt lat="48.84661" lon="2.35163">
        <ele>101.7</ele>
        <time>2015-01-05T19:33:59.681Z</time>
      </trkpt>
      <trkpt lat="48.84662" lon="2.35165">
        <ele>102</ele>
        <time>2015-01-05T19:34:00.700Z</time>
      </trkpt>
      <trkpt lat="48.84668" lon="2.35171">
        <ele>102.8</ele>
        <time>2015-01-05T19:34:03.666Z</time>
      </trkpt>
      <trkpt lat="48.8467" lon="2.35173">
        <ele>102.8</ele>
        <time>2015-01-05T19:34:04.703Z</time>
      </trkpt>
      <trkpt lat="48.84675" lon="2.3518">
        <ele>102.8</ele>
        <time>2015-01-05T19:34:06.733Z</time>
      </trkpt>
      <trkpt lat="48.84677" lon="2.35183">
        <ele>102.5</ele>
        <time>2015-01-05T19:34:07.746Z</time>
      </trkpt>
      <trkpt lat="48.84682" lon="2.35189">
        <ele>103.3</ele>
        <time>2015-01-05T19:34:09.653Z</time>
      </trkpt>
      <trkpt lat="48.84685" lon="2.35192">
        <ele>103.5</ele>
        <time>2015-01-05T19:34:10.672Z</time>
      </trkpt>
      <trkpt lat="48.84692" lon="2.35199">
        <ele>104.1</ele>
        <time>2015-01-05T19:34:13.724Z</time>
      </trkpt>
      <trkpt lat="48.84695" lon="2.35201">
        <ele>104.3</ele>
        <time>2015-01-05T19:34:14.740Z</time>
      </trkpt>
      <trkpt lat="48.84702" lon="2.35209">
        <ele>104.9</ele>
        <time>2015-01-05T19:34:17.695Z</time>
      </trkpt>
      <trkpt lat="48.84704" lon="2.35211">
        <ele>104.9</ele>
        <time>2015-01-05T19:34:18.709Z</time>
      </trkpt>
      <trkpt lat="48.8471" lon="2.35219">
        <ele>105.1</ele>
        <time>2015-01-05T19:34:21.701Z</time>
      </trkpt>
      <trkpt lat="48.84712" lon="2.35222">
        <ele>105.1</ele>
        <time>2015-01-05T19:34:22.714Z</time>
      </trkpt>
      <trkpt lat="48.84717" lon="2.35229">
        <ele>105.6</ele>
        <time>2015-01-05T19:34:24.653Z</time>
      </trkpt>
      <trkpt lat="48.84719" lon="2.35233">
        <ele>105.7</ele>
        <time>2015-01-05T19:34:25.668Z</time>
      </trkpt>
      <trkpt lat="48.84724" lon="2.3524">
        <ele>107</ele>
        <time>2015-01-05T19:34:27.675Z</time>
      </trkpt>
      <trkpt lat="48.84726" lon="2.35242">
        <ele>107.3</ele>
        <time>2015-01-05T19:34:28.705Z</time>
      </trkpt>
      <trkpt lat="48.8473" lon="2.3525">
        <ele>108.5</ele>
        <time>2015-01-05T19:34:30.656Z</time>
      </trkpt>
      <trkpt lat="48.84733" lon="2.35253">
        <ele>109.1</ele>
        <time>2015-01-05T19:34:31.663Z</time>
      </trkpt>
      <trkpt lat="48.84739" lon="2.35259">
        <ele>109.4</ele>
        <time>2015-01-05T19:34:33.737Z</time>
      </trkpt>
      <trkpt lat="48.84742" lon="2.35262">
        <ele>109.4</ele>
        <time>2015-01-05T19:34:34.663Z</time>
      </trkpt>
      <trkpt lat="48.84747" lon="2.35268">
        <ele>108.7</ele>
        <time>2015-01-05T19:34:36.662Z</time>
      </trkpt>
      <trkpt lat="48.84747" lon="2.35274">
        <ele>107.9</ele>
        <time>2015-01-05T19:34:37.700Z</time>
      </trkpt>
      <trkpt lat="48.84746" lon="2.35283">
        <ele>108.1</ele>
        <time>2015-01-05T19:34:38.721Z</time>
      </trkpt>
      <trkpt lat="48.84746" lon="2.35292">
        <ele>108</ele>
        <time>2015-01-05T19:34:39.667Z</time>
      </trkpt>
      <trkpt lat="48.84748" lon="2.353">
        <ele>108.3</ele>
        <time>2015-01-05T19:34:40.682Z</time>
      </trkpt>
      <trkpt lat="48.84749" lon="2.35306">
        <ele>108.7</ele>
        <time>2015-01-05T19:34:41.697Z</time>
      </trkpt>
      <trkpt lat="48.84753" lon="2.35318">
        <ele>109.4</ele>
        <time>2015-01-05T19:34:43.751Z</time>
      </trkpt>
      <trkpt lat="48.84755" lon="2.35323">
        <ele>109.9</ele>
        <time>2015-01-05T19:34:44.761Z</time>
      </trkpt>
      <trkpt lat="48.84758" lon="2.35329">
        <ele>110.3</ele>
        <time>2015-01-05T19:34:45.652Z</time>
      </trkpt>
      <trkpt lat="48.84761" lon="2.35334">
        <ele>110.7</ele>
        <time>2015-01-05T19:34:46.663Z</time>
      </trkpt>
      <trkpt lat="48.84766" lon="2.35345">
        <ele>111.2</ele>
        <time>2015-01-05T19:34:48.674Z</time>
      </trkpt>
      <trkpt lat="48.84769" lon="2.35351">
        <ele>111.5</ele>
        <time>2015-01-05T19:34:49.725Z</time>
      </trkpt>
      <trkpt lat="48.84772" lon="2.35356">
        <ele>111.8</ele>
        <time>2015-01-05T19:34:50.776Z</time>
      </trkpt>
      <trkpt lat="48.84775" lon="2.35361">
        <ele>112.2</ele>
        <time>2015-01-05T19:34:51.654Z</time>
      </trkpt>
      <trkpt lat="48.84779" lon="2.35366">
        <ele>112.4</ele>
        <time>2015-01-05T19:34:52.661Z</time>
      </trkpt>
      <trkpt lat="48.84783" lon="2.35371">
        <ele>112.4</ele>
        <time>2015-01-05T19:34:53.668Z</time>
      </trkpt>
      <trkpt lat="48.84787" lon="2.35377">
        <ele>112.9</ele>
        <time>2015-01-05T19:34:54.685Z</time>
      </trkpt>
      <trkpt lat="48.8479" lon="2.35382">
        <ele>113.2</ele>
        <time>2015-01-05T19:34:55.689Z</time>
      </trkpt>
      <trkpt lat="48.84794" lon="2.35386">
        <ele>113.6</ele>
        <time>2015-01-05T19:34:56.704Z</time>
      </trkpt>
      <trkpt lat="48.84798" lon="2.3539">
        <ele>113.8</ele>
        <time>2015-01-05T19:34:57.720Z</time>
      </trkpt>
      <trkpt lat="48.848" lon="2.35395">
        <ele>114.1</ele>
        <time>2015-01-05T19:34:58.736Z</time>
      </trkpt>
      <trkpt lat="48.84803" lon="2.35402">
        <ele>114.5</ele>
        <time>2015-01-05T19:34:59.654Z</time>
      </trkpt>
      <trkpt lat="48.84805" lon="2.35409">
        <ele>114.7</ele>
        <time>2015-01-05T19:35:00.656Z</time>
      </trkpt>
      <trkpt lat="48.84808" lon="2.35415">
        <ele>115</ele>
        <time>2015-01-05T19:35:01.662Z</time>
      </trkpt>
      <trkpt lat="48.84811" lon="2.35421">
        <ele>115.2</ele>
        <time>2015-01-05T19:35:02.733Z</time>
      </trkpt>
      <trkpt lat="48.84814" lon="2.35426">
        <ele>115.3</ele>
        <time>2015-01-05T19:35:03.728Z</time>
      </trkpt>
      <trkpt lat="48.84817" lon="2.35432">
        <ele>115.5</ele>
        <time>2015-01-05T19:35:04.736Z</time>
      </trkpt>
      <trkpt lat="48.8482" lon="2.35437">
        <ele>115.6</ele>
        <time>2015-01-05T19:35:05.740Z</time>
      </trkpt>
      <trkpt lat="48.84825" lon="2.35446">
        <ele>115.7</ele>
        <time>2015-01-05T19:35:07.653Z</time>
      </trkpt>
      <trkpt lat="48.84827" lon="2.3545">
        <ele>115.9</ele>
        <time>2015-01-05T19:35:08.886Z</time>
      </trkpt>
      <trkpt lat="48.8483" lon="2.35455">
        <ele>115.9</ele>
        <time>2015-01-05T19:35:09.694Z</time>
      </trkpt>
      <trkpt lat="48.84833" lon="2.3546">
        <ele>116.2</ele>
        <time>2015-01-05T19:35:10.705Z</time>
      </trkpt>
      <trkpt lat="48.84837" lon="2.35464">
        <ele>116.2</ele>
        <time>2015-01-05T19:35:11.712Z</time>
      </trkpt>
      <trkpt lat="48.8484" lon="2.35468">
        <ele>116.2</ele>
        <time>2015-01-05T19:35:12.713Z</time>
      </trkpt>
      <trkpt lat="48.84843" lon="2.35473">
        <ele>116.3</ele>
        <time>2015-01-05T19:35:13.683Z</time>
      </trkpt>
      <trkpt lat="48.84847" lon="2.35479">
        <ele>116.4</ele>
        <time>2015-01-05T19:35:14.709Z</time>
      </trkpt>
      <trkpt lat="48.8485" lon="2.35484">
        <ele>116.4</ele>
        <time>2015-01-05T19:35:15.835Z</time>
      </trkpt>
      <trkpt lat="48.84854" lon="2.35488">
        <ele>116.6</ele>
        <time>2015-01-05T19:35:16.667Z</time>
      </trkpt>
      <trkpt lat="48.84859" lon="2.35495">
        <ele>116.7</ele>
        <time>2015-01-05T19:35:18.979Z</time>
      </trkpt>
      <trkpt lat="48.84861" lon="2.35499">
        <ele>116.9</ele>
        <time>2015-01-05T19:35:19.669Z</time>
      </trkpt>
      <trkpt lat="48.84866" lon="2.35508">
        <ele>117.4</ele>
        <time>2015-01-05T19:35:21.796Z</time>
      </trkpt>
      <trkpt lat="48.84869" lon="2.35512">
        <ele>117.6</ele>
        <time>2015-01-05T19:35:22.698Z</time>
      </trkpt>
      <trkpt lat="48.84875" lon="2.35518">
        <ele>117.9</ele>
        <time>2015-01-05T19:35:24.670Z</time>
      </trkpt>
      <trkpt lat="48.84878" lon="2.35522">
        <ele>118</ele>
        <time>2015-01-05T19:35:25.732Z</time>
      </trkpt>
      <trkpt lat="48.84885" lon="2.3553">
        <ele>117.6</ele>
        <time>2015-01-05T19:35:27.771Z</time>
      </trkpt>
      <trkpt lat="48.84888" lon="2.35536">
        <ele>117.4</ele>
        <time>2015-01-05T19:35:28.700Z</time>
      </trkpt>
      <trkpt lat="48.84891" lon="2.35541">
        <ele>117.2</ele>
        <time>2015-01-05T19:35:29.717Z</time>
      </trkpt>
      <trkpt lat="48.84894" lon="2.35545">
        <ele>116.9</ele>
        <time>2015-01-05T19:35:30.728Z</time>
      </trkpt>
      <trkpt lat="48.84898" lon="2.35554">
        <ele>116.2</ele>
        <time>2015-01-05T19:35:32.822Z</time>
      </trkpt>
      <trkpt lat="48.84899" lon="2.35559">
        <ele>115.7</ele>
        <time>2015-01-05T19:35:33.735Z</time>
      </trkpt>
      <trkpt lat="48.84902" lon="2.35569">
        <ele>115.5</ele>
        <time>2015-01-05T19:35:35.660Z</time>
      </trkpt>
      <trkpt lat="48.84904" lon="2.35574">
        <ele>115.4</ele>
        <time>2015-01-05T19:35:36.662Z</time>
      </trkpt>
      <trkpt lat="48.84907" lon="2.3558">
        <ele>115.5</ele>
        <time>2015-01-05T19:35:38.003Z</time>
      </trkpt>
      <trkpt lat="48.8491" lon="2.35586">
        <ele>115.3</ele>
        <time>2015-01-05T19:35:38.699Z</time>
      </trkpt>
      <trkpt lat="48.84913" lon="2.35595">
        <ele>115.2</ele>
        <time>2015-01-05T19:35:40.720Z</time>
      </trkpt>
      <trkpt lat="48.84916" lon="2.356">
        <ele>115</ele>
        <time>2015-01-05T19:35:41.728Z</time>
      </trkpt>
      <trkpt lat="48.84922" lon="2.35608">
        <ele>115</ele>
        <time>2015-01-05T19:35:44.968Z</time>
      </trkpt>
      <trkpt lat="48.84923" lon="2.35609">
        <ele>114.4</ele>
        <time>2015-01-05T19:35:45.679Z</time>
      </trkpt>
      <trkpt lat="48.84931" lon="2.3561">
        <ele>110.1</ele>
        <time>2015-01-05T19:35:51.635Z</time>
      </trkpt>
      <trkpt lat="48.84933" lon="2.35609">
        <ele>109</ele>
        <time>2015-01-05T19:35:52.663Z</time>
      </trkpt>
      <trkpt lat="48.84938" lon="2.35606">
        <ele>105.5</ele>
        <time>2015-01-05T19:36:03.738Z</time>
      </trkpt>
      <trkpt lat="48.84938" lon="2.35607">
        <ele>104.6</ele>
        <time>2015-01-05T19:36:04.813Z</time>
      </trkpt>
      <trkpt lat="48.84937" lon="2.35608">
        <ele>101.2</ele>
        <time>2015-01-05T19:36:06.655Z</time>
      </trkpt>
      <trkpt lat="48.84937" lon="2.35609">
        <ele>101.2</ele>
        <time>2015-01-05T19:36:07.672Z</time>
      </trkpt>
      <trkpt lat="48.84937" lon="2.3561">
        <ele>101.3</ele>
        <time>2015-01-05T19:36:08.735Z</time>
      </trkpt>
      <trkpt lat="48.84936" lon="2.3561">
        <ele>101.3</ele>
        <time>2015-01-05T19:36:09.731Z</time>
      </trkpt>
      <trkpt lat="48.84937" lon="2.3561">
        <ele>101.2</ele>
        <time>2015-01-05T19:36:10.745Z</time>
      </trkpt>
      <trkpt lat="48.8494" lon="2.3562">
        <ele>99.4</ele>
        <time>2015-01-05T19:36:14.747Z</time>
      </trkpt>
      <trkpt lat="48.84942" lon="2.35625">
        <ele>99.2</ele>
        <time>2015-01-05T19:36:15.681Z</time>
      </trkpt>
      <trkpt lat="48.84941" lon="2.35635">
        <ele>98.5</ele>
        <time>2015-01-05T19:36:18.568Z</time>
      </trkpt>
      <trkpt lat="48.84941" lon="2.3564">
        <ele>98.3</ele>
        <time>2015-01-05T19:36:18.689Z</time>
      </trkpt>
      <trkpt lat="48.84941" lon="2.35649">
        <ele>98</ele>
        <time>2015-01-05T19:36:20.746Z</time>
      </trkpt>
      <trkpt lat="48.84941" lon="2.35655">
        <ele>97.6</ele>
        <time>2015-01-05T19:36:21.647Z</time>
      </trkpt>
      <trkpt lat="48.84941" lon="2.35666">
        <ele>97.1</ele>
        <time>2015-01-05T19:36:23.655Z</time>
      </trkpt>
      <trkpt lat="48.84942" lon="2.35671">
        <ele>96.9</ele>
        <time>2015-01-05T19:36:24.716Z</time>
      </trkpt>
      <trkpt lat="48.84945" lon="2.35683">
        <ele>96.7</ele>
        <time>2015-01-05T19:36:26.749Z</time>
      </trkpt>
      <trkpt lat="48.84947" lon="2.35689">
        <ele>96.7</ele>
        <time>2015-01-05T19:36:27.677Z</time>
      </trkpt>
      <trkpt lat="48.84951" lon="2.35701">
        <ele>96.7</ele>
        <time>2015-01-05T19:36:29.709Z</time>
      </trkpt>
      <trkpt lat="48.84952" lon="2.35707">
        <ele>96.2</ele>
        <time>2015-01-05T19:36:30.712Z</time>
      </trkpt>
      <trkpt lat="48.84953" lon="2.35715">
        <ele>96.3</ele>
        <time>2015-01-05T19:36:31.712Z</time>
      </trkpt>
      <trkpt lat="48.84955" lon="2.35721">
        <ele>96.3</ele>
        <time>2015-01-05T19:36:32.832Z</time>
      </trkpt>
      <trkpt lat="48.84957" lon="2.35728">
        <ele>96</ele>
        <time>2015-01-05T19:36:33.684Z</time>
      </trkpt>
      <trkpt lat="48.84959" lon="2.35735">
        <ele>95.7</ele>
        <time>2015-01-05T19:36:34.698Z</time>
      </trkpt>
      <trkpt lat="48.8496" lon="2.35741">
        <ele>95.7</ele>
        <time>2015-01-05T19:36:35.717Z</time>
      </trkpt>
      <trkpt lat="48.84962" lon="2.35747">
        <ele>95.4</ele>
        <time>2015-01-05T19:36:36.718Z</time>
      </trkpt>
      <trkpt lat="48.84966" lon="2.35759">
        <ele>94.9</ele>
        <time>2015-01-05T19:36:38.701Z</time>
      </trkpt>
      <trkpt lat="48.84967" lon="2.35766">
        <ele>94.7</ele>
        <time>2015-01-05T19:36:39.695Z</time>
      </trkpt>
      <trkpt lat="48.84971" lon="2.35778">
        <ele>94.4</ele>
        <time>2015-01-05T19:36:41.659Z</time>
      </trkpt>
      <trkpt lat="48.84972" lon="2.35784">
        <ele>94.3</ele>
        <time>2015-01-05T19:36:42.654Z</time>
      </trkpt>
      <trkpt lat="48.84974" lon="2.35791">
        <ele>94.1</ele>
        <time>2015-01-05T19:36:43.681Z</time>
      </trkpt>
      <trkpt lat="48.84976" lon="2.35797">
        <ele>93.9</ele>
        <time>2015-01-05T19:36:44.695Z</time>
      </trkpt>
      <trkpt lat="48.84978" lon="2.35804">
        <ele>93.9</ele>
        <time>2015-01-05T19:36:45.699Z</time>
      </trkpt>
      <trkpt lat="48.84981" lon="2.3581">
        <ele>93.6</ele>
        <time>2015-01-05T19:36:46.708Z</time>
      </trkpt>
      <trkpt lat="48.84983" lon="2.35816">
        <ele>93.7</ele>
        <time>2015-01-05T19:36:47.720Z</time>
      </trkpt>
      <trkpt lat="48.84985" lon="2.35822">
        <ele>93.6</ele>
        <time>2015-01-05T19:36:48.725Z</time>
      </trkpt>
      <trkpt lat="48.84989" lon="2.35834">
        <ele>93.5</ele>
        <time>2015-01-05T19:36:50.743Z</time>
      </trkpt>
      <trkpt lat="48.8499" lon="2.35841">
        <ele>93.2</ele>
        <time>2015-01-05T19:36:51.752Z</time>
      </trkpt>
      <trkpt lat="48.84994" lon="2.35853">
        <ele>92.7</ele>
        <time>2015-01-05T19:36:53.659Z</time>
      </trkpt>
      <trkpt lat="48.84995" lon="2.35859">
        <ele>92.9</ele>
        <time>2015-01-05T19:36:54.683Z</time>
      </trkpt>
      <trkpt lat="48.85" lon="2.3587">
        <ele>93.3</ele>
        <time>2015-01-05T19:36:56.711Z</time>
      </trkpt>
      <trkpt lat="48.85002" lon="2.35875">
        <ele>93.3</ele>
        <time>2015-01-05T19:36:57.724Z</time>
      </trkpt>
      <trkpt lat="48.85005" lon="2.35887">
        <ele>93.2</ele>
        <time>2015-01-05T19:36:59.650Z</time>
      </trkpt>
      <trkpt lat="48.85007" lon="2.35894">
        <ele>93.3</ele>
        <time>2015-01-05T19:37:00.680Z</time>
      </trkpt>
      <trkpt lat="48.85009" lon="2.359">
        <ele>93.2</ele>
        <time>2015-01-05T19:37:01.688Z</time>
      </trkpt>
      <trkpt lat="48.85011" lon="2.35907">
        <ele>93</ele>
        <time>2015-01-05T19:37:02.779Z</time>
      </trkpt>
      <trkpt lat="48.85013" lon="2.35913">
        <ele>93.2</ele>
        <time>2015-01-05T19:37:03.706Z</time>
      </trkpt>
      <trkpt lat="48.85016" lon="2.35919">
        <ele>93.3</ele>
        <time>2015-01-05T19:37:04.719Z</time>
      </trkpt>
      <trkpt lat="48.85018" lon="2.35926">
        <ele>93.3</ele>
        <time>2015-01-05T19:37:05.683Z</time>
      </trkpt>
      <trkpt lat="48.8502" lon="2.35932">
        <ele>93.3</ele>
        <time>2015-01-05T19:37:06.651Z</time>
      </trkpt>
      <trkpt lat="48.85023" lon="2.35944">
        <ele>93.1</ele>
        <time>2015-01-05T19:37:08.677Z</time>
      </trkpt>
      <trkpt lat="48.85025" lon="2.3595">
        <ele>93.1</ele>
        <time>2015-01-05T19:37:09.693Z</time>
      </trkpt>
      <trkpt lat="48.85029" lon="2.35962">
        <ele>93</ele>
        <time>2015-01-05T19:37:11.641Z</time>
      </trkpt>
      <trkpt lat="48.85031" lon="2.35967">
        <ele>92.8</ele>
        <time>2015-01-05T19:37:12.659Z</time>
      </trkpt>
      <trkpt lat="48.85035" lon="2.35979">
        <ele>92.7</ele>
        <time>2015-01-05T19:37:14.686Z</time>
      </trkpt>
      <trkpt lat="48.85036" lon="2.35986">
        <ele>92.3</ele>
        <time>2015-01-05T19:37:15.696Z</time>
      </trkpt>
      <trkpt lat="48.85037" lon="2.35992">
        <ele>92</ele>
        <time>2015-01-05T19:37:16.649Z</time>
      </trkpt>
      <trkpt lat="48.85039" lon="2.35998">
        <ele>91.8</ele>
        <time>2015-01-05T19:37:17.652Z</time>
      </trkpt>
      <trkpt lat="48.8504" lon="2.36005">
        <ele>91.5</ele>
        <time>2015-01-05T19:37:18.665Z</time>
      </trkpt>
      <trkpt lat="48.85042" lon="2.36013">
        <ele>91.5</ele>
        <time>2015-01-05T19:37:19.670Z</time>
      </trkpt>
      <trkpt lat="48.85043" lon="2.36019">
        <ele>91.6</ele>
        <time>2015-01-05T19:37:20.696Z</time>
      </trkpt>
      <trkpt lat="48.85045" lon="2.36026">
        <ele>91.6</ele>
        <time>2015-01-05T19:37:21.691Z</time>
      </trkpt>
      <trkpt lat="48.85049" lon="2.36038">
        <ele>91.5</ele>
        <time>2015-01-05T19:37:23.657Z</time>
      </trkpt>
      <trkpt lat="48.8505" lon="2.36043">
        <ele>91.4</ele>
        <time>2015-01-05T19:37:24.658Z</time>
      </trkpt>
      <trkpt lat="48.85053" lon="2.36055">
        <ele>91.2</ele>
        <time>2015-01-05T19:37:26.705Z</time>
      </trkpt>
      <trkpt lat="48.85055" lon="2.3606">
        <ele>91.1</ele>
        <time>2015-01-05T19:37:27.767Z</time>
      </trkpt>
      <trkpt lat="48.85057" lon="2.36069">
        <ele>90.4</ele>
        <time>2015-01-05T19:37:29.629Z</time>
      </trkpt>
      <trkpt lat="48.85059" lon="2.36073">
        <ele>90.3</ele>
        <time>2015-01-05T19:37:30.741Z</time>
      </trkpt>
      <trkpt lat="48.85062" lon="2.36081">
        <ele>90</ele>
        <time>2015-01-05T19:37:32.947Z</time>
      </trkpt>
      <trkpt lat="48.85063" lon="2.36085">
        <ele>89.9</ele>
        <time>2015-01-05T19:37:33.729Z</time>
      </trkpt>
      <trkpt lat="48.85066" lon="2.36093">
        <ele>89.8</ele>
        <time>2015-01-05T19:37:35.669Z</time>
      </trkpt>
      <trkpt lat="48.85068" lon="2.36098">
        <ele>89.7</ele>
        <time>2015-01-05T19:37:36.790Z</time>
      </trkpt>
      <trkpt lat="48.85071" lon="2.36108">
        <ele>89.5</ele>
        <time>2015-01-05T19:37:38.711Z</time>
      </trkpt>
      <trkpt lat="48.85072" lon="2.36113">
        <ele>89.4</ele>
        <time>2015-01-05T19:37:39.716Z</time>
      </trkpt>
      <trkpt lat="48.85076" lon="2.36123">
        <ele>89</ele>
        <time>2015-01-05T19:37:41.734Z</time>
      </trkpt>
      <trkpt lat="48.85077" lon="2.36128">
        <ele>88.8</ele>
        <time>2015-01-05T19:37:42.763Z</time>
      </trkpt>
      <trkpt lat="48.8508" lon="2.36139">
        <ele>88.7</ele>
        <time>2015-01-05T19:37:44.701Z</time>
      </trkpt>
      <trkpt lat="48.85081" lon="2.36144">
        <ele>88.6</ele>
        <time>2015-01-05T19:37:45.699Z</time>
      </trkpt>
      <trkpt lat="48.85084" lon="2.36152">
        <ele>88.6</ele>
        <time>2015-01-05T19:37:48.263Z</time>
      </trkpt>
      <trkpt lat="48.85086" lon="2.36157">
        <ele>88.4</ele>
        <time>2015-01-05T19:37:48.631Z</time>
      </trkpt>
      <trkpt lat="48.85089" lon="2.36167">
        <ele>88.1</ele>
        <time>2015-01-05T19:37:50.740Z</time>
      </trkpt>
      <trkpt lat="48.85091" lon="2.36173">
        <ele>88</ele>
        <time>2015-01-05T19:37:51.762Z</time>
      </trkpt>
      <trkpt lat="48.85094" lon="2.36184">
        <ele>87.6</ele>
        <time>2015-01-05T19:37:53.662Z</time>
      </trkpt>
      <trkpt lat="48.85095" lon="2.3619">
        <ele>87.1</ele>
        <time>2015-01-05T19:37:54.696Z</time>
      </trkpt>
      <trkpt lat="48.85099" lon="2.36202">
        <ele>86.2</ele>
        <time>2015-01-05T19:37:56.743Z</time>
      </trkpt>
      <trkpt lat="48.85101" lon="2.36207">
        <ele>86</ele>
        <time>2015-01-05T19:37:57.762Z</time>
      </trkpt>
      <trkpt lat="48.85107" lon="2.36215">
        <ele>86.2</ele>
        <time>2015-01-05T19:38:00.677Z</time>
      </trkpt>
      <trkpt lat="48.85109" lon="2.36218">
        <ele>86.1</ele>
        <time>2015-01-05T19:38:01.725Z</time>
      </trkpt>
      <trkpt lat="48.85115" lon="2.36223">
        <ele>86</ele>
        <time>2015-01-05T19:38:04.667Z</time>
      </trkpt>
      <trkpt lat="48.8512" lon="2.36228">
        <ele>85.9</ele>
        <time>2015-01-05T19:38:05.661Z</time>
      </trkpt>
      <trkpt lat="48.85124" lon="2.36232">
        <ele>86.1</ele>
        <time>2015-01-05T19:38:06.728Z</time>
      </trkpt>
      <trkpt lat="48.85128" lon="2.36237">
        <ele>86.1</ele>
        <time>2015-01-05T19:38:07.729Z</time>
      </trkpt>
      <trkpt lat="48.85132" lon="2.36242">
        <ele>86</ele>
        <time>2015-01-05T19:38:08.653Z</time>
      </trkpt>
      <trkpt lat="48.85136" lon="2.36246">
        <ele>85.9</ele>
        <time>2015-01-05T19:38:09.657Z</time>
      </trkpt>
      <trkpt lat="48.85141" lon="2.36251">
        <ele>85.8</ele>
        <time>2015-01-05T19:38:10.675Z</time>
      </trkpt>
      <trkpt lat="48.85144" lon="2.36256">
        <ele>85.8</ele>
        <time>2015-01-05T19:38:11.741Z</time>
      </trkpt>
      <trkpt lat="48.85148" lon="2.36261">
        <ele>85.8</ele>
        <time>2015-01-05T19:38:13.602Z</time>
      </trkpt>
      <trkpt lat="48.85156" lon="2.36272">
        <ele>85.6</ele>
        <time>2015-01-05T19:38:14.637Z</time>
      </trkpt>
      <trkpt lat="48.8516" lon="2.36278">
        <ele>85.6</ele>
        <time>2015-01-05T19:38:15.661Z</time>
      </trkpt>
      <trkpt lat="48.85186" lon="2.36303">
        <ele>85.6</ele>
        <time>2015-01-05T19:38:22.712Z</time>
      </trkpt>
      <trkpt lat="48.85193" lon="2.36297">
        <ele>86.3</ele>
        <time>2015-01-05T19:38:25.655Z</time>
      </trkpt>
      <trkpt lat="48.85197" lon="2.36292">
        <ele>86.2</ele>
        <time>2015-01-05T19:38:26.722Z</time>
      </trkpt>
      <trkpt lat="48.85203" lon="2.36282">
        <ele>86.5</ele>
        <time>2015-01-05T19:38:28.630Z</time>
      </trkpt>
      <trkpt lat="48.85205" lon="2.36278">
        <ele>86.6</ele>
        <time>2015-01-05T19:38:29.634Z</time>
      </trkpt>
      <trkpt lat="48.85211" lon="2.3627">
        <ele>86.6</ele>
        <time>2015-01-05T19:38:32.747Z</time>
      </trkpt>
      <trkpt lat="48.85218" lon="2.36273">
        <ele>86.7</ele>
        <time>2015-01-05T19:38:33.638Z</time>
      </trkpt>
      <trkpt lat="48.85224" lon="2.36276">
        <ele>86.7</ele>
        <time>2015-01-05T19:38:34.650Z</time>
      </trkpt>
      <trkpt lat="48.85231" lon="2.36279">
        <ele>86.7</ele>
        <time>2015-01-05T19:38:35.656Z</time>
      </trkpt>
      <trkpt lat="48.85236" lon="2.3628">
        <ele>86.7</ele>
        <time>2015-01-05T19:38:36.690Z</time>
      </trkpt>
      <trkpt lat="48.85243" lon="2.3628">
        <ele>86.8</ele>
        <time>2015-01-05T19:38:37.704Z</time>
      </trkpt>
      <trkpt lat="48.8525" lon="2.3628">
        <ele>86.8</ele>
        <time>2015-01-05T19:38:38.725Z</time>
      </trkpt>
      <trkpt lat="48.85256" lon="2.36281">
        <ele>86.7</ele>
        <time>2015-01-05T19:38:39.637Z</time>
      </trkpt>
      <trkpt lat="48.85261" lon="2.36282">
        <ele>86.5</ele>
        <time>2015-01-05T19:38:40.656Z</time>
      </trkpt>
      <trkpt lat="48.85267" lon="2.36283">
        <ele>86.4</ele>
        <time>2015-01-05T19:38:41.710Z</time>
      </trkpt>
      <trkpt lat="48.85273" lon="2.36284">
        <ele>86.3</ele>
        <time>2015-01-05T19:38:42.761Z</time>
      </trkpt>
      <trkpt lat="48.85278" lon="2.36286">
        <ele>86.1</ele>
        <time>2015-01-05T19:38:43.746Z</time>
      </trkpt>
      <trkpt lat="48.85282" lon="2.36289">
        <ele>85.9</ele>
        <time>2015-01-05T19:38:44.773Z</time>
      </trkpt>
      <trkpt lat="48.85286" lon="2.36291">
        <ele>85.7</ele>
        <time>2015-01-05T19:38:45.653Z</time>
      </trkpt>
      <trkpt lat="48.85293" lon="2.36297">
        <ele>85.4</ele>
        <time>2015-01-05T19:38:47.676Z</time>
      </trkpt>
      <trkpt lat="48.85297" lon="2.36301">
        <ele>85.3</ele>
        <time>2015-01-05T19:38:48.684Z</time>
      </trkpt>
      <trkpt lat="48.85301" lon="2.36305">
        <ele>85.4</ele>
        <time>2015-01-05T19:38:49.706Z</time>
      </trkpt>
      <trkpt lat="48.85305" lon="2.36308">
        <ele>85.4</ele>
        <time>2015-01-05T19:38:50.713Z</time>
      </trkpt>
      <trkpt lat="48.8531" lon="2.36311">
        <ele>85.5</ele>
        <time>2015-01-05T19:38:51.625Z</time>
      </trkpt>
      <trkpt lat="48.85313" lon="2.36314">
        <ele>85.5</ele>
        <time>2015-01-05T19:38:52.654Z</time>
      </trkpt>
      <trkpt lat="48.8532" lon="2.36324">
        <ele>85</ele>
        <time>2015-01-05T19:38:54.683Z</time>
      </trkpt>
      <trkpt lat="48.85323" lon="2.36329">
        <ele>84.8</ele>
        <time>2015-01-05T19:38:55.746Z</time>
      </trkpt>
      <trkpt lat="48.85327" lon="2.36338">
        <ele>84.8</ele>
        <time>2015-01-05T19:38:57.622Z</time>
      </trkpt>
      <trkpt lat="48.85328" lon="2.36344">
        <ele>84.6</ele>
        <time>2015-01-05T19:38:58.714Z</time>
      </trkpt>
      <trkpt lat="48.85329" lon="2.3635">
        <ele>84.6</ele>
        <time>2015-01-05T19:38:59.721Z</time>
      </trkpt>
      <trkpt lat="48.85331" lon="2.36359">
        <ele>84.3</ele>
        <time>2015-01-05T19:39:00.620Z</time>
      </trkpt>
      <trkpt lat="48.85335" lon="2.36367">
        <ele>84.5</ele>
        <time>2015-01-05T19:39:03.660Z</time>
      </trkpt>
      <trkpt lat="48.85337" lon="2.36371">
        <ele>84.6</ele>
        <time>2015-01-05T19:39:03.697Z</time>
      </trkpt>
      <trkpt lat="48.85343" lon="2.3638">
        <ele>84.6</ele>
        <time>2015-01-05T19:39:05.639Z</time>
      </trkpt>
      <trkpt lat="48.85345" lon="2.36389">
        <ele>84.7</ele>
        <time>2015-01-05T19:39:06.713Z</time>
      </trkpt>
      <trkpt lat="48.85347" lon="2.36395">
        <ele>84.6</ele>
        <time>2015-01-05T19:39:07.657Z</time>
      </trkpt>
      <trkpt lat="48.85349" lon="2.36402">
        <ele>84.7</ele>
        <time>2015-01-05T19:39:08.666Z</time>
      </trkpt>
      <trkpt lat="48.85348" lon="2.36417">
        <ele>85.7</ele>
        <time>2015-01-05T19:39:09.680Z</time>
      </trkpt>
      <trkpt lat="48.85354" lon="2.36425">
        <ele>85.7</ele>
        <time>2015-01-05T19:39:12.474Z</time>
      </trkpt>
      <trkpt lat="48.85357" lon="2.36429">
        <ele>85.7</ele>
        <time>2015-01-05T19:39:12.705Z</time>
      </trkpt>
      <trkpt lat="48.85361" lon="2.36435">
        <ele>85.7</ele>
        <time>2015-01-05T19:39:14.723Z</time>
      </trkpt>
      <trkpt lat="48.85364" lon="2.36439">
        <ele>85.6</ele>
        <time>2015-01-05T19:39:15.637Z</time>
      </trkpt>
      <trkpt lat="48.85372" lon="2.36447">
        <ele>85.3</ele>
        <time>2015-01-05T19:39:17.665Z</time>
      </trkpt>
      <trkpt lat="48.85375" lon="2.3645">
        <ele>85.4</ele>
        <time>2015-01-05T19:39:18.683Z</time>
      </trkpt>
      <trkpt lat="48.85382" lon="2.36457">
        <ele>85.3</ele>
        <time>2015-01-05T19:39:21.714Z</time>
      </trkpt>
      <trkpt lat="48.85385" lon="2.36458">
        <ele>85.3</ele>
        <time>2015-01-05T19:39:22.662Z</time>
      </trkpt>
      <trkpt lat="48.85391" lon="2.36465">
        <ele>86.7</ele>
        <time>2015-01-05T19:39:28.669Z</time>
      </trkpt>
      <trkpt lat="48.8539" lon="2.36467">
        <ele>86.6</ele>
        <time>2015-01-05T19:39:29.667Z</time>
      </trkpt>
      <trkpt lat="48.8539" lon="2.36469">
        <ele>86.3</ele>
        <time>2015-01-05T19:39:49.676Z</time>
      </trkpt>
      <trkpt lat="48.85397" lon="2.36473">
        <ele>87.8</ele>
        <time>2015-01-05T19:39:50.707Z</time>
      </trkpt>
      <trkpt lat="48.85405" lon="2.36473">
        <ele>88.4</ele>
        <time>2015-01-05T19:39:56.704Z</time>
      </trkpt>
      <trkpt lat="48.85407" lon="2.3647">
        <ele>88.3</ele>
        <time>2015-01-05T19:39:57.701Z</time>
      </trkpt>
      <trkpt lat="48.8541" lon="2.36462">
        <ele>88</ele>
        <time>2015-01-05T19:39:59.730Z</time>
      </trkpt>
      <trkpt lat="48.85412" lon="2.36457">
        <ele>87.8</ele>
        <time>2015-01-05T19:40:00.655Z</time>
      </trkpt>
      <trkpt lat="48.85417" lon="2.36445">
        <ele>87.3</ele>
        <time>2015-01-05T19:40:02.737Z</time>
      </trkpt>
      <trkpt lat="48.8542" lon="2.36439">
        <ele>87.1</ele>
        <time>2015-01-05T19:40:03.656Z</time>
      </trkpt>
      <trkpt lat="48.85422" lon="2.36433">
        <ele>87.1</ele>
        <time>2015-01-05T19:40:04.654Z</time>
      </trkpt>
      <trkpt lat="48.85425" lon="2.36427">
        <ele>87.2</ele>
        <time>2015-01-05T19:40:05.682Z</time>
      </trkpt>
      <trkpt lat="48.85428" lon="2.36421">
        <ele>87.2</ele>
        <time>2015-01-05T19:40:06.699Z</time>
      </trkpt>
      <trkpt lat="48.85432" lon="2.36415">
        <ele>87.3</ele>
        <time>2015-01-05T19:40:07.738Z</time>
      </trkpt>
      <trkpt lat="48.85434" lon="2.36409">
        <ele>87.3</ele>
        <time>2015-01-05T19:40:08.752Z</time>
      </trkpt>
      <trkpt lat="48.85437" lon="2.36403">
        <ele>87.3</ele>
        <time>2015-01-05T19:40:09.648Z</time>
      </trkpt>
      <trkpt lat="48.85438" lon="2.36396">
        <ele>87.2</ele>
        <time>2015-01-05T19:40:10.650Z</time>
      </trkpt>
      <trkpt lat="48.8544" lon="2.36388">
        <ele>87.1</ele>
        <time>2015-01-05T19:40:11.670Z</time>
      </trkpt>
      <trkpt lat="48.85441" lon="2.3638">
        <ele>86.6</ele>
        <time>2015-01-05T19:40:12.684Z</time>
      </trkpt>
      <trkpt lat="48.85443" lon="2.36373">
        <ele>86.5</ele>
        <time>2015-01-05T19:40:13.691Z</time>
      </trkpt>
      <trkpt lat="48.85445" lon="2.36366">
        <ele>86.4</ele>
        <time>2015-01-05T19:40:14.696Z</time>
      </trkpt>
      <trkpt lat="48.85447" lon="2.36359">
        <ele>86.3</ele>
        <time>2015-01-05T19:40:15.707Z</time>
      </trkpt>
      <trkpt lat="48.85449" lon="2.36352">
        <ele>86.3</ele>
        <time>2015-01-05T19:40:16.720Z</time>
      </trkpt>
      <trkpt lat="48.85451" lon="2.36344">
        <ele>86.2</ele>
        <time>2015-01-05T19:40:17.643Z</time>
      </trkpt>
      <trkpt lat="48.85452" lon="2.36337">
        <ele>86.2</ele>
        <time>2015-01-05T19:40:18.650Z</time>
      </trkpt>
      <trkpt lat="48.85454" lon="2.36331">
        <ele>86.2</ele>
        <time>2015-01-05T19:40:19.650Z</time>
      </trkpt>
      <trkpt lat="48.85457" lon="2.3632">
        <ele>86.3</ele>
        <time>2015-01-05T19:40:21.711Z</time>
      </trkpt>
      <trkpt lat="48.85459" lon="2.36315">
        <ele>86.5</ele>
        <time>2015-01-05T19:40:22.736Z</time>
      </trkpt>
      <trkpt lat="48.85461" lon="2.36303">
        <ele>86.9</ele>
        <time>2015-01-05T19:40:25.662Z</time>
      </trkpt>
      <trkpt lat="48.85462" lon="2.363">
        <ele>87.1</ele>
        <time>2015-01-05T19:40:26.708Z</time>
      </trkpt>
      <trkpt lat="48.85462" lon="2.36297">
        <ele>87.1</ele>
        <time>2015-01-05T19:40:28.667Z</time>
      </trkpt>
      <trkpt lat="48.8546" lon="2.36297">
        <ele>86.5</ele>
        <time>2015-01-05T19:40:29.694Z</time>
      </trkpt>
      <trkpt lat="48.85457" lon="2.36296">
        <ele>85.7</ele>
        <time>2015-01-05T19:40:53.685Z</time>
      </trkpt>
      <trkpt lat="48.85451" lon="2.36294">
        <ele>85.3</ele>
        <time>2015-01-05T19:40:54.697Z</time>
      </trkpt>
      <trkpt lat="48.85459" lon="2.36299">
        <ele>86.3</ele>
        <time>2015-01-05T19:40:59.665Z</time>
      </trkpt>
      <trkpt lat="48.85461" lon="2.363">
        <ele>86.7</ele>
        <time>2015-01-05T19:41:00.685Z</time>
      </trkpt>
      <trkpt lat="48.8547" lon="2.36304">
        <ele>87.5</ele>
        <time>2015-01-05T19:41:03.714Z</time>
      </trkpt>
      <trkpt lat="48.85473" lon="2.36306">
        <ele>87.7</ele>
        <time>2015-01-05T19:41:04.747Z</time>
      </trkpt>
      <trkpt lat="48.85481" lon="2.36309">
        <ele>88.5</ele>
        <time>2015-01-05T19:41:07.675Z</time>
      </trkpt>
      <trkpt lat="48.85483" lon="2.3631">
        <ele>88.7</ele>
        <time>2015-01-05T19:41:08.719Z</time>
      </trkpt>
      <trkpt lat="48.85489" lon="2.36313">
        <ele>89.5</ele>
        <time>2015-01-05T19:41:11.666Z</time>
      </trkpt>
      <trkpt lat="48.85492" lon="2.36314">
        <ele>89.6</ele>
        <time>2015-01-05T19:41:12.671Z</time>
      </trkpt>
      <trkpt lat="48.85499" lon="2.3632">
        <ele>89.8</ele>
        <time>2015-01-05T19:41:14.749Z</time>
      </trkpt>
      <trkpt lat="48.85503" lon="2.36325">
        <ele>89.9</ele>
        <time>2015-01-05T19:41:15.712Z</time>
      </trkpt>
      <trkpt lat="48.85508" lon="2.36329">
        <ele>90</ele>
        <time>2015-01-05T19:41:16.660Z</time>
      </trkpt>
      <trkpt lat="48.85511" lon="2.36333">
        <ele>90.2</ele>
        <time>2015-01-05T19:41:17.664Z</time>
      </trkpt>
      <trkpt lat="48.85517" lon="2.3634">
        <ele>90.4</ele>
        <time>2015-01-05T19:41:19.725Z</time>
      </trkpt>
      <trkpt lat="48.8552" lon="2.36345">
        <ele>90.5</ele>
        <time>2015-01-05T19:41:20.738Z</time>
      </trkpt>
      <trkpt lat="48.85527" lon="2.36351">
        <ele>90.6</ele>
        <time>2015-01-05T19:41:22.656Z</time>
      </trkpt>
      <trkpt lat="48.85531" lon="2.36356">
        <ele>90.6</ele>
        <time>2015-01-05T19:41:23.675Z</time>
      </trkpt>
      <trkpt lat="48.85537" lon="2.36362">
        <ele>90.9</ele>
        <time>2015-01-05T19:41:25.614Z</time>
      </trkpt>
      <trkpt lat="48.85541" lon="2.36365">
        <ele>90.8</ele>
        <time>2015-01-05T19:41:26.667Z</time>
      </trkpt>
      <trkpt lat="48.85548" lon="2.36371">
        <ele>90.9</ele>
        <time>2015-01-05T19:41:28.690Z</time>
      </trkpt>
      <trkpt lat="48.85552" lon="2.36372">
        <ele>91</ele>
        <time>2015-01-05T19:41:29.693Z</time>
      </trkpt>
      <trkpt lat="48.85558" lon="2.36376">
        <ele>90.9</ele>
        <time>2015-01-05T19:41:31.716Z</time>
      </trkpt>
      <trkpt lat="48.85561" lon="2.3638">
        <ele>90.9</ele>
        <time>2015-01-05T19:41:32.741Z</time>
      </trkpt>
      <trkpt lat="48.85566" lon="2.36387">
        <ele>90.9</ele>
        <time>2015-01-05T19:41:34.665Z</time>
      </trkpt>
      <trkpt lat="48.85568" lon="2.3639">
        <ele>90.8</ele>
        <time>2015-01-05T19:41:35.672Z</time>
      </trkpt>
      <trkpt lat="48.85572" lon="2.36396">
        <ele>90.7</ele>
        <time>2015-01-05T19:41:38.569Z</time>
      </trkpt>
      <trkpt lat="48.85578" lon="2.36395">
        <ele>91.3</ele>
        <time>2015-01-05T19:41:38.738Z</time>
      </trkpt>
      <trkpt lat="48.85586" lon="2.36399">
        <ele>91.5</ele>
        <time>2015-01-05T19:41:40.641Z</time>
      </trkpt>
      <trkpt lat="48.85591" lon="2.364">
        <ele>91.8</ele>
        <time>2015-01-05T19:41:41.646Z</time>
      </trkpt>
      <trkpt lat="48.85599" lon="2.36404">
        <ele>91.5</ele>
        <time>2015-01-05T19:41:43.664Z</time>
      </trkpt>
      <trkpt lat="48.85604" lon="2.36408">
        <ele>91</ele>
        <time>2015-01-05T19:41:44.712Z</time>
      </trkpt>
      <trkpt lat="48.85609" lon="2.36412">
        <ele>90.6</ele>
        <time>2015-01-05T19:41:45.618Z</time>
      </trkpt>
      <trkpt lat="48.85614" lon="2.36415">
        <ele>91.2</ele>
        <time>2015-01-05T19:41:46.643Z</time>
      </trkpt>
      <trkpt lat="48.85621" lon="2.3642">
        <ele>91</ele>
        <time>2015-01-05T19:41:48.757Z</time>
      </trkpt>
      <trkpt lat="48.85625" lon="2.36422">
        <ele>90.8</ele>
        <time>2015-01-05T19:41:49.697Z</time>
      </trkpt>
      <trkpt lat="48.85631" lon="2.36427">
        <ele>90.6</ele>
        <time>2015-01-05T19:41:51.642Z</time>
      </trkpt>
      <trkpt lat="48.85633" lon="2.36428">
        <ele>90.6</ele>
        <time>2015-01-05T19:41:52.650Z</time>
      </trkpt>
      <trkpt lat="48.8564" lon="2.36428">
        <ele>90.1</ele>
        <time>2015-01-05T19:41:55.705Z</time>
      </trkpt>
      <trkpt lat="48.85643" lon="2.3643">
        <ele>90.2</ele>
        <time>2015-01-05T19:41:56.866Z</time>
      </trkpt>
      <trkpt lat="48.85651" lon="2.36435">
        <ele>90.7</ele>
        <time>2015-01-05T19:42:01.713Z</time>
      </trkpt>
      <trkpt lat="48.85652" lon="2.36437">
        <ele>90.9</ele>
        <time>2015-01-05T19:42:02.760Z</time>
      </trkpt>
      <trkpt lat="48.85659" lon="2.3644">
        <ele>91.1</ele>
        <time>2015-01-05T19:42:07.683Z</time>
      </trkpt>
      <trkpt lat="48.85661" lon="2.3644">
        <ele>91.1</ele>
        <time>2015-01-05T19:42:08.786Z</time>
      </trkpt>
      <trkpt lat="48.85667" lon="2.36444">
        <ele>91.4</ele>
        <time>2015-01-05T19:42:11.648Z</time>
      </trkpt>
      <trkpt lat="48.8567" lon="2.36446">
        <ele>91.4</ele>
        <time>2015-01-05T19:42:12.652Z</time>
      </trkpt>
      <trkpt lat="48.85677" lon="2.36449">
        <ele>91.4</ele>
        <time>2015-01-05T19:42:14.704Z</time>
      </trkpt>
      <trkpt lat="48.85681" lon="2.36451">
        <ele>91.5</ele>
        <time>2015-01-05T19:42:15.709Z</time>
      </trkpt>
      <trkpt lat="48.85687" lon="2.36456">
        <ele>91.6</ele>
        <time>2015-01-05T19:42:17.642Z</time>
      </trkpt>
      <trkpt lat="48.85691" lon="2.36459">
        <ele>91.6</ele>
        <time>2015-01-05T19:42:18.673Z</time>
      </trkpt>
      <trkpt lat="48.85697" lon="2.36465">
        <ele>91.8</ele>
        <time>2015-01-05T19:42:20.728Z</time>
      </trkpt>
      <trkpt lat="48.857" lon="2.36467">
        <ele>91.9</ele>
        <time>2015-01-05T19:42:21.747Z</time>
      </trkpt>
      <trkpt lat="48.85709" lon="2.36469">
        <ele>91.9</ele>
        <time>2015-01-05T19:42:24.285Z</time>
      </trkpt>
      <trkpt lat="48.85712" lon="2.36471">
        <ele>91.9</ele>
        <time>2015-01-05T19:42:24.704Z</time>
      </trkpt>
      <trkpt lat="48.8572" lon="2.36476">
        <ele>91.8</ele>
        <time>2015-01-05T19:42:26.713Z</time>
      </trkpt>
      <trkpt lat="48.85724" lon="2.36477">
        <ele>91.9</ele>
        <time>2015-01-05T19:42:27.775Z</time>
      </trkpt>
      <trkpt lat="48.85728" lon="2.36478">
        <ele>91.8</ele>
        <time>2015-01-05T19:42:28.699Z</time>
      </trkpt>
      <trkpt lat="48.85733" lon="2.36478">
        <ele>91.7</ele>
        <time>2015-01-05T19:42:29.700Z</time>
      </trkpt>
      <trkpt lat="48.85738" lon="2.36477">
        <ele>91.5</ele>
        <time>2015-01-05T19:42:30.714Z</time>
      </trkpt>
      <trkpt lat="48.85742" lon="2.36477">
        <ele>91.4</ele>
        <time>2015-01-05T19:42:31.723Z</time>
      </trkpt>
      <trkpt lat="48.8575" lon="2.36478">
        <ele>91.2</ele>
        <time>2015-01-05T19:42:33.630Z</time>
      </trkpt>
      <trkpt lat="48.85753" lon="2.36477">
        <ele>90.9</ele>
        <time>2015-01-05T19:42:34.658Z</time>
      </trkpt>
      <trkpt lat="48.85761" lon="2.36469">
        <ele>89.1</ele>
        <time>2015-01-05T19:42:35.677Z</time>
      </trkpt>
      <trkpt lat="48.85766" lon="2.36466">
        <ele>88.6</ele>
        <time>2015-01-05T19:42:36.685Z</time>
      </trkpt>
      <trkpt lat="48.8577" lon="2.36465">
        <ele>88.5</ele>
        <time>2015-01-05T19:42:37.735Z</time>
      </trkpt>
      <trkpt lat="48.85775" lon="2.36464">
        <ele>88.5</ele>
        <time>2015-01-05T19:42:38.755Z</time>
      </trkpt>
      <trkpt lat="48.8578" lon="2.36463">
        <ele>88.4</ele>
        <time>2015-01-05T19:42:39.629Z</time>
      </trkpt>
      <trkpt lat="48.85785" lon="2.36463">
        <ele>88.5</ele>
        <time>2015-01-05T19:42:40.630Z</time>
      </trkpt>
      <trkpt lat="48.8579" lon="2.36463">
        <ele>88.5</ele>
        <time>2015-01-05T19:42:41.637Z</time>
      </trkpt>
      <trkpt lat="48.85795" lon="2.36462">
        <ele>88.5</ele>
        <time>2015-01-05T19:42:42.660Z</time>
      </trkpt>
      <trkpt lat="48.858" lon="2.36462">
        <ele>88.5</ele>
        <time>2015-01-05T19:42:43.666Z</time>
      </trkpt>
      <trkpt lat="48.85805" lon="2.36463">
        <ele>88.5</ele>
        <time>2015-01-05T19:42:44.675Z</time>
      </trkpt>
      <trkpt lat="48.85812" lon="2.36466">
        <ele>88.4</ele>
        <time>2015-01-05T19:42:45.678Z</time>
      </trkpt>
      <trkpt lat="48.85818" lon="2.36467">
        <ele>88.4</ele>
        <time>2015-01-05T19:42:46.688Z</time>
      </trkpt>
      <trkpt lat="48.85823" lon="2.36468">
        <ele>88.5</ele>
        <time>2015-01-05T19:42:47.697Z</time>
      </trkpt>
      <trkpt lat="48.85828" lon="2.36469">
        <ele>88.6</ele>
        <time>2015-01-05T19:42:48.711Z</time>
      </trkpt>
      <trkpt lat="48.85832" lon="2.36469">
        <ele>88.8</ele>
        <time>2015-01-05T19:42:49.732Z</time>
      </trkpt>
      <trkpt lat="48.85841" lon="2.36471">
        <ele>88.9</ele>
        <time>2015-01-05T19:42:51.749Z</time>
      </trkpt>
      <trkpt lat="48.85845" lon="2.36471">
        <ele>89</ele>
        <time>2015-01-05T19:42:52.639Z</time>
      </trkpt>
      <trkpt lat="48.8585" lon="2.36472">
        <ele>89.1</ele>
        <time>2015-01-05T19:42:53.680Z</time>
      </trkpt>
      <trkpt lat="48.85855" lon="2.36474">
        <ele>89.1</ele>
        <time>2015-01-05T19:42:54.685Z</time>
      </trkpt>
      <trkpt lat="48.8586" lon="2.36474">
        <ele>89.2</ele>
        <time>2015-01-05T19:42:55.707Z</time>
      </trkpt>
      <trkpt lat="48.85865" lon="2.36474">
        <ele>89.3</ele>
        <time>2015-01-05T19:42:56.717Z</time>
      </trkpt>
      <trkpt lat="48.85871" lon="2.36474">
        <ele>89.5</ele>
        <time>2015-01-05T19:42:58.210Z</time>
      </trkpt>
      <trkpt lat="48.85877" lon="2.36474">
        <ele>89.6</ele>
        <time>2015-01-05T19:42:58.615Z</time>
      </trkpt>
      <trkpt lat="48.85883" lon="2.36475">
        <ele>89.6</ele>
        <time>2015-01-05T19:42:59.676Z</time>
      </trkpt>
      <trkpt lat="48.85889" lon="2.36475">
        <ele>89.6</ele>
        <time>2015-01-05T19:43:00.699Z</time>
      </trkpt>
      <trkpt lat="48.85894" lon="2.36475">
        <ele>89.6</ele>
        <time>2015-01-05T19:43:01.765Z</time>
      </trkpt>
      <trkpt lat="48.85899" lon="2.36475">
        <ele>89.6</ele>
        <time>2015-01-05T19:43:02.739Z</time>
      </trkpt>
      <trkpt lat="48.85906" lon="2.36472">
        <ele>89</ele>
        <time>2015-01-05T19:43:03.636Z</time>
      </trkpt>
      <trkpt lat="48.85913" lon="2.36471">
        <ele>88.5</ele>
        <time>2015-01-05T19:43:04.645Z</time>
      </trkpt>
      <trkpt lat="48.85918" lon="2.3647">
        <ele>88.7</ele>
        <time>2015-01-05T19:43:05.715Z</time>
      </trkpt>
      <trkpt lat="48.85924" lon="2.36469">
        <ele>88.7</ele>
        <time>2015-01-05T19:43:06.715Z</time>
      </trkpt>
      <trkpt lat="48.85931" lon="2.36469">
        <ele>88.8</ele>
        <time>2015-01-05T19:43:07.615Z</time>
      </trkpt>
      <trkpt lat="48.85938" lon="2.36469">
        <ele>88.8</ele>
        <time>2015-01-05T19:43:08.671Z</time>
      </trkpt>
      <trkpt lat="48.85945" lon="2.36468">
        <ele>89</ele>
        <time>2015-01-05T19:43:09.677Z</time>
      </trkpt>
      <trkpt lat="48.85951" lon="2.36467">
        <ele>89.1</ele>
        <time>2015-01-05T19:43:10.699Z</time>
      </trkpt>
      <trkpt lat="48.85957" lon="2.36467">
        <ele>89.2</ele>
        <time>2015-01-05T19:43:11.721Z</time>
      </trkpt>
      <trkpt lat="48.85963" lon="2.36466">
        <ele>89.6</ele>
        <time>2015-01-05T19:43:12.612Z</time>
      </trkpt>
      <trkpt lat="48.85968" lon="2.36466">
        <ele>89.9</ele>
        <time>2015-01-05T19:43:13.652Z</time>
      </trkpt>
      <trkpt lat="48.85974" lon="2.36464">
        <ele>89.4</ele>
        <time>2015-01-05T19:43:14.684Z</time>
      </trkpt>
      <trkpt lat="48.85981" lon="2.3646">
        <ele>88.6</ele>
        <time>2015-01-05T19:43:15.714Z</time>
      </trkpt>
      <trkpt lat="48.85984" lon="2.3646">
        <ele>88.8</ele>
        <time>2015-01-05T19:43:16.721Z</time>
      </trkpt>
      <trkpt lat="48.85991" lon="2.3646">
        <ele>89.2</ele>
        <time>2015-01-05T19:43:18.634Z</time>
      </trkpt>
      <trkpt lat="48.85995" lon="2.3646">
        <ele>89.4</ele>
        <time>2015-01-05T19:43:19.651Z</time>
      </trkpt>
      <trkpt lat="48.86003" lon="2.36461">
        <ele>89.6</ele>
        <time>2015-01-05T19:43:21.643Z</time>
      </trkpt>
      <trkpt lat="48.86008" lon="2.36461">
        <ele>89.3</ele>
        <time>2015-01-05T19:43:22.665Z</time>
      </trkpt>
      <trkpt lat="48.86013" lon="2.36459">
        <ele>89</ele>
        <time>2015-01-05T19:43:23.667Z</time>
      </trkpt>
      <trkpt lat="48.86017" lon="2.36459">
        <ele>89</ele>
        <time>2015-01-05T19:43:24.690Z</time>
      </trkpt>
      <trkpt lat="48.86025" lon="2.36459">
        <ele>88.9</ele>
        <time>2015-01-05T19:43:26.747Z</time>
      </trkpt>
      <trkpt lat="48.86029" lon="2.36459">
        <ele>89</ele>
        <time>2015-01-05T19:43:27.613Z</time>
      </trkpt>
      <trkpt lat="48.86037" lon="2.36459">
        <ele>89.1</ele>
        <time>2015-01-05T19:43:29.646Z</time>
      </trkpt>
      <trkpt lat="48.86043" lon="2.36459">
        <ele>89.2</ele>
        <time>2015-01-05T19:43:30.674Z</time>
      </trkpt>
      <trkpt lat="48.86048" lon="2.3646">
        <ele>89.2</ele>
        <time>2015-01-05T19:43:32.516Z</time>
      </trkpt>
      <trkpt lat="48.86053" lon="2.3646">
        <ele>89.3</ele>
        <time>2015-01-05T19:43:32.761Z</time>
      </trkpt>
      <trkpt lat="48.86059" lon="2.36461">
        <ele>89.4</ele>
        <time>2015-01-05T19:43:34.183Z</time>
      </trkpt>
      <trkpt lat="48.86064" lon="2.3646">
        <ele>89.6</ele>
        <time>2015-01-05T19:43:34.620Z</time>
      </trkpt>
      <trkpt lat="48.8607" lon="2.36459">
        <ele>89.7</ele>
        <time>2015-01-05T19:43:35.637Z</time>
      </trkpt>
      <trkpt lat="48.86076" lon="2.36456">
        <ele>89.8</ele>
        <time>2015-01-05T19:43:36.719Z</time>
      </trkpt>
      <trkpt lat="48.86081" lon="2.36455">
        <ele>90.1</ele>
        <time>2015-01-05T19:43:37.734Z</time>
      </trkpt>
      <trkpt lat="48.86086" lon="2.36453">
        <ele>90.4</ele>
        <time>2015-01-05T19:43:38.802Z</time>
      </trkpt>
      <trkpt lat="48.86091" lon="2.36453">
        <ele>90.6</ele>
        <time>2015-01-05T19:43:39.712Z</time>
      </trkpt>
      <trkpt lat="48.86095" lon="2.36453">
        <ele>90.8</ele>
        <time>2015-01-05T19:43:40.672Z</time>
      </trkpt>
      <trkpt lat="48.86103" lon="2.36454">
        <ele>91.2</ele>
        <time>2015-01-05T19:43:42.746Z</time>
      </trkpt>
      <trkpt lat="48.86105" lon="2.36453">
        <ele>91.3</ele>
        <time>2015-01-05T19:43:43.670Z</time>
      </trkpt>
      <trkpt lat="48.86112" lon="2.3645">
        <ele>91.6</ele>
        <time>2015-01-05T19:43:45.646Z</time>
      </trkpt>
      <trkpt lat="48.86117" lon="2.36449">
        <ele>91.7</ele>
        <time>2015-01-05T19:43:46.861Z</time>
      </trkpt>
      <trkpt lat="48.86125" lon="2.36448">
        <ele>91.7</ele>
        <time>2015-01-05T19:43:48.633Z</time>
      </trkpt>
      <trkpt lat="48.8613" lon="2.36448">
        <ele>92</ele>
        <time>2015-01-05T19:43:49.658Z</time>
      </trkpt>
      <trkpt lat="48.86133" lon="2.36448">
        <ele>92.2</ele>
        <time>2015-01-05T19:43:50.669Z</time>
      </trkpt>
      <trkpt lat="48.86141" lon="2.36451">
        <ele>92.5</ele>
        <time>2015-01-05T19:43:51.674Z</time>
      </trkpt>
      <trkpt lat="48.86147" lon="2.36454">
        <ele>92.6</ele>
        <time>2015-01-05T19:43:52.685Z</time>
      </trkpt>
      <trkpt lat="48.86151" lon="2.36454">
        <ele>92.9</ele>
        <time>2015-01-05T19:43:53.720Z</time>
      </trkpt>
      <trkpt lat="48.86159" lon="2.36454">
        <ele>93.6</ele>
        <time>2015-01-05T19:43:55.638Z</time>
      </trkpt>
      <trkpt lat="48.86162" lon="2.36455">
        <ele>94.2</ele>
        <time>2015-01-05T19:43:56.673Z</time>
      </trkpt>
      <trkpt lat="48.8617" lon="2.36455">
        <ele>95</ele>
        <time>2015-01-05T19:43:58.710Z</time>
      </trkpt>
      <trkpt lat="48.86174" lon="2.36454">
        <ele>95.4</ele>
        <time>2015-01-05T19:43:59.720Z</time>
      </trkpt>
      <trkpt lat="48.86182" lon="2.36451">
        <ele>96</ele>
        <time>2015-01-05T19:44:01.678Z</time>
      </trkpt>
      <trkpt lat="48.86185" lon="2.36449">
        <ele>96.4</ele>
        <time>2015-01-05T19:44:02.690Z</time>
      </trkpt>
      <trkpt lat="48.86193" lon="2.36446">
        <ele>98.8</ele>
        <time>2015-01-05T19:44:06.772Z</time>
      </trkpt>
      <trkpt lat="48.86196" lon="2.36446">
        <ele>99.6</ele>
        <time>2015-01-05T19:44:07.658Z</time>
      </trkpt>
      <trkpt lat="48.86203" lon="2.36446">
        <ele>101.6</ele>
        <time>2015-01-05T19:44:09.716Z</time>
      </trkpt>
      <trkpt lat="48.86208" lon="2.36449">
        <ele>102.7</ele>
        <time>2015-01-05T19:44:10.742Z</time>
      </trkpt>
      <trkpt lat="48.86216" lon="2.36453">
        <ele>103.7</ele>
        <time>2015-01-05T19:44:12.662Z</time>
      </trkpt>
      <trkpt lat="48.86218" lon="2.36455">
        <ele>104.2</ele>
        <time>2015-01-05T19:44:13.672Z</time>
      </trkpt>
      <trkpt lat="48.86225" lon="2.36459">
        <ele>104.6</ele>
        <time>2015-01-05T19:44:18.657Z</time>
      </trkpt>
      <trkpt lat="48.86227" lon="2.36459">
        <ele>104.7</ele>
        <time>2015-01-05T19:44:19.679Z</time>
      </trkpt>
      <trkpt lat="48.86235" lon="2.36458">
        <ele>104.7</ele>
        <time>2015-01-05T19:44:22.630Z</time>
      </trkpt>
      <trkpt lat="48.86237" lon="2.36458">
        <ele>104.7</ele>
        <time>2015-01-05T19:44:23.705Z</time>
      </trkpt>
      <trkpt lat="48.86246" lon="2.36458">
        <ele>104.1</ele>
        <time>2015-01-05T19:44:26.676Z</time>
      </trkpt>
      <trkpt lat="48.8625" lon="2.36456">
        <ele>104.2</ele>
        <time>2015-01-05T19:44:27.715Z</time>
      </trkpt>
      <trkpt lat="48.86259" lon="2.36458">
        <ele>104.4</ele>
        <time>2015-01-05T19:44:29.732Z</time>
      </trkpt>
      <trkpt lat="48.86262" lon="2.36461">
        <ele>104.5</ele>
        <time>2015-01-05T19:44:30.737Z</time>
      </trkpt>
      <trkpt lat="48.86269" lon="2.36462">
        <ele>104.7</ele>
        <time>2015-01-05T19:44:33.712Z</time>
      </trkpt>
      <trkpt lat="48.86273" lon="2.36462">
        <ele>104.8</ele>
        <time>2015-01-05T19:44:34.755Z</time>
      </trkpt>
      <trkpt lat="48.86281" lon="2.36462">
        <ele>105</ele>
        <time>2015-01-05T19:44:36.627Z</time>
      </trkpt>
      <trkpt lat="48.86286" lon="2.36462">
        <ele>105.1</ele>
        <time>2015-01-05T19:44:37.641Z</time>
      </trkpt>
      <trkpt lat="48.86291" lon="2.36464">
        <ele>105.3</ele>
        <time>2015-01-05T19:44:38.658Z</time>
      </trkpt>
      <trkpt lat="48.86297" lon="2.36465">
        <ele>105.5</ele>
        <time>2015-01-05T19:44:39.675Z</time>
      </trkpt>
      <trkpt lat="48.86305" lon="2.36469">
        <ele>105.6</ele>
        <time>2015-01-05T19:44:40.682Z</time>
      </trkpt>
      <trkpt lat="48.86309" lon="2.36468">
        <ele>106</ele>
        <time>2015-01-05T19:44:41.681Z</time>
      </trkpt>
      <trkpt lat="48.86314" lon="2.3647">
        <ele>106.2</ele>
        <time>2015-01-05T19:44:42.608Z</time>
      </trkpt>
      <trkpt lat="48.86321" lon="2.36471">
        <ele>106.8</ele>
        <time>2015-01-05T19:44:43.656Z</time>
      </trkpt>
      <trkpt lat="48.86329" lon="2.36471">
        <ele>107.3</ele>
        <time>2015-01-05T19:44:44.665Z</time>
      </trkpt>
      <trkpt lat="48.86336" lon="2.36472">
        <ele>107.8</ele>
        <time>2015-01-05T19:44:45.670Z</time>
      </trkpt>
      <trkpt lat="48.86343" lon="2.36473">
        <ele>108.2</ele>
        <time>2015-01-05T19:44:46.670Z</time>
      </trkpt>
      <trkpt lat="48.86349" lon="2.36474">
        <ele>108.4</ele>
        <time>2015-01-05T19:44:47.730Z</time>
      </trkpt>
      <trkpt lat="48.86353" lon="2.36476">
        <ele>108.6</ele>
        <time>2015-01-05T19:44:49.404Z</time>
      </trkpt>
      <trkpt lat="48.86362" lon="2.36481">
        <ele>108.4</ele>
        <time>2015-01-05T19:44:49.680Z</time>
      </trkpt>
      <trkpt lat="48.86366" lon="2.36482">
        <ele>108.4</ele>
        <time>2015-01-05T19:44:50.694Z</time>
      </trkpt>
      <trkpt lat="48.86371" lon="2.36481">
        <ele>108.2</ele>
        <time>2015-01-05T19:44:51.700Z</time>
      </trkpt>
      <trkpt lat="48.8638" lon="2.36483">
        <ele>108.2</ele>
        <time>2015-01-05T19:44:53.961Z</time>
      </trkpt>
      <trkpt lat="48.86385" lon="2.36483">
        <ele>108.1</ele>
        <time>2015-01-05T19:44:54.636Z</time>
      </trkpt>
      <trkpt lat="48.86393" lon="2.36481">
        <ele>108</ele>
        <time>2015-01-05T19:44:56.649Z</time>
      </trkpt>
      <trkpt lat="48.86398" lon="2.3648">
        <ele>108</ele>
        <time>2015-01-05T19:44:57.742Z</time>
      </trkpt>
      <trkpt lat="48.86406" lon="2.36476">
        <ele>108</ele>
        <time>2015-01-05T19:44:59.638Z</time>
      </trkpt>
      <trkpt lat="48.86409" lon="2.36474">
        <ele>108</ele>
        <time>2015-01-05T19:45:00.639Z</time>
      </trkpt>
      <trkpt lat="48.86417" lon="2.36469">
        <ele>108</ele>
        <time>2015-01-05T19:45:02.766Z</time>
      </trkpt>
      <trkpt lat="48.86421" lon="2.36467">
        <ele>107.9</ele>
        <time>2015-01-05T19:45:03.606Z</time>
      </trkpt>
      <trkpt lat="48.86427" lon="2.36465">
        <ele>107.9</ele>
        <time>2015-01-05T19:45:05.650Z</time>
      </trkpt>
      <trkpt lat="48.86431" lon="2.36464">
        <ele>108</ele>
        <time>2015-01-05T19:45:06.661Z</time>
      </trkpt>
      <trkpt lat="48.86436" lon="2.36463">
        <ele>108</ele>
        <time>2015-01-05T19:45:07.776Z</time>
      </trkpt>
      <trkpt lat="48.86442" lon="2.36461">
        <ele>107.9</ele>
        <time>2015-01-05T19:45:08.706Z</time>
      </trkpt>
      <trkpt lat="48.86446" lon="2.36459">
        <ele>107.9</ele>
        <time>2015-01-05T19:45:09.716Z</time>
      </trkpt>
      <trkpt lat="48.86455" lon="2.36457">
        <ele>106.5</ele>
        <time>2015-01-05T19:45:10.727Z</time>
      </trkpt>
      <trkpt lat="48.86461" lon="2.36456">
        <ele>106.8</ele>
        <time>2015-01-05T19:45:11.646Z</time>
      </trkpt>
      <trkpt lat="48.86467" lon="2.36454">
        <ele>107</ele>
        <time>2015-01-05T19:45:12.722Z</time>
      </trkpt>
      <trkpt lat="48.86473" lon="2.36447">
        <ele>106</ele>
        <time>2015-01-05T19:45:17.716Z</time>
      </trkpt>
      <trkpt lat="48.86474" lon="2.36446">
        <ele>106.1</ele>
        <time>2015-01-05T19:45:18.764Z</time>
      </trkpt>
      <trkpt lat="48.86481" lon="2.36443">
        <ele>105.8</ele>
        <time>2015-01-05T19:45:21.687Z</time>
      </trkpt>
      <trkpt lat="48.86483" lon="2.36441">
        <ele>105.9</ele>
        <time>2015-01-05T19:45:22.700Z</time>
      </trkpt>
      <trkpt lat="48.8649" lon="2.36436">
        <ele>105.4</ele>
        <time>2015-01-05T19:45:25.660Z</time>
      </trkpt>
      <trkpt lat="48.86493" lon="2.36435">
        <ele>105.3</ele>
        <time>2015-01-05T19:45:26.730Z</time>
      </trkpt>
      <trkpt lat="48.86501" lon="2.36431">
        <ele>104.8</ele>
        <time>2015-01-05T19:45:29.686Z</time>
      </trkpt>
      <trkpt lat="48.86504" lon="2.3643">
        <ele>104.7</ele>
        <time>2015-01-05T19:45:30.708Z</time>
      </trkpt>
      <trkpt lat="48.86511" lon="2.36423">
        <ele>105.2</ele>
        <time>2015-01-05T19:45:32.784Z</time>
      </trkpt>
      <trkpt lat="48.86514" lon="2.36421">
        <ele>105.3</ele>
        <time>2015-01-05T19:45:33.708Z</time>
      </trkpt>
      <trkpt lat="48.86522" lon="2.36421">
        <ele>105.4</ele>
        <time>2015-01-05T19:45:35.640Z</time>
      </trkpt>
      <trkpt lat="48.86525" lon="2.36421">
        <ele>105.4</ele>
        <time>2015-01-05T19:45:36.650Z</time>
      </trkpt>
      <trkpt lat="48.86533" lon="2.3642">
        <ele>105.4</ele>
        <time>2015-01-05T19:45:38.664Z</time>
      </trkpt>
      <trkpt lat="48.86536" lon="2.36417">
        <ele>105.3</ele>
        <time>2015-01-05T19:45:39.662Z</time>
      </trkpt>
      <trkpt lat="48.86543" lon="2.36412">
        <ele>105.2</ele>
        <time>2015-01-05T19:45:41.687Z</time>
      </trkpt>
      <trkpt lat="48.86546" lon="2.36411">
        <ele>105.2</ele>
        <time>2015-01-05T19:45:42.682Z</time>
      </trkpt>
      <trkpt lat="48.86551" lon="2.36407">
        <ele>105.2</ele>
        <time>2015-01-05T19:45:44.732Z</time>
      </trkpt>
      <trkpt lat="48.86554" lon="2.36404">
        <ele>105.2</ele>
        <time>2015-01-05T19:45:45.820Z</time>
      </trkpt>
      <trkpt lat="48.86559" lon="2.36397">
        <ele>105.2</ele>
        <time>2015-01-05T19:45:48.201Z</time>
      </trkpt>
      <trkpt lat="48.86563" lon="2.36395">
        <ele>105.3</ele>
        <time>2015-01-05T19:45:48.859Z</time>
      </trkpt>
      <trkpt lat="48.86569" lon="2.36394">
        <ele>105.4</ele>
        <time>2015-01-05T19:45:50.694Z</time>
      </trkpt>
      <trkpt lat="48.86572" lon="2.36395">
        <ele>105.4</ele>
        <time>2015-01-05T19:45:51.733Z</time>
      </trkpt>
      <trkpt lat="48.86581" lon="2.36397">
        <ele>105.4</ele>
        <time>2015-01-05T19:45:54.698Z</time>
      </trkpt>
      <trkpt lat="48.86583" lon="2.36397">
        <ele>105.5</ele>
        <time>2015-01-05T19:45:55.716Z</time>
      </trkpt>
      <trkpt lat="48.86591" lon="2.36398">
        <ele>105.5</ele>
        <time>2015-01-05T19:45:58.625Z</time>
      </trkpt>
      <trkpt lat="48.86594" lon="2.36398">
        <ele>105.5</ele>
        <time>2015-01-05T19:45:59.714Z</time>
      </trkpt>
      <trkpt lat="48.866" lon="2.36397">
        <ele>105.4</ele>
        <time>2015-01-05T19:46:01.675Z</time>
      </trkpt>
      <trkpt lat="48.86603" lon="2.36397">
        <ele>105.3</ele>
        <time>2015-01-05T19:46:02.725Z</time>
      </trkpt>
      <trkpt lat="48.86612" lon="2.36395">
        <ele>105</ele>
        <time>2015-01-05T19:46:04.640Z</time>
      </trkpt>
      <trkpt lat="48.86617" lon="2.36393">
        <ele>104.7</ele>
        <time>2015-01-05T19:46:05.649Z</time>
      </trkpt>
      <trkpt lat="48.86624" lon="2.36392">
        <ele>104.8</ele>
        <time>2015-01-05T19:46:08.480Z</time>
      </trkpt>
      <trkpt lat="48.86628" lon="2.36391">
        <ele>104.8</ele>
        <time>2015-01-05T19:46:08.729Z</time>
      </trkpt>
      <trkpt lat="48.86636" lon="2.36391">
        <ele>104.8</ele>
        <time>2015-01-05T19:46:10.643Z</time>
      </trkpt>
      <trkpt lat="48.8664" lon="2.36392">
        <ele>104.8</ele>
        <time>2015-01-05T19:46:11.682Z</time>
      </trkpt>
      <trkpt lat="48.86648" lon="2.36394">
        <ele>104.9</ele>
        <time>2015-01-05T19:46:13.703Z</time>
      </trkpt>
      <trkpt lat="48.86651" lon="2.36394">
        <ele>105</ele>
        <time>2015-01-05T19:46:14.741Z</time>
      </trkpt>
      <trkpt lat="48.86659" lon="2.36395">
        <ele>105</ele>
        <time>2015-01-05T19:46:16.647Z</time>
      </trkpt>
      <trkpt lat="48.86664" lon="2.36395">
        <ele>105.1</ele>
        <time>2015-01-05T19:46:17.677Z</time>
      </trkpt>
      <trkpt lat="48.86672" lon="2.36394">
        <ele>105.1</ele>
        <time>2015-01-05T19:46:19.705Z</time>
      </trkpt>
      <trkpt lat="48.86678" lon="2.36392">
        <ele>104.2</ele>
        <time>2015-01-05T19:46:20.782Z</time>
      </trkpt>
      <trkpt lat="48.86682" lon="2.36389">
        <ele>103.5</ele>
        <time>2015-01-05T19:46:21.639Z</time>
      </trkpt>
      <trkpt lat="48.86686" lon="2.36386">
        <ele>102.9</ele>
        <time>2015-01-05T19:46:22.648Z</time>
      </trkpt>
      <trkpt lat="48.86691" lon="2.36383">
        <ele>102.5</ele>
        <time>2015-01-05T19:46:23.695Z</time>
      </trkpt>
      <trkpt lat="48.86696" lon="2.36378">
        <ele>100.6</ele>
        <time>2015-01-05T19:46:24.655Z</time>
      </trkpt>
      <trkpt lat="48.86703" lon="2.36375">
        <ele>98.9</ele>
        <time>2015-01-05T19:46:25.673Z</time>
      </trkpt>
      <trkpt lat="48.86709" lon="2.36372">
        <ele>97.7</ele>
        <time>2015-01-05T19:46:26.680Z</time>
      </trkpt>
      <trkpt lat="48.86714" lon="2.36366">
        <ele>96.5</ele>
        <time>2015-01-05T19:46:28.162Z</time>
      </trkpt>
      <trkpt lat="48.8672" lon="2.36362">
        <ele>95.7</ele>
        <time>2015-01-05T19:46:28.705Z</time>
      </trkpt>
      <trkpt lat="48.86726" lon="2.36356">
        <ele>95.8</ele>
        <time>2015-01-05T19:46:29.706Z</time>
      </trkpt>
      <trkpt lat="48.86732" lon="2.36349">
        <ele>96.1</ele>
        <time>2015-01-05T19:46:30.711Z</time>
      </trkpt>
      <trkpt lat="48.86738" lon="2.36344">
        <ele>96.2</ele>
        <time>2015-01-05T19:46:31.719Z</time>
      </trkpt>
      <trkpt lat="48.86743" lon="2.36339">
        <ele>96.2</ele>
        <time>2015-01-05T19:46:32.725Z</time>
      </trkpt>
      <trkpt lat="48.86749" lon="2.36336">
        <ele>96.1</ele>
        <time>2015-01-05T19:46:33.642Z</time>
      </trkpt>
      <trkpt lat="48.86752" lon="2.3633">
        <ele>96</ele>
        <time>2015-01-05T19:46:34.648Z</time>
      </trkpt>
      <trkpt lat="48.86751" lon="2.36317">
        <ele>92.5</ele>
        <time>2015-01-05T19:46:36.665Z</time>
      </trkpt>
      <trkpt lat="48.86749" lon="2.3631">
        <ele>90.5</ele>
        <time>2015-01-05T19:46:37.673Z</time>
      </trkpt>
      <trkpt lat="48.86753" lon="2.36307">
        <ele>90.3</ele>
        <time>2015-01-05T19:46:38.683Z</time>
      </trkpt>
      <trkpt lat="48.86758" lon="2.36303">
        <ele>90.6</ele>
        <time>2015-01-05T19:46:39.686Z</time>
      </trkpt>
      <trkpt lat="48.86763" lon="2.36301">
        <ele>90.6</ele>
        <time>2015-01-05T19:46:40.706Z</time>
      </trkpt>
      <trkpt lat="48.86769" lon="2.36297">
        <ele>91.1</ele>
        <time>2015-01-05T19:46:41.727Z</time>
      </trkpt>
      <trkpt lat="48.86775" lon="2.36293">
        <ele>91.1</ele>
        <time>2015-01-05T19:46:42.626Z</time>
      </trkpt>
      <trkpt lat="48.8678" lon="2.36289">
        <ele>91.3</ele>
        <time>2015-01-05T19:46:43.633Z</time>
      </trkpt>
      <trkpt lat="48.86785" lon="2.36285">
        <ele>91.1</ele>
        <time>2015-01-05T19:46:44.666Z</time>
      </trkpt>
      <trkpt lat="48.86789" lon="2.36281">
        <ele>91.3</ele>
        <time>2015-01-05T19:46:45.665Z</time>
      </trkpt>
      <trkpt lat="48.86793" lon="2.36275">
        <ele>90.9</ele>
        <time>2015-01-05T19:46:46.701Z</time>
      </trkpt>
      <trkpt lat="48.86796" lon="2.36268">
        <ele>91.2</ele>
        <time>2015-01-05T19:46:47.721Z</time>
      </trkpt>
      <trkpt lat="48.86801" lon="2.36261">
        <ele>91.9</ele>
        <time>2015-01-05T19:46:48.645Z</time>
      </trkpt>
      <trkpt lat="48.86808" lon="2.36256">
        <ele>92.3</ele>
        <time>2015-01-05T19:46:49.672Z</time>
      </trkpt>
      <trkpt lat="48.86815" lon="2.36251">
        <ele>92.9</ele>
        <time>2015-01-05T19:46:50.696Z</time>
      </trkpt>
      <trkpt lat="48.86821" lon="2.36247">
        <ele>92.8</ele>
        <time>2015-01-05T19:46:51.714Z</time>
      </trkpt>
      <trkpt lat="48.86826" lon="2.36243">
        <ele>93.2</ele>
        <time>2015-01-05T19:46:52.631Z</time>
      </trkpt>
      <trkpt lat="48.86832" lon="2.36239">
        <ele>93.7</ele>
        <time>2015-01-05T19:46:53.644Z</time>
      </trkpt>
      <trkpt lat="48.86837" lon="2.36237">
        <ele>94.1</ele>
        <time>2015-01-05T19:46:54.657Z</time>
      </trkpt>
      <trkpt lat="48.86842" lon="2.36233">
        <ele>94.1</ele>
        <time>2015-01-05T19:46:55.665Z</time>
      </trkpt>
      <trkpt lat="48.86846" lon="2.36229">
        <ele>94.1</ele>
        <time>2015-01-05T19:46:56.687Z</time>
      </trkpt>
      <trkpt lat="48.86849" lon="2.36223">
        <ele>94.3</ele>
        <time>2015-01-05T19:46:57.715Z</time>
      </trkpt>
      <trkpt lat="48.86854" lon="2.36219">
        <ele>94.3</ele>
        <time>2015-01-05T19:46:58.641Z</time>
      </trkpt>
      <trkpt lat="48.86859" lon="2.36215">
        <ele>94.3</ele>
        <time>2015-01-05T19:46:59.646Z</time>
      </trkpt>
      <trkpt lat="48.86862" lon="2.36209">
        <ele>94.3</ele>
        <time>2015-01-05T19:47:00.658Z</time>
      </trkpt>
      <trkpt lat="48.86865" lon="2.36203">
        <ele>94.5</ele>
        <time>2015-01-05T19:47:01.661Z</time>
      </trkpt>
      <trkpt lat="48.8687" lon="2.36192">
        <ele>94.7</ele>
        <time>2015-01-05T19:47:03.701Z</time>
      </trkpt>
      <trkpt lat="48.86872" lon="2.36186">
        <ele>94.4</ele>
        <time>2015-01-05T19:47:04.707Z</time>
      </trkpt>
      <trkpt lat="48.86877" lon="2.36175">
        <ele>93.8</ele>
        <time>2015-01-05T19:47:06.634Z</time>
      </trkpt>
      <trkpt lat="48.86879" lon="2.3617">
        <ele>93.5</ele>
        <time>2015-01-05T19:47:07.645Z</time>
      </trkpt>
      <trkpt lat="48.86884" lon="2.3616">
        <ele>93.3</ele>
        <time>2015-01-05T19:47:09.675Z</time>
      </trkpt>
      <trkpt lat="48.86887" lon="2.36156">
        <ele>93.4</ele>
        <time>2015-01-05T19:47:10.687Z</time>
      </trkpt>
      <trkpt lat="48.86895" lon="2.36149">
        <ele>93.1</ele>
        <time>2015-01-05T19:47:12.636Z</time>
      </trkpt>
      <trkpt lat="48.869" lon="2.36146">
        <ele>92.8</ele>
        <time>2015-01-05T19:47:13.640Z</time>
      </trkpt>
      <trkpt lat="48.86904" lon="2.36143">
        <ele>93</ele>
        <time>2015-01-05T19:47:14.666Z</time>
      </trkpt>
      <trkpt lat="48.86909" lon="2.36138">
        <ele>93.1</ele>
        <time>2015-01-05T19:47:15.677Z</time>
      </trkpt>
      <trkpt lat="48.86911" lon="2.36125">
        <ele>92.6</ele>
        <time>2015-01-05T19:47:17.712Z</time>
      </trkpt>
      <trkpt lat="48.86913" lon="2.36121">
        <ele>92.5</ele>
        <time>2015-01-05T19:47:18.643Z</time>
      </trkpt>
      <trkpt lat="48.86919" lon="2.36118">
        <ele>92.7</ele>
        <time>2015-01-05T19:47:19.636Z</time>
      </trkpt>
      <trkpt lat="48.86923" lon="2.36114">
        <ele>92.9</ele>
        <time>2015-01-05T19:47:20.666Z</time>
      </trkpt>
      <trkpt lat="48.86929" lon="2.36111">
        <ele>93</ele>
        <time>2015-01-05T19:47:21.740Z</time>
      </trkpt>
      <trkpt lat="48.86934" lon="2.36108">
        <ele>93.2</ele>
        <time>2015-01-05T19:47:22.632Z</time>
      </trkpt>
      <trkpt lat="48.86941" lon="2.36105">
        <ele>93.3</ele>
        <time>2015-01-05T19:47:23.664Z</time>
      </trkpt>
      <trkpt lat="48.86948" lon="2.36102">
        <ele>93.5</ele>
        <time>2015-01-05T19:47:24.685Z</time>
      </trkpt>
      <trkpt lat="48.86954" lon="2.36099">
        <ele>93.7</ele>
        <time>2015-01-05T19:47:25.624Z</time>
      </trkpt>
      <trkpt lat="48.86959" lon="2.36095">
        <ele>93.8</ele>
        <time>2015-01-05T19:47:26.725Z</time>
      </trkpt>
      <trkpt lat="48.86965" lon="2.36091">
        <ele>93.8</ele>
        <time>2015-01-05T19:47:27.633Z</time>
      </trkpt>
      <trkpt lat="48.86971" lon="2.36088">
        <ele>94</ele>
        <time>2015-01-05T19:47:28.648Z</time>
      </trkpt>
      <trkpt lat="48.86976" lon="2.36085">
        <ele>94.2</ele>
        <time>2015-01-05T19:47:29.652Z</time>
      </trkpt>
      <trkpt lat="48.86983" lon="2.36083">
        <ele>94.4</ele>
        <time>2015-01-05T19:47:30.657Z</time>
      </trkpt>
      <trkpt lat="48.86989" lon="2.36081">
        <ele>94.6</ele>
        <time>2015-01-05T19:47:31.668Z</time>
      </trkpt>
      <trkpt lat="48.86996" lon="2.3608">
        <ele>94.9</ele>
        <time>2015-01-05T19:47:32.689Z</time>
      </trkpt>
      <trkpt lat="48.87002" lon="2.36078">
        <ele>95</ele>
        <time>2015-01-05T19:47:33.720Z</time>
      </trkpt>
      <trkpt lat="48.87009" lon="2.36077">
        <ele>95.4</ele>
        <time>2015-01-05T19:47:34.636Z</time>
      </trkpt>
      <trkpt lat="48.87015" lon="2.36075">
        <ele>95.5</ele>
        <time>2015-01-05T19:47:35.636Z</time>
      </trkpt>
      <trkpt lat="48.87022" lon="2.36074">
        <ele>95.6</ele>
        <time>2015-01-05T19:47:36.667Z</time>
      </trkpt>
      <trkpt lat="48.87029" lon="2.36073">
        <ele>95.9</ele>
        <time>2015-01-05T19:47:37.700Z</time>
      </trkpt>
      <trkpt lat="48.87035" lon="2.36071">
        <ele>96</ele>
        <time>2015-01-05T19:47:38.703Z</time>
      </trkpt>
      <trkpt lat="48.87042" lon="2.36069">
        <ele>96.7</ele>
        <time>2015-01-05T19:47:39.710Z</time>
      </trkpt>
      <trkpt lat="48.87048" lon="2.36067">
        <ele>97.3</ele>
        <time>2015-01-05T19:47:40.726Z</time>
      </trkpt>
      <trkpt lat="48.87054" lon="2.36065">
        <ele>98.3</ele>
        <time>2015-01-05T19:47:41.615Z</time>
      </trkpt>
      <trkpt lat="48.8706" lon="2.36063">
        <ele>99.2</ele>
        <time>2015-01-05T19:47:42.623Z</time>
      </trkpt>
      <trkpt lat="48.87065" lon="2.36061">
        <ele>99.9</ele>
        <time>2015-01-05T19:47:43.636Z</time>
      </trkpt>
      <trkpt lat="48.87069" lon="2.36058">
        <ele>100.4</ele>
        <time>2015-01-05T19:47:44.655Z</time>
      </trkpt>
      <trkpt lat="48.87077" lon="2.36052">
        <ele>101.7</ele>
        <time>2015-01-05T19:47:46.710Z</time>
      </trkpt>
      <trkpt lat="48.87079" lon="2.36049">
        <ele>101.4</ele>
        <time>2015-01-05T19:47:47.614Z</time>
      </trkpt>
      <trkpt lat="48.87086" lon="2.36043">
        <ele>101.6</ele>
        <time>2015-01-05T19:47:49.636Z</time>
      </trkpt>
      <trkpt lat="48.87089" lon="2.3604">
        <ele>102.2</ele>
        <time>2015-01-05T19:47:50.669Z</time>
      </trkpt>
      <trkpt lat="48.87093" lon="2.36038">
        <ele>102.4</ele>
        <time>2015-01-05T19:47:51.672Z</time>
      </trkpt>
      <trkpt lat="48.87098" lon="2.36036">
        <ele>102.7</ele>
        <time>2015-01-05T19:47:52.681Z</time>
      </trkpt>
      <trkpt lat="48.87107" lon="2.36034">
        <ele>102.8</ele>
        <time>2015-01-05T19:47:54.720Z</time>
      </trkpt>
      <trkpt lat="48.87112" lon="2.36033">
        <ele>103.4</ele>
        <time>2015-01-05T19:47:55.630Z</time>
      </trkpt>
      <trkpt lat="48.87119" lon="2.36028">
        <ele>103.5</ele>
        <time>2015-01-05T19:47:57.658Z</time>
      </trkpt>
      <trkpt lat="48.87125" lon="2.36027">
        <ele>103.8</ele>
        <time>2015-01-05T19:47:58.679Z</time>
      </trkpt>
      <trkpt lat="48.8713" lon="2.36025">
        <ele>104.1</ele>
        <time>2015-01-05T19:47:59.691Z</time>
      </trkpt>
      <trkpt lat="48.87144" lon="2.36024">
        <ele>105.1</ele>
        <time>2015-01-05T19:48:01.631Z</time>
      </trkpt>
      <trkpt lat="48.87149" lon="2.36022">
        <ele>105.5</ele>
        <time>2015-01-05T19:48:02.665Z</time>
      </trkpt>
      <trkpt lat="48.87138" lon="2.35925">
        <ele>107.4</ele>
        <time>2015-01-05T19:48:13.668Z</time>
      </trkpt>
      <trkpt lat="48.87122" lon="2.35901">
        <ele>107.3</ele>
        <time>2015-01-05T19:48:14.658Z</time>
      </trkpt>
      <trkpt lat="48.87103" lon="2.35874">
        <ele>107.1</ele>
        <time>2015-01-05T19:48:15.663Z</time>
      </trkpt>
      <trkpt lat="48.87086" lon="2.35849">
        <ele>106.6</ele>
        <time>2015-01-05T19:48:16.673Z</time>
      </trkpt>
      <trkpt lat="48.87066" lon="2.35822">
        <ele>106</ele>
        <time>2015-01-05T19:48:17.680Z</time>
      </trkpt>
      <trkpt lat="48.87045" lon="2.35793">
        <ele>105.5</ele>
        <time>2015-01-05T19:48:18.590Z</time>
      </trkpt>
      <trkpt lat="48.87019" lon="2.35758">
        <ele>105.1</ele>
        <time>2015-01-05T19:48:19.611Z</time>
      </trkpt>
      <trkpt lat="48.86985" lon="2.35716">
        <ele>104.9</ele>
        <time>2015-01-05T19:48:20.625Z</time>
      </trkpt>
      <trkpt lat="48.86947" lon="2.3567">
        <ele>104.5</ele>
        <time>2015-01-05T19:48:21.637Z</time>
      </trkpt>
      <trkpt lat="48.86906" lon="2.35622">
        <ele>103.9</ele>
        <time>2015-01-05T19:48:22.654Z</time>
      </trkpt>
      <trkpt lat="48.86872" lon="2.35581">
        <ele>103.9</ele>
        <time>2015-01-05T19:48:23.731Z</time>
      </trkpt>
      <trkpt lat="48.86863" lon="2.35565">
        <ele>104</ele>
        <time>2015-01-05T19:48:24.689Z</time>
      </trkpt>
      <trkpt lat="48.86857" lon="2.35548">
        <ele>105.2</ele>
        <time>2015-01-05T19:48:25.608Z</time>
      </trkpt>
      <trkpt lat="48.86853" lon="2.35531">
        <ele>108.4</ele>
        <time>2015-01-05T19:48:26.621Z</time>
      </trkpt>
      <trkpt lat="48.86849" lon="2.35518">
        <ele>109.1</ele>
        <time>2015-01-05T19:48:27.641Z</time>
      </trkpt>
      <trkpt lat="48.86849" lon="2.35508">
        <ele>110.4</ele>
        <time>2015-01-05T19:48:28.660Z</time>
      </trkpt>
      <trkpt lat="48.86854" lon="2.35504">
        <ele>110.3</ele>
        <time>2015-01-05T19:48:29.666Z</time>
      </trkpt>
      <trkpt lat="48.86854" lon="2.35492">
        <ele>103.1</ele>
        <time>2015-01-05T19:48:32.773Z</time>
      </trkpt>
      <trkpt lat="48.86859" lon="2.35493">
        <ele>101.5</ele>
        <time>2015-01-05T19:48:33.638Z</time>
      </trkpt>
      <trkpt lat="48.86866" lon="2.35491">
        <ele>99.6</ele>
        <time>2015-01-05T19:48:35.626Z</time>
      </trkpt>
      <trkpt lat="48.86869" lon="2.35487">
        <ele>100</ele>
        <time>2015-01-05T19:48:36.654Z</time>
      </trkpt>
      <trkpt lat="48.86876" lon="2.3548">
        <ele>99.6</ele>
        <time>2015-01-05T19:48:38.726Z</time>
      </trkpt>
      <trkpt lat="48.8688" lon="2.35478">
        <ele>99.6</ele>
        <time>2015-01-05T19:48:39.631Z</time>
      </trkpt>
      <trkpt lat="48.86886" lon="2.35471">
        <ele>100</ele>
        <time>2015-01-05T19:48:41.703Z</time>
      </trkpt>
      <trkpt lat="48.8689" lon="2.35467">
        <ele>100.2</ele>
        <time>2015-01-05T19:48:42.720Z</time>
      </trkpt>
      <trkpt lat="48.86898" lon="2.35462">
        <ele>100.2</ele>
        <time>2015-01-05T19:48:44.639Z</time>
      </trkpt>
      <trkpt lat="48.86902" lon="2.35459">
        <ele>100.2</ele>
        <time>2015-01-05T19:48:45.696Z</time>
      </trkpt>
      <trkpt lat="48.86907" lon="2.35457">
        <ele>100.3</ele>
        <time>2015-01-05T19:48:46.630Z</time>
      </trkpt>
      <trkpt lat="48.86912" lon="2.35454">
        <ele>100.5</ele>
        <time>2015-01-05T19:48:47.643Z</time>
      </trkpt>
      <trkpt lat="48.86918" lon="2.35448">
        <ele>101.1</ele>
        <time>2015-01-05T19:48:49.676Z</time>
      </trkpt>
      <trkpt lat="48.86918" lon="2.35442">
        <ele>101.4</ele>
        <time>2015-01-05T19:48:50.700Z</time>
      </trkpt>
      <trkpt lat="48.86913" lon="2.35431">
        <ele>100.4</ele>
        <time>2015-01-05T19:48:52.609Z</time>
      </trkpt>
      <trkpt lat="48.86905" lon="2.35423">
        <ele>98.7</ele>
        <time>2015-01-05T19:48:53.639Z</time>
      </trkpt>
      <trkpt lat="48.86902" lon="2.35414">
        <ele>98.9</ele>
        <time>2015-01-05T19:48:55.676Z</time>
      </trkpt>
      <trkpt lat="48.86901" lon="2.3541">
        <ele>99.4</ele>
        <time>2015-01-05T19:48:56.693Z</time>
      </trkpt>
      <trkpt lat="48.86895" lon="2.35402">
        <ele>93.8</ele>
        <time>2015-01-05T19:49:29.719Z</time>
      </trkpt>
      <trkpt lat="48.86895" lon="2.35394">
        <ele>94.4</ele>
        <time>2015-01-05T19:49:30.727Z</time>
      </trkpt>
      <trkpt lat="48.86896" lon="2.35384">
        <ele>95.5</ele>
        <time>2015-01-05T19:49:32.965Z</time>
      </trkpt>
      <trkpt lat="48.86896" lon="2.3538">
        <ele>95.8</ele>
        <time>2015-01-05T19:49:33.715Z</time>
      </trkpt>
      <trkpt lat="48.869" lon="2.35369">
        <ele>95.5</ele>
        <time>2015-01-05T19:49:38.100Z</time>
      </trkpt>
      <trkpt lat="48.86901" lon="2.35367">
        <ele>95.3</ele>
        <time>2015-01-05T19:49:38.682Z</time>
      </trkpt>
      <trkpt lat="48.86909" lon="2.35362">
        <ele>95</ele>
        <time>2015-01-05T19:49:41.677Z</time>
      </trkpt>
      <trkpt lat="48.86912" lon="2.35361">
        <ele>95.2</ele>
        <time>2015-01-05T19:49:42.769Z</time>
      </trkpt>
      <trkpt lat="48.8692" lon="2.35353">
        <ele>95.8</ele>
        <time>2015-01-05T19:49:45.746Z</time>
      </trkpt>
      <trkpt lat="48.86922" lon="2.35351">
        <ele>95.8</ele>
        <time>2015-01-05T19:49:46.609Z</time>
      </trkpt>
      <trkpt lat="48.86929" lon="2.35348">
        <ele>96</ele>
        <time>2015-01-05T19:49:48.636Z</time>
      </trkpt>
      <trkpt lat="48.86933" lon="2.35346">
        <ele>96.1</ele>
        <time>2015-01-05T19:49:49.660Z</time>
      </trkpt>
      <trkpt lat="48.86942" lon="2.35343">
        <ele>96.5</ele>
        <time>2015-01-05T19:49:51.662Z</time>
      </trkpt>
      <trkpt lat="48.86946" lon="2.35342">
        <ele>96.8</ele>
        <time>2015-01-05T19:49:52.686Z</time>
      </trkpt>
      <trkpt lat="48.86953" lon="2.35339">
        <ele>97</ele>
        <time>2015-01-05T19:49:54.632Z</time>
      </trkpt>
      <trkpt lat="48.86956" lon="2.35337">
        <ele>97.2</ele>
        <time>2015-01-05T19:49:55.645Z</time>
      </trkpt>
      <trkpt lat="48.86962" lon="2.35333">
        <ele>97.2</ele>
        <time>2015-01-05T19:49:57.693Z</time>
      </trkpt>
      <trkpt lat="48.86964" lon="2.3533">
        <ele>97.2</ele>
        <time>2015-01-05T19:49:58.613Z</time>
      </trkpt>
      <trkpt lat="48.86967" lon="2.35319">
        <ele>96.6</ele>
        <time>2015-01-05T19:50:02.696Z</time>
      </trkpt>
      <trkpt lat="48.86968" lon="2.35316">
        <ele>96.5</ele>
        <time>2015-01-05T19:50:03.602Z</time>
      </trkpt>
      <trkpt lat="48.8697" lon="2.35306">
        <ele>95.7</ele>
        <time>2015-01-05T19:50:06.692Z</time>
      </trkpt>
      <trkpt lat="48.86969" lon="2.35301">
        <ele>95.5</ele>
        <time>2015-01-05T19:50:07.630Z</time>
      </trkpt>
      <trkpt lat="48.86966" lon="2.3529">
        <ele>95.2</ele>
        <time>2015-01-05T19:50:10.650Z</time>
      </trkpt>
      <trkpt lat="48.86966" lon="2.35286">
        <ele>95.3</ele>
        <time>2015-01-05T19:50:11.692Z</time>
      </trkpt>
      <trkpt lat="48.86964" lon="2.35281">
        <ele>95.4</ele>
        <time>2015-01-05T19:50:13.760Z</time>
      </trkpt>
      <trkpt lat="48.86958" lon="2.35276">
        <ele>94.4</ele>
        <time>2015-01-05T19:50:14.675Z</time>
      </trkpt>
      <trkpt lat="48.86958" lon="2.35276">
        <ele>94.4</ele>
        <time>2015-01-05T19:50:23.773Z</time>
      </trkpt>
      <trkpt lat="48.86938" lon="2.35251">
        <ele>90.6</ele>
        <time>2015-01-05T19:50:24.637Z</time>
      </trkpt>
      <trkpt lat="48.86944" lon="2.35257">
        <ele>90</ele>
        <time>2015-01-05T19:50:26.661Z</time>
      </trkpt>
      <trkpt lat="48.86946" lon="2.35258">
        <ele>90</ele>
        <time>2015-01-05T19:50:27.666Z</time>
      </trkpt>
      <trkpt lat="48.86953" lon="2.35252">
        <ele>89.8</ele>
        <time>2015-01-05T19:50:29.657Z</time>
      </trkpt>
      <trkpt lat="48.86961" lon="2.35245">
        <ele>89.7</ele>
        <time>2015-01-05T19:50:30.668Z</time>
      </trkpt>
      <trkpt lat="48.86968" lon="2.3524">
        <ele>89.7</ele>
        <time>2015-01-05T19:50:31.724Z</time>
      </trkpt>
      <trkpt lat="48.86972" lon="2.35236">
        <ele>90</ele>
        <time>2015-01-05T19:50:32.851Z</time>
      </trkpt>
      <trkpt lat="48.86978" lon="2.35225">
        <ele>90.5</ele>
        <time>2015-01-05T19:50:34.666Z</time>
      </trkpt>
      <trkpt lat="48.8698" lon="2.35217">
        <ele>90.1</ele>
        <time>2015-01-05T19:50:35.683Z</time>
      </trkpt>
      <trkpt lat="48.86981" lon="2.35209">
        <ele>89.9</ele>
        <time>2015-01-05T19:50:36.695Z</time>
      </trkpt>
      <trkpt lat="48.86982" lon="2.35201">
        <ele>89.9</ele>
        <time>2015-01-05T19:50:37.703Z</time>
      </trkpt>
      <trkpt lat="48.86983" lon="2.35193">
        <ele>89.6</ele>
        <time>2015-01-05T19:50:38.725Z</time>
      </trkpt>
      <trkpt lat="48.86984" lon="2.35187">
        <ele>89.7</ele>
        <time>2015-01-05T19:50:39.735Z</time>
      </trkpt>
      <trkpt lat="48.8699" lon="2.35178">
        <ele>90.3</ele>
        <time>2015-01-05T19:50:41.649Z</time>
      </trkpt>
      <trkpt lat="48.86993" lon="2.35173">
        <ele>90.8</ele>
        <time>2015-01-05T19:50:42.661Z</time>
      </trkpt>
      <trkpt lat="48.86997" lon="2.35168">
        <ele>91.4</ele>
        <time>2015-01-05T19:50:44.207Z</time>
      </trkpt>
      <trkpt lat="48.87001" lon="2.35163">
        <ele>91.8</ele>
        <time>2015-01-05T19:50:44.687Z</time>
      </trkpt>
      <trkpt lat="48.87008" lon="2.35155">
        <ele>92.8</ele>
        <time>2015-01-05T19:50:46.627Z</time>
      </trkpt>
      <trkpt lat="48.87008" lon="2.35151">
        <ele>94.1</ele>
        <time>2015-01-05T19:50:47.772Z</time>
      </trkpt>
      <trkpt lat="48.87009" lon="2.35141">
        <ele>95.9</ele>
        <time>2015-01-05T19:50:49.673Z</time>
      </trkpt>
      <trkpt lat="48.87011" lon="2.35132">
        <ele>96.9</ele>
        <time>2015-01-05T19:50:50.756Z</time>
      </trkpt>
      <trkpt lat="48.87014" lon="2.35123">
        <ele>97.3</ele>
        <time>2015-01-05T19:50:51.724Z</time>
      </trkpt>
      <trkpt lat="48.87017" lon="2.35115">
        <ele>97.7</ele>
        <time>2015-01-05T19:50:52.744Z</time>
      </trkpt>
      <trkpt lat="48.87021" lon="2.35103">
        <ele>98.6</ele>
        <time>2015-01-05T19:50:54.782Z</time>
      </trkpt>
      <trkpt lat="48.87021" lon="2.35099">
        <ele>99.1</ele>
        <time>2015-01-05T19:50:55.727Z</time>
      </trkpt>
      <trkpt lat="48.8702" lon="2.35089">
        <ele>99.7</ele>
        <time>2015-01-05T19:50:57.615Z</time>
      </trkpt>
      <trkpt lat="48.87019" lon="2.35085">
        <ele>99.9</ele>
        <time>2015-01-05T19:50:58.635Z</time>
      </trkpt>
      <trkpt lat="48.87016" lon="2.35073">
        <ele>100.1</ele>
        <time>2015-01-05T19:51:02.586Z</time>
      </trkpt>
      <trkpt lat="48.87014" lon="2.35068">
        <ele>100.3</ele>
        <time>2015-01-05T19:51:02.761Z</time>
      </trkpt>
      <trkpt lat="48.87012" lon="2.35058">
        <ele>100.4</ele>
        <time>2015-01-05T19:51:04.684Z</time>
      </trkpt>
      <trkpt lat="48.8701" lon="2.35054">
        <ele>100.6</ele>
        <time>2015-01-05T19:51:05.715Z</time>
      </trkpt>
      <trkpt lat="48.87007" lon="2.35045">
        <ele>101.8</ele>
        <time>2015-01-05T19:51:08.705Z</time>
      </trkpt>
      <trkpt lat="48.87006" lon="2.35041">
        <ele>102</ele>
        <time>2015-01-05T19:51:09.710Z</time>
      </trkpt>
      <trkpt lat="48.87005" lon="2.35036">
        <ele>102</ele>
        <time>2015-01-05T19:51:10.625Z</time>
      </trkpt>
      <trkpt lat="48.87004" lon="2.35024">
        <ele>103</ele>
        <time>2015-01-05T19:51:13.667Z</time>
      </trkpt>
      <trkpt lat="48.87008" lon="2.35013">
        <ele>103.9</ele>
        <time>2015-01-05T19:51:16.602Z</time>
      </trkpt>
      <trkpt lat="48.87008" lon="2.35009">
        <ele>104.1</ele>
        <time>2015-01-05T19:51:17.624Z</time>
      </trkpt>
      <trkpt lat="48.87006" lon="2.34999">
        <ele>105.7</ele>
        <time>2015-01-05T19:51:22.963Z</time>
      </trkpt>
      <trkpt lat="48.87004" lon="2.34996">
        <ele>106.2</ele>
        <time>2015-01-05T19:51:23.675Z</time>
      </trkpt>
      <trkpt lat="48.86997" lon="2.34991">
        <ele>107.2</ele>
        <time>2015-01-05T19:51:30.770Z</time>
      </trkpt>
      <trkpt lat="48.8699" lon="2.34986">
        <ele>109.9</ele>
        <time>2015-01-05T19:51:31.623Z</time>
      </trkpt>
      <trkpt lat="48.86998" lon="2.34991">
        <ele>112.5</ele>
        <time>2015-01-05T19:51:37.901Z</time>
      </trkpt>
      <trkpt lat="48.86998" lon="2.34995">
        <ele>112.7</ele>
        <time>2015-01-05T19:51:38.638Z</time>
      </trkpt>
      <trkpt lat="48.87004" lon="2.35003">
        <ele>113.1</ele>
        <time>2015-01-05T19:51:42.887Z</time>
      </trkpt>
      <trkpt lat="48.87006" lon="2.35006">
        <ele>113.4</ele>
        <time>2015-01-05T19:51:43.605Z</time>
      </trkpt>
      <trkpt lat="48.87008" lon="2.35009">
        <ele>113.4</ele>
        <time>2015-01-05T19:51:44.678Z</time>
      </trkpt>
      <trkpt lat="48.87016" lon="2.35016">
        <ele>111.5</ele>
        <time>2015-01-05T19:51:54.677Z</time>
      </trkpt>
      <trkpt lat="48.8701" lon="2.3501">
        <ele>111.5</ele>
        <time>2015-01-05T19:51:55.684Z</time>
      </trkpt>
      <trkpt lat="48.87004" lon="2.35004">
        <ele>111.7</ele>
        <time>2015-01-05T19:51:58.672Z</time>
      </trkpt>
      <trkpt lat="48.87004" lon="2.35004">
        <ele>111.7</ele>
        <time>2015-01-05T19:52:26.706Z</time>
      </trkpt>
      <trkpt lat="48.86971" lon="2.3498">
        <ele>115.8</ele>
        <time>2015-01-05T19:52:27.680Z</time>
      </trkpt>
      <trkpt lat="48.86969" lon="2.3498">
        <ele>115.7</ele>
        <time>2015-01-05T19:53:48.463Z</time>
      </trkpt>
      <trkpt lat="48.86981" lon="2.35004">
        <ele>139.2</ele>
        <time>2015-01-05T19:53:48.706Z</time>
      </trkpt>
      <trkpt lat="48.86984" lon="2.34992">
        <ele>142.1</ele>
        <time>2015-01-05T19:54:45.613Z</time>
      </trkpt>
      <trkpt lat="48.86986" lon="2.34991">
        <ele>142</ele>
        <time>2015-01-05T19:54:46.655Z</time>
      </trkpt>
      <trkpt lat="48.86991" lon="2.34988">
        <ele>142.4</ele>
        <time>2015-01-05T19:56:36.597Z</time>
      </trkpt>
      <trkpt lat="48.86992" lon="2.35006">
        <ele>155.3</ele>
        <time>2015-01-05T19:56:37.625Z</time>
      </trkpt>
      <trkpt lat="48.86986" lon="2.34998">
        <ele>154.2</ele>
        <time>2015-01-05T19:56:45.624Z</time>
      </trkpt>
      <trkpt lat="48.86985" lon="2.34994">
        <ele>154.2</ele>
        <time>2015-01-05T19:56:46.621Z</time>
      </trkpt>
      <trkpt lat="48.86983" lon="2.34994">
        <ele>154.9</ele>
        <time>2015-01-05T19:56:54.664Z</time>
      </trkpt>
      <trkpt lat="48.86988" lon="2.34979">
        <ele>146.8</ele>
        <time>2015-01-05T19:56:55.780Z</time>
      </trkpt>
      <trkpt lat="48.8699" lon="2.3497">
        <ele>143.4</ele>
        <time>2015-01-05T19:56:58.291Z</time>
      </trkpt>
      <trkpt lat="48.86992" lon="2.34964">
        <ele>142</ele>
        <time>2015-01-05T19:56:58.701Z</time>
      </trkpt>
      <trkpt lat="48.86993" lon="2.34957">
        <ele>140.6</ele>
        <time>2015-01-05T19:56:59.626Z</time>
      </trkpt>
      <trkpt lat="48.86994" lon="2.3495">
        <ele>139.2</ele>
        <time>2015-01-05T19:57:00.626Z</time>
      </trkpt>
      <trkpt lat="48.86994" lon="2.34941">
        <ele>137.9</ele>
        <time>2015-01-05T19:57:01.656Z</time>
      </trkpt>
      <trkpt lat="48.86993" lon="2.34932">
        <ele>136.8</ele>
        <time>2015-01-05T19:57:02.683Z</time>
      </trkpt>
      <trkpt lat="48.86993" lon="2.34923">
        <ele>136.1</ele>
        <time>2015-01-05T19:57:03.623Z</time>
      </trkpt>
      <trkpt lat="48.86996" lon="2.34914">
        <ele>135.1</ele>
        <time>2015-01-05T19:57:04.628Z</time>
      </trkpt>
      <trkpt lat="48.86996" lon="2.34901">
        <ele>133</ele>
        <time>2015-01-05T19:57:06.651Z</time>
      </trkpt>
      <trkpt lat="48.86995" lon="2.34895">
        <ele>132.2</ele>
        <time>2015-01-05T19:57:07.661Z</time>
      </trkpt>
      <trkpt lat="48.87003" lon="2.34902">
        <ele>129.9</ele>
        <time>2015-01-05T19:57:12.606Z</time>
      </trkpt>
      <trkpt lat="48.87007" lon="2.34907">
        <ele>129.4</ele>
        <time>2015-01-05T19:57:13.626Z</time>
      </trkpt>
      <trkpt lat="48.87013" lon="2.34912">
        <ele>128.7</ele>
        <time>2015-01-05T19:57:14.654Z</time>
      </trkpt>
      <trkpt lat="48.87018" lon="2.34916">
        <ele>128</ele>
        <time>2015-01-05T19:57:15.667Z</time>
      </trkpt>
      <trkpt lat="48.87023" lon="2.3492">
        <ele>127.6</ele>
        <time>2015-01-05T19:57:16.697Z</time>
      </trkpt>
      <trkpt lat="48.87027" lon="2.34921">
        <ele>127.3</ele>
        <time>2015-01-05T19:57:17.728Z</time>
      </trkpt>
      <trkpt lat="48.87031" lon="2.34922">
        <ele>126.7</ele>
        <time>2015-01-05T19:57:18.635Z</time>
      </trkpt>
      <trkpt lat="48.87036" lon="2.34921">
        <ele>125.4</ele>
        <time>2015-01-05T19:57:19.653Z</time>
      </trkpt>
      <trkpt lat="48.87041" lon="2.34914">
        <ele>124.6</ele>
        <time>2015-01-05T19:57:40.647Z</time>
      </trkpt>
      <trkpt lat="48.8706" lon="2.34907">
        <ele>116.3</ele>
        <time>2015-01-05T19:57:41.675Z</time>
      </trkpt>
      <trkpt lat="48.87063" lon="2.34897">
        <ele>114.9</ele>
        <time>2015-01-05T19:57:44.691Z</time>
      </trkpt>
      <trkpt lat="48.87064" lon="2.34893">
        <ele>114.3</ele>
        <time>2015-01-05T19:57:45.635Z</time>
      </trkpt>
      <trkpt lat="48.87064" lon="2.34882">
        <ele>113</ele>
        <time>2015-01-05T19:57:47.669Z</time>
      </trkpt>
      <trkpt lat="48.87065" lon="2.34877">
        <ele>112.9</ele>
        <time>2015-01-05T19:57:48.858Z</time>
      </trkpt>
      <trkpt lat="48.87065" lon="2.34865">
        <ele>111.6</ele>
        <time>2015-01-05T19:57:50.707Z</time>
      </trkpt>
      <trkpt lat="48.87064" lon="2.34859">
        <ele>111</ele>
        <time>2015-01-05T19:57:51.717Z</time>
      </trkpt>
      <trkpt lat="48.87062" lon="2.34852">
        <ele>110.5</ele>
        <time>2015-01-05T19:57:52.606Z</time>
      </trkpt>
      <trkpt lat="48.87059" lon="2.34844">
        <ele>110.4</ele>
        <time>2015-01-05T19:57:53.608Z</time>
      </trkpt>
      <trkpt lat="48.87058" lon="2.34834">
        <ele>109.4</ele>
        <time>2015-01-05T19:57:55.633Z</time>
      </trkpt>
      <trkpt lat="48.87058" lon="2.3483">
        <ele>109.1</ele>
        <time>2015-01-05T19:57:56.649Z</time>
      </trkpt>
      <trkpt lat="48.87057" lon="2.34818">
        <ele>107.1</ele>
        <time>2015-01-05T19:57:59.682Z</time>
      </trkpt>
      <trkpt lat="48.87057" lon="2.34814">
        <ele>106.6</ele>
        <time>2015-01-05T19:58:00.642Z</time>
      </trkpt>
      <trkpt lat="48.87058" lon="2.34804">
        <ele>105.9</ele>
        <time>2015-01-05T19:58:03.660Z</time>
      </trkpt>
      <trkpt lat="48.87059" lon="2.348">
        <ele>105.8</ele>
        <time>2015-01-05T19:58:04.672Z</time>
      </trkpt>
      <trkpt lat="48.87062" lon="2.34787">
        <ele>105.4</ele>
        <time>2015-01-05T19:58:07.684Z</time>
      </trkpt>
      <trkpt lat="48.87062" lon="2.34783">
        <ele>105.2</ele>
        <time>2015-01-05T19:58:08.699Z</time>
      </trkpt>
      <trkpt lat="48.87064" lon="2.34773">
        <ele>105</ele>
        <time>2015-01-05T19:58:10.640Z</time>
      </trkpt>
      <trkpt lat="48.87065" lon="2.34768">
        <ele>105.2</ele>
        <time>2015-01-05T19:58:11.654Z</time>
      </trkpt>
      <trkpt lat="48.87068" lon="2.34758">
        <ele>105.8</ele>
        <time>2015-01-05T19:58:13.715Z</time>
      </trkpt>
      <trkpt lat="48.87069" lon="2.34753">
        <ele>105.8</ele>
        <time>2015-01-05T19:58:14.715Z</time>
      </trkpt>
      <trkpt lat="48.87069" lon="2.34742">
        <ele>105.1</ele>
        <time>2015-01-05T19:58:16.697Z</time>
      </trkpt>
      <trkpt lat="48.87069" lon="2.34736">
        <ele>104.9</ele>
        <time>2015-01-05T19:58:17.709Z</time>
      </trkpt>
      <trkpt lat="48.87068" lon="2.34723">
        <ele>104.1</ele>
        <time>2015-01-05T19:58:19.728Z</time>
      </trkpt>
      <trkpt lat="48.87069" lon="2.34719">
        <ele>103.7</ele>
        <time>2015-01-05T19:58:20.680Z</time>
      </trkpt>
      <trkpt lat="48.87072" lon="2.34708">
        <ele>103.5</ele>
        <time>2015-01-05T19:58:22.618Z</time>
      </trkpt>
      <trkpt lat="48.87073" lon="2.34702">
        <ele>103.6</ele>
        <time>2015-01-05T19:58:23.643Z</time>
      </trkpt>
      <trkpt lat="48.87075" lon="2.34692">
        <ele>103.9</ele>
        <time>2015-01-05T19:58:25.645Z</time>
      </trkpt>
      <trkpt lat="48.87076" lon="2.34686">
        <ele>103.7</ele>
        <time>2015-01-05T19:58:26.712Z</time>
      </trkpt>
      <trkpt lat="48.87078" lon="2.3468">
        <ele>103.7</ele>
        <time>2015-01-05T19:58:27.692Z</time>
      </trkpt>
      <trkpt lat="48.87081" lon="2.34675">
        <ele>104.3</ele>
        <time>2015-01-05T19:58:28.698Z</time>
      </trkpt>
      <trkpt lat="48.87085" lon="2.34664">
        <ele>104.6</ele>
        <time>2015-01-05T19:58:30.619Z</time>
      </trkpt>
      <trkpt lat="48.87085" lon="2.34659">
        <ele>104.9</ele>
        <time>2015-01-05T19:58:31.640Z</time>
      </trkpt>
      <trkpt lat="48.87089" lon="2.34647">
        <ele>104.9</ele>
        <time>2015-01-05T19:58:33.688Z</time>
      </trkpt>
      <trkpt lat="48.8709" lon="2.34639">
        <ele>105.2</ele>
        <time>2015-01-05T19:58:34.775Z</time>
      </trkpt>
      <trkpt lat="48.8709" lon="2.34631">
        <ele>105.5</ele>
        <time>2015-01-05T19:58:35.630Z</time>
      </trkpt>
      <trkpt lat="48.87089" lon="2.34624">
        <ele>105.7</ele>
        <time>2015-01-05T19:58:36.639Z</time>
      </trkpt>
      <trkpt lat="48.87089" lon="2.34617">
        <ele>105.8</ele>
        <time>2015-01-05T19:58:37.647Z</time>
      </trkpt>
      <trkpt lat="48.8709" lon="2.34609">
        <ele>106</ele>
        <time>2015-01-05T19:58:38.650Z</time>
      </trkpt>
      <trkpt lat="48.87091" lon="2.34602">
        <ele>106.1</ele>
        <time>2015-01-05T19:58:39.658Z</time>
      </trkpt>
      <trkpt lat="48.87093" lon="2.34596">
        <ele>106.1</ele>
        <time>2015-01-05T19:58:40.664Z</time>
      </trkpt>
      <trkpt lat="48.87093" lon="2.34587">
        <ele>106.3</ele>
        <time>2015-01-05T19:58:41.675Z</time>
      </trkpt>
      <trkpt lat="48.87093" lon="2.34578">
        <ele>105.9</ele>
        <time>2015-01-05T19:58:42.608Z</time>
      </trkpt>
      <trkpt lat="48.87093" lon="2.3457">
        <ele>105.8</ele>
        <time>2015-01-05T19:58:43.643Z</time>
      </trkpt>
      <trkpt lat="48.87094" lon="2.34562">
        <ele>105.6</ele>
        <time>2015-01-05T19:58:44.679Z</time>
      </trkpt>
      <trkpt lat="48.87094" lon="2.34555">
        <ele>105.2</ele>
        <time>2015-01-05T19:58:45.689Z</time>
      </trkpt>
      <trkpt lat="48.87095" lon="2.34548">
        <ele>104.9</ele>
        <time>2015-01-05T19:58:46.710Z</time>
      </trkpt>
      <trkpt lat="48.87096" lon="2.34535">
        <ele>104.3</ele>
        <time>2015-01-05T19:58:48.707Z</time>
      </trkpt>
      <trkpt lat="48.87096" lon="2.34527">
        <ele>104.2</ele>
        <time>2015-01-05T19:58:49.721Z</time>
      </trkpt>
      <trkpt lat="48.87097" lon="2.34519">
        <ele>104.3</ele>
        <time>2015-01-05T19:58:50.741Z</time>
      </trkpt>
      <trkpt lat="48.87097" lon="2.34511">
        <ele>104</ele>
        <time>2015-01-05T19:58:51.636Z</time>
      </trkpt>
      <trkpt lat="48.87097" lon="2.34502">
        <ele>103.8</ele>
        <time>2015-01-05T19:58:52.641Z</time>
      </trkpt>
      <trkpt lat="48.87098" lon="2.34494">
        <ele>103.9</ele>
        <time>2015-01-05T19:58:53.659Z</time>
      </trkpt>
      <trkpt lat="48.87101" lon="2.34486">
        <ele>104</ele>
        <time>2015-01-05T19:58:54.683Z</time>
      </trkpt>
      <trkpt lat="48.87104" lon="2.3448">
        <ele>104.1</ele>
        <time>2015-01-05T19:58:55.689Z</time>
      </trkpt>
      <trkpt lat="48.87107" lon="2.34474">
        <ele>104.2</ele>
        <time>2015-01-05T19:58:56.699Z</time>
      </trkpt>
      <trkpt lat="48.87108" lon="2.34467">
        <ele>103.9</ele>
        <time>2015-01-05T19:58:57.712Z</time>
      </trkpt>
      <trkpt lat="48.87108" lon="2.34459">
        <ele>103.7</ele>
        <time>2015-01-05T19:58:58.628Z</time>
      </trkpt>
      <trkpt lat="48.87109" lon="2.34453">
        <ele>103.1</ele>
        <time>2015-01-05T19:58:59.703Z</time>
      </trkpt>
      <trkpt lat="48.87109" lon="2.34439">
        <ele>102.2</ele>
        <time>2015-01-05T19:59:01.690Z</time>
      </trkpt>
      <trkpt lat="48.87109" lon="2.34432">
        <ele>102.2</ele>
        <time>2015-01-05T19:59:02.697Z</time>
      </trkpt>
      <trkpt lat="48.87109" lon="2.34425">
        <ele>101.9</ele>
        <time>2015-01-05T19:59:03.713Z</time>
      </trkpt>
      <trkpt lat="48.87109" lon="2.34418">
        <ele>101.6</ele>
        <time>2015-01-05T19:59:04.624Z</time>
      </trkpt>
      <trkpt lat="48.87109" lon="2.34411">
        <ele>101.5</ele>
        <time>2015-01-05T19:59:05.637Z</time>
      </trkpt>
      <trkpt lat="48.8711" lon="2.34404">
        <ele>100.9</ele>
        <time>2015-01-05T19:59:06.638Z</time>
      </trkpt>
      <trkpt lat="48.87111" lon="2.34398">
        <ele>100.4</ele>
        <time>2015-01-05T19:59:07.656Z</time>
      </trkpt>
      <trkpt lat="48.87112" lon="2.34391">
        <ele>100.1</ele>
        <time>2015-01-05T19:59:08.754Z</time>
      </trkpt>
      <trkpt lat="48.87113" lon="2.34384">
        <ele>99.6</ele>
        <time>2015-01-05T19:59:09.685Z</time>
      </trkpt>
      <trkpt lat="48.87114" lon="2.34377">
        <ele>99.3</ele>
        <time>2015-01-05T19:59:10.688Z</time>
      </trkpt>
      <trkpt lat="48.87116" lon="2.34369">
        <ele>99.1</ele>
        <time>2015-01-05T19:59:11.694Z</time>
      </trkpt>
      <trkpt lat="48.87117" lon="2.34362">
        <ele>99.2</ele>
        <time>2015-01-05T19:59:12.705Z</time>
      </trkpt>
      <trkpt lat="48.87119" lon="2.34355">
        <ele>98.5</ele>
        <time>2015-01-05T19:59:13.617Z</time>
      </trkpt>
      <trkpt lat="48.87121" lon="2.34348">
        <ele>98.3</ele>
        <time>2015-01-05T19:59:14.657Z</time>
      </trkpt>
      <trkpt lat="48.87122" lon="2.34341">
        <ele>98.1</ele>
        <time>2015-01-05T19:59:15.625Z</time>
      </trkpt>
      <trkpt lat="48.87124" lon="2.34334">
        <ele>97.5</ele>
        <time>2015-01-05T19:59:16.628Z</time>
      </trkpt>
      <trkpt lat="48.87124" lon="2.3432">
        <ele>97.1</ele>
        <time>2015-01-05T19:59:18.639Z</time>
      </trkpt>
      <trkpt lat="48.87124" lon="2.34314">
        <ele>96.8</ele>
        <time>2015-01-05T19:59:19.649Z</time>
      </trkpt>
      <trkpt lat="48.87125" lon="2.34307">
        <ele>96.7</ele>
        <time>2015-01-05T19:59:20.701Z</time>
      </trkpt>
      <trkpt lat="48.87129" lon="2.34302">
        <ele>96.9</ele>
        <time>2015-01-05T19:59:21.715Z</time>
      </trkpt>
      <trkpt lat="48.87133" lon="2.34296">
        <ele>96.9</ele>
        <time>2015-01-05T19:59:22.619Z</time>
      </trkpt>
      <trkpt lat="48.87135" lon="2.34289">
        <ele>97</ele>
        <time>2015-01-05T19:59:23.617Z</time>
      </trkpt>
      <trkpt lat="48.87136" lon="2.34281">
        <ele>97.2</ele>
        <time>2015-01-05T19:59:24.625Z</time>
      </trkpt>
      <trkpt lat="48.87138" lon="2.34274">
        <ele>97.4</ele>
        <time>2015-01-05T19:59:25.628Z</time>
      </trkpt>
      <trkpt lat="48.87139" lon="2.34261">
        <ele>97.1</ele>
        <time>2015-01-05T19:59:27.665Z</time>
      </trkpt>
      <trkpt lat="48.8714" lon="2.34255">
        <ele>97.2</ele>
        <time>2015-01-05T19:59:28.676Z</time>
      </trkpt>
      <trkpt lat="48.8714" lon="2.34242">
        <ele>96.9</ele>
        <time>2015-01-05T19:59:30.623Z</time>
      </trkpt>
      <trkpt lat="48.8714" lon="2.34235">
        <ele>96.9</ele>
        <time>2015-01-05T19:59:31.645Z</time>
      </trkpt>
      <trkpt lat="48.87142" lon="2.34222">
        <ele>96.1</ele>
        <time>2015-01-05T19:59:33.663Z</time>
      </trkpt>
      <trkpt lat="48.87142" lon="2.34216">
        <ele>96</ele>
        <time>2015-01-05T19:59:34.641Z</time>
      </trkpt>
      <trkpt lat="48.87146" lon="2.34206">
        <ele>95.5</ele>
        <time>2015-01-05T19:59:36.657Z</time>
      </trkpt>
      <trkpt lat="48.87147" lon="2.34201">
        <ele>95.2</ele>
        <time>2015-01-05T19:59:37.718Z</time>
      </trkpt>
      <trkpt lat="48.8715" lon="2.34188">
        <ele>95.4</ele>
        <time>2015-01-05T19:59:39.679Z</time>
      </trkpt>
      <trkpt lat="48.8715" lon="2.34182">
        <ele>95.5</ele>
        <time>2015-01-05T19:59:40.703Z</time>
      </trkpt>
      <trkpt lat="48.87152" lon="2.34169">
        <ele>95.3</ele>
        <time>2015-01-05T19:59:42.635Z</time>
      </trkpt>
      <trkpt lat="48.87152" lon="2.34163">
        <ele>95.5</ele>
        <time>2015-01-05T19:59:43.645Z</time>
      </trkpt>
      <trkpt lat="48.87155" lon="2.34153">
        <ele>96.5</ele>
        <time>2015-01-05T19:59:45.679Z</time>
      </trkpt>
      <trkpt lat="48.87158" lon="2.34149">
        <ele>96.8</ele>
        <time>2015-01-05T19:59:46.689Z</time>
      </trkpt>
      <trkpt lat="48.8716" lon="2.3414">
        <ele>96</ele>
        <time>2015-01-05T19:59:48.625Z</time>
      </trkpt>
      <trkpt lat="48.87161" lon="2.34135">
        <ele>95.4</ele>
        <time>2015-01-05T19:59:49.662Z</time>
      </trkpt>
      <trkpt lat="48.87163" lon="2.34123">
        <ele>94.8</ele>
        <time>2015-01-05T19:59:51.671Z</time>
      </trkpt>
      <trkpt lat="48.87163" lon="2.34117">
        <ele>94.8</ele>
        <time>2015-01-05T19:59:52.679Z</time>
      </trkpt>
      <trkpt lat="48.87164" lon="2.34104">
        <ele>94.6</ele>
        <time>2015-01-05T19:59:54.626Z</time>
      </trkpt>
      <trkpt lat="48.87164" lon="2.34097">
        <ele>94.2</ele>
        <time>2015-01-05T19:59:55.638Z</time>
      </trkpt>
      <trkpt lat="48.87164" lon="2.3409">
        <ele>94</ele>
        <time>2015-01-05T19:59:56.758Z</time>
      </trkpt>
      <trkpt lat="48.87164" lon="2.34082">
        <ele>94</ele>
        <time>2015-01-05T19:59:57.625Z</time>
      </trkpt>
      <trkpt lat="48.87164" lon="2.34074">
        <ele>94.4</ele>
        <time>2015-01-05T19:59:58.634Z</time>
      </trkpt>
      <trkpt lat="48.87164" lon="2.34067">
        <ele>94.5</ele>
        <time>2015-01-05T19:59:59.642Z</time>
      </trkpt>
      <trkpt lat="48.87165" lon="2.3406">
        <ele>94.3</ele>
        <time>2015-01-05T20:00:00.680Z</time>
      </trkpt>
      <trkpt lat="48.87165" lon="2.34053">
        <ele>94.1</ele>
        <time>2015-01-05T20:00:01.688Z</time>
      </trkpt>
      <trkpt lat="48.87166" lon="2.34046">
        <ele>93.7</ele>
        <time>2015-01-05T20:00:02.703Z</time>
      </trkpt>
      <trkpt lat="48.87166" lon="2.34038">
        <ele>93.8</ele>
        <time>2015-01-05T20:00:03.600Z</time>
      </trkpt>
      <trkpt lat="48.87167" lon="2.3403">
        <ele>93.6</ele>
        <time>2015-01-05T20:00:04.666Z</time>
      </trkpt>
      <trkpt lat="48.87167" lon="2.34023">
        <ele>93</ele>
        <time>2015-01-05T20:00:05.688Z</time>
      </trkpt>
      <trkpt lat="48.87168" lon="2.34015">
        <ele>93</ele>
        <time>2015-01-05T20:00:06.703Z</time>
      </trkpt>
      <trkpt lat="48.87169" lon="2.34007">
        <ele>92.8</ele>
        <time>2015-01-05T20:00:07.714Z</time>
      </trkpt>
      <trkpt lat="48.8717" lon="2.33999">
        <ele>92.4</ele>
        <time>2015-01-05T20:00:08.722Z</time>
      </trkpt>
      <trkpt lat="48.87174" lon="2.33993">
        <ele>91.9</ele>
        <time>2015-01-05T20:00:09.639Z</time>
      </trkpt>
      <trkpt lat="48.87176" lon="2.33986">
        <ele>91.8</ele>
        <time>2015-01-05T20:00:10.691Z</time>
      </trkpt>
      <trkpt lat="48.87178" lon="2.33978">
        <ele>91.6</ele>
        <time>2015-01-05T20:00:11.700Z</time>
      </trkpt>
      <trkpt lat="48.87179" lon="2.33971">
        <ele>91.6</ele>
        <time>2015-01-05T20:00:12.737Z</time>
      </trkpt>
      <trkpt lat="48.8718" lon="2.33963">
        <ele>91.9</ele>
        <time>2015-01-05T20:00:13.733Z</time>
      </trkpt>
      <trkpt lat="48.8718" lon="2.33955">
        <ele>92.3</ele>
        <time>2015-01-05T20:00:14.771Z</time>
      </trkpt>
      <trkpt lat="48.87183" lon="2.3395">
        <ele>93.1</ele>
        <time>2015-01-05T20:00:15.638Z</time>
      </trkpt>
      <trkpt lat="48.87187" lon="2.33945">
        <ele>93.7</ele>
        <time>2015-01-05T20:00:16.652Z</time>
      </trkpt>
      <trkpt lat="48.87188" lon="2.33938">
        <ele>94.5</ele>
        <time>2015-01-05T20:00:17.741Z</time>
      </trkpt>
      <trkpt lat="48.8719" lon="2.33932">
        <ele>95</ele>
        <time>2015-01-05T20:00:18.641Z</time>
      </trkpt>
      <trkpt lat="48.87192" lon="2.33925">
        <ele>95.2</ele>
        <time>2015-01-05T20:00:19.661Z</time>
      </trkpt>
      <trkpt lat="48.87194" lon="2.33918">
        <ele>95.3</ele>
        <time>2015-01-05T20:00:20.684Z</time>
      </trkpt>
      <trkpt lat="48.87197" lon="2.33912">
        <ele>95.6</ele>
        <time>2015-01-05T20:00:21.780Z</time>
      </trkpt>
      <trkpt lat="48.87198" lon="2.33904">
        <ele>95.6</ele>
        <time>2015-01-05T20:00:22.627Z</time>
      </trkpt>
      <trkpt lat="48.87199" lon="2.33896">
        <ele>95.8</ele>
        <time>2015-01-05T20:00:23.630Z</time>
      </trkpt>
      <trkpt lat="48.872" lon="2.33888">
        <ele>95.8</ele>
        <time>2015-01-05T20:00:24.656Z</time>
      </trkpt>
      <trkpt lat="48.87201" lon="2.3388">
        <ele>95.9</ele>
        <time>2015-01-05T20:00:25.679Z</time>
      </trkpt>
      <trkpt lat="48.872" lon="2.33871">
        <ele>95.7</ele>
        <time>2015-01-05T20:00:26.700Z</time>
      </trkpt>
      <trkpt lat="48.872" lon="2.33863">
        <ele>95.6</ele>
        <time>2015-01-05T20:00:27.708Z</time>
      </trkpt>
      <trkpt lat="48.872" lon="2.33855">
        <ele>95.4</ele>
        <time>2015-01-05T20:00:28.641Z</time>
      </trkpt>
      <trkpt lat="48.872" lon="2.33847">
        <ele>95</ele>
        <time>2015-01-05T20:00:29.662Z</time>
      </trkpt>
      <trkpt lat="48.87202" lon="2.3384">
        <ele>94.8</ele>
        <time>2015-01-05T20:00:30.678Z</time>
      </trkpt>
      <trkpt lat="48.87203" lon="2.33833">
        <ele>94.7</ele>
        <time>2015-01-05T20:00:31.684Z</time>
      </trkpt>
      <trkpt lat="48.87207" lon="2.33827">
        <ele>94.7</ele>
        <time>2015-01-05T20:00:32.706Z</time>
      </trkpt>
      <trkpt lat="48.8721" lon="2.3382">
        <ele>95</ele>
        <time>2015-01-05T20:00:33.722Z</time>
      </trkpt>
      <trkpt lat="48.87212" lon="2.33811">
        <ele>95.1</ele>
        <time>2015-01-05T20:00:34.635Z</time>
      </trkpt>
      <trkpt lat="48.87213" lon="2.33802">
        <ele>95.3</ele>
        <time>2015-01-05T20:00:35.636Z</time>
      </trkpt>
      <trkpt lat="48.87215" lon="2.33793">
        <ele>95.3</ele>
        <time>2015-01-05T20:00:36.670Z</time>
      </trkpt>
      <trkpt lat="48.87218" lon="2.33785">
        <ele>95.6</ele>
        <time>2015-01-05T20:00:37.722Z</time>
      </trkpt>
      <trkpt lat="48.87221" lon="2.33778">
        <ele>95.5</ele>
        <time>2015-01-05T20:00:38.674Z</time>
      </trkpt>
      <trkpt lat="48.87222" lon="2.33768">
        <ele>95.4</ele>
        <time>2015-01-05T20:00:39.675Z</time>
      </trkpt>
      <trkpt lat="48.87223" lon="2.33761">
        <ele>95.8</ele>
        <time>2015-01-05T20:00:40.681Z</time>
      </trkpt>
      <trkpt lat="48.87225" lon="2.33754">
        <ele>95.8</ele>
        <time>2015-01-05T20:00:41.696Z</time>
      </trkpt>
      <trkpt lat="48.87226" lon="2.33744">
        <ele>95.9</ele>
        <time>2015-01-05T20:00:42.637Z</time>
      </trkpt>
      <trkpt lat="48.87228" lon="2.33735">
        <ele>96.6</ele>
        <time>2015-01-05T20:00:43.632Z</time>
      </trkpt>
      <trkpt lat="48.8723" lon="2.33726">
        <ele>96.7</ele>
        <time>2015-01-05T20:00:44.670Z</time>
      </trkpt>
      <trkpt lat="48.87232" lon="2.33717">
        <ele>96.7</ele>
        <time>2015-01-05T20:00:45.678Z</time>
      </trkpt>
      <trkpt lat="48.87232" lon="2.33707">
        <ele>97.2</ele>
        <time>2015-01-05T20:00:46.627Z</time>
      </trkpt>
      <trkpt lat="48.87233" lon="2.33698">
        <ele>97.1</ele>
        <time>2015-01-05T20:00:47.623Z</time>
      </trkpt>
      <trkpt lat="48.87236" lon="2.33691">
        <ele>96.8</ele>
        <time>2015-01-05T20:00:48.633Z</time>
      </trkpt>
      <trkpt lat="48.87239" lon="2.33685">
        <ele>96.1</ele>
        <time>2015-01-05T20:00:49.637Z</time>
      </trkpt>
      <trkpt lat="48.87241" lon="2.33679">
        <ele>95.7</ele>
        <time>2015-01-05T20:00:50.684Z</time>
      </trkpt>
      <trkpt lat="48.87245" lon="2.33671">
        <ele>95.3</ele>
        <time>2015-01-05T20:00:51.688Z</time>
      </trkpt>
      <trkpt lat="48.87247" lon="2.33664">
        <ele>95.4</ele>
        <time>2015-01-05T20:00:52.708Z</time>
      </trkpt>
      <trkpt lat="48.87249" lon="2.33656">
        <ele>95.3</ele>
        <time>2015-01-05T20:00:53.605Z</time>
      </trkpt>
      <trkpt lat="48.87251" lon="2.33648">
        <ele>95.3</ele>
        <time>2015-01-05T20:00:54.664Z</time>
      </trkpt>
      <trkpt lat="48.87253" lon="2.33639">
        <ele>95.2</ele>
        <time>2015-01-05T20:00:55.667Z</time>
      </trkpt>
      <trkpt lat="48.87255" lon="2.33629">
        <ele>95.3</ele>
        <time>2015-01-05T20:00:56.674Z</time>
      </trkpt>
      <trkpt lat="48.87253" lon="2.33616">
        <ele>95.6</ele>
        <time>2015-01-05T20:00:57.691Z</time>
      </trkpt>
      <trkpt lat="48.87253" lon="2.33604">
        <ele>96</ele>
        <time>2015-01-05T20:00:58.625Z</time>
      </trkpt>
      <trkpt lat="48.87254" lon="2.33593">
        <ele>96.7</ele>
        <time>2015-01-05T20:00:59.620Z</time>
      </trkpt>
      <trkpt lat="48.87255" lon="2.33583">
        <ele>97.2</ele>
        <time>2015-01-05T20:01:00.653Z</time>
      </trkpt>
      <trkpt lat="48.87255" lon="2.3357">
        <ele>97.6</ele>
        <time>2015-01-05T20:01:01.660Z</time>
      </trkpt>
      <trkpt lat="48.87256" lon="2.3356">
        <ele>97.8</ele>
        <time>2015-01-05T20:01:02.711Z</time>
      </trkpt>
      <trkpt lat="48.87254" lon="2.3355">
        <ele>97.8</ele>
        <time>2015-01-05T20:01:03.633Z</time>
      </trkpt>
      <trkpt lat="48.87253" lon="2.33541">
        <ele>98</ele>
        <time>2015-01-05T20:01:04.635Z</time>
      </trkpt>
      <trkpt lat="48.87253" lon="2.33532">
        <ele>98.5</ele>
        <time>2015-01-05T20:01:05.617Z</time>
      </trkpt>
      <trkpt lat="48.87255" lon="2.33523">
        <ele>98.6</ele>
        <time>2015-01-05T20:01:06.635Z</time>
      </trkpt>
      <trkpt lat="48.87258" lon="2.33515">
        <ele>98.7</ele>
        <time>2015-01-05T20:01:07.643Z</time>
      </trkpt>
      <trkpt lat="48.87259" lon="2.33507">
        <ele>98.7</ele>
        <time>2015-01-05T20:01:08.661Z</time>
      </trkpt>
      <trkpt lat="48.8726" lon="2.335">
        <ele>98.8</ele>
        <time>2015-01-05T20:01:09.664Z</time>
      </trkpt>
      <trkpt lat="48.87263" lon="2.33494">
        <ele>98.7</ele>
        <time>2015-01-05T20:01:10.689Z</time>
      </trkpt>
      <trkpt lat="48.87266" lon="2.33487">
        <ele>98.4</ele>
        <time>2015-01-05T20:01:11.816Z</time>
      </trkpt>
      <trkpt lat="48.87269" lon="2.33479">
        <ele>98.5</ele>
        <time>2015-01-05T20:01:12.665Z</time>
      </trkpt>
      <trkpt lat="48.87271" lon="2.33471">
        <ele>98.3</ele>
        <time>2015-01-05T20:01:13.676Z</time>
      </trkpt>
      <trkpt lat="48.87272" lon="2.33462">
        <ele>98.3</ele>
        <time>2015-01-05T20:01:14.686Z</time>
      </trkpt>
      <trkpt lat="48.87274" lon="2.33453">
        <ele>98.6</ele>
        <time>2015-01-05T20:01:15.788Z</time>
      </trkpt>
      <trkpt lat="48.87275" lon="2.33444">
        <ele>98.6</ele>
        <time>2015-01-05T20:01:16.621Z</time>
      </trkpt>
      <trkpt lat="48.87277" lon="2.33435">
        <ele>98.4</ele>
        <time>2015-01-05T20:01:17.623Z</time>
      </trkpt>
      <trkpt lat="48.87279" lon="2.33426">
        <ele>98.3</ele>
        <time>2015-01-05T20:01:18.643Z</time>
      </trkpt>
      <trkpt lat="48.87281" lon="2.33418">
        <ele>98.2</ele>
        <time>2015-01-05T20:01:19.658Z</time>
      </trkpt>
      <trkpt lat="48.87283" lon="2.3341">
        <ele>98.2</ele>
        <time>2015-01-05T20:01:20.716Z</time>
      </trkpt>
      <trkpt lat="48.87285" lon="2.33401">
        <ele>98.5</ele>
        <time>2015-01-05T20:01:21.693Z</time>
      </trkpt>
      <trkpt lat="48.87286" lon="2.33393">
        <ele>98.5</ele>
        <time>2015-01-05T20:01:22.706Z</time>
      </trkpt>
      <trkpt lat="48.87287" lon="2.33385">
        <ele>98.5</ele>
        <time>2015-01-05T20:01:23.715Z</time>
      </trkpt>
      <trkpt lat="48.87287" lon="2.33378">
        <ele>98.1</ele>
        <time>2015-01-05T20:01:24.625Z</time>
      </trkpt>
      <trkpt lat="48.87287" lon="2.33371">
        <ele>98.3</ele>
        <time>2015-01-05T20:01:25.623Z</time>
      </trkpt>
      <trkpt lat="48.87287" lon="2.33363">
        <ele>98.7</ele>
        <time>2015-01-05T20:01:26.668Z</time>
      </trkpt>
      <trkpt lat="48.87288" lon="2.33355">
        <ele>99.2</ele>
        <time>2015-01-05T20:01:27.671Z</time>
      </trkpt>
      <trkpt lat="48.87289" lon="2.33343">
        <ele>100.5</ele>
        <time>2015-01-05T20:01:29.630Z</time>
      </trkpt>
      <trkpt lat="48.87288" lon="2.33336">
        <ele>101.2</ele>
        <time>2015-01-05T20:01:30.643Z</time>
      </trkpt>
      <trkpt lat="48.87291" lon="2.33324">
        <ele>102.5</ele>
        <time>2015-01-05T20:01:32.702Z</time>
      </trkpt>
      <trkpt lat="48.87291" lon="2.33317">
        <ele>103.6</ele>
        <time>2015-01-05T20:01:33.725Z</time>
      </trkpt>
      <trkpt lat="48.8729" lon="2.33308">
        <ele>103.7</ele>
        <time>2015-01-05T20:01:35.642Z</time>
      </trkpt>
      <trkpt lat="48.8729" lon="2.33302">
        <ele>103.9</ele>
        <time>2015-01-05T20:01:36.668Z</time>
      </trkpt>
      <trkpt lat="48.87291" lon="2.3329">
        <ele>105.1</ele>
        <time>2015-01-05T20:01:38.665Z</time>
      </trkpt>
      <trkpt lat="48.87291" lon="2.33285">
        <ele>104.9</ele>
        <time>2015-01-05T20:01:39.659Z</time>
      </trkpt>
      <trkpt lat="48.87291" lon="2.33275">
        <ele>103.2</ele>
        <time>2015-01-05T20:01:41.856Z</time>
      </trkpt>
      <trkpt lat="48.87292" lon="2.3327">
        <ele>102.3</ele>
        <time>2015-01-05T20:01:42.646Z</time>
      </trkpt>
      <trkpt lat="48.87292" lon="2.33258">
        <ele>101.1</ele>
        <time>2015-01-05T20:01:44.706Z</time>
      </trkpt>
      <trkpt lat="48.87292" lon="2.33253">
        <ele>100.9</ele>
        <time>2015-01-05T20:01:45.715Z</time>
      </trkpt>
      <trkpt lat="48.87292" lon="2.33242">
        <ele>100.3</ele>
        <time>2015-01-05T20:01:47.621Z</time>
      </trkpt>
      <trkpt lat="48.87294" lon="2.33237">
        <ele>99.8</ele>
        <time>2015-01-05T20:01:48.635Z</time>
      </trkpt>
      <trkpt lat="48.87297" lon="2.33228">
        <ele>98.8</ele>
        <time>2015-01-05T20:01:50.678Z</time>
      </trkpt>
      <trkpt lat="48.87298" lon="2.33223">
        <ele>98.4</ele>
        <time>2015-01-05T20:01:51.676Z</time>
      </trkpt>
      <trkpt lat="48.873" lon="2.33211">
        <ele>98.3</ele>
        <time>2015-01-05T20:01:53.711Z</time>
      </trkpt>
      <trkpt lat="48.87302" lon="2.33205">
        <ele>98</ele>
        <time>2015-01-05T20:01:54.668Z</time>
      </trkpt>
      <trkpt lat="48.87304" lon="2.33192">
        <ele>98</ele>
        <time>2015-01-05T20:01:56.712Z</time>
      </trkpt>
      <trkpt lat="48.87304" lon="2.33186">
        <ele>97.9</ele>
        <time>2015-01-05T20:01:57.672Z</time>
      </trkpt>
      <trkpt lat="48.87305" lon="2.33179">
        <ele>98.1</ele>
        <time>2015-01-05T20:01:58.652Z</time>
      </trkpt>
      <trkpt lat="48.87307" lon="2.33172">
        <ele>98.4</ele>
        <time>2015-01-05T20:01:59.646Z</time>
      </trkpt>
      <trkpt lat="48.87309" lon="2.33165">
        <ele>98.6</ele>
        <time>2015-01-05T20:02:00.676Z</time>
      </trkpt>
      <trkpt lat="48.8731" lon="2.33159">
        <ele>98.7</ele>
        <time>2015-01-05T20:02:01.680Z</time>
      </trkpt>
      <trkpt lat="48.87312" lon="2.33147">
        <ele>98.9</ele>
        <time>2015-01-05T20:02:03.707Z</time>
      </trkpt>
      <trkpt lat="48.87313" lon="2.33141">
        <ele>98.7</ele>
        <time>2015-01-05T20:02:04.614Z</time>
      </trkpt>
      <trkpt lat="48.87315" lon="2.33128">
        <ele>98.7</ele>
        <time>2015-01-05T20:02:06.754Z</time>
      </trkpt>
      <trkpt lat="48.87316" lon="2.33123">
        <ele>98.5</ele>
        <time>2015-01-05T20:02:07.608Z</time>
      </trkpt>
      <trkpt lat="48.87318" lon="2.33112">
        <ele>98.4</ele>
        <time>2015-01-05T20:02:09.745Z</time>
      </trkpt>
      <trkpt lat="48.87319" lon="2.33106">
        <ele>98.5</ele>
        <time>2015-01-05T20:02:10.615Z</time>
      </trkpt>
      <trkpt lat="48.8732" lon="2.33093">
        <ele>99</ele>
        <time>2015-01-05T20:02:12.643Z</time>
      </trkpt>
      <trkpt lat="48.8732" lon="2.33088">
        <ele>98.6</ele>
        <time>2015-01-05T20:02:13.667Z</time>
      </trkpt>
      <trkpt lat="48.87322" lon="2.33078">
        <ele>98</ele>
        <time>2015-01-05T20:02:15.695Z</time>
      </trkpt>
      <trkpt lat="48.87322" lon="2.33071">
        <ele>97.8</ele>
        <time>2015-01-05T20:02:16.705Z</time>
      </trkpt>
      <trkpt lat="48.8732" lon="2.33058">
        <ele>96.9</ele>
        <time>2015-01-05T20:02:18.637Z</time>
      </trkpt>
      <trkpt lat="48.8732" lon="2.33051">
        <ele>96.5</ele>
        <time>2015-01-05T20:02:19.667Z</time>
      </trkpt>
      <trkpt lat="48.87321" lon="2.33044">
        <ele>96.2</ele>
        <time>2015-01-05T20:02:20.694Z</time>
      </trkpt>
      <trkpt lat="48.87322" lon="2.33038">
        <ele>96.1</ele>
        <time>2015-01-05T20:02:21.695Z</time>
      </trkpt>
      <trkpt lat="48.87323" lon="2.33031">
        <ele>95.6</ele>
        <time>2015-01-05T20:02:22.710Z</time>
      </trkpt>
      <trkpt lat="48.87324" lon="2.33024">
        <ele>95.7</ele>
        <time>2015-01-05T20:02:23.722Z</time>
      </trkpt>
      <trkpt lat="48.87325" lon="2.33016">
        <ele>95.7</ele>
        <time>2015-01-05T20:02:24.637Z</time>
      </trkpt>
      <trkpt lat="48.87327" lon="2.33009">
        <ele>95.8</ele>
        <time>2015-01-05T20:02:25.647Z</time>
      </trkpt>
      <trkpt lat="48.87328" lon="2.33001">
        <ele>95.7</ele>
        <time>2015-01-05T20:02:26.730Z</time>
      </trkpt>
      <trkpt lat="48.8733" lon="2.32994">
        <ele>95.7</ele>
        <time>2015-01-05T20:02:27.628Z</time>
      </trkpt>
      <trkpt lat="48.87332" lon="2.32986">
        <ele>95.7</ele>
        <time>2015-01-05T20:02:28.631Z</time>
      </trkpt>
      <trkpt lat="48.87333" lon="2.32978">
        <ele>95.6</ele>
        <time>2015-01-05T20:02:29.634Z</time>
      </trkpt>
      <trkpt lat="48.87334" lon="2.3297">
        <ele>95.8</ele>
        <time>2015-01-05T20:02:30.638Z</time>
      </trkpt>
      <trkpt lat="48.87336" lon="2.32961">
        <ele>96.2</ele>
        <time>2015-01-05T20:02:31.642Z</time>
      </trkpt>
      <trkpt lat="48.87336" lon="2.32953">
        <ele>96.6</ele>
        <time>2015-01-05T20:02:32.696Z</time>
      </trkpt>
      <trkpt lat="48.87336" lon="2.32944">
        <ele>97.1</ele>
        <time>2015-01-05T20:02:33.695Z</time>
      </trkpt>
      <trkpt lat="48.87337" lon="2.32936">
        <ele>97.2</ele>
        <time>2015-01-05T20:02:34.634Z</time>
      </trkpt>
      <trkpt lat="48.87338" lon="2.32929">
        <ele>97.2</ele>
        <time>2015-01-05T20:02:35.647Z</time>
      </trkpt>
      <trkpt lat="48.8734" lon="2.32921">
        <ele>97.3</ele>
        <time>2015-01-05T20:02:36.705Z</time>
      </trkpt>
      <trkpt lat="48.87342" lon="2.32913">
        <ele>97.3</ele>
        <time>2015-01-05T20:02:37.621Z</time>
      </trkpt>
      <trkpt lat="48.87343" lon="2.32905">
        <ele>97.6</ele>
        <time>2015-01-05T20:02:38.661Z</time>
      </trkpt>
      <trkpt lat="48.87346" lon="2.32898">
        <ele>97.7</ele>
        <time>2015-01-05T20:02:39.660Z</time>
      </trkpt>
      <trkpt lat="48.87347" lon="2.3289">
        <ele>97.4</ele>
        <time>2015-01-05T20:02:40.665Z</time>
      </trkpt>
      <trkpt lat="48.87349" lon="2.32882">
        <ele>97.5</ele>
        <time>2015-01-05T20:02:41.667Z</time>
      </trkpt>
      <trkpt lat="48.8735" lon="2.32874">
        <ele>97.5</ele>
        <time>2015-01-05T20:02:42.700Z</time>
      </trkpt>
      <trkpt lat="48.87351" lon="2.32867">
        <ele>97.6</ele>
        <time>2015-01-05T20:02:43.636Z</time>
      </trkpt>
      <trkpt lat="48.87352" lon="2.32858">
        <ele>97.8</ele>
        <time>2015-01-05T20:02:44.663Z</time>
      </trkpt>
      <trkpt lat="48.87353" lon="2.32849">
        <ele>98.2</ele>
        <time>2015-01-05T20:02:45.674Z</time>
      </trkpt>
      <trkpt lat="48.87354" lon="2.32841">
        <ele>98.7</ele>
        <time>2015-01-05T20:02:46.708Z</time>
      </trkpt>
      <trkpt lat="48.87356" lon="2.32833">
        <ele>98.5</ele>
        <time>2015-01-05T20:02:47.622Z</time>
      </trkpt>
      <trkpt lat="48.87359" lon="2.32825">
        <ele>99.1</ele>
        <time>2015-01-05T20:02:48.635Z</time>
      </trkpt>
      <trkpt lat="48.87362" lon="2.32817">
        <ele>99.6</ele>
        <time>2015-01-05T20:02:49.642Z</time>
      </trkpt>
      <trkpt lat="48.87363" lon="2.32809">
        <ele>99.5</ele>
        <time>2015-01-05T20:02:50.661Z</time>
      </trkpt>
      <trkpt lat="48.87363" lon="2.32801">
        <ele>99.8</ele>
        <time>2015-01-05T20:02:51.618Z</time>
      </trkpt>
      <trkpt lat="48.87364" lon="2.32793">
        <ele>99.9</ele>
        <time>2015-01-05T20:02:52.637Z</time>
      </trkpt>
      <trkpt lat="48.87366" lon="2.32786">
        <ele>99.8</ele>
        <time>2015-01-05T20:02:53.726Z</time>
      </trkpt>
      <trkpt lat="48.87367" lon="2.3278">
        <ele>99.8</ele>
        <time>2015-01-05T20:02:54.714Z</time>
      </trkpt>
      <trkpt lat="48.87367" lon="2.32773">
        <ele>99.6</ele>
        <time>2015-01-05T20:02:55.626Z</time>
      </trkpt>
      <trkpt lat="48.87368" lon="2.32766">
        <ele>99.6</ele>
        <time>2015-01-05T20:02:56.683Z</time>
      </trkpt>
      <trkpt lat="48.87368" lon="2.32758">
        <ele>99.6</ele>
        <time>2015-01-05T20:02:57.699Z</time>
      </trkpt>
      <trkpt lat="48.87369" lon="2.32751">
        <ele>99.2</ele>
        <time>2015-01-05T20:02:58.623Z</time>
      </trkpt>
      <trkpt lat="48.87369" lon="2.32744">
        <ele>99.5</ele>
        <time>2015-01-05T20:02:59.619Z</time>
      </trkpt>
      <trkpt lat="48.87369" lon="2.32737">
        <ele>100.1</ele>
        <time>2015-01-05T20:03:00.648Z</time>
      </trkpt>
      <trkpt lat="48.87369" lon="2.3273">
        <ele>100.3</ele>
        <time>2015-01-05T20:03:01.652Z</time>
      </trkpt>
      <trkpt lat="48.87371" lon="2.32717">
        <ele>97.9</ele>
        <time>2015-01-05T20:03:05.625Z</time>
      </trkpt>
      <trkpt lat="48.87372" lon="2.32716">
        <ele>97.4</ele>
        <time>2015-01-05T20:03:06.634Z</time>
      </trkpt>
      <trkpt lat="48.87373" lon="2.32715">
        <ele>96</ele>
        <time>2015-01-05T20:03:38.687Z</time>
      </trkpt>
      <trkpt lat="48.8738" lon="2.327">
        <ele>91.6</ele>
        <time>2015-01-05T20:03:39.635Z</time>
      </trkpt>
      <trkpt lat="48.8738" lon="2.32688">
        <ele>92.3</ele>
        <time>2015-01-05T20:03:44.700Z</time>
      </trkpt>
      <trkpt lat="48.8738" lon="2.32686">
        <ele>92.4</ele>
        <time>2015-01-05T20:03:45.728Z</time>
      </trkpt>
      <trkpt lat="48.8738" lon="2.32679">
        <ele>92.7</ele>
        <time>2015-01-05T20:03:47.622Z</time>
      </trkpt>
      <trkpt lat="48.87377" lon="2.32672">
        <ele>93.4</ele>
        <time>2015-01-05T20:03:48.765Z</time>
      </trkpt>
      <trkpt lat="48.87374" lon="2.32661">
        <ele>94</ele>
        <time>2015-01-05T20:03:50.667Z</time>
      </trkpt>
      <trkpt lat="48.87374" lon="2.32656">
        <ele>93.9</ele>
        <time>2015-01-05T20:03:51.717Z</time>
      </trkpt>
      <trkpt lat="48.87376" lon="2.32646">
        <ele>93.8</ele>
        <time>2015-01-05T20:03:53.634Z</time>
      </trkpt>
      <trkpt lat="48.87376" lon="2.32641">
        <ele>93.6</ele>
        <time>2015-01-05T20:03:54.666Z</time>
      </trkpt>
      <trkpt lat="48.87377" lon="2.32628">
        <ele>93.3</ele>
        <time>2015-01-05T20:03:56.697Z</time>
      </trkpt>
      <trkpt lat="48.87377" lon="2.32622">
        <ele>93.1</ele>
        <time>2015-01-05T20:03:57.723Z</time>
      </trkpt>
      <trkpt lat="48.87377" lon="2.32614">
        <ele>93</ele>
        <time>2015-01-05T20:03:58.627Z</time>
      </trkpt>
      <trkpt lat="48.87381" lon="2.32607">
        <ele>92.1</ele>
        <time>2015-01-05T20:03:59.627Z</time>
      </trkpt>
      <trkpt lat="48.87383" lon="2.32599">
        <ele>91.6</ele>
        <time>2015-01-05T20:04:00.644Z</time>
      </trkpt>
      <trkpt lat="48.87386" lon="2.32592">
        <ele>91</ele>
        <time>2015-01-05T20:04:01.652Z</time>
      </trkpt>
      <trkpt lat="48.87389" lon="2.32585">
        <ele>90.4</ele>
        <time>2015-01-05T20:04:02.708Z</time>
      </trkpt>
      <trkpt lat="48.87392" lon="2.32578">
        <ele>90.1</ele>
        <time>2015-01-05T20:04:03.629Z</time>
      </trkpt>
      <trkpt lat="48.87394" lon="2.3257">
        <ele>90.1</ele>
        <time>2015-01-05T20:04:04.620Z</time>
      </trkpt>
      <trkpt lat="48.87395" lon="2.32562">
        <ele>90.4</ele>
        <time>2015-01-05T20:04:05.632Z</time>
      </trkpt>
      <trkpt lat="48.87396" lon="2.32554">
        <ele>90.8</ele>
        <time>2015-01-05T20:04:06.661Z</time>
      </trkpt>
      <trkpt lat="48.87398" lon="2.32546">
        <ele>91.1</ele>
        <time>2015-01-05T20:04:07.668Z</time>
      </trkpt>
      <trkpt lat="48.87398" lon="2.32538">
        <ele>91.2</ele>
        <time>2015-01-05T20:04:08.672Z</time>
      </trkpt>
      <trkpt lat="48.87399" lon="2.3253">
        <ele>91.3</ele>
        <time>2015-01-05T20:04:09.679Z</time>
      </trkpt>
      <trkpt lat="48.874" lon="2.32523">
        <ele>91.5</ele>
        <time>2015-01-05T20:04:10.688Z</time>
      </trkpt>
      <trkpt lat="48.87401" lon="2.32516">
        <ele>91.8</ele>
        <time>2015-01-05T20:04:11.702Z</time>
      </trkpt>
      <trkpt lat="48.87402" lon="2.32509">
        <ele>91.9</ele>
        <time>2015-01-05T20:04:12.631Z</time>
      </trkpt>
      <trkpt lat="48.87403" lon="2.32501">
        <ele>92</ele>
        <time>2015-01-05T20:04:13.650Z</time>
      </trkpt>
      <trkpt lat="48.87403" lon="2.32493">
        <ele>92.4</ele>
        <time>2015-01-05T20:04:14.662Z</time>
      </trkpt>
      <trkpt lat="48.87403" lon="2.32485">
        <ele>93.1</ele>
        <time>2015-01-05T20:04:15.674Z</time>
      </trkpt>
      <trkpt lat="48.87404" lon="2.32476">
        <ele>93.5</ele>
        <time>2015-01-05T20:04:16.695Z</time>
      </trkpt>
      <trkpt lat="48.87403" lon="2.32468">
        <ele>94</ele>
        <time>2015-01-05T20:04:17.699Z</time>
      </trkpt>
      <trkpt lat="48.87403" lon="2.32459">
        <ele>94.6</ele>
        <time>2015-01-05T20:04:18.632Z</time>
      </trkpt>
      <trkpt lat="48.87403" lon="2.32449">
        <ele>94.9</ele>
        <time>2015-01-05T20:04:19.633Z</time>
      </trkpt>
      <trkpt lat="48.87404" lon="2.3244">
        <ele>95.3</ele>
        <time>2015-01-05T20:04:20.687Z</time>
      </trkpt>
      <trkpt lat="48.87403" lon="2.32431">
        <ele>95.7</ele>
        <time>2015-01-05T20:04:21.688Z</time>
      </trkpt>
      <trkpt lat="48.87404" lon="2.32423">
        <ele>96.3</ele>
        <time>2015-01-05T20:04:22.791Z</time>
      </trkpt>
      <trkpt lat="48.87406" lon="2.32416">
        <ele>96.5</ele>
        <time>2015-01-05T20:04:23.636Z</time>
      </trkpt>
      <trkpt lat="48.87407" lon="2.32409">
        <ele>96.7</ele>
        <time>2015-01-05T20:04:24.653Z</time>
      </trkpt>
      <trkpt lat="48.87408" lon="2.32401">
        <ele>96.8</ele>
        <time>2015-01-05T20:04:25.661Z</time>
      </trkpt>
      <trkpt lat="48.8741" lon="2.32389">
        <ele>96.7</ele>
        <time>2015-01-05T20:04:27.691Z</time>
      </trkpt>
      <trkpt lat="48.87412" lon="2.32383">
        <ele>97</ele>
        <time>2015-01-05T20:04:28.707Z</time>
      </trkpt>
      <trkpt lat="48.87414" lon="2.32376">
        <ele>97.3</ele>
        <time>2015-01-05T20:04:29.722Z</time>
      </trkpt>
      <trkpt lat="48.87416" lon="2.32369">
        <ele>97.6</ele>
        <time>2015-01-05T20:04:30.595Z</time>
      </trkpt>
      <trkpt lat="48.87418" lon="2.32362">
        <ele>97.9</ele>
        <time>2015-01-05T20:04:31.647Z</time>
      </trkpt>
      <trkpt lat="48.87419" lon="2.32355">
        <ele>98.2</ele>
        <time>2015-01-05T20:04:32.705Z</time>
      </trkpt>
      <trkpt lat="48.87419" lon="2.32348">
        <ele>98.5</ele>
        <time>2015-01-05T20:04:33.616Z</time>
      </trkpt>
      <trkpt lat="48.87421" lon="2.3234">
        <ele>98.9</ele>
        <time>2015-01-05T20:04:34.619Z</time>
      </trkpt>
      <trkpt lat="48.87422" lon="2.32329">
        <ele>98.5</ele>
        <time>2015-01-05T20:04:36.691Z</time>
      </trkpt>
      <trkpt lat="48.87424" lon="2.32322">
        <ele>98.9</ele>
        <time>2015-01-05T20:04:37.707Z</time>
      </trkpt>
      <trkpt lat="48.87425" lon="2.32316">
        <ele>99</ele>
        <time>2015-01-05T20:04:38.726Z</time>
      </trkpt>
      <trkpt lat="48.87427" lon="2.32309">
        <ele>99.1</ele>
        <time>2015-01-05T20:04:39.617Z</time>
      </trkpt>
      <trkpt lat="48.87427" lon="2.32302">
        <ele>98.6</ele>
        <time>2015-01-05T20:04:40.632Z</time>
      </trkpt>
      <trkpt lat="48.87429" lon="2.32295">
        <ele>98.5</ele>
        <time>2015-01-05T20:04:41.638Z</time>
      </trkpt>
      <trkpt lat="48.87431" lon="2.32288">
        <ele>98.5</ele>
        <time>2015-01-05T20:04:42.654Z</time>
      </trkpt>
      <trkpt lat="48.87431" lon="2.3228">
        <ele>98.3</ele>
        <time>2015-01-05T20:04:43.666Z</time>
      </trkpt>
      <trkpt lat="48.87433" lon="2.32269">
        <ele>97.3</ele>
        <time>2015-01-05T20:04:45.727Z</time>
      </trkpt>
      <trkpt lat="48.87433" lon="2.32262">
        <ele>96.8</ele>
        <time>2015-01-05T20:04:46.688Z</time>
      </trkpt>
      <trkpt lat="48.87433" lon="2.32256">
        <ele>96.8</ele>
        <time>2015-01-05T20:04:47.621Z</time>
      </trkpt>
      <trkpt lat="48.87434" lon="2.32248">
        <ele>96.3</ele>
        <time>2015-01-05T20:04:48.621Z</time>
      </trkpt>
      <trkpt lat="48.87434" lon="2.32236">
        <ele>95.9</ele>
        <time>2015-01-05T20:04:50.753Z</time>
      </trkpt>
      <trkpt lat="48.87434" lon="2.32229">
        <ele>95.7</ele>
        <time>2015-01-05T20:04:51.711Z</time>
      </trkpt>
      <trkpt lat="48.87439" lon="2.32218">
        <ele>95</ele>
        <time>2015-01-05T20:04:53.619Z</time>
      </trkpt>
      <trkpt lat="48.8744" lon="2.32212">
        <ele>94.9</ele>
        <time>2015-01-05T20:04:54.653Z</time>
      </trkpt>
      <trkpt lat="48.87442" lon="2.32205">
        <ele>94.8</ele>
        <time>2015-01-05T20:04:55.680Z</time>
      </trkpt>
      <trkpt lat="48.87443" lon="2.32197">
        <ele>94.8</ele>
        <time>2015-01-05T20:04:56.689Z</time>
      </trkpt>
      <trkpt lat="48.87444" lon="2.3219">
        <ele>94.9</ele>
        <time>2015-01-05T20:04:57.703Z</time>
      </trkpt>
      <trkpt lat="48.87446" lon="2.32182">
        <ele>94.8</ele>
        <time>2015-01-05T20:04:58.633Z</time>
      </trkpt>
      <trkpt lat="48.87447" lon="2.32174">
        <ele>94.9</ele>
        <time>2015-01-05T20:04:59.639Z</time>
      </trkpt>
      <trkpt lat="48.87448" lon="2.32167">
        <ele>95.1</ele>
        <time>2015-01-05T20:05:00.638Z</time>
      </trkpt>
      <trkpt lat="48.8745" lon="2.3216">
        <ele>95.4</ele>
        <time>2015-01-05T20:05:01.657Z</time>
      </trkpt>
      <trkpt lat="48.8745" lon="2.32151">
        <ele>95.5</ele>
        <time>2015-01-05T20:05:02.790Z</time>
      </trkpt>
      <trkpt lat="48.87449" lon="2.32142">
        <ele>95.8</ele>
        <time>2015-01-05T20:05:03.621Z</time>
      </trkpt>
      <trkpt lat="48.87449" lon="2.32133">
        <ele>96.2</ele>
        <time>2015-01-05T20:05:04.614Z</time>
      </trkpt>
      <trkpt lat="48.87449" lon="2.32124">
        <ele>96.6</ele>
        <time>2015-01-05T20:05:05.632Z</time>
      </trkpt>
      <trkpt lat="48.8745" lon="2.32116">
        <ele>96.9</ele>
        <time>2015-01-05T20:05:06.677Z</time>
      </trkpt>
      <trkpt lat="48.87451" lon="2.32107">
        <ele>97.5</ele>
        <time>2015-01-05T20:05:07.716Z</time>
      </trkpt>
      <trkpt lat="48.87451" lon="2.32098">
        <ele>97.7</ele>
        <time>2015-01-05T20:05:08.734Z</time>
      </trkpt>
      <trkpt lat="48.87451" lon="2.3209">
        <ele>98</ele>
        <time>2015-01-05T20:05:09.619Z</time>
      </trkpt>
      <trkpt lat="48.87451" lon="2.32082">
        <ele>98.1</ele>
        <time>2015-01-05T20:05:10.619Z</time>
      </trkpt>
      <trkpt lat="48.87451" lon="2.32074">
        <ele>98.2</ele>
        <time>2015-01-05T20:05:11.628Z</time>
      </trkpt>
      <trkpt lat="48.87451" lon="2.32067">
        <ele>98.3</ele>
        <time>2015-01-05T20:05:12.634Z</time>
      </trkpt>
      <trkpt lat="48.87452" lon="2.32054">
        <ele>98.3</ele>
        <time>2015-01-05T20:05:14.672Z</time>
      </trkpt>
      <trkpt lat="48.87453" lon="2.32048">
        <ele>98.2</ele>
        <time>2015-01-05T20:05:15.691Z</time>
      </trkpt>
      <trkpt lat="48.87455" lon="2.32037">
        <ele>98.3</ele>
        <time>2015-01-05T20:05:17.687Z</time>
      </trkpt>
      <trkpt lat="48.87456" lon="2.32032">
        <ele>98.3</ele>
        <time>2015-01-05T20:05:18.636Z</time>
      </trkpt>
      <trkpt lat="48.87459" lon="2.32027">
        <ele>97.5</ele>
        <time>2015-01-05T20:05:19.704Z</time>
      </trkpt>
      <trkpt lat="48.87464" lon="2.32024">
        <ele>96.8</ele>
        <time>2015-01-05T20:05:20.716Z</time>
      </trkpt>
      <trkpt lat="48.87469" lon="2.32016">
        <ele>96.9</ele>
        <time>2015-01-05T20:05:22.625Z</time>
      </trkpt>
      <trkpt lat="48.87471" lon="2.32013">
        <ele>96.6</ele>
        <time>2015-01-05T20:05:23.642Z</time>
      </trkpt>
      <trkpt lat="48.87477" lon="2.32004">
        <ele>95.2</ele>
        <time>2015-01-05T20:05:28.708Z</time>
      </trkpt>
      <trkpt lat="48.87478" lon="2.32003">
        <ele>94.8</ele>
        <time>2015-01-05T20:05:29.700Z</time>
      </trkpt>
      <trkpt lat="48.87486" lon="2.32005">
        <ele>89.5</ele>
        <time>2015-01-05T20:06:07.731Z</time>
      </trkpt>
      <trkpt lat="48.87488" lon="2.32003">
        <ele>89.1</ele>
        <time>2015-01-05T20:06:08.756Z</time>
      </trkpt>
      <trkpt lat="48.87494" lon="2.31994">
        <ele>88.2</ele>
        <time>2015-01-05T20:06:12.641Z</time>
      </trkpt>
      <trkpt lat="48.87496" lon="2.31992">
        <ele>88</ele>
        <time>2015-01-05T20:06:13.654Z</time>
      </trkpt>
      <trkpt lat="48.87503" lon="2.31987">
        <ele>87.4</ele>
        <time>2015-01-05T20:06:16.662Z</time>
      </trkpt>
      <trkpt lat="48.87505" lon="2.31988">
        <ele>87.3</ele>
        <time>2015-01-05T20:06:17.693Z</time>
      </trkpt>
      <trkpt lat="48.87512" lon="2.31993">
        <ele>87.2</ele>
        <time>2015-01-05T20:06:21.685Z</time>
      </trkpt>
      <trkpt lat="48.87514" lon="2.31993">
        <ele>87.2</ele>
        <time>2015-01-05T20:06:22.674Z</time>
      </trkpt>
      <trkpt lat="48.87522" lon="2.31992">
        <ele>87.3</ele>
        <time>2015-01-05T20:06:25.653Z</time>
      </trkpt>
      <trkpt lat="48.87524" lon="2.3199">
        <ele>87.5</ele>
        <time>2015-01-05T20:06:26.669Z</time>
      </trkpt>
      <trkpt lat="48.87532" lon="2.31985">
        <ele>88.4</ele>
        <time>2015-01-05T20:06:30.634Z</time>
      </trkpt>
      <trkpt lat="48.87533" lon="2.31983">
        <ele>88.6</ele>
        <time>2015-01-05T20:06:31.650Z</time>
      </trkpt>
      <trkpt lat="48.87539" lon="2.31978">
        <ele>89</ele>
        <time>2015-01-05T20:06:37.678Z</time>
      </trkpt>
      <trkpt lat="48.87547" lon="2.31976">
        <ele>89.4</ele>
        <time>2015-01-05T20:06:38.704Z</time>
      </trkpt>
      <trkpt lat="48.87554" lon="2.3197">
        <ele>90.1</ele>
        <time>2015-01-05T20:06:41.630Z</time>
      </trkpt>
      <trkpt lat="48.87556" lon="2.31965">
        <ele>90.8</ele>
        <time>2015-01-05T20:06:42.650Z</time>
      </trkpt>
      <trkpt lat="48.87564" lon="2.31963">
        <ele>91.2</ele>
        <time>2015-01-05T20:06:45.698Z</time>
      </trkpt>
      <trkpt lat="48.87567" lon="2.31963">
        <ele>90.8</ele>
        <time>2015-01-05T20:06:46.621Z</time>
      </trkpt>
      <trkpt lat="48.87569" lon="2.31966">
        <ele>90.5</ele>
        <time>2015-01-05T20:06:51.595Z</time>
      </trkpt>
      <trkpt lat="48.87578" lon="2.31968">
        <ele>90.8</ele>
        <time>2015-01-05T20:06:52.605Z</time>
      </trkpt>
      <trkpt lat="48.87583" lon="2.31967">
        <ele>91.4</ele>
        <time>2015-01-05T20:06:54.619Z</time>
      </trkpt>
      <trkpt lat="48.87587" lon="2.31966">
        <ele>91.7</ele>
        <time>2015-01-05T20:06:55.639Z</time>
      </trkpt>
      <trkpt lat="48.87592" lon="2.31963">
        <ele>92</ele>
        <time>2015-01-05T20:06:57.659Z</time>
      </trkpt>
      <trkpt lat="48.87597" lon="2.31961">
        <ele>92.5</ele>
        <time>2015-01-05T20:06:58.595Z</time>
      </trkpt>
      <trkpt lat="48.87604" lon="2.31955">
        <ele>93.6</ele>
        <time>2015-01-05T20:07:00.660Z</time>
      </trkpt>
      <trkpt lat="48.87606" lon="2.31953">
        <ele>93.9</ele>
        <time>2015-01-05T20:07:01.687Z</time>
      </trkpt>
      <trkpt lat="48.87611" lon="2.31953">
        <ele>93.7</ele>
        <time>2015-01-05T20:07:07.640Z</time>
      </trkpt>
      <trkpt lat="48.87619" lon="2.31946">
        <ele>94.1</ele>
        <time>2015-01-05T20:07:08.728Z</time>
      </trkpt>
      <trkpt lat="48.87627" lon="2.31943">
        <ele>93.9</ele>
        <time>2015-01-05T20:07:11.709Z</time>
      </trkpt>
      <trkpt lat="48.8763" lon="2.31942">
        <ele>94.4</ele>
        <time>2015-01-05T20:07:12.661Z</time>
      </trkpt>
      <trkpt lat="48.87635" lon="2.31942">
        <ele>93.2</ele>
        <time>2015-01-05T20:07:13.666Z</time>
      </trkpt>
      <trkpt lat="48.8764" lon="2.31942">
        <ele>92.3</ele>
        <time>2015-01-05T20:07:14.673Z</time>
      </trkpt>
      <trkpt lat="48.87646" lon="2.31941">
        <ele>91.5</ele>
        <time>2015-01-05T20:07:15.687Z</time>
      </trkpt>
      <trkpt lat="48.8765" lon="2.31941">
        <ele>91.4</ele>
        <time>2015-01-05T20:07:16.624Z</time>
      </trkpt>
      <trkpt lat="48.87659" lon="2.31939">
        <ele>92.8</ele>
        <time>2015-01-05T20:07:19.629Z</time>
      </trkpt>
      <trkpt lat="48.87661" lon="2.31938">
        <ele>93.1</ele>
        <time>2015-01-05T20:07:20.666Z</time>
      </trkpt>
      <trkpt lat="48.8767" lon="2.3194">
        <ele>93.8</ele>
        <time>2015-01-05T20:07:24.615Z</time>
      </trkpt>
      <trkpt lat="48.87672" lon="2.31941">
        <ele>94.6</ele>
        <time>2015-01-05T20:07:25.638Z</time>
      </trkpt>
      <trkpt lat="48.87681" lon="2.31944">
        <ele>96.6</ele>
        <time>2015-01-05T20:07:28.716Z</time>
      </trkpt>
      <trkpt lat="48.87683" lon="2.31944">
        <ele>97</ele>
        <time>2015-01-05T20:07:29.596Z</time>
      </trkpt>
      <trkpt lat="48.8769" lon="2.31949">
        <ele>99.2</ele>
        <time>2015-01-05T20:07:37.920Z</time>
      </trkpt>
      <trkpt lat="48.87701" lon="2.31951">
        <ele>101.5</ele>
        <time>2015-01-05T20:07:38.669Z</time>
      </trkpt>
      <trkpt lat="48.87709" lon="2.31952">
        <ele>102.8</ele>
        <time>2015-01-05T20:07:41.664Z</time>
      </trkpt>
      <trkpt lat="48.87711" lon="2.31951">
        <ele>103.3</ele>
        <time>2015-01-05T20:07:42.668Z</time>
      </trkpt>
      <trkpt lat="48.8772" lon="2.31952">
        <ele>104.5</ele>
        <time>2015-01-05T20:07:46.591Z</time>
      </trkpt>
      <trkpt lat="48.87722" lon="2.31953">
        <ele>104.7</ele>
        <time>2015-01-05T20:07:47.598Z</time>
      </trkpt>
      <trkpt lat="48.87728" lon="2.31956">
        <ele>105.7</ele>
        <time>2015-01-05T20:07:50.703Z</time>
      </trkpt>
      <trkpt lat="48.87732" lon="2.31957">
        <ele>106</ele>
        <time>2015-01-05T20:07:51.702Z</time>
      </trkpt>
      <trkpt lat="48.8774" lon="2.31962">
        <ele>107</ele>
        <time>2015-01-05T20:07:54.691Z</time>
      </trkpt>
      <trkpt lat="48.87742" lon="2.31964">
        <ele>107.2</ele>
        <time>2015-01-05T20:07:55.605Z</time>
      </trkpt>
      <trkpt lat="48.87748" lon="2.31969">
        <ele>107.8</ele>
        <time>2015-01-05T20:07:58.378Z</time>
      </trkpt>
      <trkpt lat="48.87751" lon="2.3197">
        <ele>108.1</ele>
        <time>2015-01-05T20:07:58.657Z</time>
      </trkpt>
      <trkpt lat="48.87754" lon="2.31972">
        <ele>108.6</ele>
        <time>2015-01-05T20:08:36.640Z</time>
      </trkpt>
      <trkpt lat="48.8779" lon="2.31975">
        <ele>111.8</ele>
        <time>2015-01-05T20:08:37.697Z</time>
      </trkpt>
      <trkpt lat="48.87795" lon="2.31976">
        <ele>111</ele>
        <time>2015-01-05T20:09:48.692Z</time>
      </trkpt>
      <trkpt lat="48.87826" lon="2.31979">
        <ele>109.6</ele>
        <time>2015-01-05T20:09:49.709Z</time>
      </trkpt>
      <trkpt lat="48.87832" lon="2.31975">
        <ele>108.5</ele>
        <time>2015-01-05T20:09:53.365Z</time>
      </trkpt>
      <trkpt lat="48.87835" lon="2.31973">
        <ele>108</ele>
        <time>2015-01-05T20:09:53.834Z</time>
      </trkpt>
      <trkpt lat="48.87842" lon="2.31967">
        <ele>106.6</ele>
        <time>2015-01-05T20:09:56.820Z</time>
      </trkpt>
      <trkpt lat="48.87845" lon="2.31965">
        <ele>106.3</ele>
        <time>2015-01-05T20:09:57.656Z</time>
      </trkpt>
      <trkpt lat="48.87853" lon="2.31962">
        <ele>105.6</ele>
        <time>2015-01-05T20:09:59.703Z</time>
      </trkpt>
      <trkpt lat="48.87856" lon="2.31959">
        <ele>105.2</ele>
        <time>2015-01-05T20:10:00.616Z</time>
      </trkpt>
      <trkpt lat="48.87863" lon="2.31956">
        <ele>104.9</ele>
        <time>2015-01-05T20:10:02.734Z</time>
      </trkpt>
      <trkpt lat="48.87867" lon="2.31955">
        <ele>104.9</ele>
        <time>2015-01-05T20:10:03.678Z</time>
      </trkpt>
      <trkpt lat="48.87873" lon="2.3195">
        <ele>105.1</ele>
        <time>2015-01-05T20:10:05.714Z</time>
      </trkpt>
      <trkpt lat="48.87876" lon="2.31947">
        <ele>105</ele>
        <time>2015-01-05T20:10:06.610Z</time>
      </trkpt>
      <trkpt lat="48.87881" lon="2.31946">
        <ele>104.8</ele>
        <time>2015-01-05T20:10:08.568Z</time>
      </trkpt>
      <trkpt lat="48.87886" lon="2.31945">
        <ele>105</ele>
        <time>2015-01-05T20:10:08.643Z</time>
      </trkpt>
      <trkpt lat="48.87891" lon="2.31939">
        <ele>105.6</ele>
        <time>2015-01-05T20:10:10.668Z</time>
      </trkpt>
      <trkpt lat="48.87893" lon="2.31935">
        <ele>105.9</ele>
        <time>2015-01-05T20:10:11.678Z</time>
      </trkpt>
      <trkpt lat="48.87897" lon="2.31925">
        <ele>106.1</ele>
        <time>2015-01-05T20:10:13.654Z</time>
      </trkpt>
      <trkpt lat="48.87899" lon="2.3192">
        <ele>106.2</ele>
        <time>2015-01-05T20:10:14.684Z</time>
      </trkpt>
      <trkpt lat="48.87905" lon="2.31912">
        <ele>106.6</ele>
        <time>2015-01-05T20:10:16.615Z</time>
      </trkpt>
      <trkpt lat="48.87907" lon="2.31908">
        <ele>106.3</ele>
        <time>2015-01-05T20:10:17.626Z</time>
      </trkpt>
      <trkpt lat="48.87911" lon="2.31899">
        <ele>106.8</ele>
        <time>2015-01-05T20:10:19.648Z</time>
      </trkpt>
      <trkpt lat="48.87914" lon="2.31895">
        <ele>106.8</ele>
        <time>2015-01-05T20:10:20.661Z</time>
      </trkpt>
      <trkpt lat="48.87918" lon="2.31885">
        <ele>107.2</ele>
        <time>2015-01-05T20:10:22.612Z</time>
      </trkpt>
      <trkpt lat="48.87919" lon="2.31877">
        <ele>107.3</ele>
        <time>2015-01-05T20:10:23.624Z</time>
      </trkpt>
      <trkpt lat="48.87922" lon="2.31865">
        <ele>107.7</ele>
        <time>2015-01-05T20:10:25.631Z</time>
      </trkpt>
      <trkpt lat="48.87924" lon="2.3186">
        <ele>107.7</ele>
        <time>2015-01-05T20:10:26.668Z</time>
      </trkpt>
      <trkpt lat="48.87928" lon="2.3185">
        <ele>107.7</ele>
        <time>2015-01-05T20:10:28.686Z</time>
      </trkpt>
      <trkpt lat="48.87931" lon="2.31846">
        <ele>107.8</ele>
        <time>2015-01-05T20:10:29.698Z</time>
      </trkpt>
      <trkpt lat="48.87935" lon="2.31839">
        <ele>107.9</ele>
        <time>2015-01-05T20:10:31.621Z</time>
      </trkpt>
      <trkpt lat="48.87937" lon="2.31836">
        <ele>108.1</ele>
        <time>2015-01-05T20:10:32.665Z</time>
      </trkpt>
      <trkpt lat="48.87941" lon="2.31828">
        <ele>107.2</ele>
        <time>2015-01-05T20:10:34.684Z</time>
      </trkpt>
      <trkpt lat="48.87943" lon="2.31826">
        <ele>107.5</ele>
        <time>2015-01-05T20:10:35.775Z</time>
      </trkpt>
      <trkpt lat="48.87949" lon="2.3182">
        <ele>108.7</ele>
        <time>2015-01-05T20:10:39.677Z</time>
      </trkpt>
      <trkpt lat="48.87952" lon="2.31818">
        <ele>109</ele>
        <time>2015-01-05T20:10:40.645Z</time>
      </trkpt>
      <trkpt lat="48.87957" lon="2.31813">
        <ele>109.5</ele>
        <time>2015-01-05T20:10:42.606Z</time>
      </trkpt>
      <trkpt lat="48.87961" lon="2.31812">
        <ele>109.4</ele>
        <time>2015-01-05T20:10:43.623Z</time>
      </trkpt>
      <trkpt lat="48.87966" lon="2.31808">
        <ele>109.3</ele>
        <time>2015-01-05T20:10:45.585Z</time>
      </trkpt>
      <trkpt lat="48.87969" lon="2.31807">
        <ele>109.3</ele>
        <time>2015-01-05T20:10:46.769Z</time>
      </trkpt>
      <trkpt lat="48.87974" lon="2.31806">
        <ele>109.3</ele>
        <time>2015-01-05T20:10:47.596Z</time>
      </trkpt>
      <trkpt lat="48.87979" lon="2.31805">
        <ele>109.4</ele>
        <time>2015-01-05T20:10:48.608Z</time>
      </trkpt>
      <trkpt lat="48.87984" lon="2.31805">
        <ele>109.5</ele>
        <time>2015-01-05T20:10:49.642Z</time>
      </trkpt>
      <trkpt lat="48.87989" lon="2.31807">
        <ele>109.5</ele>
        <time>2015-01-05T20:10:50.660Z</time>
      </trkpt>
      <trkpt lat="48.87995" lon="2.31808">
        <ele>109.3</ele>
        <time>2015-01-05T20:10:51.685Z</time>
      </trkpt>
      <trkpt lat="48.88" lon="2.31809">
        <ele>109.4</ele>
        <time>2015-01-05T20:10:52.703Z</time>
      </trkpt>
      <trkpt lat="48.88006" lon="2.31808">
        <ele>109.1</ele>
        <time>2015-01-05T20:10:53.617Z</time>
      </trkpt>
      <trkpt lat="48.88011" lon="2.31806">
        <ele>108.8</ele>
        <time>2015-01-05T20:10:54.683Z</time>
      </trkpt>
      <trkpt lat="48.88015" lon="2.31804">
        <ele>108.8</ele>
        <time>2015-01-05T20:10:55.632Z</time>
      </trkpt>
      <trkpt lat="48.88019" lon="2.31801">
        <ele>108.8</ele>
        <time>2015-01-05T20:10:56.688Z</time>
      </trkpt>
      <trkpt lat="48.88026" lon="2.31794">
        <ele>108.8</ele>
        <time>2015-01-05T20:10:58.615Z</time>
      </trkpt>
      <trkpt lat="48.8803" lon="2.31789">
        <ele>109</ele>
        <time>2015-01-05T20:10:59.609Z</time>
      </trkpt>
      <trkpt lat="48.88033" lon="2.31785">
        <ele>109.1</ele>
        <time>2015-01-05T20:11:00.614Z</time>
      </trkpt>
      <trkpt lat="48.88038" lon="2.31783">
        <ele>109.4</ele>
        <time>2015-01-05T20:11:01.627Z</time>
      </trkpt>
      <trkpt lat="48.88044" lon="2.31782">
        <ele>109.8</ele>
        <time>2015-01-05T20:11:02.628Z</time>
      </trkpt>
      <trkpt lat="48.88048" lon="2.3178">
        <ele>110.2</ele>
        <time>2015-01-05T20:11:03.589Z</time>
      </trkpt>
      <trkpt lat="48.88051" lon="2.31769">
        <ele>111.5</ele>
        <time>2015-01-05T20:11:05.831Z</time>
      </trkpt>
      <trkpt lat="48.88052" lon="2.3176">
        <ele>112.3</ele>
        <time>2015-01-05T20:11:06.773Z</time>
      </trkpt>
      <trkpt lat="48.88057" lon="2.31754">
        <ele>112.5</ele>
        <time>2015-01-05T20:11:08.658Z</time>
      </trkpt>
      <trkpt lat="48.88063" lon="2.31751">
        <ele>111</ele>
        <time>2015-01-05T20:11:09.710Z</time>
      </trkpt>
      <trkpt lat="48.88068" lon="2.31747">
        <ele>110.4</ele>
        <time>2015-01-05T20:11:10.604Z</time>
      </trkpt>
      <trkpt lat="48.88072" lon="2.31744">
        <ele>110.1</ele>
        <time>2015-01-05T20:11:11.602Z</time>
      </trkpt>
      <trkpt lat="48.88075" lon="2.31733">
        <ele>110.6</ele>
        <time>2015-01-05T20:11:13.666Z</time>
      </trkpt>
      <trkpt lat="48.88075" lon="2.31725">
        <ele>111.3</ele>
        <time>2015-01-05T20:11:14.654Z</time>
      </trkpt>
      <trkpt lat="48.88073" lon="2.31714">
        <ele>111.9</ele>
        <time>2015-01-05T20:11:16.685Z</time>
      </trkpt>
      <trkpt lat="48.88072" lon="2.31708">
        <ele>112.7</ele>
        <time>2015-01-05T20:11:17.707Z</time>
      </trkpt>
      <trkpt lat="48.88068" lon="2.31695">
        <ele>113</ele>
        <time>2015-01-05T20:11:19.595Z</time>
      </trkpt>
      <trkpt lat="48.88065" lon="2.31688">
        <ele>113.1</ele>
        <time>2015-01-05T20:11:20.653Z</time>
      </trkpt>
      <trkpt lat="48.88061" lon="2.31678">
        <ele>112.4</ele>
        <time>2015-01-05T20:11:22.611Z</time>
      </trkpt>
      <trkpt lat="48.88058" lon="2.31676">
        <ele>111.8</ele>
        <time>2015-01-05T20:11:23.615Z</time>
      </trkpt>
      <trkpt lat="48.88053" lon="2.31666">
        <ele>110.9</ele>
        <time>2015-01-05T20:11:26.631Z</time>
      </trkpt>
      <trkpt lat="48.88053" lon="2.31661">
        <ele>110.5</ele>
        <time>2015-01-05T20:11:27.656Z</time>
      </trkpt>
      <trkpt lat="48.8805" lon="2.31648">
        <ele>109.9</ele>
        <time>2015-01-05T20:11:30.656Z</time>
      </trkpt>
      <trkpt lat="48.88048" lon="2.31645">
        <ele>109.2</ele>
        <time>2015-01-05T20:11:31.702Z</time>
      </trkpt>
      <trkpt lat="48.88042" lon="2.31635">
        <ele>108.6</ele>
        <time>2015-01-05T20:11:34.743Z</time>
      </trkpt>
      <trkpt lat="48.88039" lon="2.31632">
        <ele>108.4</ele>
        <time>2015-01-05T20:11:35.628Z</time>
      </trkpt>
      <trkpt lat="48.88035" lon="2.31624">
        <ele>108.3</ele>
        <time>2015-01-05T20:11:37.677Z</time>
      </trkpt>
      <trkpt lat="48.88033" lon="2.3162">
        <ele>108.4</ele>
        <time>2015-01-05T20:11:38.688Z</time>
      </trkpt>
      <trkpt lat="48.88027" lon="2.31611">
        <ele>107.6</ele>
        <time>2015-01-05T20:11:43.690Z</time>
      </trkpt>
      <trkpt lat="48.88026" lon="2.31608">
        <ele>107.5</ele>
        <time>2015-01-05T20:11:44.756Z</time>
      </trkpt>
      <trkpt lat="48.8802" lon="2.31598">
        <ele>106.5</ele>
        <time>2015-01-05T20:11:48.626Z</time>
      </trkpt>
      <trkpt lat="48.88018" lon="2.31596">
        <ele>106.2</ele>
        <time>2015-01-05T20:11:49.657Z</time>
      </trkpt>
      <trkpt lat="48.88013" lon="2.3159">
        <ele>105.8</ele>
        <time>2015-01-05T20:11:51.683Z</time>
      </trkpt>
      <trkpt lat="48.88011" lon="2.31587">
        <ele>105.4</ele>
        <time>2015-01-05T20:11:52.695Z</time>
      </trkpt>
      <trkpt lat="48.88006" lon="2.31581">
        <ele>105.7</ele>
        <time>2015-01-05T20:11:54.621Z</time>
      </trkpt>
      <trkpt lat="48.88004" lon="2.31578">
        <ele>105.7</ele>
        <time>2015-01-05T20:11:55.714Z</time>
      </trkpt>
      <trkpt lat="48.87998" lon="2.3157">
        <ele>105.2</ele>
        <time>2015-01-05T20:11:58.682Z</time>
      </trkpt>
      <trkpt lat="48.87996" lon="2.31568">
        <ele>105.2</ele>
        <time>2015-01-05T20:11:59.820Z</time>
      </trkpt>
      <trkpt lat="48.8799" lon="2.31559">
        <ele>106.2</ele>
        <time>2015-01-05T20:12:11.615Z</time>
      </trkpt>
      <trkpt lat="48.87984" lon="2.31557">
        <ele>106.6</ele>
        <time>2015-01-05T20:12:12.614Z</time>
      </trkpt>
      <trkpt lat="48.87977" lon="2.3155">
        <ele>106.3</ele>
        <time>2015-01-05T20:12:15.643Z</time>
      </trkpt>
      <trkpt lat="48.87976" lon="2.31546">
        <ele>106.6</ele>
        <time>2015-01-05T20:12:16.650Z</time>
      </trkpt>
      <trkpt lat="48.87973" lon="2.31537">
        <ele>105.7</ele>
        <time>2015-01-05T20:12:18.686Z</time>
      </trkpt>
      <trkpt lat="48.87972" lon="2.31532">
        <ele>105.6</ele>
        <time>2015-01-05T20:12:19.700Z</time>
      </trkpt>
      <trkpt lat="48.8797" lon="2.31522">
        <ele>104.7</ele>
        <time>2015-01-05T20:12:21.594Z</time>
      </trkpt>
      <trkpt lat="48.87968" lon="2.31517">
        <ele>104.1</ele>
        <time>2015-01-05T20:12:22.633Z</time>
      </trkpt>
      <trkpt lat="48.87963" lon="2.31507">
        <ele>102</ele>
        <time>2015-01-05T20:12:25.685Z</time>
      </trkpt>
      <trkpt lat="48.87961" lon="2.31503">
        <ele>101.2</ele>
        <time>2015-01-05T20:12:26.698Z</time>
      </trkpt>
      <trkpt lat="48.87957" lon="2.31495">
        <ele>100.7</ele>
        <time>2015-01-05T20:12:28.610Z</time>
      </trkpt>
      <trkpt lat="48.87956" lon="2.31491">
        <ele>100.3</ele>
        <time>2015-01-05T20:12:29.625Z</time>
      </trkpt>
      <trkpt lat="48.87953" lon="2.31479">
        <ele>99.7</ele>
        <time>2015-01-05T20:12:32.699Z</time>
      </trkpt>
      <trkpt lat="48.87952" lon="2.31475">
        <ele>99.6</ele>
        <time>2015-01-05T20:12:33.627Z</time>
      </trkpt>
      <trkpt lat="48.87951" lon="2.31466">
        <ele>98.9</ele>
        <time>2015-01-05T20:12:35.631Z</time>
      </trkpt>
      <trkpt lat="48.87952" lon="2.3146">
        <ele>98.9</ele>
        <time>2015-01-05T20:12:36.691Z</time>
      </trkpt>
      <trkpt lat="48.87952" lon="2.31448">
        <ele>98.7</ele>
        <time>2015-01-05T20:13:11.632Z</time>
      </trkpt>
      <trkpt lat="48.87942" lon="2.31439">
        <ele>97.9</ele>
        <time>2015-01-05T20:13:12.663Z</time>
      </trkpt>
      <trkpt lat="48.8794" lon="2.31426">
        <ele>96.4</ele>
        <time>2015-01-05T20:13:15.628Z</time>
      </trkpt>
      <trkpt lat="48.87938" lon="2.31423">
        <ele>96.6</ele>
        <time>2015-01-05T20:13:16.626Z</time>
      </trkpt>
      <trkpt lat="48.87933" lon="2.31414">
        <ele>96.8</ele>
        <time>2015-01-05T20:13:18.609Z</time>
      </trkpt>
      <trkpt lat="48.8793" lon="2.31411">
        <ele>96.8</ele>
        <time>2015-01-05T20:13:19.613Z</time>
      </trkpt>
      <trkpt lat="48.87924" lon="2.31401">
        <ele>96.8</ele>
        <time>2015-01-05T20:13:22.675Z</time>
      </trkpt>
      <trkpt lat="48.87922" lon="2.31398">
        <ele>96.8</ele>
        <time>2015-01-05T20:13:23.679Z</time>
      </trkpt>
      <trkpt lat="48.87918" lon="2.3139">
        <ele>96.2</ele>
        <time>2015-01-05T20:13:25.609Z</time>
      </trkpt>
      <trkpt lat="48.87916" lon="2.31387">
        <ele>96</ele>
        <time>2015-01-05T20:13:26.666Z</time>
      </trkpt>
      <trkpt lat="48.8791" lon="2.3138">
        <ele>95.9</ele>
        <time>2015-01-05T20:13:28.631Z</time>
      </trkpt>
      <trkpt lat="48.87908" lon="2.31375">
        <ele>96.1</ele>
        <time>2015-01-05T20:13:29.679Z</time>
      </trkpt>
      <trkpt lat="48.87905" lon="2.3137">
        <ele>96.6</ele>
        <time>2015-01-05T20:13:30.701Z</time>
      </trkpt>
      <trkpt lat="48.87902" lon="2.31362">
        <ele>97.2</ele>
        <time>2015-01-05T20:13:31.627Z</time>
      </trkpt>
      <trkpt lat="48.879" lon="2.31355">
        <ele>97.7</ele>
        <time>2015-01-05T20:13:32.753Z</time>
      </trkpt>
      <trkpt lat="48.87897" lon="2.31349">
        <ele>98.1</ele>
        <time>2015-01-05T20:13:33.583Z</time>
      </trkpt>
      <trkpt lat="48.87893" lon="2.31341">
        <ele>98.4</ele>
        <time>2015-01-05T20:13:35.623Z</time>
      </trkpt>
      <trkpt lat="48.87891" lon="2.31336">
        <ele>98.3</ele>
        <time>2015-01-05T20:13:36.700Z</time>
      </trkpt>
      <trkpt lat="48.87887" lon="2.31328">
        <ele>98.1</ele>
        <time>2015-01-05T20:13:38.654Z</time>
      </trkpt>
      <trkpt lat="48.87885" lon="2.31324">
        <ele>98.2</ele>
        <time>2015-01-05T20:13:39.718Z</time>
      </trkpt>
      <trkpt lat="48.8788" lon="2.31317">
        <ele>98.8</ele>
        <time>2015-01-05T20:13:41.613Z</time>
      </trkpt>
      <trkpt lat="48.87878" lon="2.31314">
        <ele>98.7</ele>
        <time>2015-01-05T20:13:42.721Z</time>
      </trkpt>
      <trkpt lat="48.87873" lon="2.31304">
        <ele>98.3</ele>
        <time>2015-01-05T20:13:45.681Z</time>
      </trkpt>
      <trkpt lat="48.87871" lon="2.31301">
        <ele>98.1</ele>
        <time>2015-01-05T20:13:46.690Z</time>
      </trkpt>
      <trkpt lat="48.87868" lon="2.31292">
        <ele>98.3</ele>
        <time>2015-01-05T20:13:48.618Z</time>
      </trkpt>
      <trkpt lat="48.87865" lon="2.31289">
        <ele>98.6</ele>
        <time>2015-01-05T20:13:49.646Z</time>
      </trkpt>
      <trkpt lat="48.87862" lon="2.31281">
        <ele>98.6</ele>
        <time>2015-01-05T20:13:51.689Z</time>
      </trkpt>
      <trkpt lat="48.8786" lon="2.31275">
        <ele>99</ele>
        <time>2015-01-05T20:13:52.602Z</time>
      </trkpt>
      <trkpt lat="48.87856" lon="2.31265">
        <ele>99.4</ele>
        <time>2015-01-05T20:13:54.620Z</time>
      </trkpt>
      <trkpt lat="48.87853" lon="2.3126">
        <ele>99.6</ele>
        <time>2015-01-05T20:13:55.631Z</time>
      </trkpt>
      <trkpt lat="48.87849" lon="2.31251">
        <ele>99.9</ele>
        <time>2015-01-05T20:13:57.689Z</time>
      </trkpt>
      <trkpt lat="48.87846" lon="2.31247">
        <ele>99.9</ele>
        <time>2015-01-05T20:13:58.608Z</time>
      </trkpt>
      <trkpt lat="48.87842" lon="2.31238">
        <ele>100.4</ele>
        <time>2015-01-05T20:14:01.062Z</time>
      </trkpt>
      <trkpt lat="48.8784" lon="2.31233">
        <ele>100.7</ele>
        <time>2015-01-05T20:14:01.690Z</time>
      </trkpt>
      <trkpt lat="48.87836" lon="2.31223">
        <ele>101.9</ele>
        <time>2015-01-05T20:14:03.603Z</time>
      </trkpt>
      <trkpt lat="48.87834" lon="2.31218">
        <ele>102.6</ele>
        <time>2015-01-05T20:14:04.639Z</time>
      </trkpt>
      <trkpt lat="48.87828" lon="2.31209">
        <ele>102.8</ele>
        <time>2015-01-05T20:14:06.677Z</time>
      </trkpt>
      <trkpt lat="48.87826" lon="2.31204">
        <ele>103</ele>
        <time>2015-01-05T20:14:07.703Z</time>
      </trkpt>
      <trkpt lat="48.87821" lon="2.31195">
        <ele>102.9</ele>
        <time>2015-01-05T20:14:09.605Z</time>
      </trkpt>
      <trkpt lat="48.87818" lon="2.31191">
        <ele>102.6</ele>
        <time>2015-01-05T20:14:10.606Z</time>
      </trkpt>
      <trkpt lat="48.87815" lon="2.3118">
        <ele>102.4</ele>
        <time>2015-01-05T20:14:12.640Z</time>
      </trkpt>
      <trkpt lat="48.87813" lon="2.31174">
        <ele>102.6</ele>
        <time>2015-01-05T20:14:13.664Z</time>
      </trkpt>
      <trkpt lat="48.87811" lon="2.31167">
        <ele>102.8</ele>
        <time>2015-01-05T20:14:14.681Z</time>
      </trkpt>
      <trkpt lat="48.87809" lon="2.31161">
        <ele>103.2</ele>
        <time>2015-01-05T20:14:15.687Z</time>
      </trkpt>
      <trkpt lat="48.87806" lon="2.31148">
        <ele>103.9</ele>
        <time>2015-01-05T20:14:17.588Z</time>
      </trkpt>
      <trkpt lat="48.87803" lon="2.31143">
        <ele>103.9</ele>
        <time>2015-01-05T20:14:18.604Z</time>
      </trkpt>
      <trkpt lat="48.87798" lon="2.31134">
        <ele>104.2</ele>
        <time>2015-01-05T20:14:20.674Z</time>
      </trkpt>
      <trkpt lat="48.87795" lon="2.31129">
        <ele>104</ele>
        <time>2015-01-05T20:14:21.605Z</time>
      </trkpt>
      <trkpt lat="48.87791" lon="2.31119">
        <ele>104.3</ele>
        <time>2015-01-05T20:14:23.640Z</time>
      </trkpt>
      <trkpt lat="48.87789" lon="2.31114">
        <ele>104.5</ele>
        <time>2015-01-05T20:14:24.638Z</time>
      </trkpt>
      <trkpt lat="48.87785" lon="2.31106">
        <ele>105</ele>
        <time>2015-01-05T20:14:27.020Z</time>
      </trkpt>
      <trkpt lat="48.87782" lon="2.31102">
        <ele>105</ele>
        <time>2015-01-05T20:14:27.662Z</time>
      </trkpt>
      <trkpt lat="48.87777" lon="2.31094">
        <ele>105</ele>
        <time>2015-01-05T20:14:29.688Z</time>
      </trkpt>
      <trkpt lat="48.87775" lon="2.31089">
        <ele>105.2</ele>
        <time>2015-01-05T20:14:30.578Z</time>
      </trkpt>
      <trkpt lat="48.8777" lon="2.3108">
        <ele>105.6</ele>
        <time>2015-01-05T20:14:32.861Z</time>
      </trkpt>
      <trkpt lat="48.87768" lon="2.31076">
        <ele>105.9</ele>
        <time>2015-01-05T20:14:33.685Z</time>
      </trkpt>
      <trkpt lat="48.87764" lon="2.31068">
        <ele>106.5</ele>
        <time>2015-01-05T20:14:35.599Z</time>
      </trkpt>
      <trkpt lat="48.87762" lon="2.31062">
        <ele>107.4</ele>
        <time>2015-01-05T20:14:36.613Z</time>
      </trkpt>
      <trkpt lat="48.87755" lon="2.31053">
        <ele>108.8</ele>
        <time>2015-01-05T20:14:39.580Z</time>
      </trkpt>
      <trkpt lat="48.87754" lon="2.3105">
        <ele>109.1</ele>
        <time>2015-01-05T20:14:40.607Z</time>
      </trkpt>
      <trkpt lat="48.87752" lon="2.31046">
        <ele>109.9</ele>
        <time>2015-01-05T20:15:18.840Z</time>
      </trkpt>
      <trkpt lat="48.87761" lon="2.31062">
        <ele>110</ele>
        <time>2015-01-05T20:15:19.695Z</time>
      </trkpt>
      <trkpt lat="48.87761" lon="2.31051">
        <ele>107.9</ele>
        <time>2015-01-05T20:15:21.701Z</time>
      </trkpt>
      <trkpt lat="48.87761" lon="2.31045">
        <ele>107.4</ele>
        <time>2015-01-05T20:15:22.587Z</time>
      </trkpt>
      <trkpt lat="48.87758" lon="2.31036">
        <ele>106.9</ele>
        <time>2015-01-05T20:15:24.613Z</time>
      </trkpt>
      <trkpt lat="48.87757" lon="2.31031">
        <ele>107.3</ele>
        <time>2015-01-05T20:15:25.612Z</time>
      </trkpt>
      <trkpt lat="48.87752" lon="2.3102">
        <ele>108.8</ele>
        <time>2015-01-05T20:15:29.685Z</time>
      </trkpt>
      <trkpt lat="48.87752" lon="2.31019">
        <ele>108.7</ele>
        <time>2015-01-05T20:15:30.707Z</time>
      </trkpt>
      <trkpt lat="48.87753" lon="2.3102">
        <ele>108.8</ele>
        <time>2015-01-05T20:15:42.942Z</time>
      </trkpt>
      <trkpt lat="48.87764" lon="2.3102">
        <ele>112.8</ele>
        <time>2015-01-05T20:15:43.661Z</time>
      </trkpt>
      <trkpt lat="48.87771" lon="2.31017">
        <ele>113.5</ele>
        <time>2015-01-05T20:15:46.610Z</time>
      </trkpt>
      <trkpt lat="48.87774" lon="2.31015">
        <ele>113.6</ele>
        <time>2015-01-05T20:15:47.630Z</time>
      </trkpt>
      <trkpt lat="48.87779" lon="2.31009">
        <ele>111.9</ele>
        <time>2015-01-05T20:15:49.650Z</time>
      </trkpt>
      <trkpt lat="48.87781" lon="2.31004">
        <ele>110.7</ele>
        <time>2015-01-05T20:15:50.657Z</time>
      </trkpt>
      <trkpt lat="48.87785" lon="2.30994">
        <ele>109.3</ele>
        <time>2015-01-05T20:15:53.014Z</time>
      </trkpt>
      <trkpt lat="48.87787" lon="2.30988">
        <ele>108.1</ele>
        <time>2015-01-05T20:15:53.701Z</time>
      </trkpt>
      <trkpt lat="48.87789" lon="2.30977">
        <ele>107.7</ele>
        <time>2015-01-05T20:15:55.648Z</time>
      </trkpt>
      <trkpt lat="48.87788" lon="2.30971">
        <ele>107.4</ele>
        <time>2015-01-05T20:15:56.660Z</time>
      </trkpt>
      <trkpt lat="48.87787" lon="2.30959">
        <ele>107</ele>
        <time>2015-01-05T20:15:58.677Z</time>
      </trkpt>
      <trkpt lat="48.87786" lon="2.30952">
        <ele>106.7</ele>
        <time>2015-01-05T20:15:59.690Z</time>
      </trkpt>
      <trkpt lat="48.87786" lon="2.3094">
        <ele>106.2</ele>
        <time>2015-01-05T20:16:01.681Z</time>
      </trkpt>
      <trkpt lat="48.87786" lon="2.30935">
        <ele>106</ele>
        <time>2015-01-05T20:16:02.823Z</time>
      </trkpt>
      <trkpt lat="48.87788" lon="2.30925">
        <ele>105.3</ele>
        <time>2015-01-05T20:16:04.596Z</time>
      </trkpt>
      <trkpt lat="48.87789" lon="2.3092">
        <ele>105.4</ele>
        <time>2015-01-05T20:16:05.607Z</time>
      </trkpt>
      <trkpt lat="48.87791" lon="2.30909">
        <ele>104.9</ele>
        <time>2015-01-05T20:16:08.214Z</time>
      </trkpt>
      <trkpt lat="48.87792" lon="2.30904">
        <ele>104.6</ele>
        <time>2015-01-05T20:16:08.651Z</time>
      </trkpt>
      <trkpt lat="48.87792" lon="2.30892">
        <ele>104.7</ele>
        <time>2015-01-05T20:16:10.589Z</time>
      </trkpt>
      <trkpt lat="48.87792" lon="2.30886">
        <ele>104.8</ele>
        <time>2015-01-05T20:16:11.608Z</time>
      </trkpt>
      <trkpt lat="48.87792" lon="2.30876">
        <ele>104.4</ele>
        <time>2015-01-05T20:16:13.583Z</time>
      </trkpt>
      <trkpt lat="48.87792" lon="2.30871">
        <ele>104.1</ele>
        <time>2015-01-05T20:16:14.665Z</time>
      </trkpt>
      <trkpt lat="48.87789" lon="2.30858">
        <ele>104.7</ele>
        <time>2015-01-05T20:16:16.606Z</time>
      </trkpt>
      <trkpt lat="48.87789" lon="2.30851">
        <ele>105.1</ele>
        <time>2015-01-05T20:16:17.646Z</time>
      </trkpt>
      <trkpt lat="48.8779" lon="2.30838">
        <ele>105.4</ele>
        <time>2015-01-05T20:16:19.677Z</time>
      </trkpt>
      <trkpt lat="48.87788" lon="2.30831">
        <ele>105.3</ele>
        <time>2015-01-05T20:16:20.696Z</time>
      </trkpt>
      <trkpt lat="48.87788" lon="2.30824">
        <ele>105.5</ele>
        <time>2015-01-05T20:16:21.611Z</time>
      </trkpt>
      <trkpt lat="48.87786" lon="2.30818">
        <ele>105.4</ele>
        <time>2015-01-05T20:16:22.617Z</time>
      </trkpt>
      <trkpt lat="48.87785" lon="2.30806">
        <ele>105.4</ele>
        <time>2015-01-05T20:16:24.685Z</time>
      </trkpt>
      <trkpt lat="48.87785" lon="2.308">
        <ele>105.1</ele>
        <time>2015-01-05T20:16:25.719Z</time>
      </trkpt>
      <trkpt lat="48.87781" lon="2.3079">
        <ele>104.6</ele>
        <time>2015-01-05T20:16:27.754Z</time>
      </trkpt>
      <trkpt lat="48.87779" lon="2.30784">
        <ele>104.7</ele>
        <time>2015-01-05T20:16:28.626Z</time>
      </trkpt>
      <trkpt lat="48.87776" lon="2.30775">
        <ele>104.3</ele>
        <time>2015-01-05T20:16:30.683Z</time>
      </trkpt>
      <trkpt lat="48.87777" lon="2.3077">
        <ele>104.4</ele>
        <time>2015-01-05T20:16:31.680Z</time>
      </trkpt>
      <trkpt lat="48.87778" lon="2.30758">
        <ele>104.7</ele>
        <time>2015-01-05T20:16:33.605Z</time>
      </trkpt>
      <trkpt lat="48.87779" lon="2.30752">
        <ele>104.7</ele>
        <time>2015-01-05T20:16:34.663Z</time>
      </trkpt>
      <trkpt lat="48.87779" lon="2.30745">
        <ele>104.7</ele>
        <time>2015-01-05T20:16:35.665Z</time>
      </trkpt>
      <trkpt lat="48.87779" lon="2.30738">
        <ele>104.8</ele>
        <time>2015-01-05T20:16:36.677Z</time>
      </trkpt>
      <trkpt lat="48.87779" lon="2.30725">
        <ele>104.9</ele>
        <time>2015-01-05T20:16:38.689Z</time>
      </trkpt>
      <trkpt lat="48.87778" lon="2.3072">
        <ele>104.6</ele>
        <time>2015-01-05T20:16:39.716Z</time>
      </trkpt>
      <trkpt lat="48.87778" lon="2.30711">
        <ele>104.3</ele>
        <time>2015-01-05T20:16:41.614Z</time>
      </trkpt>
      <trkpt lat="48.87777" lon="2.30707">
        <ele>104.4</ele>
        <time>2015-01-05T20:16:42.626Z</time>
      </trkpt>
      <trkpt lat="48.87775" lon="2.30697">
        <ele>104.4</ele>
        <time>2015-01-05T20:16:44.682Z</time>
      </trkpt>
      <trkpt lat="48.87775" lon="2.30692">
        <ele>104.3</ele>
        <time>2015-01-05T20:16:45.681Z</time>
      </trkpt>
      <trkpt lat="48.87776" lon="2.30682">
        <ele>104.3</ele>
        <time>2015-01-05T20:16:48.078Z</time>
      </trkpt>
      <trkpt lat="48.87776" lon="2.30676">
        <ele>104.2</ele>
        <time>2015-01-05T20:16:48.649Z</time>
      </trkpt>
      <trkpt lat="48.87776" lon="2.30665">
        <ele>104.4</ele>
        <time>2015-01-05T20:16:50.692Z</time>
      </trkpt>
      <trkpt lat="48.87777" lon="2.30659">
        <ele>104.4</ele>
        <time>2015-01-05T20:16:51.705Z</time>
      </trkpt>
      <trkpt lat="48.87778" lon="2.30648">
        <ele>104.5</ele>
        <time>2015-01-05T20:16:53.607Z</time>
      </trkpt>
      <trkpt lat="48.87778" lon="2.30643">
        <ele>104.4</ele>
        <time>2015-01-05T20:16:54.631Z</time>
      </trkpt>
      <trkpt lat="48.87776" lon="2.3063">
        <ele>104.6</ele>
        <time>2015-01-05T20:16:56.670Z</time>
      </trkpt>
      <trkpt lat="48.87776" lon="2.30625">
        <ele>104.6</ele>
        <time>2015-01-05T20:16:57.674Z</time>
      </trkpt>
      <trkpt lat="48.87776" lon="2.30619">
        <ele>104.9</ele>
        <time>2015-01-05T20:16:58.573Z</time>
      </trkpt>
      <trkpt lat="48.87775" lon="2.3061">
        <ele>106.7</ele>
        <time>2015-01-05T20:16:59.602Z</time>
      </trkpt>
      <trkpt lat="48.87773" lon="2.30601">
        <ele>109.1</ele>
        <time>2015-01-05T20:17:00.606Z</time>
      </trkpt>
      <trkpt lat="48.87772" lon="2.30594">
        <ele>110.6</ele>
        <time>2015-01-05T20:17:01.621Z</time>
      </trkpt>
      <trkpt lat="48.87769" lon="2.30584">
        <ele>110.8</ele>
        <time>2015-01-05T20:17:03.683Z</time>
      </trkpt>
      <trkpt lat="48.87766" lon="2.30581">
        <ele>110.1</ele>
        <time>2015-01-05T20:17:04.704Z</time>
      </trkpt>
      <trkpt lat="48.87772" lon="2.30572">
        <ele>107.3</ele>
        <time>2015-01-05T20:17:11.682Z</time>
      </trkpt>
      <trkpt lat="48.87774" lon="2.3057">
        <ele>106.4</ele>
        <time>2015-01-05T20:17:12.701Z</time>
      </trkpt>
      <trkpt lat="48.87783" lon="2.30565">
        <ele>105.5</ele>
        <time>2015-01-05T20:17:15.674Z</time>
      </trkpt>
      <trkpt lat="48.87787" lon="2.30564">
        <ele>105.1</ele>
        <time>2015-01-05T20:17:16.587Z</time>
      </trkpt>
      <trkpt lat="48.87792" lon="2.30564">
        <ele>105</ele>
        <time>2015-01-05T20:17:17.653Z</time>
      </trkpt>
      <trkpt lat="48.87796" lon="2.30563">
        <ele>104.9</ele>
        <time>2015-01-05T20:17:18.678Z</time>
      </trkpt>
      <trkpt lat="48.87802" lon="2.30554">
        <ele>104.3</ele>
        <time>2015-01-05T20:17:21.700Z</time>
      </trkpt>
      <trkpt lat="48.87803" lon="2.3055">
        <ele>104.1</ele>
        <time>2015-01-05T20:17:22.769Z</time>
      </trkpt>
      <trkpt lat="48.87807" lon="2.30541">
        <ele>103.8</ele>
        <time>2015-01-05T20:17:24.620Z</time>
      </trkpt>
      <trkpt lat="48.87808" lon="2.30536">
        <ele>103.5</ele>
        <time>2015-01-05T20:17:25.593Z</time>
      </trkpt>
      <trkpt lat="48.87812" lon="2.30524">
        <ele>103.3</ele>
        <time>2015-01-05T20:17:28.650Z</time>
      </trkpt>
      <trkpt lat="48.87812" lon="2.3052">
        <ele>102.9</ele>
        <time>2015-01-05T20:17:29.656Z</time>
      </trkpt>
      <trkpt lat="48.87812" lon="2.30517">
        <ele>103.2</ele>
        <time>2015-01-05T20:17:41.605Z</time>
      </trkpt>
      <trkpt lat="48.87801" lon="2.30503">
        <ele>101.3</ele>
        <time>2015-01-05T20:17:42.618Z</time>
      </trkpt>
      <trkpt lat="48.87795" lon="2.30497">
        <ele>100.9</ele>
        <time>2015-01-05T20:17:44.663Z</time>
      </trkpt>
      <trkpt lat="48.87792" lon="2.30493">
        <ele>100.6</ele>
        <time>2015-01-05T20:17:45.685Z</time>
      </trkpt>
      <trkpt lat="48.87788" lon="2.30486">
        <ele>100.5</ele>
        <time>2015-01-05T20:17:48.156Z</time>
      </trkpt>
      <trkpt lat="48.87785" lon="2.30482">
        <ele>100.5</ele>
        <time>2015-01-05T20:17:48.625Z</time>
      </trkpt>
      <trkpt lat="48.8778" lon="2.30472">
        <ele>100.7</ele>
        <time>2015-01-05T20:17:50.631Z</time>
      </trkpt>
      <trkpt lat="48.87778" lon="2.30467">
        <ele>100.6</ele>
        <time>2015-01-05T20:17:51.645Z</time>
      </trkpt>
      <trkpt lat="48.87772" lon="2.30459">
        <ele>100.7</ele>
        <time>2015-01-05T20:17:53.709Z</time>
      </trkpt>
      <trkpt lat="48.87768" lon="2.30453">
        <ele>101</ele>
        <time>2015-01-05T20:17:54.712Z</time>
      </trkpt>
      <trkpt lat="48.87765" lon="2.30445">
        <ele>101.3</ele>
        <time>2015-01-05T20:17:55.880Z</time>
      </trkpt>
      <trkpt lat="48.87762" lon="2.30435">
        <ele>101.7</ele>
        <time>2015-01-05T20:17:56.719Z</time>
      </trkpt>
      <trkpt lat="48.87758" lon="2.30429">
        <ele>102.4</ele>
        <time>2015-01-05T20:17:58.350Z</time>
      </trkpt>
      <trkpt lat="48.87753" lon="2.30423">
        <ele>102.6</ele>
        <time>2015-01-05T20:17:58.651Z</time>
      </trkpt>
      <trkpt lat="48.8775" lon="2.30417">
        <ele>102.8</ele>
        <time>2015-01-05T20:17:59.661Z</time>
      </trkpt>
      <trkpt lat="48.87746" lon="2.30409">
        <ele>103.2</ele>
        <time>2015-01-05T20:18:00.670Z</time>
      </trkpt>
      <trkpt lat="48.87742" lon="2.30403">
        <ele>103.5</ele>
        <time>2015-01-05T20:18:01.911Z</time>
      </trkpt>
      <trkpt lat="48.87739" lon="2.30395">
        <ele>103.5</ele>
        <time>2015-01-05T20:18:02.673Z</time>
      </trkpt>
      <trkpt lat="48.87735" lon="2.30387">
        <ele>103.5</ele>
        <time>2015-01-05T20:18:03.595Z</time>
      </trkpt>
      <trkpt lat="48.87732" lon="2.3038">
        <ele>103.5</ele>
        <time>2015-01-05T20:18:04.626Z</time>
      </trkpt>
      <trkpt lat="48.87729" lon="2.30373">
        <ele>103.7</ele>
        <time>2015-01-05T20:18:05.735Z</time>
      </trkpt>
      <trkpt lat="48.87724" lon="2.30367">
        <ele>104.1</ele>
        <time>2015-01-05T20:18:06.646Z</time>
      </trkpt>
      <trkpt lat="48.8772" lon="2.3036">
        <ele>104.1</ele>
        <time>2015-01-05T20:18:07.654Z</time>
      </trkpt>
      <trkpt lat="48.87715" lon="2.30353">
        <ele>104.1</ele>
        <time>2015-01-05T20:18:08.665Z</time>
      </trkpt>
      <trkpt lat="48.87711" lon="2.30344">
        <ele>103.8</ele>
        <time>2015-01-05T20:18:09.615Z</time>
      </trkpt>
      <trkpt lat="48.87706" lon="2.30335">
        <ele>103.9</ele>
        <time>2015-01-05T20:18:10.615Z</time>
      </trkpt>
      <trkpt lat="48.87703" lon="2.30327">
        <ele>104.4</ele>
        <time>2015-01-05T20:18:11.625Z</time>
      </trkpt>
      <trkpt lat="48.87699" lon="2.3032">
        <ele>104.4</ele>
        <time>2015-01-05T20:18:12.631Z</time>
      </trkpt>
      <trkpt lat="48.87694" lon="2.30311">
        <ele>104.7</ele>
        <time>2015-01-05T20:18:13.645Z</time>
      </trkpt>
      <trkpt lat="48.87691" lon="2.30302">
        <ele>105.4</ele>
        <time>2015-01-05T20:18:14.693Z</time>
      </trkpt>
      <trkpt lat="48.8769" lon="2.30292">
        <ele>106</ele>
        <time>2015-01-05T20:18:15.615Z</time>
      </trkpt>
      <trkpt lat="48.87688" lon="2.30281">
        <ele>106.7</ele>
        <time>2015-01-05T20:18:16.634Z</time>
      </trkpt>
      <trkpt lat="48.87685" lon="2.30273">
        <ele>106.7</ele>
        <time>2015-01-05T20:18:17.670Z</time>
      </trkpt>
      <trkpt lat="48.87682" lon="2.30267">
        <ele>106.7</ele>
        <time>2015-01-05T20:18:18.759Z</time>
      </trkpt>
      <trkpt lat="48.87678" lon="2.30261">
        <ele>106.4</ele>
        <time>2015-01-05T20:18:19.615Z</time>
      </trkpt>
      <trkpt lat="48.87675" lon="2.30253">
        <ele>106.5</ele>
        <time>2015-01-05T20:18:20.642Z</time>
      </trkpt>
      <trkpt lat="48.87672" lon="2.30245">
        <ele>106.6</ele>
        <time>2015-01-05T20:18:21.656Z</time>
      </trkpt>
      <trkpt lat="48.87669" lon="2.30237">
        <ele>106.6</ele>
        <time>2015-01-05T20:18:22.668Z</time>
      </trkpt>
      <trkpt lat="48.87666" lon="2.30231">
        <ele>106.6</ele>
        <time>2015-01-05T20:18:23.703Z</time>
      </trkpt>
      <trkpt lat="48.87663" lon="2.30224">
        <ele>106.2</ele>
        <time>2015-01-05T20:18:24.619Z</time>
      </trkpt>
      <trkpt lat="48.8766" lon="2.30218">
        <ele>105.7</ele>
        <time>2015-01-05T20:18:25.629Z</time>
      </trkpt>
      <trkpt lat="48.87659" lon="2.30209">
        <ele>105</ele>
        <time>2015-01-05T20:18:26.650Z</time>
      </trkpt>
      <trkpt lat="48.87656" lon="2.302">
        <ele>104.5</ele>
        <time>2015-01-05T20:18:27.640Z</time>
      </trkpt>
      <trkpt lat="48.87654" lon="2.30188">
        <ele>105.9</ele>
        <time>2015-01-05T20:18:28.668Z</time>
      </trkpt>
      <trkpt lat="48.87651" lon="2.3018">
        <ele>106.5</ele>
        <time>2015-01-05T20:18:29.617Z</time>
      </trkpt>
      <trkpt lat="48.87649" lon="2.30174">
        <ele>106.6</ele>
        <time>2015-01-05T20:18:30.630Z</time>
      </trkpt>
      <trkpt lat="48.87647" lon="2.30167">
        <ele>106.2</ele>
        <time>2015-01-05T20:18:31.692Z</time>
      </trkpt>
      <trkpt lat="48.87644" lon="2.30162">
        <ele>106.3</ele>
        <time>2015-01-05T20:18:32.702Z</time>
      </trkpt>
      <trkpt lat="48.87642" lon="2.30156">
        <ele>106.4</ele>
        <time>2015-01-05T20:18:33.608Z</time>
      </trkpt>
      <trkpt lat="48.87639" lon="2.30149">
        <ele>106.6</ele>
        <time>2015-01-05T20:18:34.602Z</time>
      </trkpt>
      <trkpt lat="48.87637" lon="2.30143">
        <ele>106.7</ele>
        <time>2015-01-05T20:18:35.610Z</time>
      </trkpt>
      <trkpt lat="48.87633" lon="2.30138">
        <ele>107.1</ele>
        <time>2015-01-05T20:18:36.614Z</time>
      </trkpt>
      <trkpt lat="48.87629" lon="2.30132">
        <ele>107.3</ele>
        <time>2015-01-05T20:18:37.634Z</time>
      </trkpt>
      <trkpt lat="48.87626" lon="2.30126">
        <ele>107.8</ele>
        <time>2015-01-05T20:18:38.647Z</time>
      </trkpt>
      <trkpt lat="48.87623" lon="2.30119">
        <ele>108.1</ele>
        <time>2015-01-05T20:18:39.649Z</time>
      </trkpt>
      <trkpt lat="48.8762" lon="2.30113">
        <ele>108.5</ele>
        <time>2015-01-05T20:18:40.664Z</time>
      </trkpt>
      <trkpt lat="48.87618" lon="2.30107">
        <ele>108.9</ele>
        <time>2015-01-05T20:18:41.697Z</time>
      </trkpt>
      <trkpt lat="48.87615" lon="2.30101">
        <ele>109.2</ele>
        <time>2015-01-05T20:18:42.621Z</time>
      </trkpt>
      <trkpt lat="48.8761" lon="2.30091">
        <ele>109.3</ele>
        <time>2015-01-05T20:18:44.670Z</time>
      </trkpt>
      <trkpt lat="48.87607" lon="2.30084">
        <ele>109.2</ele>
        <time>2015-01-05T20:18:45.682Z</time>
      </trkpt>
      <trkpt lat="48.87604" lon="2.30077">
        <ele>109.4</ele>
        <time>2015-01-05T20:18:46.613Z</time>
      </trkpt>
      <trkpt lat="48.87602" lon="2.30069">
        <ele>109.8</ele>
        <time>2015-01-05T20:18:47.619Z</time>
      </trkpt>
      <trkpt lat="48.87599" lon="2.30062">
        <ele>110.1</ele>
        <time>2015-01-05T20:18:48.629Z</time>
      </trkpt>
      <trkpt lat="48.87596" lon="2.30057">
        <ele>110</ele>
        <time>2015-01-05T20:18:49.635Z</time>
      </trkpt>
      <trkpt lat="48.87593" lon="2.30051">
        <ele>110.2</ele>
        <time>2015-01-05T20:18:50.652Z</time>
      </trkpt>
      <trkpt lat="48.8759" lon="2.30044">
        <ele>109.9</ele>
        <time>2015-01-05T20:18:51.649Z</time>
      </trkpt>
      <trkpt lat="48.87587" lon="2.30038">
        <ele>110</ele>
        <time>2015-01-05T20:18:52.663Z</time>
      </trkpt>
      <trkpt lat="48.87583" lon="2.30032">
        <ele>109.9</ele>
        <time>2015-01-05T20:18:53.690Z</time>
      </trkpt>
      <trkpt lat="48.87581" lon="2.30026">
        <ele>110.1</ele>
        <time>2015-01-05T20:18:55.415Z</time>
      </trkpt>
      <trkpt lat="48.87577" lon="2.3002">
        <ele>110</ele>
        <time>2015-01-05T20:18:55.611Z</time>
      </trkpt>
      <trkpt lat="48.87574" lon="2.30014">
        <ele>109.8</ele>
        <time>2015-01-05T20:18:56.654Z</time>
      </trkpt>
      <trkpt lat="48.87571" lon="2.30008">
        <ele>109.8</ele>
        <time>2015-01-05T20:18:57.648Z</time>
      </trkpt>
      <trkpt lat="48.87569" lon="2.30001">
        <ele>109.8</ele>
        <time>2015-01-05T20:18:58.663Z</time>
      </trkpt>
      <trkpt lat="48.87567" lon="2.29993">
        <ele>109.9</ele>
        <time>2015-01-05T20:18:59.669Z</time>
      </trkpt>
      <trkpt lat="48.87564" lon="2.29987">
        <ele>109.7</ele>
        <time>2015-01-05T20:19:00.676Z</time>
      </trkpt>
      <trkpt lat="48.87562" lon="2.2998">
        <ele>109.4</ele>
        <time>2015-01-05T20:19:01.587Z</time>
      </trkpt>
      <trkpt lat="48.87559" lon="2.29973">
        <ele>109.4</ele>
        <time>2015-01-05T20:19:02.700Z</time>
      </trkpt>
      <trkpt lat="48.87557" lon="2.29966">
        <ele>109.4</ele>
        <time>2015-01-05T20:19:03.613Z</time>
      </trkpt>
      <trkpt lat="48.87555" lon="2.2996">
        <ele>109.6</ele>
        <time>2015-01-05T20:19:05.468Z</time>
      </trkpt>
      <trkpt lat="48.87553" lon="2.29953">
        <ele>109.9</ele>
        <time>2015-01-05T20:19:05.609Z</time>
      </trkpt>
      <trkpt lat="48.87549" lon="2.29942">
        <ele>110.5</ele>
        <time>2015-01-05T20:19:07.627Z</time>
      </trkpt>
      <trkpt lat="48.87546" lon="2.29937">
        <ele>110.8</ele>
        <time>2015-01-05T20:19:08.663Z</time>
      </trkpt>
      <trkpt lat="48.87541" lon="2.29927">
        <ele>110.9</ele>
        <time>2015-01-05T20:19:10.638Z</time>
      </trkpt>
      <trkpt lat="48.87537" lon="2.29923">
        <ele>110.6</ele>
        <time>2015-01-05T20:19:11.642Z</time>
      </trkpt>
      <trkpt lat="48.87532" lon="2.29913">
        <ele>110.5</ele>
        <time>2015-01-05T20:19:13.694Z</time>
      </trkpt>
      <trkpt lat="48.8753" lon="2.29907">
        <ele>110.9</ele>
        <time>2015-01-05T20:19:14.676Z</time>
      </trkpt>
      <trkpt lat="48.87527" lon="2.299">
        <ele>111.2</ele>
        <time>2015-01-05T20:19:15.591Z</time>
      </trkpt>
      <trkpt lat="48.87524" lon="2.29895">
        <ele>111.7</ele>
        <time>2015-01-05T20:19:16.644Z</time>
      </trkpt>
      <trkpt lat="48.8752" lon="2.29883">
        <ele>112</ele>
        <time>2015-01-05T20:19:18.658Z</time>
      </trkpt>
      <trkpt lat="48.87518" lon="2.29877">
        <ele>112.2</ele>
        <time>2015-01-05T20:19:19.584Z</time>
      </trkpt>
      <trkpt lat="48.87516" lon="2.29869">
        <ele>112</ele>
        <time>2015-01-05T20:19:20.682Z</time>
      </trkpt>
      <trkpt lat="48.87514" lon="2.29862">
        <ele>111.7</ele>
        <time>2015-01-05T20:19:21.652Z</time>
      </trkpt>
      <trkpt lat="48.87512" lon="2.29853">
        <ele>111.6</ele>
        <time>2015-01-05T20:19:22.660Z</time>
      </trkpt>
      <trkpt lat="48.8751" lon="2.29846">
        <ele>111.9</ele>
        <time>2015-01-05T20:19:23.671Z</time>
      </trkpt>
      <trkpt lat="48.87507" lon="2.29839">
        <ele>112</ele>
        <time>2015-01-05T20:19:24.682Z</time>
      </trkpt>
      <trkpt lat="48.87504" lon="2.29833">
        <ele>112.2</ele>
        <time>2015-01-05T20:19:25.596Z</time>
      </trkpt>
      <trkpt lat="48.87499" lon="2.29826">
        <ele>111.9</ele>
        <time>2015-01-05T20:19:26.721Z</time>
      </trkpt>
      <trkpt lat="48.87496" lon="2.2982">
        <ele>112.1</ele>
        <time>2015-01-05T20:19:27.606Z</time>
      </trkpt>
      <trkpt lat="48.87493" lon="2.29814">
        <ele>112.3</ele>
        <time>2015-01-05T20:19:28.626Z</time>
      </trkpt>
      <trkpt lat="48.8749" lon="2.29808">
        <ele>112.7</ele>
        <time>2015-01-05T20:19:29.630Z</time>
      </trkpt>
      <trkpt lat="48.87487" lon="2.29801">
        <ele>112.1</ele>
        <time>2015-01-05T20:19:30.649Z</time>
      </trkpt>
      <trkpt lat="48.87484" lon="2.29794">
        <ele>112</ele>
        <time>2015-01-05T20:19:31.663Z</time>
      </trkpt>
      <trkpt lat="48.87481" lon="2.29787">
        <ele>112.2</ele>
        <time>2015-01-05T20:19:32.677Z</time>
      </trkpt>
      <trkpt lat="48.87478" lon="2.2978">
        <ele>112.8</ele>
        <time>2015-01-05T20:19:33.684Z</time>
      </trkpt>
      <trkpt lat="48.87475" lon="2.29773">
        <ele>112.7</ele>
        <time>2015-01-05T20:19:34.600Z</time>
      </trkpt>
      <trkpt lat="48.87471" lon="2.29766">
        <ele>112.3</ele>
        <time>2015-01-05T20:19:35.605Z</time>
      </trkpt>
      <trkpt lat="48.87468" lon="2.29759">
        <ele>112.5</ele>
        <time>2015-01-05T20:19:36.617Z</time>
      </trkpt>
      <trkpt lat="48.87465" lon="2.29753">
        <ele>112.4</ele>
        <time>2015-01-05T20:19:37.622Z</time>
      </trkpt>
      <trkpt lat="48.87464" lon="2.29745">
        <ele>113.1</ele>
        <time>2015-01-05T20:19:38.642Z</time>
      </trkpt>
      <trkpt lat="48.87461" lon="2.29737">
        <ele>113.1</ele>
        <time>2015-01-05T20:19:39.646Z</time>
      </trkpt>
      <trkpt lat="48.87459" lon="2.29731">
        <ele>113.4</ele>
        <time>2015-01-05T20:19:40.654Z</time>
      </trkpt>
      <trkpt lat="48.87456" lon="2.29724">
        <ele>113.7</ele>
        <time>2015-01-05T20:19:41.661Z</time>
      </trkpt>
      <trkpt lat="48.87453" lon="2.29715">
        <ele>114.2</ele>
        <time>2015-01-05T20:19:43.690Z</time>
      </trkpt>
      <trkpt lat="48.87453" lon="2.2971">
        <ele>114.2</ele>
        <time>2015-01-05T20:19:44.696Z</time>
      </trkpt>
      <trkpt lat="48.87455" lon="2.297">
        <ele>113.1</ele>
        <time>2015-01-05T20:19:46.604Z</time>
      </trkpt>
      <trkpt lat="48.87453" lon="2.29696">
        <ele>112.9</ele>
        <time>2015-01-05T20:19:47.611Z</time>
      </trkpt>
      <trkpt lat="48.87451" lon="2.29687">
        <ele>113.5</ele>
        <time>2015-01-05T20:19:51.644Z</time>
      </trkpt>
      <trkpt lat="48.87453" lon="2.29691">
        <ele>113.4</ele>
        <time>2015-01-05T20:19:52.694Z</time>
      </trkpt>
      <trkpt lat="48.87453" lon="2.29693">
        <ele>113.4</ele>
        <time>2015-01-05T20:22:17.627Z</time>
      </trkpt>
      <trkpt lat="48.87458" lon="2.29702">
        <ele>126.3</ele>
        <time>2015-01-05T20:22:18.706Z</time>
      </trkpt>
      <trkpt lat="48.87463" lon="2.29696">
        <ele>125.3</ele>
        <time>2015-01-05T20:22:20.732Z</time>
      </trkpt>
      <trkpt lat="48.87468" lon="2.2969">
        <ele>122.9</ele>
        <time>2015-01-05T20:22:21.615Z</time>
      </trkpt>
      <trkpt lat="48.87472" lon="2.29686">
        <ele>120.7</ele>
        <time>2015-01-05T20:22:22.708Z</time>
      </trkpt>
      <trkpt lat="48.87476" lon="2.29681">
        <ele>118.9</ele>
        <time>2015-01-05T20:22:23.609Z</time>
      </trkpt>
      <trkpt lat="48.8748" lon="2.29676">
        <ele>117.9</ele>
        <time>2015-01-05T20:22:24.601Z</time>
      </trkpt>
      <trkpt lat="48.87483" lon="2.29672">
        <ele>117.5</ele>
        <time>2015-01-05T20:22:25.624Z</time>
      </trkpt>
      <trkpt lat="48.87488" lon="2.29667">
        <ele>116.6</ele>
        <time>2015-01-05T20:22:26.712Z</time>
      </trkpt>
      <trkpt lat="48.87492" lon="2.29662">
        <ele>116</ele>
        <time>2015-01-05T20:22:27.654Z</time>
      </trkpt>
      <trkpt lat="48.87497" lon="2.29651">
        <ele>115.5</ele>
        <time>2015-01-05T20:22:29.906Z</time>
      </trkpt>
      <trkpt lat="48.87499" lon="2.29645">
        <ele>115.5</ele>
        <time>2015-01-05T20:22:30.705Z</time>
      </trkpt>
      <trkpt lat="48.87501" lon="2.29633">
        <ele>116.2</ele>
        <time>2015-01-05T20:22:32.845Z</time>
      </trkpt>
      <trkpt lat="48.87502" lon="2.29626">
        <ele>116.6</ele>
        <time>2015-01-05T20:22:33.677Z</time>
      </trkpt>
      <trkpt lat="48.87503" lon="2.29613">
        <ele>117.1</ele>
        <time>2015-01-05T20:22:35.598Z</time>
      </trkpt>
      <trkpt lat="48.87503" lon="2.29607">
        <ele>117.3</ele>
        <time>2015-01-05T20:22:36.594Z</time>
      </trkpt>
      <trkpt lat="48.87504" lon="2.29595">
        <ele>120</ele>
        <time>2015-01-05T20:22:53.194Z</time>
      </trkpt>
      <trkpt lat="48.87504" lon="2.29592">
        <ele>120.5</ele>
        <time>2015-01-05T20:22:53.670Z</time>
      </trkpt>
      <trkpt lat="48.87508" lon="2.29584">
        <ele>121.3</ele>
        <time>2015-01-05T20:22:56.838Z</time>
      </trkpt>
      <trkpt lat="48.8751" lon="2.29581">
        <ele>121.3</ele>
        <time>2015-01-05T20:22:57.613Z</time>
      </trkpt>
      <trkpt lat="48.87515" lon="2.29574">
        <ele>120.7</ele>
        <time>2015-01-05T20:22:59.619Z</time>
      </trkpt>
      <trkpt lat="48.87516" lon="2.2957">
        <ele>120.4</ele>
        <time>2015-01-05T20:23:00.628Z</time>
      </trkpt>
      <trkpt lat="48.87518" lon="2.29562">
        <ele>119.9</ele>
        <time>2015-01-05T20:23:03.407Z</time>
      </trkpt>
      <trkpt lat="48.87518" lon="2.29556">
        <ele>119.9</ele>
        <time>2015-01-05T20:23:03.754Z</time>
      </trkpt>
      <trkpt lat="48.87519" lon="2.29544">
        <ele>119.4</ele>
        <time>2015-01-05T20:23:05.669Z</time>
      </trkpt>
      <trkpt lat="48.87521" lon="2.29538">
        <ele>119.1</ele>
        <time>2015-01-05T20:23:06.773Z</time>
      </trkpt>
      <trkpt lat="48.87523" lon="2.29525">
        <ele>119.1</ele>
        <time>2015-01-05T20:23:09.193Z</time>
      </trkpt>
      <trkpt lat="48.87524" lon="2.29518">
        <ele>119.2</ele>
        <time>2015-01-05T20:23:09.606Z</time>
      </trkpt>
      <trkpt lat="48.87524" lon="2.29512">
        <ele>119.7</ele>
        <time>2015-01-05T20:23:10.609Z</time>
      </trkpt>
      <trkpt lat="48.87525" lon="2.29504">
        <ele>120.1</ele>
        <time>2015-01-05T20:23:11.637Z</time>
      </trkpt>
      <trkpt lat="48.87526" lon="2.29496">
        <ele>120.3</ele>
        <time>2015-01-05T20:23:13.600Z</time>
      </trkpt>
      <trkpt lat="48.87525" lon="2.29488">
        <ele>121</ele>
        <time>2015-01-05T20:23:13.654Z</time>
      </trkpt>
      <trkpt lat="48.87524" lon="2.29475">
        <ele>121.9</ele>
        <time>2015-01-05T20:23:15.680Z</time>
      </trkpt>
      <trkpt lat="48.87522" lon="2.2947">
        <ele>122.1</ele>
        <time>2015-01-05T20:23:16.705Z</time>
      </trkpt>
      <trkpt lat="48.87521" lon="2.29463">
        <ele>122.4</ele>
        <time>2015-01-05T20:23:19.616Z</time>
      </trkpt>
      <trkpt lat="48.87521" lon="2.29468">
        <ele>121.4</ele>
        <time>2015-01-05T20:23:20.631Z</time>
      </trkpt>
      <trkpt lat="48.87523" lon="2.29473">
        <ele>120.3</ele>
        <time>2015-01-05T20:23:32.832Z</time>
      </trkpt>
      <trkpt lat="48.87524" lon="2.29454">
        <ele>123.8</ele>
        <time>2015-01-05T20:23:33.694Z</time>
      </trkpt>
      <trkpt lat="48.87521" lon="2.29442">
        <ele>123.1</ele>
        <time>2015-01-05T20:23:36.640Z</time>
      </trkpt>
      <trkpt lat="48.87519" lon="2.29435">
        <ele>122</ele>
        <time>2015-01-05T20:23:37.706Z</time>
      </trkpt>
      <trkpt lat="48.87517" lon="2.29429">
        <ele>121.3</ele>
        <time>2015-01-05T20:23:38.652Z</time>
      </trkpt>
      <trkpt lat="48.87515" lon="2.29422">
        <ele>120.5</ele>
        <time>2015-01-05T20:23:39.645Z</time>
      </trkpt>
      <trkpt lat="48.8751" lon="2.2941">
        <ele>119.7</ele>
        <time>2015-01-05T20:23:41.707Z</time>
      </trkpt>
      <trkpt lat="48.87509" lon="2.29404">
        <ele>119</ele>
        <time>2015-01-05T20:23:42.638Z</time>
      </trkpt>
      <trkpt lat="48.87506" lon="2.29394">
        <ele>119.2</ele>
        <time>2015-01-05T20:23:44.677Z</time>
      </trkpt>
      <trkpt lat="48.87504" lon="2.29389">
        <ele>119.8</ele>
        <time>2015-01-05T20:23:45.580Z</time>
      </trkpt>
      <trkpt lat="48.87502" lon="2.29384">
        <ele>119.9</ele>
        <time>2015-01-05T20:23:46.611Z</time>
      </trkpt>
      <trkpt lat="48.87499" lon="2.29378">
        <ele>120.3</ele>
        <time>2015-01-05T20:23:47.618Z</time>
      </trkpt>
      <trkpt lat="48.87494" lon="2.29367">
        <ele>120</ele>
        <time>2015-01-05T20:23:49.641Z</time>
      </trkpt>
      <trkpt lat="48.87492" lon="2.29362">
        <ele>119.8</ele>
        <time>2015-01-05T20:23:50.641Z</time>
      </trkpt>
      <trkpt lat="48.87489" lon="2.29356">
        <ele>119.4</ele>
        <time>2015-01-05T20:23:51.682Z</time>
      </trkpt>
      <trkpt lat="48.87487" lon="2.2935">
        <ele>119.2</ele>
        <time>2015-01-05T20:23:52.687Z</time>
      </trkpt>
      <trkpt lat="48.87483" lon="2.29344">
        <ele>119.2</ele>
        <time>2015-01-05T20:23:53.586Z</time>
      </trkpt>
      <trkpt lat="48.8748" lon="2.29339">
        <ele>119.3</ele>
        <time>2015-01-05T20:23:54.605Z</time>
      </trkpt>
      <trkpt lat="48.87477" lon="2.29334">
        <ele>119.3</ele>
        <time>2015-01-05T20:23:55.607Z</time>
      </trkpt>
      <trkpt lat="48.87473" lon="2.29329">
        <ele>118.8</ele>
        <time>2015-01-05T20:23:56.645Z</time>
      </trkpt>
      <trkpt lat="48.87466" lon="2.29324">
        <ele>117.6</ele>
        <time>2015-01-05T20:23:58.690Z</time>
      </trkpt>
      <trkpt lat="48.87462" lon="2.2932">
        <ele>117.4</ele>
        <time>2015-01-05T20:23:59.605Z</time>
      </trkpt>
      <trkpt lat="48.87456" lon="2.29313">
        <ele>116.1</ele>
        <time>2015-01-05T20:24:02.657Z</time>
      </trkpt>
      <trkpt lat="48.87455" lon="2.2931">
        <ele>115.6</ele>
        <time>2015-01-05T20:24:03.662Z</time>
      </trkpt>
      <trkpt lat="48.87454" lon="2.29299">
        <ele>114.2</ele>
        <time>2015-01-05T20:24:06.694Z</time>
      </trkpt>
      <trkpt lat="48.87454" lon="2.29296">
        <ele>113.8</ele>
        <time>2015-01-05T20:24:07.573Z</time>
      </trkpt>
      <trkpt lat="48.87446" lon="2.29296">
        <ele>106.7</ele>
        <time>2015-01-05T20:24:47.620Z</time>
      </trkpt>
      <trkpt lat="48.87445" lon="2.29295">
        <ele>106.7</ele>
        <time>2015-01-05T20:24:48.633Z</time>
      </trkpt>
      <trkpt lat="48.87438" lon="2.2929">
        <ele>106.6</ele>
        <time>2015-01-05T20:24:52.636Z</time>
      </trkpt>
      <trkpt lat="48.87435" lon="2.2929">
        <ele>106.5</ele>
        <time>2015-01-05T20:24:53.626Z</time>
      </trkpt>
      <trkpt lat="48.87426" lon="2.2929">
        <ele>107.5</ele>
        <time>2015-01-05T20:24:57.581Z</time>
      </trkpt>
      <trkpt lat="48.87424" lon="2.2929">
        <ele>107.9</ele>
        <time>2015-01-05T20:24:58.600Z</time>
      </trkpt>
      <trkpt lat="48.87415" lon="2.29289">
        <ele>109</ele>
        <time>2015-01-05T20:25:02.681Z</time>
      </trkpt>
      <trkpt lat="48.87413" lon="2.29288">
        <ele>109.2</ele>
        <time>2015-01-05T20:25:03.642Z</time>
      </trkpt>
      <trkpt lat="48.87404" lon="2.29289">
        <ele>110.3</ele>
        <time>2015-01-05T20:25:07.794Z</time>
      </trkpt>
      <trkpt lat="48.87402" lon="2.2929">
        <ele>110.9</ele>
        <time>2015-01-05T20:25:08.663Z</time>
      </trkpt>
      <trkpt lat="48.87395" lon="2.29289">
        <ele>110.8</ele>
        <time>2015-01-05T20:25:11.618Z</time>
      </trkpt>
      <trkpt lat="48.87392" lon="2.29288">
        <ele>111</ele>
        <time>2015-01-05T20:25:12.630Z</time>
      </trkpt>
      <trkpt lat="48.87385" lon="2.29285">
        <ele>110.3</ele>
        <time>2015-01-05T20:25:14.678Z</time>
      </trkpt>
      <trkpt lat="48.87381" lon="2.29285">
        <ele>110</ele>
        <time>2015-01-05T20:25:15.688Z</time>
      </trkpt>
      <trkpt lat="48.87374" lon="2.29284">
        <ele>109.8</ele>
        <time>2015-01-05T20:25:17.629Z</time>
      </trkpt>
      <trkpt lat="48.87371" lon="2.29285">
        <ele>109.9</ele>
        <time>2015-01-05T20:25:18.647Z</time>
      </trkpt>
      <trkpt lat="48.87368" lon="2.29285">
        <ele>110.2</ele>
        <time>2015-01-05T20:26:00.621Z</time>
      </trkpt>
      <trkpt lat="48.87355" lon="2.29285">
        <ele>107.5</ele>
        <time>2015-01-05T20:26:01.625Z</time>
      </trkpt>
      <trkpt lat="48.87348" lon="2.29288">
        <ele>107.7</ele>
        <time>2015-01-05T20:26:04.574Z</time>
      </trkpt>
      <trkpt lat="48.87346" lon="2.29288">
        <ele>107.9</ele>
        <time>2015-01-05T20:26:05.610Z</time>
      </trkpt>
      <trkpt lat="48.87338" lon="2.29291">
        <ele>108.1</ele>
        <time>2015-01-05T20:26:08.678Z</time>
      </trkpt>
      <trkpt lat="48.87335" lon="2.29293">
        <ele>108.1</ele>
        <time>2015-01-05T20:26:09.630Z</time>
      </trkpt>
      <trkpt lat="48.87328" lon="2.29295">
        <ele>108.8</ele>
        <time>2015-01-05T20:26:11.617Z</time>
      </trkpt>
      <trkpt lat="48.87324" lon="2.29298">
        <ele>108.6</ele>
        <time>2015-01-05T20:26:12.624Z</time>
      </trkpt>
      <trkpt lat="48.87318" lon="2.29304">
        <ele>108.4</ele>
        <time>2015-01-05T20:26:14.691Z</time>
      </trkpt>
      <trkpt lat="48.87314" lon="2.29307">
        <ele>108.4</ele>
        <time>2015-01-05T20:26:15.599Z</time>
      </trkpt>
      <trkpt lat="48.8731" lon="2.2931">
        <ele>108.9</ele>
        <time>2015-01-05T20:26:16.614Z</time>
      </trkpt>
      <trkpt lat="48.87305" lon="2.29312">
        <ele>109.3</ele>
        <time>2015-01-05T20:26:17.617Z</time>
      </trkpt>
      <trkpt lat="48.873" lon="2.29317">
        <ele>110.5</ele>
        <time>2015-01-05T20:26:19.635Z</time>
      </trkpt>
      <trkpt lat="48.87297" lon="2.29319">
        <ele>111</ele>
        <time>2015-01-05T20:26:20.649Z</time>
      </trkpt>
      <trkpt lat="48.87292" lon="2.29325">
        <ele>111.7</ele>
        <time>2015-01-05T20:26:24.516Z</time>
      </trkpt>
      <trkpt lat="48.87289" lon="2.29329">
        <ele>112</ele>
        <time>2015-01-05T20:26:24.623Z</time>
      </trkpt>
      <trkpt lat="48.87284" lon="2.29337">
        <ele>112.4</ele>
        <time>2015-01-05T20:26:26.668Z</time>
      </trkpt>
      <trkpt lat="48.87281" lon="2.2934">
        <ele>112.8</ele>
        <time>2015-01-05T20:26:27.682Z</time>
      </trkpt>
      <trkpt lat="48.87276" lon="2.29349">
        <ele>113</ele>
        <time>2015-01-05T20:26:30.645Z</time>
      </trkpt>
      <trkpt lat="48.87274" lon="2.29351">
        <ele>113.3</ele>
        <time>2015-01-05T20:26:31.652Z</time>
      </trkpt>
      <trkpt lat="48.87269" lon="2.29362">
        <ele>113.8</ele>
        <time>2015-01-05T20:26:34.665Z</time>
      </trkpt>
      <trkpt lat="48.87269" lon="2.29365">
        <ele>113.9</ele>
        <time>2015-01-05T20:26:35.644Z</time>
      </trkpt>
      <trkpt lat="48.8727" lon="2.29368">
        <ele>114.2</ele>
        <time>2015-01-05T20:26:45.665Z</time>
      </trkpt>
      <trkpt lat="48.87263" lon="2.29353">
        <ele>117.8</ele>
        <time>2015-01-05T20:26:46.588Z</time>
      </trkpt>
      <trkpt lat="48.87258" lon="2.29343">
        <ele>118.6</ele>
        <time>2015-01-05T20:26:48.733Z</time>
      </trkpt>
      <trkpt lat="48.87257" lon="2.29339">
        <ele>118.7</ele>
        <time>2015-01-05T20:26:49.727Z</time>
      </trkpt>
      <trkpt lat="48.87252" lon="2.29329">
        <ele>118.8</ele>
        <time>2015-01-05T20:26:53.007Z</time>
      </trkpt>
      <trkpt lat="48.8725" lon="2.29326">
        <ele>118.6</ele>
        <time>2015-01-05T20:26:53.585Z</time>
      </trkpt>
      <trkpt lat="48.87244" lon="2.29319">
        <ele>117.7</ele>
        <time>2015-01-05T20:26:55.606Z</time>
      </trkpt>
      <trkpt lat="48.87241" lon="2.29317">
        <ele>117.3</ele>
        <time>2015-01-05T20:26:56.610Z</time>
      </trkpt>
      <trkpt lat="48.87236" lon="2.29308">
        <ele>117.3</ele>
        <time>2015-01-05T20:26:58.663Z</time>
      </trkpt>
      <trkpt lat="48.87232" lon="2.29302">
        <ele>117.4</ele>
        <time>2015-01-05T20:26:59.568Z</time>
      </trkpt>
      <trkpt lat="48.87228" lon="2.29296">
        <ele>117.5</ele>
        <time>2015-01-05T20:27:00.580Z</time>
      </trkpt>
      <trkpt lat="48.87225" lon="2.29291">
        <ele>117.7</ele>
        <time>2015-01-05T20:27:01.592Z</time>
      </trkpt>
      <trkpt lat="48.87121" lon="2.29191">
        <ele>116.8</ele>
        <time>2015-01-05T20:27:32.629Z</time>
      </trkpt>
      <trkpt lat="48.87114" lon="2.29185">
        <ele>117.3</ele>
        <time>2015-01-05T20:27:34.654Z</time>
      </trkpt>
      <trkpt lat="48.8711" lon="2.29183">
        <ele>117.5</ele>
        <time>2015-01-05T20:27:35.600Z</time>
      </trkpt>
      <trkpt lat="48.87084" lon="2.29154">
        <ele>117.5</ele>
        <time>2015-01-05T20:27:43.617Z</time>
      </trkpt>
      <trkpt lat="48.87077" lon="2.29146">
        <ele>117.4</ele>
        <time>2015-01-05T20:27:45.558Z</time>
      </trkpt>
      <trkpt lat="48.87073" lon="2.29144">
        <ele>117.2</ele>
        <time>2015-01-05T20:27:46.592Z</time>
      </trkpt>
      <trkpt lat="48.87068" lon="2.29141">
        <ele>117</ele>
        <time>2015-01-05T20:27:48.092Z</time>
      </trkpt>
      <trkpt lat="48.87062" lon="2.29139">
        <ele>116.9</ele>
        <time>2015-01-05T20:27:48.608Z</time>
      </trkpt>
      <trkpt lat="48.87059" lon="2.29136">
        <ele>117.1</ele>
        <time>2015-01-05T20:27:49.632Z</time>
      </trkpt>
      <trkpt lat="48.87054" lon="2.29132">
        <ele>117.2</ele>
        <time>2015-01-05T20:27:50.647Z</time>
      </trkpt>
      <trkpt lat="48.87048" lon="2.29125">
        <ele>117.4</ele>
        <time>2015-01-05T20:27:53.164Z</time>
      </trkpt>
      <trkpt lat="48.87045" lon="2.29122">
        <ele>117.4</ele>
        <time>2015-01-05T20:27:53.628Z</time>
      </trkpt>
      <trkpt lat="48.8704" lon="2.29115">
        <ele>117.5</ele>
        <time>2015-01-05T20:27:55.569Z</time>
      </trkpt>
      <trkpt lat="48.87037" lon="2.29112">
        <ele>117.6</ele>
        <time>2015-01-05T20:27:56.616Z</time>
      </trkpt>
      <trkpt lat="48.87031" lon="2.29106">
        <ele>117.7</ele>
        <time>2015-01-05T20:27:58.555Z</time>
      </trkpt>
      <trkpt lat="48.86997" lon="2.29094">
        <ele>116</ele>
        <time>2015-01-05T20:28:09.635Z</time>
      </trkpt>
      <trkpt lat="48.86994" lon="2.29084">
        <ele>113.5</ele>
        <time>2015-01-05T20:28:11.557Z</time>
      </trkpt>
      <trkpt lat="48.86992" lon="2.29082">
        <ele>113.3</ele>
        <time>2015-01-05T20:28:12.553Z</time>
      </trkpt>
      <trkpt lat="48.86987" lon="2.29073">
        <ele>115.6</ele>
        <time>2015-01-05T20:28:15.613Z</time>
      </trkpt>
      <trkpt lat="48.86985" lon="2.29071">
        <ele>116.1</ele>
        <time>2015-01-05T20:28:16.638Z</time>
      </trkpt>
      <trkpt lat="48.86979" lon="2.29066">
        <ele>117.1</ele>
        <time>2015-01-05T20:28:18.578Z</time>
      </trkpt>
      <trkpt lat="48.86975" lon="2.29063">
        <ele>117.5</ele>
        <time>2015-01-05T20:28:19.639Z</time>
      </trkpt>
      <trkpt lat="48.86968" lon="2.29058">
        <ele>118.3</ele>
        <time>2015-01-05T20:28:21.670Z</time>
      </trkpt>
      <trkpt lat="48.86964" lon="2.29054">
        <ele>118.4</ele>
        <time>2015-01-05T20:28:22.611Z</time>
      </trkpt>
      <trkpt lat="48.86958" lon="2.29046">
        <ele>118.7</ele>
        <time>2015-01-05T20:28:24.670Z</time>
      </trkpt>
      <trkpt lat="48.86955" lon="2.29041">
        <ele>119.1</ele>
        <time>2015-01-05T20:28:25.566Z</time>
      </trkpt>
      <trkpt lat="48.86949" lon="2.29036">
        <ele>119.7</ele>
        <time>2015-01-05T20:28:27.590Z</time>
      </trkpt>
      <trkpt lat="48.86947" lon="2.29034">
        <ele>119.7</ele>
        <time>2015-01-05T20:28:28.596Z</time>
      </trkpt>
      <trkpt lat="48.86941" lon="2.2903">
        <ele>119.9</ele>
        <time>2015-01-05T20:28:30.599Z</time>
      </trkpt>
      <trkpt lat="48.86938" lon="2.29028">
        <ele>120.1</ele>
        <time>2015-01-05T20:28:31.617Z</time>
      </trkpt>
      <trkpt lat="48.86932" lon="2.29021">
        <ele>120.4</ele>
        <time>2015-01-05T20:28:33.643Z</time>
      </trkpt>
      <trkpt lat="48.86928" lon="2.29018">
        <ele>120.5</ele>
        <time>2015-01-05T20:28:34.692Z</time>
      </trkpt>
      <trkpt lat="48.86924" lon="2.29014">
        <ele>120.9</ele>
        <time>2015-01-05T20:28:35.580Z</time>
      </trkpt>
      <trkpt lat="48.86921" lon="2.29009">
        <ele>121</ele>
        <time>2015-01-05T20:28:36.558Z</time>
      </trkpt>
      <trkpt lat="48.86915" lon="2.29001">
        <ele>122.2</ele>
        <time>2015-01-05T20:28:38.643Z</time>
      </trkpt>
      <trkpt lat="48.86914" lon="2.28999">
        <ele>122.8</ele>
        <time>2015-01-05T20:28:39.644Z</time>
      </trkpt>
      <trkpt lat="48.8691" lon="2.28994">
        <ele>124.8</ele>
        <time>2015-01-05T20:28:43.678Z</time>
      </trkpt>
      <trkpt lat="48.86908" lon="2.28988">
        <ele>126.5</ele>
        <time>2015-01-05T20:28:44.698Z</time>
      </trkpt>
      <trkpt lat="48.86902" lon="2.2898">
        <ele>128.9</ele>
        <time>2015-01-05T20:29:09.713Z</time>
      </trkpt>
      <trkpt lat="48.86899" lon="2.28979">
        <ele>129</ele>
        <time>2015-01-05T20:29:10.582Z</time>
      </trkpt>
      <trkpt lat="48.86893" lon="2.28977">
        <ele>129</ele>
        <time>2015-01-05T20:29:12.661Z</time>
      </trkpt>
      <trkpt lat="48.8689" lon="2.28975">
        <ele>129.1</ele>
        <time>2015-01-05T20:29:13.669Z</time>
      </trkpt>
      <trkpt lat="48.86884" lon="2.2897">
        <ele>129.3</ele>
        <time>2015-01-05T20:29:15.605Z</time>
      </trkpt>
      <trkpt lat="48.86881" lon="2.28965">
        <ele>128.9</ele>
        <time>2015-01-05T20:29:16.617Z</time>
      </trkpt>
      <trkpt lat="48.86873" lon="2.2896">
        <ele>128.5</ele>
        <time>2015-01-05T20:29:18.650Z</time>
      </trkpt>
      <trkpt lat="48.8687" lon="2.28957">
        <ele>128.5</ele>
        <time>2015-01-05T20:29:19.670Z</time>
      </trkpt>
      <trkpt lat="48.86865" lon="2.2895">
        <ele>128.8</ele>
        <time>2015-01-05T20:29:21.572Z</time>
      </trkpt>
      <trkpt lat="48.86861" lon="2.28947">
        <ele>128.9</ele>
        <time>2015-01-05T20:29:22.598Z</time>
      </trkpt>
      <trkpt lat="48.86857" lon="2.28945">
        <ele>128.9</ele>
        <time>2015-01-05T20:29:23.621Z</time>
      </trkpt>
      <trkpt lat="48.8685" lon="2.28942">
        <ele>128.9</ele>
        <time>2015-01-05T20:29:25.697Z</time>
      </trkpt>
      <trkpt lat="48.86844" lon="2.28936">
        <ele>129.1</ele>
        <time>2015-01-05T20:29:27.619Z</time>
      </trkpt>
      <trkpt lat="48.86841" lon="2.28932">
        <ele>129.1</ele>
        <time>2015-01-05T20:29:28.640Z</time>
      </trkpt>
      <trkpt lat="48.86838" lon="2.28923">
        <ele>129</ele>
        <time>2015-01-05T20:29:30.570Z</time>
      </trkpt>
      <trkpt lat="48.86838" lon="2.28919">
        <ele>129.1</ele>
        <time>2015-01-05T20:29:31.588Z</time>
      </trkpt>
      <trkpt lat="48.86833" lon="2.28908">
        <ele>129</ele>
        <time>2015-01-05T20:29:33.627Z</time>
      </trkpt>
      <trkpt lat="48.8683" lon="2.28904">
        <ele>129</ele>
        <time>2015-01-05T20:29:34.637Z</time>
      </trkpt>
      <trkpt lat="48.86825" lon="2.28897">
        <ele>129.3</ele>
        <time>2015-01-05T20:29:37.588Z</time>
      </trkpt>
      <trkpt lat="48.86822" lon="2.28895">
        <ele>129.4</ele>
        <time>2015-01-05T20:29:38.604Z</time>
      </trkpt>
      <trkpt lat="48.86815" lon="2.28892">
        <ele>129.3</ele>
        <time>2015-01-05T20:29:40.538Z</time>
      </trkpt>
      <trkpt lat="48.8681" lon="2.28889">
        <ele>129.2</ele>
        <time>2015-01-05T20:29:41.548Z</time>
      </trkpt>
      <trkpt lat="48.86805" lon="2.28887">
        <ele>129</ele>
        <time>2015-01-05T20:29:42.553Z</time>
      </trkpt>
      <trkpt lat="48.86801" lon="2.28883">
        <ele>128.9</ele>
        <time>2015-01-05T20:29:43.577Z</time>
      </trkpt>
      <trkpt lat="48.86797" lon="2.28878">
        <ele>128.9</ele>
        <time>2015-01-05T20:29:44.573Z</time>
      </trkpt>
      <trkpt lat="48.86793" lon="2.28874">
        <ele>128.8</ele>
        <time>2015-01-05T20:29:45.548Z</time>
      </trkpt>
      <trkpt lat="48.86789" lon="2.28868">
        <ele>128.7</ele>
        <time>2015-01-05T20:29:46.578Z</time>
      </trkpt>
      <trkpt lat="48.86785" lon="2.28861">
        <ele>129.7</ele>
        <time>2015-01-05T20:29:47.591Z</time>
      </trkpt>
      <trkpt lat="48.8678" lon="2.28852">
        <ele>130.5</ele>
        <time>2015-01-05T20:29:48.637Z</time>
      </trkpt>
      <trkpt lat="48.86776" lon="2.28847">
        <ele>130.7</ele>
        <time>2015-01-05T20:29:49.650Z</time>
      </trkpt>
      <trkpt lat="48.86772" lon="2.28842">
        <ele>130.5</ele>
        <time>2015-01-05T20:29:50.675Z</time>
      </trkpt>
      <trkpt lat="48.86769" lon="2.28837">
        <ele>130.2</ele>
        <time>2015-01-05T20:29:51.585Z</time>
      </trkpt>
      <trkpt lat="48.86766" lon="2.28832">
        <ele>130</ele>
        <time>2015-01-05T20:29:52.597Z</time>
      </trkpt>
      <trkpt lat="48.86754" lon="2.28804">
        <ele>128.6</ele>
        <time>2015-01-05T20:29:57.590Z</time>
      </trkpt>
      <trkpt lat="48.86736" lon="2.2879">
        <ele>128.3</ele>
        <time>2015-01-05T20:30:02.725Z</time>
      </trkpt>
      <trkpt lat="48.8673" lon="2.28784">
        <ele>128.5</ele>
        <time>2015-01-05T20:30:04.627Z</time>
      </trkpt>
      <trkpt lat="48.86726" lon="2.2878">
        <ele>128.7</ele>
        <time>2015-01-05T20:30:05.539Z</time>
      </trkpt>
      <trkpt lat="48.86722" lon="2.28776">
        <ele>129</ele>
        <time>2015-01-05T20:30:06.578Z</time>
      </trkpt>
      <trkpt lat="48.86717" lon="2.2877">
        <ele>129.4</ele>
        <time>2015-01-05T20:30:07.614Z</time>
      </trkpt>
      <trkpt lat="48.86711" lon="2.28762">
        <ele>129.2</ele>
        <time>2015-01-05T20:30:09.635Z</time>
      </trkpt>
      <trkpt lat="48.86709" lon="2.28758">
        <ele>129</ele>
        <time>2015-01-05T20:30:10.645Z</time>
      </trkpt>
      <trkpt lat="48.86706" lon="2.28752">
        <ele>129.1</ele>
        <time>2015-01-05T20:30:11.536Z</time>
      </trkpt>
      <trkpt lat="48.86702" lon="2.28748">
        <ele>129</ele>
        <time>2015-01-05T20:30:12.558Z</time>
      </trkpt>
      <trkpt lat="48.86695" lon="2.28743">
        <ele>129</ele>
        <time>2015-01-05T20:30:14.587Z</time>
      </trkpt>
      <trkpt lat="48.86692" lon="2.28739">
        <ele>129</ele>
        <time>2015-01-05T20:30:15.608Z</time>
      </trkpt>
      <trkpt lat="48.86688" lon="2.28737">
        <ele>129.2</ele>
        <time>2015-01-05T20:30:16.570Z</time>
      </trkpt>
      <trkpt lat="48.86684" lon="2.28733">
        <ele>129.2</ele>
        <time>2015-01-05T20:30:17.595Z</time>
      </trkpt>
      <trkpt lat="48.86679" lon="2.28731">
        <ele>129.6</ele>
        <time>2015-01-05T20:30:18.562Z</time>
      </trkpt>
      <trkpt lat="48.86675" lon="2.2873">
        <ele>130</ele>
        <time>2015-01-05T20:30:19.568Z</time>
      </trkpt>
      <trkpt lat="48.86667" lon="2.28724">
        <ele>130</ele>
        <time>2015-01-05T20:30:21.596Z</time>
      </trkpt>
      <trkpt lat="48.86664" lon="2.2872">
        <ele>130</ele>
        <time>2015-01-05T20:30:22.605Z</time>
      </trkpt>
      <trkpt lat="48.86661" lon="2.28714">
        <ele>129.7</ele>
        <time>2015-01-05T20:30:23.560Z</time>
      </trkpt>
      <trkpt lat="48.8666" lon="2.28705">
        <ele>129.2</ele>
        <time>2015-01-05T20:30:24.560Z</time>
      </trkpt>
      <trkpt lat="48.86657" lon="2.28701">
        <ele>129.3</ele>
        <time>2015-01-05T20:30:25.571Z</time>
      </trkpt>
      <trkpt lat="48.86653" lon="2.28695">
        <ele>129</ele>
        <time>2015-01-05T20:30:26.589Z</time>
      </trkpt>
      <trkpt lat="48.86649" lon="2.2869">
        <ele>128.9</ele>
        <time>2015-01-05T20:30:27.595Z</time>
      </trkpt>
      <trkpt lat="48.86645" lon="2.28686">
        <ele>128.6</ele>
        <time>2015-01-05T20:30:28.611Z</time>
      </trkpt>
      <trkpt lat="48.86641" lon="2.28683">
        <ele>128.2</ele>
        <time>2015-01-05T20:30:29.650Z</time>
      </trkpt>
      <trkpt lat="48.86637" lon="2.2868">
        <ele>127.6</ele>
        <time>2015-01-05T20:30:30.557Z</time>
      </trkpt>
      <trkpt lat="48.86629" lon="2.28674">
        <ele>127</ele>
        <time>2015-01-05T20:30:32.591Z</time>
      </trkpt>
      <trkpt lat="48.86626" lon="2.28671">
        <ele>126.7</ele>
        <time>2015-01-05T20:30:33.607Z</time>
      </trkpt>
      <trkpt lat="48.86624" lon="2.28662">
        <ele>126</ele>
        <time>2015-01-05T20:30:35.634Z</time>
      </trkpt>
      <trkpt lat="48.86623" lon="2.28655">
        <ele>125.6</ele>
        <time>2015-01-05T20:30:36.696Z</time>
      </trkpt>
      <trkpt lat="48.86619" lon="2.28644">
        <ele>125.7</ele>
        <time>2015-01-05T20:30:39.607Z</time>
      </trkpt>
      <trkpt lat="48.86618" lon="2.28641">
        <ele>126</ele>
        <time>2015-01-05T20:30:40.662Z</time>
      </trkpt>
      <trkpt lat="48.86615" lon="2.28631">
        <ele>128.3</ele>
        <time>2015-01-05T20:30:43.594Z</time>
      </trkpt>
      <trkpt lat="48.86612" lon="2.28629">
        <ele>129.1</ele>
        <time>2015-01-05T20:30:44.626Z</time>
      </trkpt>
      <trkpt lat="48.86605" lon="2.28623">
        <ele>129.1</ele>
        <time>2015-01-05T20:30:47.673Z</time>
      </trkpt>
      <trkpt lat="48.86602" lon="2.28623">
        <ele>129</ele>
        <time>2015-01-05T20:30:48.589Z</time>
      </trkpt>
      <trkpt lat="48.86594" lon="2.28618">
        <ele>129</ele>
        <time>2015-01-05T20:30:51.635Z</time>
      </trkpt>
      <trkpt lat="48.8659" lon="2.28613">
        <ele>129</ele>
        <time>2015-01-05T20:30:52.641Z</time>
      </trkpt>
      <trkpt lat="48.86587" lon="2.28608">
        <ele>129.2</ele>
        <time>2015-01-05T20:30:53.677Z</time>
      </trkpt>
      <trkpt lat="48.86583" lon="2.28603">
        <ele>129.4</ele>
        <time>2015-01-05T20:30:54.586Z</time>
      </trkpt>
      <trkpt lat="48.86576" lon="2.28598">
        <ele>130.2</ele>
        <time>2015-01-05T20:30:56.636Z</time>
      </trkpt>
      <trkpt lat="48.86573" lon="2.28595">
        <ele>130.5</ele>
        <time>2015-01-05T20:30:57.632Z</time>
      </trkpt>
      <trkpt lat="48.86568" lon="2.28585">
        <ele>131</ele>
        <time>2015-01-05T20:30:59.657Z</time>
      </trkpt>
      <trkpt lat="48.86565" lon="2.28581">
        <ele>131</ele>
        <time>2015-01-05T20:31:00.590Z</time>
      </trkpt>
      <trkpt lat="48.86561" lon="2.28572">
        <ele>131.5</ele>
        <time>2015-01-05T20:31:02.644Z</time>
      </trkpt>
      <trkpt lat="48.86559" lon="2.28567">
        <ele>131.8</ele>
        <time>2015-01-05T20:31:03.673Z</time>
      </trkpt>
      <trkpt lat="48.86555" lon="2.28558">
        <ele>132.2</ele>
        <time>2015-01-05T20:31:05.606Z</time>
      </trkpt>
      <trkpt lat="48.86552" lon="2.28555">
        <ele>132.5</ele>
        <time>2015-01-05T20:31:06.618Z</time>
      </trkpt>
      <trkpt lat="48.86544" lon="2.28556">
        <ele>131.7</ele>
        <time>2015-01-05T20:31:09.663Z</time>
      </trkpt>
      <trkpt lat="48.86541" lon="2.28556">
        <ele>131.9</ele>
        <time>2015-01-05T20:31:10.680Z</time>
      </trkpt>
      <trkpt lat="48.86534" lon="2.28555">
        <ele>132.1</ele>
        <time>2015-01-05T20:31:12.594Z</time>
      </trkpt>
      <trkpt lat="48.86531" lon="2.28554">
        <ele>132.4</ele>
        <time>2015-01-05T20:31:13.606Z</time>
      </trkpt>
      <trkpt lat="48.86525" lon="2.28551">
        <ele>132.6</ele>
        <time>2015-01-05T20:31:16.663Z</time>
      </trkpt>
      <trkpt lat="48.86522" lon="2.2855">
        <ele>132.9</ele>
        <time>2015-01-05T20:31:17.677Z</time>
      </trkpt>
      <trkpt lat="48.86527" lon="2.28539">
        <ele>140.6</ele>
        <time>2015-01-05T20:31:36.593Z</time>
      </trkpt>
      <trkpt lat="48.86529" lon="2.28533">
        <ele>140.2</ele>
        <time>2015-01-05T20:31:37.598Z</time>
      </trkpt>
      <trkpt lat="48.8653" lon="2.2852">
        <ele>138.7</ele>
        <time>2015-01-05T20:31:39.714Z</time>
      </trkpt>
      <trkpt lat="48.86531" lon="2.28515">
        <ele>138</ele>
        <time>2015-01-05T20:31:40.576Z</time>
      </trkpt>
      <trkpt lat="48.86533" lon="2.28503">
        <ele>137.6</ele>
        <time>2015-01-05T20:31:42.619Z</time>
      </trkpt>
      <trkpt lat="48.86534" lon="2.28497">
        <ele>137.2</ele>
        <time>2015-01-05T20:31:43.673Z</time>
      </trkpt>
      <trkpt lat="48.86535" lon="2.28484">
        <ele>136.1</ele>
        <time>2015-01-05T20:31:45.567Z</time>
      </trkpt>
      <trkpt lat="48.86535" lon="2.28475">
        <ele>135.4</ele>
        <time>2015-01-05T20:31:46.588Z</time>
      </trkpt>
      <trkpt lat="48.86535" lon="2.28467">
        <ele>134.7</ele>
        <time>2015-01-05T20:31:47.619Z</time>
      </trkpt>
      <trkpt lat="48.86535" lon="2.28461">
        <ele>134.8</ele>
        <time>2015-01-05T20:31:48.629Z</time>
      </trkpt>
      <trkpt lat="48.86535" lon="2.28453">
        <ele>134.4</ele>
        <time>2015-01-05T20:31:49.545Z</time>
      </trkpt>
      <trkpt lat="48.86535" lon="2.28447">
        <ele>134.2</ele>
        <time>2015-01-05T20:31:50.599Z</time>
      </trkpt>
      <trkpt lat="48.86534" lon="2.28435">
        <ele>133.5</ele>
        <time>2015-01-05T20:31:52.619Z</time>
      </trkpt>
      <trkpt lat="48.86534" lon="2.28429">
        <ele>133.6</ele>
        <time>2015-01-05T20:31:53.626Z</time>
      </trkpt>
      <trkpt lat="48.86535" lon="2.2842">
        <ele>133.7</ele>
        <time>2015-01-05T20:31:55.564Z</time>
      </trkpt>
      <trkpt lat="48.86536" lon="2.28415">
        <ele>133.8</ele>
        <time>2015-01-05T20:31:56.599Z</time>
      </trkpt>
      <trkpt lat="48.86538" lon="2.2841">
        <ele>133.6</ele>
        <time>2015-01-05T20:31:57.641Z</time>
      </trkpt>
      <trkpt lat="48.8654" lon="2.28402">
        <ele>132.9</ele>
        <time>2015-01-05T20:31:58.648Z</time>
      </trkpt>
      <trkpt lat="48.8654" lon="2.28395">
        <ele>132.2</ele>
        <time>2015-01-05T20:31:59.546Z</time>
      </trkpt>
      <trkpt lat="48.86541" lon="2.28388">
        <ele>131.7</ele>
        <time>2015-01-05T20:32:00.564Z</time>
      </trkpt>
      <trkpt lat="48.86542" lon="2.28376">
        <ele>131.2</ele>
        <time>2015-01-05T20:32:02.637Z</time>
      </trkpt>
      <trkpt lat="48.86543" lon="2.2837">
        <ele>130.8</ele>
        <time>2015-01-05T20:32:03.680Z</time>
      </trkpt>
      <trkpt lat="48.86543" lon="2.28357">
        <ele>130.5</ele>
        <time>2015-01-05T20:32:05.581Z</time>
      </trkpt>
      <trkpt lat="48.86546" lon="2.28349">
        <ele>130.1</ele>
        <time>2015-01-05T20:32:06.606Z</time>
      </trkpt>
      <trkpt lat="48.86547" lon="2.28342">
        <ele>129.8</ele>
        <time>2015-01-05T20:32:07.563Z</time>
      </trkpt>
      <trkpt lat="48.86547" lon="2.28336">
        <ele>130.4</ele>
        <time>2015-01-05T20:32:08.591Z</time>
      </trkpt>
      <trkpt lat="48.86549" lon="2.28326">
        <ele>131.3</ele>
        <time>2015-01-05T20:32:10.630Z</time>
      </trkpt>
      <trkpt lat="48.8655" lon="2.2832">
        <ele>131.7</ele>
        <time>2015-01-05T20:32:11.667Z</time>
      </trkpt>
      <trkpt lat="48.86552" lon="2.2831">
        <ele>132.4</ele>
        <time>2015-01-05T20:32:13.618Z</time>
      </trkpt>
      <trkpt lat="48.86552" lon="2.28306">
        <ele>132.5</ele>
        <time>2015-01-05T20:32:14.624Z</time>
      </trkpt>
      <trkpt lat="48.86546" lon="2.28311">
        <ele>131.8</ele>
        <time>2015-01-05T20:32:27.656Z</time>
      </trkpt>
      <trkpt lat="48.86538" lon="2.283">
        <ele>131.8</ele>
        <time>2015-01-05T20:32:28.697Z</time>
      </trkpt>
      <trkpt lat="48.86537" lon="2.28293">
        <ele>131.7</ele>
        <time>2015-01-05T20:32:31.655Z</time>
      </trkpt>
      <trkpt lat="48.86534" lon="2.28288">
        <ele>131.7</ele>
        <time>2015-01-05T20:32:32.725Z</time>
      </trkpt>
      <trkpt lat="48.8653" lon="2.2828">
        <ele>131.7</ele>
        <time>2015-01-05T20:32:34.634Z</time>
      </trkpt>
      <trkpt lat="48.86528" lon="2.28276">
        <ele>131.7</ele>
        <time>2015-01-05T20:32:35.646Z</time>
      </trkpt>
      <trkpt lat="48.86524" lon="2.28267">
        <ele>131.5</ele>
        <time>2015-01-05T20:32:37.563Z</time>
      </trkpt>
      <trkpt lat="48.86522" lon="2.28263">
        <ele>131.1</ele>
        <time>2015-01-05T20:32:38.727Z</time>
      </trkpt>
      <trkpt lat="48.86517" lon="2.28255">
        <ele>130.4</ele>
        <time>2015-01-05T20:32:40.571Z</time>
      </trkpt>
      <trkpt lat="48.86515" lon="2.28251">
        <ele>130</ele>
        <time>2015-01-05T20:32:41.580Z</time>
      </trkpt>
      <trkpt lat="48.86511" lon="2.2824">
        <ele>129.8</ele>
        <time>2015-01-05T20:32:43.567Z</time>
      </trkpt>
      <trkpt lat="48.86509" lon="2.28235">
        <ele>129.4</ele>
        <time>2015-01-05T20:32:44.655Z</time>
      </trkpt>
      <trkpt lat="48.86505" lon="2.28226">
        <ele>129</ele>
        <time>2015-01-05T20:32:46.573Z</time>
      </trkpt>
      <trkpt lat="48.86503" lon="2.28222">
        <ele>128.9</ele>
        <time>2015-01-05T20:32:47.607Z</time>
      </trkpt>
      <trkpt lat="48.865" lon="2.2821">
        <ele>128.7</ele>
        <time>2015-01-05T20:32:49.559Z</time>
      </trkpt>
      <trkpt lat="48.86499" lon="2.28205">
        <ele>128.7</ele>
        <time>2015-01-05T20:32:50.668Z</time>
      </trkpt>
      <trkpt lat="48.86496" lon="2.28197">
        <ele>128.8</ele>
        <time>2015-01-05T20:32:52.561Z</time>
      </trkpt>
      <trkpt lat="48.86494" lon="2.28192">
        <ele>128.8</ele>
        <time>2015-01-05T20:32:53.549Z</time>
      </trkpt>
      <trkpt lat="48.86492" lon="2.28182">
        <ele>128.4</ele>
        <time>2015-01-05T20:32:55.560Z</time>
      </trkpt>
      <trkpt lat="48.8649" lon="2.28178">
        <ele>128.1</ele>
        <time>2015-01-05T20:32:56.632Z</time>
      </trkpt>
      <trkpt lat="48.86487" lon="2.28174">
        <ele>127.8</ele>
        <time>2015-01-05T20:32:57.645Z</time>
      </trkpt>
      <trkpt lat="48.86488" lon="2.28165">
        <ele>126.8</ele>
        <time>2015-01-05T20:32:58.738Z</time>
      </trkpt>
      <trkpt lat="48.86487" lon="2.28156">
        <ele>125.9</ele>
        <time>2015-01-05T20:33:00.273Z</time>
      </trkpt>
      <trkpt lat="48.86485" lon="2.2815">
        <ele>125.7</ele>
        <time>2015-01-05T20:33:00.576Z</time>
      </trkpt>
      <trkpt lat="48.86483" lon="2.28144">
        <ele>125.4</ele>
        <time>2015-01-05T20:33:01.593Z</time>
      </trkpt>
      <trkpt lat="48.8648" lon="2.28138">
        <ele>125.2</ele>
        <time>2015-01-05T20:33:02.600Z</time>
      </trkpt>
      <trkpt lat="48.86477" lon="2.28129">
        <ele>124.4</ele>
        <time>2015-01-05T20:33:04.613Z</time>
      </trkpt>
      <trkpt lat="48.86475" lon="2.28126">
        <ele>124.2</ele>
        <time>2015-01-05T20:33:05.541Z</time>
      </trkpt>
      <trkpt lat="48.86471" lon="2.28117">
        <ele>123.5</ele>
        <time>2015-01-05T20:33:07.636Z</time>
      </trkpt>
      <trkpt lat="48.86469" lon="2.28112">
        <ele>123.2</ele>
        <time>2015-01-05T20:33:08.663Z</time>
      </trkpt>
      <trkpt lat="48.86464" lon="2.28103">
        <ele>121.9</ele>
        <time>2015-01-05T20:33:10.552Z</time>
      </trkpt>
      <trkpt lat="48.86462" lon="2.28098">
        <ele>121.2</ele>
        <time>2015-01-05T20:33:11.601Z</time>
      </trkpt>
      <trkpt lat="48.86457" lon="2.28087">
        <ele>119.5</ele>
        <time>2015-01-05T20:33:13.592Z</time>
      </trkpt>
      <trkpt lat="48.86455" lon="2.28081">
        <ele>119.3</ele>
        <time>2015-01-05T20:33:14.623Z</time>
      </trkpt>
      <trkpt lat="48.8645" lon="2.28072">
        <ele>119.6</ele>
        <time>2015-01-05T20:33:16.570Z</time>
      </trkpt>
      <trkpt lat="48.86448" lon="2.28067">
        <ele>119.4</ele>
        <time>2015-01-05T20:33:17.571Z</time>
      </trkpt>
      <trkpt lat="48.86444" lon="2.28057">
        <ele>118.5</ele>
        <time>2015-01-05T20:33:20.658Z</time>
      </trkpt>
      <trkpt lat="48.8644" lon="2.28052">
        <ele>118.1</ele>
        <time>2015-01-05T20:33:20.708Z</time>
      </trkpt>
      <trkpt lat="48.86437" lon="2.28047">
        <ele>117.9</ele>
        <time>2015-01-05T20:33:21.566Z</time>
      </trkpt>
      <trkpt lat="48.86435" lon="2.28041">
        <ele>118.1</ele>
        <time>2015-01-05T20:33:22.564Z</time>
      </trkpt>
      <trkpt lat="48.86431" lon="2.28029">
        <ele>117.8</ele>
        <time>2015-01-05T20:33:24.574Z</time>
      </trkpt>
      <trkpt lat="48.86429" lon="2.28024">
        <ele>117.4</ele>
        <time>2015-01-05T20:33:25.591Z</time>
      </trkpt>
      <trkpt lat="48.86425" lon="2.28012">
        <ele>116.7</ele>
        <time>2015-01-05T20:33:27.846Z</time>
      </trkpt>
      <trkpt lat="48.86422" lon="2.28007">
        <ele>116.1</ele>
        <time>2015-01-05T20:33:28.689Z</time>
      </trkpt>
      <trkpt lat="48.86419" lon="2.28002">
        <ele>115.8</ele>
        <time>2015-01-05T20:33:29.533Z</time>
      </trkpt>
      <trkpt lat="48.86417" lon="2.27996">
        <ele>115.7</ele>
        <time>2015-01-05T20:33:30.561Z</time>
      </trkpt>
      <trkpt lat="48.86415" lon="2.27989">
        <ele>116.1</ele>
        <time>2015-01-05T20:33:31.681Z</time>
      </trkpt>
      <trkpt lat="48.86412" lon="2.27983">
        <ele>115.7</ele>
        <time>2015-01-05T20:33:32.706Z</time>
      </trkpt>
      <trkpt lat="48.86407" lon="2.27973">
        <ele>114.7</ele>
        <time>2015-01-05T20:33:34.561Z</time>
      </trkpt>
      <trkpt lat="48.86405" lon="2.27966">
        <ele>114.2</ele>
        <time>2015-01-05T20:33:35.579Z</time>
      </trkpt>
      <trkpt lat="48.864" lon="2.27955">
        <ele>113.1</ele>
        <time>2015-01-05T20:33:37.627Z</time>
      </trkpt>
      <trkpt lat="48.86397" lon="2.27953">
        <ele>113.1</ele>
        <time>2015-01-05T20:33:38.638Z</time>
      </trkpt>
      <trkpt lat="48.86391" lon="2.27949">
        <ele>113.2</ele>
        <time>2015-01-05T20:33:40.596Z</time>
      </trkpt>
      <trkpt lat="48.86388" lon="2.27947">
        <ele>112.6</ele>
        <time>2015-01-05T20:33:41.624Z</time>
      </trkpt>
      <trkpt lat="48.86387" lon="2.27936">
        <ele>111.8</ele>
        <time>2015-01-05T20:33:43.588Z</time>
      </trkpt>
      <trkpt lat="48.86387" lon="2.2793">
        <ele>111.9</ele>
        <time>2015-01-05T20:33:44.599Z</time>
      </trkpt>
      <trkpt lat="48.86388" lon="2.27917">
        <ele>112</ele>
        <time>2015-01-05T20:33:46.567Z</time>
      </trkpt>
      <trkpt lat="48.86389" lon="2.27909">
        <ele>112</ele>
        <time>2015-01-05T20:33:47.595Z</time>
      </trkpt>
      <trkpt lat="48.86389" lon="2.27902">
        <ele>112.1</ele>
        <time>2015-01-05T20:33:48.628Z</time>
      </trkpt>
      <trkpt lat="48.86389" lon="2.27894">
        <ele>112.2</ele>
        <time>2015-01-05T20:33:49.620Z</time>
      </trkpt>
      <trkpt lat="48.8639" lon="2.27887">
        <ele>112.2</ele>
        <time>2015-01-05T20:33:50.652Z</time>
      </trkpt>
      <trkpt lat="48.86391" lon="2.27879">
        <ele>112.6</ele>
        <time>2015-01-05T20:33:51.642Z</time>
      </trkpt>
      <trkpt lat="48.86392" lon="2.27872">
        <ele>112.4</ele>
        <time>2015-01-05T20:33:52.659Z</time>
      </trkpt>
      <trkpt lat="48.86392" lon="2.27864">
        <ele>112.4</ele>
        <time>2015-01-05T20:33:53.750Z</time>
      </trkpt>
      <trkpt lat="48.86393" lon="2.27856">
        <ele>112.5</ele>
        <time>2015-01-05T20:33:54.669Z</time>
      </trkpt>
      <trkpt lat="48.86393" lon="2.27848">
        <ele>112.6</ele>
        <time>2015-01-05T20:33:55.575Z</time>
      </trkpt>
      <trkpt lat="48.86394" lon="2.2784">
        <ele>112.7</ele>
        <time>2015-01-05T20:33:56.633Z</time>
      </trkpt>
      <trkpt lat="48.86395" lon="2.27832">
        <ele>113</ele>
        <time>2015-01-05T20:33:57.669Z</time>
      </trkpt>
      <trkpt lat="48.86396" lon="2.27825">
        <ele>113.4</ele>
        <time>2015-01-05T20:33:58.582Z</time>
      </trkpt>
      <trkpt lat="48.86397" lon="2.27818">
        <ele>113.9</ele>
        <time>2015-01-05T20:33:59.586Z</time>
      </trkpt>
      <trkpt lat="48.86399" lon="2.27812">
        <ele>114.4</ele>
        <time>2015-01-05T20:34:00.616Z</time>
      </trkpt>
      <trkpt lat="48.864" lon="2.27804">
        <ele>114.8</ele>
        <time>2015-01-05T20:34:01.623Z</time>
      </trkpt>
      <trkpt lat="48.86401" lon="2.27797">
        <ele>115.2</ele>
        <time>2015-01-05T20:34:02.625Z</time>
      </trkpt>
      <trkpt lat="48.86401" lon="2.27789">
        <ele>115.7</ele>
        <time>2015-01-05T20:34:03.629Z</time>
      </trkpt>
      <trkpt lat="48.86401" lon="2.27778">
        <ele>116</ele>
        <time>2015-01-05T20:34:05.644Z</time>
      </trkpt>
      <trkpt lat="48.86402" lon="2.27772">
        <ele>116</ele>
        <time>2015-01-05T20:34:06.655Z</time>
      </trkpt>
      <trkpt lat="48.86404" lon="2.27763">
        <ele>116.3</ele>
        <time>2015-01-05T20:34:08.611Z</time>
      </trkpt>
      <trkpt lat="48.86405" lon="2.27758">
        <ele>116</ele>
        <time>2015-01-05T20:34:09.622Z</time>
      </trkpt>
      <trkpt lat="48.86403" lon="2.27747">
        <ele>114.1</ele>
        <time>2015-01-05T20:34:12.588Z</time>
      </trkpt>
      <trkpt lat="48.86402" lon="2.27744">
        <ele>113.8</ele>
        <time>2015-01-05T20:34:13.590Z</time>
      </trkpt>
      <trkpt lat="48.86397" lon="2.27735">
        <ele>113</ele>
        <time>2015-01-05T20:34:16.680Z</time>
      </trkpt>
      <trkpt lat="48.86395" lon="2.27732">
        <ele>112.4</ele>
        <time>2015-01-05T20:34:17.591Z</time>
      </trkpt>
      <trkpt lat="48.8639" lon="2.27724">
        <ele>111.7</ele>
        <time>2015-01-05T20:34:20.684Z</time>
      </trkpt>
      <trkpt lat="48.86387" lon="2.27722">
        <ele>111.9</ele>
        <time>2015-01-05T20:34:21.638Z</time>
      </trkpt>
      <trkpt lat="48.86382" lon="2.27717">
        <ele>111.5</ele>
        <time>2015-01-05T20:34:23.587Z</time>
      </trkpt>
      <trkpt lat="48.86379" lon="2.27714">
        <ele>111.3</ele>
        <time>2015-01-05T20:34:24.600Z</time>
      </trkpt>
      <trkpt lat="48.86372" lon="2.27709">
        <ele>111.1</ele>
        <time>2015-01-05T20:34:26.628Z</time>
      </trkpt>
      <trkpt lat="48.86369" lon="2.27707">
        <ele>111</ele>
        <time>2015-01-05T20:34:27.626Z</time>
      </trkpt>
      <trkpt lat="48.86361" lon="2.27701">
        <ele>110.9</ele>
        <time>2015-01-05T20:34:29.554Z</time>
      </trkpt>
      <trkpt lat="48.86357" lon="2.27697">
        <ele>110.7</ele>
        <time>2015-01-05T20:34:30.592Z</time>
      </trkpt>
      <trkpt lat="48.86353" lon="2.27694">
        <ele>110.7</ele>
        <time>2015-01-05T20:34:31.650Z</time>
      </trkpt>
      <trkpt lat="48.86349" lon="2.2769">
        <ele>110.7</ele>
        <time>2015-01-05T20:34:32.654Z</time>
      </trkpt>
      <trkpt lat="48.86344" lon="2.27686">
        <ele>110.6</ele>
        <time>2015-01-05T20:34:33.574Z</time>
      </trkpt>
      <trkpt lat="48.8634" lon="2.27682">
        <ele>110.4</ele>
        <time>2015-01-05T20:34:34.573Z</time>
      </trkpt>
      <trkpt lat="48.86333" lon="2.27676">
        <ele>110.4</ele>
        <time>2015-01-05T20:34:36.578Z</time>
      </trkpt>
      <trkpt lat="48.8633" lon="2.27673">
        <ele>110.3</ele>
        <time>2015-01-05T20:34:37.600Z</time>
      </trkpt>
      <trkpt lat="48.86323" lon="2.27669">
        <ele>110.4</ele>
        <time>2015-01-05T20:34:39.643Z</time>
      </trkpt>
      <trkpt lat="48.86319" lon="2.27666">
        <ele>110.4</ele>
        <time>2015-01-05T20:34:40.657Z</time>
      </trkpt>
      <trkpt lat="48.86311" lon="2.27661">
        <ele>110.1</ele>
        <time>2015-01-05T20:34:42.567Z</time>
      </trkpt>
      <trkpt lat="48.86308" lon="2.2766">
        <ele>110</ele>
        <time>2015-01-05T20:34:43.578Z</time>
      </trkpt>
      <trkpt lat="48.86302" lon="2.27656">
        <ele>109.6</ele>
        <time>2015-01-05T20:34:45.616Z</time>
      </trkpt>
      <trkpt lat="48.86297" lon="2.27654">
        <ele>109.6</ele>
        <time>2015-01-05T20:34:46.629Z</time>
      </trkpt>
      <trkpt lat="48.86289" lon="2.2765">
        <ele>109.4</ele>
        <time>2015-01-05T20:34:48.566Z</time>
      </trkpt>
      <trkpt lat="48.86285" lon="2.27648">
        <ele>109.6</ele>
        <time>2015-01-05T20:34:49.574Z</time>
      </trkpt>
      <trkpt lat="48.86279" lon="2.27644">
        <ele>110</ele>
        <time>2015-01-05T20:34:51.617Z</time>
      </trkpt>
      <trkpt lat="48.86277" lon="2.27644">
        <ele>109.9</ele>
        <time>2015-01-05T20:34:52.628Z</time>
      </trkpt>
      <trkpt lat="48.86269" lon="2.27639">
        <ele>111.5</ele>
        <time>2015-01-05T20:35:02.685Z</time>
      </trkpt>
      <trkpt lat="48.86267" lon="2.27636">
        <ele>111.7</ele>
        <time>2015-01-05T20:35:03.576Z</time>
      </trkpt>
      <trkpt lat="48.86261" lon="2.27631">
        <ele>112.1</ele>
        <time>2015-01-05T20:35:05.592Z</time>
      </trkpt>
      <trkpt lat="48.86258" lon="2.27629">
        <ele>112.2</ele>
        <time>2015-01-05T20:35:06.615Z</time>
      </trkpt>
      <trkpt lat="48.86251" lon="2.27624">
        <ele>112.4</ele>
        <time>2015-01-05T20:35:08.642Z</time>
      </trkpt>
      <trkpt lat="48.86247" lon="2.27623">
        <ele>112.9</ele>
        <time>2015-01-05T20:35:09.560Z</time>
      </trkpt>
      <trkpt lat="48.86239" lon="2.27621">
        <ele>113.1</ele>
        <time>2015-01-05T20:35:11.551Z</time>
      </trkpt>
      <trkpt lat="48.86235" lon="2.27618">
        <ele>113.1</ele>
        <time>2015-01-05T20:35:12.592Z</time>
      </trkpt>
      <trkpt lat="48.86227" lon="2.27612">
        <ele>113.3</ele>
        <time>2015-01-05T20:35:14.589Z</time>
      </trkpt>
      <trkpt lat="48.86224" lon="2.2761">
        <ele>113.6</ele>
        <time>2015-01-05T20:35:15.627Z</time>
      </trkpt>
      <trkpt lat="48.8622" lon="2.27608">
        <ele>113.7</ele>
        <time>2015-01-05T20:35:16.541Z</time>
      </trkpt>
      <trkpt lat="48.8621" lon="2.276">
        <ele>114.5</ele>
        <time>2015-01-05T20:35:19.575Z</time>
      </trkpt>
      <trkpt lat="48.86203" lon="2.27595">
        <ele>114.7</ele>
        <time>2015-01-05T20:35:21.535Z</time>
      </trkpt>
      <trkpt lat="48.862" lon="2.27592">
        <ele>114.9</ele>
        <time>2015-01-05T20:35:22.561Z</time>
      </trkpt>
      <trkpt lat="48.86194" lon="2.27588">
        <ele>115.2</ele>
        <time>2015-01-05T20:35:24.608Z</time>
      </trkpt>
      <trkpt lat="48.86191" lon="2.27585">
        <ele>115.2</ele>
        <time>2015-01-05T20:35:25.561Z</time>
      </trkpt>
      <trkpt lat="48.86185" lon="2.27582">
        <ele>115.5</ele>
        <time>2015-01-05T20:35:27.866Z</time>
      </trkpt>
      <trkpt lat="48.86181" lon="2.2758">
        <ele>115.7</ele>
        <time>2015-01-05T20:35:28.601Z</time>
      </trkpt>
      <trkpt lat="48.86177" lon="2.27576">
        <ele>116</ele>
        <time>2015-01-05T20:35:29.617Z</time>
      </trkpt>
      <trkpt lat="48.86172" lon="2.2757">
        <ele>116.5</ele>
        <time>2015-01-05T20:35:30.688Z</time>
      </trkpt>
      <trkpt lat="48.86166" lon="2.27565">
        <ele>117.1</ele>
        <time>2015-01-05T20:35:31.565Z</time>
      </trkpt>
      <trkpt lat="48.86161" lon="2.27561">
        <ele>117.2</ele>
        <time>2015-01-05T20:35:32.577Z</time>
      </trkpt>
      <trkpt lat="48.86157" lon="2.27559">
        <ele>117.7</ele>
        <time>2015-01-05T20:35:33.592Z</time>
      </trkpt>
      <trkpt lat="48.86152" lon="2.27556">
        <ele>118</ele>
        <time>2015-01-05T20:35:34.625Z</time>
      </trkpt>
      <trkpt lat="48.86148" lon="2.27553">
        <ele>118.1</ele>
        <time>2015-01-05T20:35:35.650Z</time>
      </trkpt>
      <trkpt lat="48.86143" lon="2.27551">
        <ele>118.5</ele>
        <time>2015-01-05T20:35:36.547Z</time>
      </trkpt>
      <trkpt lat="48.86138" lon="2.27549">
        <ele>119</ele>
        <time>2015-01-05T20:35:37.934Z</time>
      </trkpt>
      <trkpt lat="48.86133" lon="2.27546">
        <ele>119.8</ele>
        <time>2015-01-05T20:35:38.578Z</time>
      </trkpt>
      <trkpt lat="48.86128" lon="2.27543">
        <ele>120.7</ele>
        <time>2015-01-05T20:35:39.585Z</time>
      </trkpt>
      <trkpt lat="48.86124" lon="2.27541">
        <ele>121.6</ele>
        <time>2015-01-05T20:35:40.600Z</time>
      </trkpt>
      <trkpt lat="48.86119" lon="2.27537">
        <ele>122.1</ele>
        <time>2015-01-05T20:35:41.605Z</time>
      </trkpt>
      <trkpt lat="48.86116" lon="2.27534">
        <ele>122.5</ele>
        <time>2015-01-05T20:35:42.617Z</time>
      </trkpt>
      <trkpt lat="48.86109" lon="2.27528">
        <ele>123.4</ele>
        <time>2015-01-05T20:35:44.642Z</time>
      </trkpt>
      <trkpt lat="48.86104" lon="2.27524">
        <ele>123.9</ele>
        <time>2015-01-05T20:35:45.540Z</time>
      </trkpt>
      <trkpt lat="48.861" lon="2.2752">
        <ele>124.3</ele>
        <time>2015-01-05T20:35:46.566Z</time>
      </trkpt>
      <trkpt lat="48.86096" lon="2.27517">
        <ele>124.6</ele>
        <time>2015-01-05T20:35:47.587Z</time>
      </trkpt>
      <trkpt lat="48.86091" lon="2.27516">
        <ele>124.9</ele>
        <time>2015-01-05T20:35:48.596Z</time>
      </trkpt>
      <trkpt lat="48.86086" lon="2.27517">
        <ele>125.4</ele>
        <time>2015-01-05T20:35:49.607Z</time>
      </trkpt>
      <trkpt lat="48.86078" lon="2.27516">
        <ele>125.7</ele>
        <time>2015-01-05T20:35:51.634Z</time>
      </trkpt>
      <trkpt lat="48.86073" lon="2.27514">
        <ele>125.9</ele>
        <time>2015-01-05T20:35:52.654Z</time>
      </trkpt>
      <trkpt lat="48.86068" lon="2.2751">
        <ele>125.8</ele>
        <time>2015-01-05T20:35:53.571Z</time>
      </trkpt>
      <trkpt lat="48.86064" lon="2.27507">
        <ele>125.8</ele>
        <time>2015-01-05T20:35:54.556Z</time>
      </trkpt>
      <trkpt lat="48.86059" lon="2.27504">
        <ele>125.9</ele>
        <time>2015-01-05T20:35:55.597Z</time>
      </trkpt>
      <trkpt lat="48.86055" lon="2.27501">
        <ele>125.8</ele>
        <time>2015-01-05T20:35:56.602Z</time>
      </trkpt>
      <trkpt lat="48.86049" lon="2.275">
        <ele>125.2</ele>
        <time>2015-01-05T20:35:58.617Z</time>
      </trkpt>
      <trkpt lat="48.86045" lon="2.27501">
        <ele>125.3</ele>
        <time>2015-01-05T20:35:59.629Z</time>
      </trkpt>
      <trkpt lat="48.8604" lon="2.27502">
        <ele>125.2</ele>
        <time>2015-01-05T20:36:01.564Z</time>
      </trkpt>
      <trkpt lat="48.86036" lon="2.27503">
        <ele>125</ele>
        <time>2015-01-05T20:36:02.612Z</time>
      </trkpt>
      <trkpt lat="48.86032" lon="2.27505">
        <ele>125</ele>
        <time>2015-01-05T20:36:03.563Z</time>
      </trkpt>
      <trkpt lat="48.86027" lon="2.2751">
        <ele>124.9</ele>
        <time>2015-01-05T20:36:04.560Z</time>
      </trkpt>
      <trkpt lat="48.86024" lon="2.27515">
        <ele>125.2</ele>
        <time>2015-01-05T20:36:05.577Z</time>
      </trkpt>
      <trkpt lat="48.8602" lon="2.27518">
        <ele>125.8</ele>
        <time>2015-01-05T20:36:06.625Z</time>
      </trkpt>
      <trkpt lat="48.86014" lon="2.27519">
        <ele>126.1</ele>
        <time>2015-01-05T20:36:07.571Z</time>
      </trkpt>
      <trkpt lat="48.86009" lon="2.27521">
        <ele>127</ele>
        <time>2015-01-05T20:36:08.679Z</time>
      </trkpt>
      <trkpt lat="48.86004" lon="2.27524">
        <ele>127.8</ele>
        <time>2015-01-05T20:36:09.575Z</time>
      </trkpt>
      <trkpt lat="48.85998" lon="2.27532">
        <ele>129</ele>
        <time>2015-01-05T20:36:10.585Z</time>
      </trkpt>
      <trkpt lat="48.85993" lon="2.27538">
        <ele>129.9</ele>
        <time>2015-01-05T20:36:11.592Z</time>
      </trkpt>
      <trkpt lat="48.85987" lon="2.27538">
        <ele>130.1</ele>
        <time>2015-01-05T20:36:12.605Z</time>
      </trkpt>
      <trkpt lat="48.85982" lon="2.27538">
        <ele>129.9</ele>
        <time>2015-01-05T20:36:13.607Z</time>
      </trkpt>
      <trkpt lat="48.85977" lon="2.27537">
        <ele>130</ele>
        <time>2015-01-05T20:36:14.620Z</time>
      </trkpt>
      <trkpt lat="48.85971" lon="2.27535">
        <ele>129.8</ele>
        <time>2015-01-05T20:36:15.634Z</time>
      </trkpt>
      <trkpt lat="48.85966" lon="2.27533">
        <ele>129.8</ele>
        <time>2015-01-05T20:36:16.633Z</time>
      </trkpt>
      <trkpt lat="48.85961" lon="2.27532">
        <ele>129.9</ele>
        <time>2015-01-05T20:36:17.651Z</time>
      </trkpt>
      <trkpt lat="48.85956" lon="2.27531">
        <ele>130.2</ele>
        <time>2015-01-05T20:36:18.573Z</time>
      </trkpt>
      <trkpt lat="48.8595" lon="2.27531">
        <ele>130.3</ele>
        <time>2015-01-05T20:36:19.552Z</time>
      </trkpt>
      <trkpt lat="48.85945" lon="2.2753">
        <ele>130.4</ele>
        <time>2015-01-05T20:36:20.609Z</time>
      </trkpt>
      <trkpt lat="48.85936" lon="2.2753">
        <ele>130.3</ele>
        <time>2015-01-05T20:36:22.630Z</time>
      </trkpt>
      <trkpt lat="48.85931" lon="2.27528">
        <ele>130.2</ele>
        <time>2015-01-05T20:36:23.641Z</time>
      </trkpt>
      <trkpt lat="48.85926" lon="2.27524">
        <ele>130.1</ele>
        <time>2015-01-05T20:36:24.667Z</time>
      </trkpt>
      <trkpt lat="48.85922" lon="2.27521">
        <ele>129.8</ele>
        <time>2015-01-05T20:36:25.573Z</time>
      </trkpt>
      <trkpt lat="48.85917" lon="2.27519">
        <ele>129.9</ele>
        <time>2015-01-05T20:36:26.619Z</time>
      </trkpt>
      <trkpt lat="48.85912" lon="2.27516">
        <ele>130</ele>
        <time>2015-01-05T20:36:27.612Z</time>
      </trkpt>
      <trkpt lat="48.85888" lon="2.27509">
        <ele>130.6</ele>
        <time>2015-01-05T20:36:33.544Z</time>
      </trkpt>
      <trkpt lat="48.85879" lon="2.27511">
        <ele>131.3</ele>
        <time>2015-01-05T20:36:36.670Z</time>
      </trkpt>
      <trkpt lat="48.85877" lon="2.27512">
        <ele>131.6</ele>
        <time>2015-01-05T20:36:37.543Z</time>
      </trkpt>
      <trkpt lat="48.85871" lon="2.27515">
        <ele>131.6</ele>
        <time>2015-01-05T20:36:40.622Z</time>
      </trkpt>
      <trkpt lat="48.85868" lon="2.27517">
        <ele>131.8</ele>
        <time>2015-01-05T20:36:41.800Z</time>
      </trkpt>
      <trkpt lat="48.85859" lon="2.27521">
        <ele>130.1</ele>
        <time>2015-01-05T20:36:45.600Z</time>
      </trkpt>
      <trkpt lat="48.85858" lon="2.27522">
        <ele>130.3</ele>
        <time>2015-01-05T20:36:46.622Z</time>
      </trkpt>
      <trkpt lat="48.8585" lon="2.27527">
        <ele>131.5</ele>
        <time>2015-01-05T20:36:49.611Z</time>
      </trkpt>
      <trkpt lat="48.85848" lon="2.27524">
        <ele>131.8</ele>
        <time>2015-01-05T20:36:50.615Z</time>
      </trkpt>
      <trkpt lat="48.85848" lon="2.27524">
        <ele>131.8</ele>
        <time>2015-01-05T20:36:56.630Z</time>
      </trkpt>
      <trkpt lat="48.85831" lon="2.27508">
        <ele>132.7</ele>
        <time>2015-01-05T20:36:57.645Z</time>
      </trkpt>
      <trkpt lat="48.85824" lon="2.27506">
        <ele>133.8</ele>
        <time>2015-01-05T20:37:00.565Z</time>
      </trkpt>
      <trkpt lat="48.85821" lon="2.27503">
        <ele>133.6</ele>
        <time>2015-01-05T20:37:01.620Z</time>
      </trkpt>
      <trkpt lat="48.85814" lon="2.27499">
        <ele>131.6</ele>
        <time>2015-01-05T20:37:04.604Z</time>
      </trkpt>
      <trkpt lat="48.85812" lon="2.27499">
        <ele>130.9</ele>
        <time>2015-01-05T20:37:05.601Z</time>
      </trkpt>
      <trkpt lat="48.85804" lon="2.27495">
        <ele>131.2</ele>
        <time>2015-01-05T20:37:09.470Z</time>
      </trkpt>
      <trkpt lat="48.85801" lon="2.27493">
        <ele>131.3</ele>
        <time>2015-01-05T20:37:09.640Z</time>
      </trkpt>
      <trkpt lat="48.85793" lon="2.27493">
        <ele>131.4</ele>
        <time>2015-01-05T20:37:12.562Z</time>
      </trkpt>
      <trkpt lat="48.8579" lon="2.27494">
        <ele>131.5</ele>
        <time>2015-01-05T20:37:13.604Z</time>
      </trkpt>
      <trkpt lat="48.85783" lon="2.27496">
        <ele>132</ele>
        <time>2015-01-05T20:37:15.627Z</time>
      </trkpt>
      <trkpt lat="48.85779" lon="2.27491">
        <ele>132.4</ele>
        <time>2015-01-05T20:37:16.630Z</time>
      </trkpt>
      <trkpt lat="48.85771" lon="2.27491">
        <ele>133.5</ele>
        <time>2015-01-05T20:37:19.755Z</time>
      </trkpt>
      <trkpt lat="48.85767" lon="2.27493">
        <ele>133.9</ele>
        <time>2015-01-05T20:37:19.800Z</time>
      </trkpt>
      <trkpt lat="48.85763" lon="2.27495">
        <ele>134.1</ele>
        <time>2015-01-05T20:37:20.641Z</time>
      </trkpt>
      <trkpt lat="48.85757" lon="2.27496">
        <ele>135.1</ele>
        <time>2015-01-05T20:37:21.638Z</time>
      </trkpt>
      <trkpt lat="48.85753" lon="2.27497">
        <ele>135.6</ele>
        <time>2015-01-05T20:37:22.668Z</time>
      </trkpt>
      <trkpt lat="48.85748" lon="2.27497">
        <ele>135.4</ele>
        <time>2015-01-05T20:37:23.588Z</time>
      </trkpt>
      <trkpt lat="48.85743" lon="2.27497">
        <ele>134.6</ele>
        <time>2015-01-05T20:37:24.695Z</time>
      </trkpt>
      <trkpt lat="48.85738" lon="2.27497">
        <ele>134.2</ele>
        <time>2015-01-05T20:37:25.596Z</time>
      </trkpt>
      <trkpt lat="48.85732" lon="2.27497">
        <ele>134.5</ele>
        <time>2015-01-05T20:37:27.987Z</time>
      </trkpt>
      <trkpt lat="48.85728" lon="2.27496">
        <ele>135.1</ele>
        <time>2015-01-05T20:37:28.591Z</time>
      </trkpt>
      <trkpt lat="48.85724" lon="2.27495">
        <ele>134.6</ele>
        <time>2015-01-05T20:37:29.594Z</time>
      </trkpt>
      <trkpt lat="48.85718" lon="2.27496">
        <ele>132.7</ele>
        <time>2015-01-05T20:37:30.618Z</time>
      </trkpt>
      <trkpt lat="48.8571" lon="2.27498">
        <ele>131.4</ele>
        <time>2015-01-05T20:37:33.108Z</time>
      </trkpt>
      <trkpt lat="48.85706" lon="2.27499">
        <ele>131.3</ele>
        <time>2015-01-05T20:37:33.605Z</time>
      </trkpt>
      <trkpt lat="48.857" lon="2.27499">
        <ele>130.5</ele>
        <time>2015-01-05T20:37:34.638Z</time>
      </trkpt>
      <trkpt lat="48.85695" lon="2.27501">
        <ele>130.4</ele>
        <time>2015-01-05T20:37:35.641Z</time>
      </trkpt>
      <trkpt lat="48.85692" lon="2.27502">
        <ele>130.3</ele>
        <time>2015-01-05T20:37:36.712Z</time>
      </trkpt>
      <trkpt lat="48.85686" lon="2.27503">
        <ele>130.3</ele>
        <time>2015-01-05T20:37:37.574Z</time>
      </trkpt>
      <trkpt lat="48.85681" lon="2.27503">
        <ele>130.3</ele>
        <time>2015-01-05T20:37:38.593Z</time>
      </trkpt>
      <trkpt lat="48.85676" lon="2.27504">
        <ele>130.2</ele>
        <time>2015-01-05T20:37:39.601Z</time>
      </trkpt>
      <trkpt lat="48.85671" lon="2.27505">
        <ele>130.7</ele>
        <time>2015-01-05T20:37:40.630Z</time>
      </trkpt>
      <trkpt lat="48.85666" lon="2.27506">
        <ele>131.7</ele>
        <time>2015-01-05T20:37:41.654Z</time>
      </trkpt>
      <trkpt lat="48.85661" lon="2.27507">
        <ele>132.4</ele>
        <time>2015-01-05T20:37:43.521Z</time>
      </trkpt>
      <trkpt lat="48.85655" lon="2.27506">
        <ele>132.7</ele>
        <time>2015-01-05T20:37:43.580Z</time>
      </trkpt>
      <trkpt lat="48.85646" lon="2.27505">
        <ele>133.5</ele>
        <time>2015-01-05T20:37:45.613Z</time>
      </trkpt>
      <trkpt lat="48.85642" lon="2.27505">
        <ele>133.8</ele>
        <time>2015-01-05T20:37:46.629Z</time>
      </trkpt>
      <trkpt lat="48.85635" lon="2.27504">
        <ele>133.6</ele>
        <time>2015-01-05T20:37:48.568Z</time>
      </trkpt>
      <trkpt lat="48.85632" lon="2.27506">
        <ele>133.7</ele>
        <time>2015-01-05T20:37:49.575Z</time>
      </trkpt>
      <trkpt lat="48.85624" lon="2.27508">
        <ele>134.2</ele>
        <time>2015-01-05T20:37:51.604Z</time>
      </trkpt>
      <trkpt lat="48.8562" lon="2.27508">
        <ele>134.1</ele>
        <time>2015-01-05T20:37:52.616Z</time>
      </trkpt>
      <trkpt lat="48.85613" lon="2.27505">
        <ele>133.9</ele>
        <time>2015-01-05T20:37:54.573Z</time>
      </trkpt>
      <trkpt lat="48.8561" lon="2.27506">
        <ele>133.7</ele>
        <time>2015-01-05T20:37:55.585Z</time>
      </trkpt>
      <trkpt lat="48.85602" lon="2.27511">
        <ele>133.6</ele>
        <time>2015-01-05T20:37:57.646Z</time>
      </trkpt>
      <trkpt lat="48.85599" lon="2.27514">
        <ele>133.6</ele>
        <time>2015-01-05T20:37:58.657Z</time>
      </trkpt>
      <trkpt lat="48.85594" lon="2.2752">
        <ele>133.8</ele>
        <time>2015-01-05T20:38:00.624Z</time>
      </trkpt>
      <trkpt lat="48.85591" lon="2.27523">
        <ele>134</ele>
        <time>2015-01-05T20:38:01.613Z</time>
      </trkpt>
      <trkpt lat="48.85587" lon="2.27525">
        <ele>134.3</ele>
        <time>2015-01-05T20:38:02.658Z</time>
      </trkpt>
      <trkpt lat="48.85582" lon="2.27527">
        <ele>134.6</ele>
        <time>2015-01-05T20:38:03.569Z</time>
      </trkpt>
      <trkpt lat="48.85577" lon="2.2753">
        <ele>134.9</ele>
        <time>2015-01-05T20:38:04.576Z</time>
      </trkpt>
      <trkpt lat="48.85572" lon="2.27532">
        <ele>135.1</ele>
        <time>2015-01-05T20:38:05.579Z</time>
      </trkpt>
      <trkpt lat="48.85567" lon="2.27534">
        <ele>135.1</ele>
        <time>2015-01-05T20:38:06.589Z</time>
      </trkpt>
      <trkpt lat="48.85563" lon="2.27538">
        <ele>135</ele>
        <time>2015-01-05T20:38:07.621Z</time>
      </trkpt>
      <trkpt lat="48.85555" lon="2.27543">
        <ele>134.1</ele>
        <time>2015-01-05T20:38:09.569Z</time>
      </trkpt>
      <trkpt lat="48.8555" lon="2.27545">
        <ele>133.3</ele>
        <time>2015-01-05T20:38:10.580Z</time>
      </trkpt>
      <trkpt lat="48.85542" lon="2.2755">
        <ele>132.5</ele>
        <time>2015-01-05T20:38:12.608Z</time>
      </trkpt>
      <trkpt lat="48.85538" lon="2.27553">
        <ele>132.2</ele>
        <time>2015-01-05T20:38:13.618Z</time>
      </trkpt>
      <trkpt lat="48.85533" lon="2.27556">
        <ele>131.9</ele>
        <time>2015-01-05T20:38:14.626Z</time>
      </trkpt>
      <trkpt lat="48.85528" lon="2.2756">
        <ele>131.7</ele>
        <time>2015-01-05T20:38:15.577Z</time>
      </trkpt>
      <trkpt lat="48.85519" lon="2.27563">
        <ele>132</ele>
        <time>2015-01-05T20:38:17.591Z</time>
      </trkpt>
      <trkpt lat="48.85515" lon="2.27564">
        <ele>132.3</ele>
        <time>2015-01-05T20:38:18.552Z</time>
      </trkpt>
      <trkpt lat="48.85506" lon="2.27567">
        <ele>132.5</ele>
        <time>2015-01-05T20:38:20.641Z</time>
      </trkpt>
      <trkpt lat="48.85502" lon="2.2757">
        <ele>132.4</ele>
        <time>2015-01-05T20:38:21.618Z</time>
      </trkpt>
      <trkpt lat="48.85497" lon="2.27571">
        <ele>132.2</ele>
        <time>2015-01-05T20:38:22.556Z</time>
      </trkpt>
      <trkpt lat="48.85492" lon="2.27573">
        <ele>132.2</ele>
        <time>2015-01-05T20:38:23.598Z</time>
      </trkpt>
      <trkpt lat="48.85488" lon="2.27575">
        <ele>132.4</ele>
        <time>2015-01-05T20:38:24.646Z</time>
      </trkpt>
      <trkpt lat="48.85483" lon="2.27577">
        <ele>132.3</ele>
        <time>2015-01-05T20:38:25.567Z</time>
      </trkpt>
      <trkpt lat="48.85476" lon="2.27577">
        <ele>131.7</ele>
        <time>2015-01-05T20:38:26.688Z</time>
      </trkpt>
      <trkpt lat="48.8547" lon="2.27579">
        <ele>131.4</ele>
        <time>2015-01-05T20:38:27.570Z</time>
      </trkpt>
      <trkpt lat="48.85464" lon="2.2758">
        <ele>131</ele>
        <time>2015-01-05T20:38:28.689Z</time>
      </trkpt>
      <trkpt lat="48.85458" lon="2.27581">
        <ele>131.1</ele>
        <time>2015-01-05T20:38:29.602Z</time>
      </trkpt>
      <trkpt lat="48.85454" lon="2.27583">
        <ele>131.2</ele>
        <time>2015-01-05T20:38:30.602Z</time>
      </trkpt>
      <trkpt lat="48.85449" lon="2.27583">
        <ele>131.5</ele>
        <time>2015-01-05T20:38:31.618Z</time>
      </trkpt>
      <trkpt lat="48.85441" lon="2.27581">
        <ele>131.2</ele>
        <time>2015-01-05T20:38:33.636Z</time>
      </trkpt>
      <trkpt lat="48.85437" lon="2.2758">
        <ele>130.5</ele>
        <time>2015-01-05T20:38:34.658Z</time>
      </trkpt>
      <trkpt lat="48.85432" lon="2.27582">
        <ele>131</ele>
        <time>2015-01-05T20:38:35.570Z</time>
      </trkpt>
      <trkpt lat="48.85427" lon="2.27583">
        <ele>132</ele>
        <time>2015-01-05T20:38:36.567Z</time>
      </trkpt>
      <trkpt lat="48.85422" lon="2.2758">
        <ele>132.3</ele>
        <time>2015-01-05T20:38:37.588Z</time>
      </trkpt>
      <trkpt lat="48.85417" lon="2.27578">
        <ele>132.7</ele>
        <time>2015-01-05T20:38:38.596Z</time>
      </trkpt>
      <trkpt lat="48.85408" lon="2.27576">
        <ele>132.4</ele>
        <time>2015-01-05T20:38:40.619Z</time>
      </trkpt>
      <trkpt lat="48.85402" lon="2.27574">
        <ele>132.1</ele>
        <time>2015-01-05T20:38:41.668Z</time>
      </trkpt>
      <trkpt lat="48.85398" lon="2.27575">
        <ele>131.6</ele>
        <time>2015-01-05T20:38:42.564Z</time>
      </trkpt>
      <trkpt lat="48.85393" lon="2.27578">
        <ele>131.2</ele>
        <time>2015-01-05T20:38:43.575Z</time>
      </trkpt>
      <trkpt lat="48.85389" lon="2.27579">
        <ele>130.6</ele>
        <time>2015-01-05T20:38:44.606Z</time>
      </trkpt>
      <trkpt lat="48.85384" lon="2.2758">
        <ele>130.3</ele>
        <time>2015-01-05T20:38:45.626Z</time>
      </trkpt>
      <trkpt lat="48.85379" lon="2.27582">
        <ele>130</ele>
        <time>2015-01-05T20:38:46.545Z</time>
      </trkpt>
      <trkpt lat="48.85375" lon="2.27584">
        <ele>129.7</ele>
        <time>2015-01-05T20:38:47.569Z</time>
      </trkpt>
      <trkpt lat="48.85366" lon="2.27588">
        <ele>129.5</ele>
        <time>2015-01-05T20:38:49.592Z</time>
      </trkpt>
      <trkpt lat="48.85362" lon="2.27591">
        <ele>129.3</ele>
        <time>2015-01-05T20:38:50.618Z</time>
      </trkpt>
      <trkpt lat="48.85355" lon="2.27596">
        <ele>128.7</ele>
        <time>2015-01-05T20:38:52.569Z</time>
      </trkpt>
      <trkpt lat="48.85349" lon="2.27598">
        <ele>128.7</ele>
        <time>2015-01-05T20:38:53.587Z</time>
      </trkpt>
      <trkpt lat="48.85344" lon="2.27598">
        <ele>128.6</ele>
        <time>2015-01-05T20:38:54.589Z</time>
      </trkpt>
      <trkpt lat="48.85337" lon="2.27599">
        <ele>128.2</ele>
        <time>2015-01-05T20:38:55.602Z</time>
      </trkpt>
      <trkpt lat="48.85331" lon="2.27599">
        <ele>127.7</ele>
        <time>2015-01-05T20:38:56.606Z</time>
      </trkpt>
      <trkpt lat="48.85324" lon="2.27598">
        <ele>127.5</ele>
        <time>2015-01-05T20:38:57.593Z</time>
      </trkpt>
      <trkpt lat="48.85318" lon="2.27601">
        <ele>126.3</ele>
        <time>2015-01-05T20:38:58.634Z</time>
      </trkpt>
      <trkpt lat="48.85312" lon="2.27607">
        <ele>123.4</ele>
        <time>2015-01-05T20:38:59.644Z</time>
      </trkpt>
      <trkpt lat="48.85308" lon="2.2761">
        <ele>121.4</ele>
        <time>2015-01-05T20:39:00.686Z</time>
      </trkpt>
      <trkpt lat="48.85304" lon="2.27614">
        <ele>119.8</ele>
        <time>2015-01-05T20:39:01.591Z</time>
      </trkpt>
      <trkpt lat="48.85298" lon="2.27619">
        <ele>117.3</ele>
        <time>2015-01-05T20:39:03.629Z</time>
      </trkpt>
      <trkpt lat="48.85294" lon="2.2762">
        <ele>116.5</ele>
        <time>2015-01-05T20:39:04.642Z</time>
      </trkpt>
      <trkpt lat="48.85286" lon="2.27616">
        <ele>115.7</ele>
        <time>2015-01-05T20:39:05.581Z</time>
      </trkpt>
      <trkpt lat="48.85281" lon="2.27615">
        <ele>115.4</ele>
        <time>2015-01-05T20:39:06.588Z</time>
      </trkpt>
      <trkpt lat="48.85273" lon="2.27615">
        <ele>114.9</ele>
        <time>2015-01-05T20:39:08.620Z</time>
      </trkpt>
      <trkpt lat="48.8527" lon="2.27615">
        <ele>114.7</ele>
        <time>2015-01-05T20:39:09.621Z</time>
      </trkpt>
      <trkpt lat="48.85263" lon="2.2762">
        <ele>115</ele>
        <time>2015-01-05T20:39:11.683Z</time>
      </trkpt>
      <trkpt lat="48.8526" lon="2.27624">
        <ele>115.5</ele>
        <time>2015-01-05T20:39:12.674Z</time>
      </trkpt>
      <trkpt lat="48.85257" lon="2.2763">
        <ele>116.1</ele>
        <time>2015-01-05T20:39:13.586Z</time>
      </trkpt>
      <trkpt lat="48.85254" lon="2.27637">
        <ele>117.3</ele>
        <time>2015-01-05T20:39:14.624Z</time>
      </trkpt>
      <trkpt lat="48.85251" lon="2.27643">
        <ele>118.4</ele>
        <time>2015-01-05T20:39:15.644Z</time>
      </trkpt>
      <trkpt lat="48.85248" lon="2.27648">
        <ele>119.1</ele>
        <time>2015-01-05T20:39:16.666Z</time>
      </trkpt>
      <trkpt lat="48.85245" lon="2.27655">
        <ele>120.6</ele>
        <time>2015-01-05T20:39:17.572Z</time>
      </trkpt>
      <trkpt lat="48.85242" lon="2.27662">
        <ele>122.2</ele>
        <time>2015-01-05T20:39:18.581Z</time>
      </trkpt>
      <trkpt lat="48.85237" lon="2.27672">
        <ele>122.9</ele>
        <time>2015-01-05T20:39:20.650Z</time>
      </trkpt>
      <trkpt lat="48.85233" lon="2.27679">
        <ele>123.7</ele>
        <time>2015-01-05T20:39:21.592Z</time>
      </trkpt>
      <trkpt lat="48.8523" lon="2.27687">
        <ele>124.7</ele>
        <time>2015-01-05T20:39:22.605Z</time>
      </trkpt>
      <trkpt lat="48.85226" lon="2.27695">
        <ele>125.8</ele>
        <time>2015-01-05T20:39:23.695Z</time>
      </trkpt>
      <trkpt lat="48.85223" lon="2.27702">
        <ele>126.6</ele>
        <time>2015-01-05T20:39:24.580Z</time>
      </trkpt>
      <trkpt lat="48.85221" lon="2.2771">
        <ele>127.4</ele>
        <time>2015-01-05T20:39:25.582Z</time>
      </trkpt>
      <trkpt lat="48.85216" lon="2.27721">
        <ele>128.3</ele>
        <time>2015-01-05T20:39:27.561Z</time>
      </trkpt>
      <trkpt lat="48.85216" lon="2.27724">
        <ele>128</ele>
        <time>2015-01-05T20:39:28.591Z</time>
      </trkpt>
      <trkpt lat="48.85214" lon="2.27732">
        <ele>128.4</ele>
        <time>2015-01-05T20:39:30.697Z</time>
      </trkpt>
      <trkpt lat="48.85216" lon="2.27738">
        <ele>127.9</ele>
        <time>2015-01-05T20:39:31.682Z</time>
      </trkpt>
      <trkpt lat="48.85218" lon="2.27748">
        <ele>128.5</ele>
        <time>2015-01-05T20:39:33.717Z</time>
      </trkpt>
      <trkpt lat="48.85218" lon="2.27758">
        <ele>129.3</ele>
        <time>2015-01-05T20:39:33.755Z</time>
      </trkpt>
      <trkpt lat="48.85219" lon="2.27767">
        <ele>130</ele>
        <time>2015-01-05T20:39:34.611Z</time>
      </trkpt>
      <trkpt lat="48.85219" lon="2.27778">
        <ele>130.8</ele>
        <time>2015-01-05T20:39:35.621Z</time>
      </trkpt>
      <trkpt lat="48.8522" lon="2.27789">
        <ele>130.8</ele>
        <time>2015-01-05T20:39:36.707Z</time>
      </trkpt>
      <trkpt lat="48.85221" lon="2.27795">
        <ele>130.9</ele>
        <time>2015-01-05T20:39:37.586Z</time>
      </trkpt>
      <trkpt lat="48.85221" lon="2.27803">
        <ele>131.3</ele>
        <time>2015-01-05T20:39:39.628Z</time>
      </trkpt>
      <trkpt lat="48.85219" lon="2.27809">
        <ele>131.4</ele>
        <time>2015-01-05T20:39:40.588Z</time>
      </trkpt>
      <trkpt lat="48.85216" lon="2.27813">
        <ele>131.5</ele>
        <time>2015-01-05T20:39:41.646Z</time>
      </trkpt>
      <trkpt lat="48.85206" lon="2.27815">
        <ele>131.7</ele>
        <time>2015-01-05T20:39:42.665Z</time>
      </trkpt>
      <trkpt lat="48.85199" lon="2.2782">
        <ele>130.9</ele>
        <time>2015-01-05T20:39:44.667Z</time>
      </trkpt>
      <trkpt lat="48.85197" lon="2.27824">
        <ele>130.4</ele>
        <time>2015-01-05T20:39:45.591Z</time>
      </trkpt>
      <trkpt lat="48.85192" lon="2.27828">
        <ele>129.6</ele>
        <time>2015-01-05T20:39:47.605Z</time>
      </trkpt>
      <trkpt lat="48.85186" lon="2.27825">
        <ele>129.6</ele>
        <time>2015-01-05T20:39:48.633Z</time>
      </trkpt>
      <trkpt lat="48.85179" lon="2.27821">
        <ele>129.8</ele>
        <time>2015-01-05T20:40:05.607Z</time>
      </trkpt>
      <trkpt lat="48.85153" lon="2.27833">
        <ele>123.8</ele>
        <time>2015-01-05T20:40:06.619Z</time>
      </trkpt>
      <trkpt lat="48.85146" lon="2.27838">
        <ele>123.1</ele>
        <time>2015-01-05T20:40:09.620Z</time>
      </trkpt>
      <trkpt lat="48.85143" lon="2.27842">
        <ele>123.3</ele>
        <time>2015-01-05T20:40:10.633Z</time>
      </trkpt>
      <trkpt lat="48.85138" lon="2.27848">
        <ele>122.5</ele>
        <time>2015-01-05T20:40:13.666Z</time>
      </trkpt>
      <trkpt lat="48.85136" lon="2.27851">
        <ele>121.4</ele>
        <time>2015-01-05T20:40:13.722Z</time>
      </trkpt>
      <trkpt lat="48.85132" lon="2.27861">
        <ele>119.9</ele>
        <time>2015-01-05T20:40:16.642Z</time>
      </trkpt>
      <trkpt lat="48.85131" lon="2.27863">
        <ele>119.6</ele>
        <time>2015-01-05T20:40:17.645Z</time>
      </trkpt>
      <trkpt lat="48.8513" lon="2.27876">
        <ele>117.2</ele>
        <time>2015-01-05T20:40:22.675Z</time>
      </trkpt>
      <trkpt lat="48.85127" lon="2.2788">
        <ele>116.3</ele>
        <time>2015-01-05T20:40:23.651Z</time>
      </trkpt>
      <trkpt lat="48.85124" lon="2.27884">
        <ele>115.7</ele>
        <time>2015-01-05T20:40:24.646Z</time>
      </trkpt>
      <trkpt lat="48.85119" lon="2.27888">
        <ele>115.5</ele>
        <time>2015-01-05T20:40:25.656Z</time>
      </trkpt>
      <trkpt lat="48.85113" lon="2.27891">
        <ele>115</ele>
        <time>2015-01-05T20:40:26.665Z</time>
      </trkpt>
      <trkpt lat="48.85107" lon="2.27895">
        <ele>114.7</ele>
        <time>2015-01-05T20:40:27.676Z</time>
      </trkpt>
      <trkpt lat="48.85103" lon="2.279">
        <ele>114.4</ele>
        <time>2015-01-05T20:40:28.686Z</time>
      </trkpt>
      <trkpt lat="48.851" lon="2.27904">
        <ele>113.9</ele>
        <time>2015-01-05T20:40:29.703Z</time>
      </trkpt>
      <trkpt lat="48.85095" lon="2.27911">
        <ele>112.5</ele>
        <time>2015-01-05T20:40:31.611Z</time>
      </trkpt>
      <trkpt lat="48.85093" lon="2.27914">
        <ele>111.9</ele>
        <time>2015-01-05T20:40:32.638Z</time>
      </trkpt>
      <trkpt lat="48.85087" lon="2.27923">
        <ele>110.4</ele>
        <time>2015-01-05T20:40:34.670Z</time>
      </trkpt>
      <trkpt lat="48.85085" lon="2.27927">
        <ele>109.7</ele>
        <time>2015-01-05T20:40:35.699Z</time>
      </trkpt>
      <trkpt lat="48.85079" lon="2.27936">
        <ele>108.4</ele>
        <time>2015-01-05T20:40:38.185Z</time>
      </trkpt>
      <trkpt lat="48.85076" lon="2.2794">
        <ele>107.8</ele>
        <time>2015-01-05T20:40:38.650Z</time>
      </trkpt>
      <trkpt lat="48.85071" lon="2.27947">
        <ele>106.8</ele>
        <time>2015-01-05T20:40:40.667Z</time>
      </trkpt>
      <trkpt lat="48.8507" lon="2.2795">
        <ele>106.1</ele>
        <time>2015-01-05T20:40:41.568Z</time>
      </trkpt>
      <trkpt lat="48.85064" lon="2.27958">
        <ele>104</ele>
        <time>2015-01-05T20:40:44.669Z</time>
      </trkpt>
      <trkpt lat="48.85062" lon="2.2796">
        <ele>103.4</ele>
        <time>2015-01-05T20:40:45.729Z</time>
      </trkpt>
      <trkpt lat="48.85056" lon="2.27967">
        <ele>100.9</ele>
        <time>2015-01-05T20:40:49.628Z</time>
      </trkpt>
      <trkpt lat="48.85055" lon="2.27969">
        <ele>100.7</ele>
        <time>2015-01-05T20:40:50.676Z</time>
      </trkpt>
      <trkpt lat="48.85048" lon="2.27978">
        <ele>99.8</ele>
        <time>2015-01-05T20:40:53.605Z</time>
      </trkpt>
      <trkpt lat="48.85045" lon="2.2798">
        <ele>99.7</ele>
        <time>2015-01-05T20:40:54.632Z</time>
      </trkpt>
      <trkpt lat="48.8504" lon="2.27989">
        <ele>98.6</ele>
        <time>2015-01-05T20:40:58.467Z</time>
      </trkpt>
      <trkpt lat="48.85037" lon="2.27993">
        <ele>98.4</ele>
        <time>2015-01-05T20:40:58.563Z</time>
      </trkpt>
      <trkpt lat="48.85031" lon="2.28001">
        <ele>98.3</ele>
        <time>2015-01-05T20:41:00.658Z</time>
      </trkpt>
      <trkpt lat="48.85029" lon="2.28005">
        <ele>98.1</ele>
        <time>2015-01-05T20:41:01.686Z</time>
      </trkpt>
      <trkpt lat="48.85024" lon="2.28013">
        <ele>97.8</ele>
        <time>2015-01-05T20:41:03.581Z</time>
      </trkpt>
      <trkpt lat="48.85021" lon="2.28017">
        <ele>97.6</ele>
        <time>2015-01-05T20:41:04.646Z</time>
      </trkpt>
      <trkpt lat="48.85015" lon="2.28026">
        <ele>97.3</ele>
        <time>2015-01-05T20:41:06.737Z</time>
      </trkpt>
      <trkpt lat="48.85011" lon="2.28031">
        <ele>96.5</ele>
        <time>2015-01-05T20:41:07.661Z</time>
      </trkpt>
      <trkpt lat="48.85006" lon="2.2804">
        <ele>96.1</ele>
        <time>2015-01-05T20:41:09.678Z</time>
      </trkpt>
      <trkpt lat="48.85003" lon="2.28044">
        <ele>96.1</ele>
        <time>2015-01-05T20:41:10.645Z</time>
      </trkpt>
      <trkpt lat="48.84997" lon="2.28052">
        <ele>96</ele>
        <time>2015-01-05T20:41:13.686Z</time>
      </trkpt>
      <trkpt lat="48.84994" lon="2.28057">
        <ele>95.8</ele>
        <time>2015-01-05T20:41:13.733Z</time>
      </trkpt>
      <trkpt lat="48.84988" lon="2.28067">
        <ele>95.4</ele>
        <time>2015-01-05T20:41:15.611Z</time>
      </trkpt>
      <trkpt lat="48.84985" lon="2.28071">
        <ele>95.2</ele>
        <time>2015-01-05T20:41:16.614Z</time>
      </trkpt>
      <trkpt lat="48.84979" lon="2.2808">
        <ele>95</ele>
        <time>2015-01-05T20:41:18.775Z</time>
      </trkpt>
      <trkpt lat="48.84977" lon="2.28085">
        <ele>95.1</ele>
        <time>2015-01-05T20:41:19.651Z</time>
      </trkpt>
      <trkpt lat="48.84971" lon="2.28094">
        <ele>94.7</ele>
        <time>2015-01-05T20:41:21.736Z</time>
      </trkpt>
      <trkpt lat="48.84968" lon="2.28099">
        <ele>94.3</ele>
        <time>2015-01-05T20:41:22.650Z</time>
      </trkpt>
      <trkpt lat="48.84965" lon="2.28104">
        <ele>94.5</ele>
        <time>2015-01-05T20:41:23.962Z</time>
      </trkpt>
      <trkpt lat="48.84962" lon="2.28109">
        <ele>94.5</ele>
        <time>2015-01-05T20:41:24.676Z</time>
      </trkpt>
      <trkpt lat="48.84959" lon="2.28114">
        <ele>94.3</ele>
        <time>2015-01-05T20:41:25.682Z</time>
      </trkpt>
      <trkpt lat="48.84955" lon="2.28119">
        <ele>94.5</ele>
        <time>2015-01-05T20:41:26.715Z</time>
      </trkpt>
      <trkpt lat="48.84949" lon="2.28128">
        <ele>94.4</ele>
        <time>2015-01-05T20:41:28.606Z</time>
      </trkpt>
      <trkpt lat="48.84946" lon="2.28132">
        <ele>94.4</ele>
        <time>2015-01-05T20:41:29.606Z</time>
      </trkpt>
      <trkpt lat="48.8494" lon="2.2814">
        <ele>94.4</ele>
        <time>2015-01-05T20:41:31.637Z</time>
      </trkpt>
      <trkpt lat="48.84937" lon="2.28145">
        <ele>94.2</ele>
        <time>2015-01-05T20:41:32.771Z</time>
      </trkpt>
      <trkpt lat="48.84938" lon="2.28152">
        <ele>86.9</ele>
        <time>2015-01-05T20:42:51.627Z</time>
      </trkpt>
      <trkpt lat="48.84925" lon="2.28171">
        <ele>87</ele>
        <time>2015-01-05T20:42:52.660Z</time>
      </trkpt>
      <trkpt lat="48.8492" lon="2.28179">
        <ele>87.1</ele>
        <time>2015-01-05T20:42:55.483Z</time>
      </trkpt>
      <trkpt lat="48.84917" lon="2.28183">
        <ele>87.3</ele>
        <time>2015-01-05T20:42:55.554Z</time>
      </trkpt>
      <trkpt lat="48.84913" lon="2.2819">
        <ele>87.5</ele>
        <time>2015-01-05T20:42:56.629Z</time>
      </trkpt>
      <trkpt lat="48.84909" lon="2.28197">
        <ele>87.7</ele>
        <time>2015-01-05T20:42:57.629Z</time>
      </trkpt>
      <trkpt lat="48.84905" lon="2.28202">
        <ele>87.9</ele>
        <time>2015-01-05T20:42:58.631Z</time>
      </trkpt>
      <trkpt lat="48.84901" lon="2.28209">
        <ele>88.2</ele>
        <time>2015-01-05T20:42:59.638Z</time>
      </trkpt>
      <trkpt lat="48.84897" lon="2.28214">
        <ele>88.6</ele>
        <time>2015-01-05T20:43:00.657Z</time>
      </trkpt>
      <trkpt lat="48.84894" lon="2.28219">
        <ele>88.7</ele>
        <time>2015-01-05T20:43:01.665Z</time>
      </trkpt>
      <trkpt lat="48.84891" lon="2.28226">
        <ele>89</ele>
        <time>2015-01-05T20:43:03.482Z</time>
      </trkpt>
      <trkpt lat="48.84886" lon="2.28233">
        <ele>89</ele>
        <time>2015-01-05T20:43:03.564Z</time>
      </trkpt>
      <trkpt lat="48.84882" lon="2.28239">
        <ele>89</ele>
        <time>2015-01-05T20:43:04.583Z</time>
      </trkpt>
      <trkpt lat="48.84878" lon="2.28245">
        <ele>88.9</ele>
        <time>2015-01-05T20:43:05.584Z</time>
      </trkpt>
      <trkpt lat="48.84874" lon="2.28249">
        <ele>88.7</ele>
        <time>2015-01-05T20:43:06.584Z</time>
      </trkpt>
      <trkpt lat="48.84866" lon="2.28261">
        <ele>88.5</ele>
        <time>2015-01-05T20:43:08.609Z</time>
      </trkpt>
      <trkpt lat="48.84862" lon="2.28268">
        <ele>88.4</ele>
        <time>2015-01-05T20:43:09.576Z</time>
      </trkpt>
      <trkpt lat="48.84858" lon="2.28274">
        <ele>88.2</ele>
        <time>2015-01-05T20:43:10.576Z</time>
      </trkpt>
      <trkpt lat="48.84855" lon="2.28281">
        <ele>88</ele>
        <time>2015-01-05T20:43:11.580Z</time>
      </trkpt>
      <trkpt lat="48.84852" lon="2.2829">
        <ele>87.7</ele>
        <time>2015-01-05T20:43:12.589Z</time>
      </trkpt>
      <trkpt lat="48.84848" lon="2.28299">
        <ele>87.6</ele>
        <time>2015-01-05T20:43:13.611Z</time>
      </trkpt>
      <trkpt lat="48.84845" lon="2.2831">
        <ele>87.7</ele>
        <time>2015-01-05T20:43:14.620Z</time>
      </trkpt>
      <trkpt lat="48.84842" lon="2.28319">
        <ele>87.7</ele>
        <time>2015-01-05T20:43:15.626Z</time>
      </trkpt>
      <trkpt lat="48.84841" lon="2.28324">
        <ele>87.7</ele>
        <time>2015-01-05T20:43:16.625Z</time>
      </trkpt>
      <trkpt lat="48.84839" lon="2.28332">
        <ele>88.3</ele>
        <time>2015-01-05T20:43:17.644Z</time>
      </trkpt>
      <trkpt lat="48.84837" lon="2.28338">
        <ele>88.7</ele>
        <time>2015-01-05T20:43:18.654Z</time>
      </trkpt>
      <trkpt lat="48.84833" lon="2.28346">
        <ele>89</ele>
        <time>2015-01-05T20:43:19.663Z</time>
      </trkpt>
      <trkpt lat="48.84827" lon="2.28355">
        <ele>89.2</ele>
        <time>2015-01-05T20:43:20.670Z</time>
      </trkpt>
      <trkpt lat="48.84823" lon="2.28362">
        <ele>89.1</ele>
        <time>2015-01-05T20:43:21.561Z</time>
      </trkpt>
      <trkpt lat="48.84819" lon="2.28369">
        <ele>89.3</ele>
        <time>2015-01-05T20:43:22.580Z</time>
      </trkpt>
      <trkpt lat="48.84814" lon="2.28374">
        <ele>89.3</ele>
        <time>2015-01-05T20:43:23.599Z</time>
      </trkpt>
      <trkpt lat="48.84809" lon="2.2838">
        <ele>89.5</ele>
        <time>2015-01-05T20:43:24.607Z</time>
      </trkpt>
      <trkpt lat="48.84806" lon="2.28386">
        <ele>89.6</ele>
        <time>2015-01-05T20:43:25.613Z</time>
      </trkpt>
      <trkpt lat="48.84802" lon="2.28392">
        <ele>89.7</ele>
        <time>2015-01-05T20:43:26.701Z</time>
      </trkpt>
      <trkpt lat="48.84798" lon="2.28397">
        <ele>89.9</ele>
        <time>2015-01-05T20:43:27.890Z</time>
      </trkpt>
      <trkpt lat="48.84793" lon="2.28403">
        <ele>89.7</ele>
        <time>2015-01-05T20:43:28.567Z</time>
      </trkpt>
      <trkpt lat="48.84789" lon="2.28407">
        <ele>89.9</ele>
        <time>2015-01-05T20:43:29.576Z</time>
      </trkpt>
      <trkpt lat="48.84785" lon="2.28412">
        <ele>90.1</ele>
        <time>2015-01-05T20:43:30.580Z</time>
      </trkpt>
      <trkpt lat="48.84781" lon="2.28417">
        <ele>90.7</ele>
        <time>2015-01-05T20:43:31.589Z</time>
      </trkpt>
      <trkpt lat="48.84775" lon="2.28421">
        <ele>91.5</ele>
        <time>2015-01-05T20:43:32.619Z</time>
      </trkpt>
      <trkpt lat="48.8477" lon="2.28426">
        <ele>92.5</ele>
        <time>2015-01-05T20:43:33.619Z</time>
      </trkpt>
      <trkpt lat="48.84765" lon="2.2843">
        <ele>93.3</ele>
        <time>2015-01-05T20:43:34.641Z</time>
      </trkpt>
      <trkpt lat="48.8476" lon="2.28434">
        <ele>93.7</ele>
        <time>2015-01-05T20:43:35.651Z</time>
      </trkpt>
      <trkpt lat="48.84754" lon="2.28441">
        <ele>94.9</ele>
        <time>2015-01-05T20:43:36.666Z</time>
      </trkpt>
      <trkpt lat="48.8475" lon="2.28447">
        <ele>95.2</ele>
        <time>2015-01-05T20:43:38.147Z</time>
      </trkpt>
      <trkpt lat="48.84747" lon="2.28452">
        <ele>95.4</ele>
        <time>2015-01-05T20:43:38.692Z</time>
      </trkpt>
      <trkpt lat="48.84743" lon="2.28458">
        <ele>95.4</ele>
        <time>2015-01-05T20:43:39.584Z</time>
      </trkpt>
      <trkpt lat="48.84739" lon="2.28465">
        <ele>95.4</ele>
        <time>2015-01-05T20:43:40.582Z</time>
      </trkpt>
      <trkpt lat="48.84735" lon="2.28473">
        <ele>95.6</ele>
        <time>2015-01-05T20:43:41.588Z</time>
      </trkpt>
      <trkpt lat="48.84729" lon="2.28482">
        <ele>94.3</ele>
        <time>2015-01-05T20:43:42.591Z</time>
      </trkpt>
      <trkpt lat="48.84725" lon="2.28489">
        <ele>94.1</ele>
        <time>2015-01-05T20:43:43.832Z</time>
      </trkpt>
      <trkpt lat="48.84722" lon="2.28497">
        <ele>93.6</ele>
        <time>2015-01-05T20:43:44.905Z</time>
      </trkpt>
      <trkpt lat="48.84718" lon="2.28505">
        <ele>92.8</ele>
        <time>2015-01-05T20:43:45.584Z</time>
      </trkpt>
      <trkpt lat="48.84715" lon="2.28512">
        <ele>92.4</ele>
        <time>2015-01-05T20:43:46.584Z</time>
      </trkpt>
      <trkpt lat="48.84711" lon="2.28518">
        <ele>92</ele>
        <time>2015-01-05T20:43:47.641Z</time>
      </trkpt>
      <trkpt lat="48.84708" lon="2.28524">
        <ele>92</ele>
        <time>2015-01-05T20:43:48.667Z</time>
      </trkpt>
      <trkpt lat="48.84705" lon="2.2853">
        <ele>92.1</ele>
        <time>2015-01-05T20:43:49.675Z</time>
      </trkpt>
      <trkpt lat="48.84701" lon="2.28535">
        <ele>92.4</ele>
        <time>2015-01-05T20:43:50.684Z</time>
      </trkpt>
      <trkpt lat="48.84696" lon="2.28546">
        <ele>93.1</ele>
        <time>2015-01-05T20:43:52.582Z</time>
      </trkpt>
      <trkpt lat="48.84693" lon="2.28549">
        <ele>93.4</ele>
        <time>2015-01-05T20:43:53.606Z</time>
      </trkpt>
      <trkpt lat="48.84686" lon="2.28557">
        <ele>94.4</ele>
        <time>2015-01-05T20:43:56.754Z</time>
      </trkpt>
      <trkpt lat="48.84684" lon="2.28562">
        <ele>95.2</ele>
        <time>2015-01-05T20:43:57.609Z</time>
      </trkpt>
      <trkpt lat="48.84679" lon="2.28572">
        <ele>96.5</ele>
        <time>2015-01-05T20:43:59.677Z</time>
      </trkpt>
      <trkpt lat="48.84676" lon="2.28576">
        <ele>97.1</ele>
        <time>2015-01-05T20:44:00.602Z</time>
      </trkpt>
      <trkpt lat="48.84669" lon="2.28585">
        <ele>97.8</ele>
        <time>2015-01-05T20:44:02.654Z</time>
      </trkpt>
      <trkpt lat="48.84666" lon="2.28588">
        <ele>98.2</ele>
        <time>2015-01-05T20:44:03.670Z</time>
      </trkpt>
      <trkpt lat="48.8466" lon="2.28595">
        <ele>99.4</ele>
        <time>2015-01-05T20:44:05.585Z</time>
      </trkpt>
      <trkpt lat="48.84657" lon="2.28601">
        <ele>100</ele>
        <time>2015-01-05T20:44:06.592Z</time>
      </trkpt>
      <trkpt lat="48.84655" lon="2.28607">
        <ele>101</ele>
        <time>2015-01-05T20:44:07.642Z</time>
      </trkpt>
      <trkpt lat="48.84652" lon="2.28613">
        <ele>101.5</ele>
        <time>2015-01-05T20:44:08.651Z</time>
      </trkpt>
      <trkpt lat="48.84646" lon="2.28624">
        <ele>103</ele>
        <time>2015-01-05T20:44:09.569Z</time>
      </trkpt>
      <trkpt lat="48.84644" lon="2.28629">
        <ele>103.5</ele>
        <time>2015-01-05T20:44:10.679Z</time>
      </trkpt>
      <trkpt lat="48.84639" lon="2.28638">
        <ele>103.8</ele>
        <time>2015-01-05T20:44:12.586Z</time>
      </trkpt>
      <trkpt lat="48.84637" lon="2.28642">
        <ele>104.2</ele>
        <time>2015-01-05T20:44:13.590Z</time>
      </trkpt>
      <trkpt lat="48.84634" lon="2.28649">
        <ele>104.6</ele>
        <time>2015-01-05T20:44:16.385Z</time>
      </trkpt>
      <trkpt lat="48.84631" lon="2.28653">
        <ele>104.7</ele>
        <time>2015-01-05T20:44:16.563Z</time>
      </trkpt>
      <trkpt lat="48.84627" lon="2.2866">
        <ele>104.7</ele>
        <time>2015-01-05T20:44:18.571Z</time>
      </trkpt>
      <trkpt lat="48.84625" lon="2.28665">
        <ele>104.8</ele>
        <time>2015-01-05T20:44:19.590Z</time>
      </trkpt>
      <trkpt lat="48.84621" lon="2.28675">
        <ele>104.8</ele>
        <time>2015-01-05T20:44:21.612Z</time>
      </trkpt>
      <trkpt lat="48.84619" lon="2.2868">
        <ele>104.8</ele>
        <time>2015-01-05T20:44:22.639Z</time>
      </trkpt>
      <trkpt lat="48.84615" lon="2.28689">
        <ele>104.6</ele>
        <time>2015-01-05T20:44:24.573Z</time>
      </trkpt>
      <trkpt lat="48.84613" lon="2.28694">
        <ele>104.5</ele>
        <time>2015-01-05T20:44:25.594Z</time>
      </trkpt>
      <trkpt lat="48.84609" lon="2.28705">
        <ele>104.6</ele>
        <time>2015-01-05T20:44:27.556Z</time>
      </trkpt>
      <trkpt lat="48.84607" lon="2.2871">
        <ele>104.5</ele>
        <time>2015-01-05T20:44:28.583Z</time>
      </trkpt>
      <trkpt lat="48.84604" lon="2.28716">
        <ele>104.4</ele>
        <time>2015-01-05T20:44:29.618Z</time>
      </trkpt>
      <trkpt lat="48.84601" lon="2.28721">
        <ele>104.2</ele>
        <time>2015-01-05T20:44:30.629Z</time>
      </trkpt>
      <trkpt lat="48.84595" lon="2.2873">
        <ele>103.4</ele>
        <time>2015-01-05T20:44:32.655Z</time>
      </trkpt>
      <trkpt lat="48.84592" lon="2.28733">
        <ele>103.1</ele>
        <time>2015-01-05T20:44:33.551Z</time>
      </trkpt>
      <trkpt lat="48.84589" lon="2.28739">
        <ele>102.6</ele>
        <time>2015-01-05T20:44:34.560Z</time>
      </trkpt>
      <trkpt lat="48.84585" lon="2.28744">
        <ele>102.4</ele>
        <time>2015-01-05T20:44:35.619Z</time>
      </trkpt>
      <trkpt lat="48.84582" lon="2.28749">
        <ele>102.4</ele>
        <time>2015-01-05T20:44:36.635Z</time>
      </trkpt>
      <trkpt lat="48.84579" lon="2.28755">
        <ele>102.3</ele>
        <time>2015-01-05T20:44:37.676Z</time>
      </trkpt>
      <trkpt lat="48.84575" lon="2.28765">
        <ele>102.3</ele>
        <time>2015-01-05T20:44:39.547Z</time>
      </trkpt>
      <trkpt lat="48.84574" lon="2.28772">
        <ele>101.9</ele>
        <time>2015-01-05T20:44:40.556Z</time>
      </trkpt>
      <trkpt lat="48.84572" lon="2.28781">
        <ele>101.2</ele>
        <time>2015-01-05T20:44:41.587Z</time>
      </trkpt>
      <trkpt lat="48.84569" lon="2.28787">
        <ele>100.7</ele>
        <time>2015-01-05T20:44:42.587Z</time>
      </trkpt>
      <trkpt lat="48.84564" lon="2.28795">
        <ele>100.6</ele>
        <time>2015-01-05T20:44:44.603Z</time>
      </trkpt>
      <trkpt lat="48.84562" lon="2.28798">
        <ele>100.3</ele>
        <time>2015-01-05T20:44:45.612Z</time>
      </trkpt>
      <trkpt lat="48.84557" lon="2.28803">
        <ele>100.1</ele>
        <time>2015-01-05T20:44:47.710Z</time>
      </trkpt>
      <trkpt lat="48.84554" lon="2.28805">
        <ele>100.2</ele>
        <time>2015-01-05T20:44:48.534Z</time>
      </trkpt>
      <trkpt lat="48.84548" lon="2.28812">
        <ele>100.3</ele>
        <time>2015-01-05T20:44:50.569Z</time>
      </trkpt>
      <trkpt lat="48.84546" lon="2.28815">
        <ele>100.3</ele>
        <time>2015-01-05T20:44:51.583Z</time>
      </trkpt>
      <trkpt lat="48.84543" lon="2.2882">
        <ele>100.6</ele>
        <time>2015-01-05T20:44:53.324Z</time>
      </trkpt>
      <trkpt lat="48.84541" lon="2.28826">
        <ele>100.7</ele>
        <time>2015-01-05T20:44:53.520Z</time>
      </trkpt>
      <trkpt lat="48.84537" lon="2.28832">
        <ele>100.7</ele>
        <time>2015-01-05T20:44:54.638Z</time>
      </trkpt>
      <trkpt lat="48.84534" lon="2.28837">
        <ele>100.7</ele>
        <time>2015-01-05T20:44:55.572Z</time>
      </trkpt>
      <trkpt lat="48.84531" lon="2.28842">
        <ele>100.7</ele>
        <time>2015-01-05T20:44:56.578Z</time>
      </trkpt>
      <trkpt lat="48.84528" lon="2.28863">
        <ele>100.8</ele>
        <time>2015-01-05T20:44:59.635Z</time>
      </trkpt>
      <trkpt lat="48.84527" lon="2.28871">
        <ele>100.7</ele>
        <time>2015-01-05T20:45:00.522Z</time>
      </trkpt>
      <trkpt lat="48.84525" lon="2.28879">
        <ele>100.6</ele>
        <time>2015-01-05T20:45:01.540Z</time>
      </trkpt>
      <trkpt lat="48.84523" lon="2.28885">
        <ele>100.5</ele>
        <time>2015-01-05T20:45:02.858Z</time>
      </trkpt>
      <trkpt lat="48.84521" lon="2.28892">
        <ele>100.5</ele>
        <time>2015-01-05T20:45:03.550Z</time>
      </trkpt>
      <trkpt lat="48.8452" lon="2.28899">
        <ele>100.3</ele>
        <time>2015-01-05T20:45:04.558Z</time>
      </trkpt>
      <trkpt lat="48.84521" lon="2.28913">
        <ele>99.2</ele>
        <time>2015-01-05T20:45:05.562Z</time>
      </trkpt>
      <trkpt lat="48.84516" lon="2.28922">
        <ele>99.6</ele>
        <time>2015-01-05T20:45:07.599Z</time>
      </trkpt>
      <trkpt lat="48.84514" lon="2.28924">
        <ele>99.4</ele>
        <time>2015-01-05T20:45:08.657Z</time>
      </trkpt>
      <trkpt lat="48.84507" lon="2.28931">
        <ele>99.8</ele>
        <time>2015-01-05T20:45:11.540Z</time>
      </trkpt>
      <trkpt lat="48.84505" lon="2.28937">
        <ele>99.9</ele>
        <time>2015-01-05T20:45:12.552Z</time>
      </trkpt>
      <trkpt lat="48.84502" lon="2.28943">
        <ele>100</ele>
        <time>2015-01-05T20:45:13.573Z</time>
      </trkpt>
      <trkpt lat="48.84499" lon="2.28949">
        <ele>99.8</ele>
        <time>2015-01-05T20:45:14.575Z</time>
      </trkpt>
      <trkpt lat="48.84497" lon="2.28956">
        <ele>99.8</ele>
        <time>2015-01-05T20:45:15.596Z</time>
      </trkpt>
      <trkpt lat="48.84494" lon="2.28964">
        <ele>99.6</ele>
        <time>2015-01-05T20:45:16.516Z</time>
      </trkpt>
      <trkpt lat="48.84492" lon="2.28971">
        <ele>99</ele>
        <time>2015-01-05T20:45:17.581Z</time>
      </trkpt>
      <trkpt lat="48.8449" lon="2.28978">
        <ele>98.1</ele>
        <time>2015-01-05T20:45:18.596Z</time>
      </trkpt>
      <trkpt lat="48.84489" lon="2.28987">
        <ele>97.7</ele>
        <time>2015-01-05T20:45:19.571Z</time>
      </trkpt>
      <trkpt lat="48.8449" lon="2.28996">
        <ele>97.1</ele>
        <time>2015-01-05T20:45:20.596Z</time>
      </trkpt>
      <trkpt lat="48.84488" lon="2.29007">
        <ele>96.6</ele>
        <time>2015-01-05T20:45:22.618Z</time>
      </trkpt>
      <trkpt lat="48.84487" lon="2.29014">
        <ele>96.6</ele>
        <time>2015-01-05T20:45:23.632Z</time>
      </trkpt>
      <trkpt lat="48.84486" lon="2.29021">
        <ele>96.4</ele>
        <time>2015-01-05T20:45:24.646Z</time>
      </trkpt>
      <trkpt lat="48.84484" lon="2.29028">
        <ele>95.9</ele>
        <time>2015-01-05T20:45:25.559Z</time>
      </trkpt>
      <trkpt lat="48.8448" lon="2.29033">
        <ele>95.6</ele>
        <time>2015-01-05T20:45:26.586Z</time>
      </trkpt>
      <trkpt lat="48.84476" lon="2.29041">
        <ele>95.6</ele>
        <time>2015-01-05T20:45:27.559Z</time>
      </trkpt>
      <trkpt lat="48.84473" lon="2.29047">
        <ele>96.2</ele>
        <time>2015-01-05T20:45:28.621Z</time>
      </trkpt>
      <trkpt lat="48.84469" lon="2.29053">
        <ele>97</ele>
        <time>2015-01-05T20:45:29.627Z</time>
      </trkpt>
      <trkpt lat="48.84464" lon="2.29062">
        <ele>97.3</ele>
        <time>2015-01-05T20:45:31.667Z</time>
      </trkpt>
      <trkpt lat="48.84461" lon="2.2907">
        <ele>98.1</ele>
        <time>2015-01-05T20:45:32.681Z</time>
      </trkpt>
      <trkpt lat="48.84457" lon="2.29078">
        <ele>98.3</ele>
        <time>2015-01-05T20:45:33.556Z</time>
      </trkpt>
      <trkpt lat="48.84454" lon="2.29086">
        <ele>98.3</ele>
        <time>2015-01-05T20:45:34.557Z</time>
      </trkpt>
      <trkpt lat="48.84452" lon="2.29092">
        <ele>98.6</ele>
        <time>2015-01-05T20:45:35.586Z</time>
      </trkpt>
      <trkpt lat="48.84449" lon="2.29098">
        <ele>98.8</ele>
        <time>2015-01-05T20:45:36.606Z</time>
      </trkpt>
      <trkpt lat="48.84446" lon="2.29109">
        <ele>99.1</ele>
        <time>2015-01-05T20:45:38.655Z</time>
      </trkpt>
      <trkpt lat="48.84444" lon="2.29114">
        <ele>99.2</ele>
        <time>2015-01-05T20:45:39.665Z</time>
      </trkpt>
      <trkpt lat="48.8444" lon="2.29123">
        <ele>99.7</ele>
        <time>2015-01-05T20:45:41.604Z</time>
      </trkpt>
      <trkpt lat="48.84437" lon="2.29127">
        <ele>99.7</ele>
        <time>2015-01-05T20:45:42.646Z</time>
      </trkpt>
      <trkpt lat="48.84432" lon="2.29133">
        <ele>99.3</ele>
        <time>2015-01-05T20:45:44.690Z</time>
      </trkpt>
      <trkpt lat="48.84428" lon="2.29137">
        <ele>98.8</ele>
        <time>2015-01-05T20:45:45.613Z</time>
      </trkpt>
      <trkpt lat="48.84425" lon="2.29142">
        <ele>98.8</ele>
        <time>2015-01-05T20:45:47.050Z</time>
      </trkpt>
      <trkpt lat="48.84422" lon="2.29148">
        <ele>98.6</ele>
        <time>2015-01-05T20:45:47.571Z</time>
      </trkpt>
      <trkpt lat="48.84419" lon="2.29154">
        <ele>98.5</ele>
        <time>2015-01-05T20:45:48.583Z</time>
      </trkpt>
      <trkpt lat="48.84417" lon="2.2916">
        <ele>98.3</ele>
        <time>2015-01-05T20:45:49.596Z</time>
      </trkpt>
      <trkpt lat="48.84414" lon="2.29167">
        <ele>98.3</ele>
        <time>2015-01-05T20:45:50.608Z</time>
      </trkpt>
      <trkpt lat="48.84412" lon="2.29172">
        <ele>97.5</ele>
        <time>2015-01-05T20:45:51.616Z</time>
      </trkpt>
      <trkpt lat="48.84409" lon="2.29183">
        <ele>96.9</ele>
        <time>2015-01-05T20:45:53.650Z</time>
      </trkpt>
      <trkpt lat="48.84408" lon="2.29189">
        <ele>96.8</ele>
        <time>2015-01-05T20:45:54.551Z</time>
      </trkpt>
      <trkpt lat="48.84406" lon="2.29198">
        <ele>96.5</ele>
        <time>2015-01-05T20:45:57.516Z</time>
      </trkpt>
      <trkpt lat="48.84404" lon="2.29203">
        <ele>96.4</ele>
        <time>2015-01-05T20:45:57.622Z</time>
      </trkpt>
      <trkpt lat="48.84402" lon="2.29209">
        <ele>96.1</ele>
        <time>2015-01-05T20:45:58.550Z</time>
      </trkpt>
      <trkpt lat="48.844" lon="2.29216">
        <ele>95.7</ele>
        <time>2015-01-05T20:45:59.548Z</time>
      </trkpt>
      <trkpt lat="48.84398" lon="2.29224">
        <ele>95.2</ele>
        <time>2015-01-05T20:46:00.557Z</time>
      </trkpt>
      <trkpt lat="48.84394" lon="2.29231">
        <ele>94.8</ele>
        <time>2015-01-05T20:46:01.569Z</time>
      </trkpt>
      <trkpt lat="48.84391" lon="2.29237">
        <ele>94.4</ele>
        <time>2015-01-05T20:46:02.667Z</time>
      </trkpt>
      <trkpt lat="48.84387" lon="2.29243">
        <ele>93.2</ele>
        <time>2015-01-05T20:46:03.542Z</time>
      </trkpt>
      <trkpt lat="48.84381" lon="2.29254">
        <ele>91.3</ele>
        <time>2015-01-05T20:46:05.597Z</time>
      </trkpt>
      <trkpt lat="48.8438" lon="2.29257">
        <ele>91</ele>
        <time>2015-01-05T20:46:06.593Z</time>
      </trkpt>
      <trkpt lat="48.84378" lon="2.29266">
        <ele>91.1</ele>
        <time>2015-01-05T20:46:08.679Z</time>
      </trkpt>
      <trkpt lat="48.84377" lon="2.29271">
        <ele>91.4</ele>
        <time>2015-01-05T20:46:09.598Z</time>
      </trkpt>
      <trkpt lat="48.84378" lon="2.2928">
        <ele>91.3</ele>
        <time>2015-01-05T20:46:10.570Z</time>
      </trkpt>
      <trkpt lat="48.84377" lon="2.29285">
        <ele>91.6</ele>
        <time>2015-01-05T20:46:11.566Z</time>
      </trkpt>
      <trkpt lat="48.84372" lon="2.29295">
        <ele>93.2</ele>
        <time>2015-01-05T20:46:13.580Z</time>
      </trkpt>
      <trkpt lat="48.8437" lon="2.29299">
        <ele>93.9</ele>
        <time>2015-01-05T20:46:14.642Z</time>
      </trkpt>
      <trkpt lat="48.84366" lon="2.29305">
        <ele>93.2</ele>
        <time>2015-01-05T20:46:15.652Z</time>
      </trkpt>
      <trkpt lat="48.84363" lon="2.29309">
        <ele>92.8</ele>
        <time>2015-01-05T20:46:16.656Z</time>
      </trkpt>
      <trkpt lat="48.84358" lon="2.2932">
        <ele>92.4</ele>
        <time>2015-01-05T20:46:20.605Z</time>
      </trkpt>
      <trkpt lat="48.84357" lon="2.2932">
        <ele>92.4</ele>
        <time>2015-01-05T20:46:21.610Z</time>
      </trkpt>
      <trkpt lat="48.84351" lon="2.29328">
        <ele>93.9</ele>
        <time>2015-01-05T20:46:27.923Z</time>
      </trkpt>
      <trkpt lat="48.84348" lon="2.2933">
        <ele>94.1</ele>
        <time>2015-01-05T20:46:28.566Z</time>
      </trkpt>
      <trkpt lat="48.84341" lon="2.29334">
        <ele>94.7</ele>
        <time>2015-01-05T20:46:31.604Z</time>
      </trkpt>
      <trkpt lat="48.84339" lon="2.29335">
        <ele>94.6</ele>
        <time>2015-01-05T20:46:32.741Z</time>
      </trkpt>
      <trkpt lat="48.84332" lon="2.29338">
        <ele>94.3</ele>
        <time>2015-01-05T20:46:34.629Z</time>
      </trkpt>
      <trkpt lat="48.84329" lon="2.2934">
        <ele>94.1</ele>
        <time>2015-01-05T20:46:35.650Z</time>
      </trkpt>
      <trkpt lat="48.84322" lon="2.29344">
        <ele>93.9</ele>
        <time>2015-01-05T20:46:37.660Z</time>
      </trkpt>
      <trkpt lat="48.84319" lon="2.29347">
        <ele>93.9</ele>
        <time>2015-01-05T20:46:38.685Z</time>
      </trkpt>
      <trkpt lat="48.84311" lon="2.2935">
        <ele>94</ele>
        <time>2015-01-05T20:46:40.738Z</time>
      </trkpt>
      <trkpt lat="48.84307" lon="2.29353">
        <ele>94.1</ele>
        <time>2015-01-05T20:46:41.583Z</time>
      </trkpt>
      <trkpt lat="48.843" lon="2.29358">
        <ele>94</ele>
        <time>2015-01-05T20:46:43.628Z</time>
      </trkpt>
      <trkpt lat="48.84296" lon="2.29361">
        <ele>94</ele>
        <time>2015-01-05T20:46:44.685Z</time>
      </trkpt>
      <trkpt lat="48.8429" lon="2.29371">
        <ele>93.8</ele>
        <time>2015-01-05T20:46:46.603Z</time>
      </trkpt>
      <trkpt lat="48.84287" lon="2.29375">
        <ele>93.6</ele>
        <time>2015-01-05T20:46:47.667Z</time>
      </trkpt>
      <trkpt lat="48.8428" lon="2.29383">
        <ele>93.4</ele>
        <time>2015-01-05T20:46:50.464Z</time>
      </trkpt>
      <trkpt lat="48.84278" lon="2.29389">
        <ele>93.5</ele>
        <time>2015-01-05T20:46:50.560Z</time>
      </trkpt>
      <trkpt lat="48.84272" lon="2.29396">
        <ele>93.4</ele>
        <time>2015-01-05T20:46:52.595Z</time>
      </trkpt>
      <trkpt lat="48.8427" lon="2.294">
        <ele>93.5</ele>
        <time>2015-01-05T20:46:53.600Z</time>
      </trkpt>
      <trkpt lat="48.84262" lon="2.29406">
        <ele>93.5</ele>
        <time>2015-01-05T20:46:55.623Z</time>
      </trkpt>
      <trkpt lat="48.84259" lon="2.29409">
        <ele>93.4</ele>
        <time>2015-01-05T20:46:56.671Z</time>
      </trkpt>
      <trkpt lat="48.84252" lon="2.29416">
        <ele>93.4</ele>
        <time>2015-01-05T20:46:58.566Z</time>
      </trkpt>
      <trkpt lat="48.84249" lon="2.29419">
        <ele>93.5</ele>
        <time>2015-01-05T20:46:59.573Z</time>
      </trkpt>
      <trkpt lat="48.84242" lon="2.29423">
        <ele>93.6</ele>
        <time>2015-01-05T20:47:01.598Z</time>
      </trkpt>
      <trkpt lat="48.84238" lon="2.29427">
        <ele>92.8</ele>
        <time>2015-01-05T20:47:02.625Z</time>
      </trkpt>
      <trkpt lat="48.84231" lon="2.29434">
        <ele>92.4</ele>
        <time>2015-01-05T20:47:04.624Z</time>
      </trkpt>
      <trkpt lat="48.84225" lon="2.29438">
        <ele>91.9</ele>
        <time>2015-01-05T20:47:06.596Z</time>
      </trkpt>
      <trkpt lat="48.84218" lon="2.29442">
        <ele>91.6</ele>
        <time>2015-01-05T20:47:08.577Z</time>
      </trkpt>
      <trkpt lat="48.84215" lon="2.29446">
        <ele>91.8</ele>
        <time>2015-01-05T20:47:09.604Z</time>
      </trkpt>
      <trkpt lat="48.84211" lon="2.2945">
        <ele>91.8</ele>
        <time>2015-01-05T20:47:10.621Z</time>
      </trkpt>
      <trkpt lat="48.84208" lon="2.29455">
        <ele>91.7</ele>
        <time>2015-01-05T20:47:11.637Z</time>
      </trkpt>
      <trkpt lat="48.84202" lon="2.29463">
        <ele>91.3</ele>
        <time>2015-01-05T20:47:13.558Z</time>
      </trkpt>
      <trkpt lat="48.84199" lon="2.29467">
        <ele>91.2</ele>
        <time>2015-01-05T20:47:14.677Z</time>
      </trkpt>
      <trkpt lat="48.84192" lon="2.29474">
        <ele>91.2</ele>
        <time>2015-01-05T20:47:16.540Z</time>
      </trkpt>
      <trkpt lat="48.84188" lon="2.29478">
        <ele>91.5</ele>
        <time>2015-01-05T20:47:17.684Z</time>
      </trkpt>
      <trkpt lat="48.84185" lon="2.29482">
        <ele>92.6</ele>
        <time>2015-01-05T20:47:18.560Z</time>
      </trkpt>
      <trkpt lat="48.8418" lon="2.29485">
        <ele>93.1</ele>
        <time>2015-01-05T20:47:19.557Z</time>
      </trkpt>
      <trkpt lat="48.84176" lon="2.29488">
        <ele>93.7</ele>
        <time>2015-01-05T20:47:20.590Z</time>
      </trkpt>
      <trkpt lat="48.84172" lon="2.29491">
        <ele>94.1</ele>
        <time>2015-01-05T20:47:21.604Z</time>
      </trkpt>
      <trkpt lat="48.84165" lon="2.29499">
        <ele>94.4</ele>
        <time>2015-01-05T20:47:23.639Z</time>
      </trkpt>
      <trkpt lat="48.84161" lon="2.29502">
        <ele>94.1</ele>
        <time>2015-01-05T20:47:24.657Z</time>
      </trkpt>
      <trkpt lat="48.84155" lon="2.29505">
        <ele>93.9</ele>
        <time>2015-01-05T20:47:26.591Z</time>
      </trkpt>
      <trkpt lat="48.84151" lon="2.29507">
        <ele>93.6</ele>
        <time>2015-01-05T20:47:27.612Z</time>
      </trkpt>
      <trkpt lat="48.84143" lon="2.2951">
        <ele>92.8</ele>
        <time>2015-01-05T20:47:29.563Z</time>
      </trkpt>
      <trkpt lat="48.8414" lon="2.29511">
        <ele>92.5</ele>
        <time>2015-01-05T20:47:30.597Z</time>
      </trkpt>
      <trkpt lat="48.84132" lon="2.29513">
        <ele>91.6</ele>
        <time>2015-01-05T20:47:32.984Z</time>
      </trkpt>
      <trkpt lat="48.84128" lon="2.29516">
        <ele>91.4</ele>
        <time>2015-01-05T20:47:33.636Z</time>
      </trkpt>
      <trkpt lat="48.84123" lon="2.29519">
        <ele>91.5</ele>
        <time>2015-01-05T20:47:34.515Z</time>
      </trkpt>
      <trkpt lat="48.84119" lon="2.29522">
        <ele>91.6</ele>
        <time>2015-01-05T20:47:35.535Z</time>
      </trkpt>
      <trkpt lat="48.84112" lon="2.29528">
        <ele>91.4</ele>
        <time>2015-01-05T20:47:38.138Z</time>
      </trkpt>
      <trkpt lat="48.84108" lon="2.2953">
        <ele>91.3</ele>
        <time>2015-01-05T20:47:38.606Z</time>
      </trkpt>
      <trkpt lat="48.84102" lon="2.29538">
        <ele>91.2</ele>
        <time>2015-01-05T20:47:40.524Z</time>
      </trkpt>
      <trkpt lat="48.84098" lon="2.29541">
        <ele>91.2</ele>
        <time>2015-01-05T20:47:41.548Z</time>
      </trkpt>
      <trkpt lat="48.84091" lon="2.29547">
        <ele>90.9</ele>
        <time>2015-01-05T20:47:43.598Z</time>
      </trkpt>
      <trkpt lat="48.84087" lon="2.29549">
        <ele>90.9</ele>
        <time>2015-01-05T20:47:44.615Z</time>
      </trkpt>
      <trkpt lat="48.84082" lon="2.29555">
        <ele>90.7</ele>
        <time>2015-01-05T20:47:46.548Z</time>
      </trkpt>
      <trkpt lat="48.84078" lon="2.29559">
        <ele>90.4</ele>
        <time>2015-01-05T20:47:47.554Z</time>
      </trkpt>
      <trkpt lat="48.84073" lon="2.29564">
        <ele>89.7</ele>
        <time>2015-01-05T20:47:48.550Z</time>
      </trkpt>
      <trkpt lat="48.8407" lon="2.29567">
        <ele>89.5</ele>
        <time>2015-01-05T20:47:49.574Z</time>
      </trkpt>
      <trkpt lat="48.84064" lon="2.29573">
        <ele>89.2</ele>
        <time>2015-01-05T20:47:51.613Z</time>
      </trkpt>
      <trkpt lat="48.84061" lon="2.29576">
        <ele>89.6</ele>
        <time>2015-01-05T20:47:52.618Z</time>
      </trkpt>
      <trkpt lat="48.84055" lon="2.29584">
        <ele>90.5</ele>
        <time>2015-01-05T20:47:55.650Z</time>
      </trkpt>
      <trkpt lat="48.84053" lon="2.29585">
        <ele>90.8</ele>
        <time>2015-01-05T20:47:56.668Z</time>
      </trkpt>
      <trkpt lat="48.84045" lon="2.29587">
        <ele>91.3</ele>
        <time>2015-01-05T20:48:00.620Z</time>
      </trkpt>
      <trkpt lat="48.84042" lon="2.29588">
        <ele>91.2</ele>
        <time>2015-01-05T20:48:01.630Z</time>
      </trkpt>
      <trkpt lat="48.84036" lon="2.2959">
        <ele>91.3</ele>
        <time>2015-01-05T20:48:03.760Z</time>
      </trkpt>
      <trkpt lat="48.84033" lon="2.29592">
        <ele>91.2</ele>
        <time>2015-01-05T20:48:04.653Z</time>
      </trkpt>
      <trkpt lat="48.84025" lon="2.29598">
        <ele>90.8</ele>
        <time>2015-01-05T20:48:07.590Z</time>
      </trkpt>
      <trkpt lat="48.84021" lon="2.29601">
        <ele>91.1</ele>
        <time>2015-01-05T20:48:08.610Z</time>
      </trkpt>
      <trkpt lat="48.84016" lon="2.29605">
        <ele>90.4</ele>
        <time>2015-01-05T20:48:10.642Z</time>
      </trkpt>
      <trkpt lat="48.84013" lon="2.29608">
        <ele>90.5</ele>
        <time>2015-01-05T20:48:11.651Z</time>
      </trkpt>
      <trkpt lat="48.84009" lon="2.29616">
        <ele>90.6</ele>
        <time>2015-01-05T20:48:14.601Z</time>
      </trkpt>
      <trkpt lat="48.84008" lon="2.2962">
        <ele>90.9</ele>
        <time>2015-01-05T20:48:15.604Z</time>
      </trkpt>
      <trkpt lat="48.84005" lon="2.2963">
        <ele>91.9</ele>
        <time>2015-01-05T20:48:17.606Z</time>
      </trkpt>
      <trkpt lat="48.84002" lon="2.29632">
        <ele>92.1</ele>
        <time>2015-01-05T20:48:18.632Z</time>
      </trkpt>
      <trkpt lat="48.83997" lon="2.29639">
        <ele>92.5</ele>
        <time>2015-01-05T20:48:20.605Z</time>
      </trkpt>
      <trkpt lat="48.83995" lon="2.29646">
        <ele>92.9</ele>
        <time>2015-01-05T20:48:21.598Z</time>
      </trkpt>
      <trkpt lat="48.83989" lon="2.29654">
        <ele>93.5</ele>
        <time>2015-01-05T20:48:24.114Z</time>
      </trkpt>
      <trkpt lat="48.83986" lon="2.29658">
        <ele>93.8</ele>
        <time>2015-01-05T20:48:24.671Z</time>
      </trkpt>
      <trkpt lat="48.8398" lon="2.29661">
        <ele>93.6</ele>
        <time>2015-01-05T20:48:26.595Z</time>
      </trkpt>
      <trkpt lat="48.83974" lon="2.29656">
        <ele>94.2</ele>
        <time>2015-01-05T20:48:27.607Z</time>
      </trkpt>
      <trkpt lat="48.83967" lon="2.29664">
        <ele>94.6</ele>
        <time>2015-01-05T20:48:30.591Z</time>
      </trkpt>
      <trkpt lat="48.83965" lon="2.29665">
        <ele>94.6</ele>
        <time>2015-01-05T20:48:31.611Z</time>
      </trkpt>
      <trkpt lat="48.83959" lon="2.2967">
        <ele>95.9</ele>
        <time>2015-01-05T20:48:33.636Z</time>
      </trkpt>
      <trkpt lat="48.83955" lon="2.29675">
        <ele>97</ele>
        <time>2015-01-05T20:48:34.769Z</time>
      </trkpt>
      <trkpt lat="48.83952" lon="2.29679">
        <ele>97.5</ele>
        <time>2015-01-05T20:48:35.583Z</time>
      </trkpt>
      <trkpt lat="48.83948" lon="2.29685">
        <ele>98</ele>
        <time>2015-01-05T20:48:36.602Z</time>
      </trkpt>
      <trkpt lat="48.83946" lon="2.2969">
        <ele>98.5</ele>
        <time>2015-01-05T20:48:38.373Z</time>
      </trkpt>
      <trkpt lat="48.83943" lon="2.29698">
        <ele>98.6</ele>
        <time>2015-01-05T20:48:38.612Z</time>
      </trkpt>
      <trkpt lat="48.83938" lon="2.29708">
        <ele>98.9</ele>
        <time>2015-01-05T20:48:40.637Z</time>
      </trkpt>
      <trkpt lat="48.83936" lon="2.29712">
        <ele>99.1</ele>
        <time>2015-01-05T20:48:41.656Z</time>
      </trkpt>
      <trkpt lat="48.8393" lon="2.29721">
        <ele>99.8</ele>
        <time>2015-01-05T20:48:43.565Z</time>
      </trkpt>
      <trkpt lat="48.83927" lon="2.29725">
        <ele>100.2</ele>
        <time>2015-01-05T20:48:44.657Z</time>
      </trkpt>
      <trkpt lat="48.83919" lon="2.2973">
        <ele>100.8</ele>
        <time>2015-01-05T20:48:48.559Z</time>
      </trkpt>
      <trkpt lat="48.83915" lon="2.29733">
        <ele>101.2</ele>
        <time>2015-01-05T20:48:48.616Z</time>
      </trkpt>
      <trkpt lat="48.83908" lon="2.29738">
        <ele>101.6</ele>
        <time>2015-01-05T20:48:50.609Z</time>
      </trkpt>
      <trkpt lat="48.83906" lon="2.29741">
        <ele>102</ele>
        <time>2015-01-05T20:48:51.671Z</time>
      </trkpt>
      <trkpt lat="48.83902" lon="2.29749">
        <ele>102.9</ele>
        <time>2015-01-05T20:48:53.628Z</time>
      </trkpt>
      <trkpt lat="48.83899" lon="2.29752">
        <ele>103.4</ele>
        <time>2015-01-05T20:48:54.592Z</time>
      </trkpt>
      <trkpt lat="48.83894" lon="2.29762">
        <ele>103.8</ele>
        <time>2015-01-05T20:48:56.630Z</time>
      </trkpt>
      <trkpt lat="48.83892" lon="2.29767">
        <ele>104</ele>
        <time>2015-01-05T20:48:57.646Z</time>
      </trkpt>
      <trkpt lat="48.83887" lon="2.29772">
        <ele>104.3</ele>
        <time>2015-01-05T20:48:59.572Z</time>
      </trkpt>
      <trkpt lat="48.83884" lon="2.29775">
        <ele>104.5</ele>
        <time>2015-01-05T20:49:00.576Z</time>
      </trkpt>
      <trkpt lat="48.83877" lon="2.29783">
        <ele>104.4</ele>
        <time>2015-01-05T20:49:02.640Z</time>
      </trkpt>
      <trkpt lat="48.83875" lon="2.29787">
        <ele>104.6</ele>
        <time>2015-01-05T20:49:03.671Z</time>
      </trkpt>
      <trkpt lat="48.83871" lon="2.29795">
        <ele>104.8</ele>
        <time>2015-01-05T20:49:05.638Z</time>
      </trkpt>
      <trkpt lat="48.83868" lon="2.29799">
        <ele>104.9</ele>
        <time>2015-01-05T20:49:06.599Z</time>
      </trkpt>
      <trkpt lat="48.83864" lon="2.29809">
        <ele>104.8</ele>
        <time>2015-01-05T20:49:09.046Z</time>
      </trkpt>
      <trkpt lat="48.83862" lon="2.29813">
        <ele>104.7</ele>
        <time>2015-01-05T20:49:09.572Z</time>
      </trkpt>
      <trkpt lat="48.83856" lon="2.29822">
        <ele>104.6</ele>
        <time>2015-01-05T20:49:12.617Z</time>
      </trkpt>
      <trkpt lat="48.83853" lon="2.29824">
        <ele>104.5</ele>
        <time>2015-01-05T20:49:13.622Z</time>
      </trkpt>
      <trkpt lat="48.83846" lon="2.29832">
        <ele>105.1</ele>
        <time>2015-01-05T20:49:15.667Z</time>
      </trkpt>
      <trkpt lat="48.83844" lon="2.29837">
        <ele>105.6</ele>
        <time>2015-01-05T20:49:16.691Z</time>
      </trkpt>
      <trkpt lat="48.8384" lon="2.29846">
        <ele>106.9</ele>
        <time>2015-01-05T20:49:19.180Z</time>
      </trkpt>
      <trkpt lat="48.83837" lon="2.2985">
        <ele>107.7</ele>
        <time>2015-01-05T20:49:19.608Z</time>
      </trkpt>
      <trkpt lat="48.83832" lon="2.29852">
        <ele>108.8</ele>
        <time>2015-01-05T20:49:22.737Z</time>
      </trkpt>
      <trkpt lat="48.83833" lon="2.29853">
        <ele>108.2</ele>
        <time>2015-01-05T20:49:23.618Z</time>
      </trkpt>
      <trkpt lat="48.83834" lon="2.29853">
        <ele>107.7</ele>
        <time>2015-01-05T20:49:33.647Z</time>
      </trkpt>
      <trkpt lat="48.83836" lon="2.29848">
        <ele>110.3</ele>
        <time>2015-01-05T20:49:34.667Z</time>
      </trkpt>
      <trkpt lat="48.83841" lon="2.29858">
        <ele>109</ele>
        <time>2015-01-05T20:49:58.617Z</time>
      </trkpt>
      <trkpt lat="48.83838" lon="2.29861">
        <ele>109.1</ele>
        <time>2015-01-05T20:49:59.603Z</time>
      </trkpt>
      <trkpt lat="48.83832" lon="2.29864">
        <ele>109.1</ele>
        <time>2015-01-05T20:50:01.642Z</time>
      </trkpt>
      <trkpt lat="48.83828" lon="2.29866">
        <ele>109</ele>
        <time>2015-01-05T20:50:02.698Z</time>
      </trkpt>
      <trkpt lat="48.83822" lon="2.29873">
        <ele>108.9</ele>
        <time>2015-01-05T20:50:04.578Z</time>
      </trkpt>
      <trkpt lat="48.83819" lon="2.29878">
        <ele>108.8</ele>
        <time>2015-01-05T20:50:05.602Z</time>
      </trkpt>
      <trkpt lat="48.83815" lon="2.29886">
        <ele>109.4</ele>
        <time>2015-01-05T20:50:08.545Z</time>
      </trkpt>
      <trkpt lat="48.83812" lon="2.2989">
        <ele>109.7</ele>
        <time>2015-01-05T20:50:08.626Z</time>
      </trkpt>
      <trkpt lat="48.83807" lon="2.29894">
        <ele>109.9</ele>
        <time>2015-01-05T20:50:09.651Z</time>
      </trkpt>
      <trkpt lat="48.83804" lon="2.299">
        <ele>110</ele>
        <time>2015-01-05T20:50:10.746Z</time>
      </trkpt>
      <trkpt lat="48.838" lon="2.29909">
        <ele>110.4</ele>
        <time>2015-01-05T20:50:12.574Z</time>
      </trkpt>
      <trkpt lat="48.83797" lon="2.29911">
        <ele>110.8</ele>
        <time>2015-01-05T20:50:13.633Z</time>
      </trkpt>
      <trkpt lat="48.83792" lon="2.29914">
        <ele>111.3</ele>
        <time>2015-01-05T20:50:15.575Z</time>
      </trkpt>
      <trkpt lat="48.83788" lon="2.29917">
        <ele>111.5</ele>
        <time>2015-01-05T20:50:16.608Z</time>
      </trkpt>
      <trkpt lat="48.83783" lon="2.29924">
        <ele>111.8</ele>
        <time>2015-01-05T20:50:18.781Z</time>
      </trkpt>
      <trkpt lat="48.83779" lon="2.29928">
        <ele>112</ele>
        <time>2015-01-05T20:50:19.676Z</time>
      </trkpt>
      <trkpt lat="48.83775" lon="2.29934">
        <ele>112.1</ele>
        <time>2015-01-05T20:50:20.617Z</time>
      </trkpt>
      <trkpt lat="48.83772" lon="2.29937">
        <ele>112.3</ele>
        <time>2015-01-05T20:50:21.612Z</time>
      </trkpt>
      <trkpt lat="48.83766" lon="2.29946">
        <ele>113.1</ele>
        <time>2015-01-05T20:50:23.883Z</time>
      </trkpt>
      <trkpt lat="48.83763" lon="2.2995">
        <ele>113.5</ele>
        <time>2015-01-05T20:50:24.635Z</time>
      </trkpt>
      <trkpt lat="48.83757" lon="2.29959">
        <ele>114.2</ele>
        <time>2015-01-05T20:50:26.638Z</time>
      </trkpt>
      <trkpt lat="48.83754" lon="2.29962">
        <ele>114.4</ele>
        <time>2015-01-05T20:50:27.578Z</time>
      </trkpt>
      <trkpt lat="48.83747" lon="2.29968">
        <ele>114.4</ele>
        <time>2015-01-05T20:50:29.625Z</time>
      </trkpt>
      <trkpt lat="48.83744" lon="2.29972">
        <ele>114.5</ele>
        <time>2015-01-05T20:50:30.629Z</time>
      </trkpt>
      <trkpt lat="48.83738" lon="2.29979">
        <ele>114.6</ele>
        <time>2015-01-05T20:50:32.956Z</time>
      </trkpt>
      <trkpt lat="48.83735" lon="2.29984">
        <ele>114.7</ele>
        <time>2015-01-05T20:50:33.656Z</time>
      </trkpt>
      <trkpt lat="48.8373" lon="2.29994">
        <ele>114.9</ele>
        <time>2015-01-05T20:50:35.606Z</time>
      </trkpt>
      <trkpt lat="48.83726" lon="2.29999">
        <ele>114.7</ele>
        <time>2015-01-05T20:50:36.655Z</time>
      </trkpt>
      <trkpt lat="48.83722" lon="2.30006">
        <ele>114.7</ele>
        <time>2015-01-05T20:50:38.010Z</time>
      </trkpt>
      <trkpt lat="48.83719" lon="2.30012">
        <ele>114.6</ele>
        <time>2015-01-05T20:50:38.691Z</time>
      </trkpt>
      <trkpt lat="48.83717" lon="2.30017">
        <ele>114.3</ele>
        <time>2015-01-05T20:50:39.607Z</time>
      </trkpt>
      <trkpt lat="48.83714" lon="2.30024">
        <ele>114.6</ele>
        <time>2015-01-05T20:50:40.608Z</time>
      </trkpt>
      <trkpt lat="48.8371" lon="2.30033">
        <ele>114.1</ele>
        <time>2015-01-05T20:50:43.646Z</time>
      </trkpt>
      <trkpt lat="48.83708" lon="2.30035">
        <ele>113.9</ele>
        <time>2015-01-05T20:50:44.698Z</time>
      </trkpt>
      <trkpt lat="48.83702" lon="2.30043">
        <ele>114.9</ele>
        <time>2015-01-05T20:50:48.628Z</time>
      </trkpt>
      <trkpt lat="48.83699" lon="2.30046">
        <ele>115</ele>
        <time>2015-01-05T20:50:49.642Z</time>
      </trkpt>
      <trkpt lat="48.83695" lon="2.30054">
        <ele>115.4</ele>
        <time>2015-01-05T20:50:51.587Z</time>
      </trkpt>
      <trkpt lat="48.83694" lon="2.30058">
        <ele>115.3</ele>
        <time>2015-01-05T20:50:52.597Z</time>
      </trkpt>
      <trkpt lat="48.83689" lon="2.30065">
        <ele>115.1</ele>
        <time>2015-01-05T20:50:54.623Z</time>
      </trkpt>
      <trkpt lat="48.83686" lon="2.30068">
        <ele>114.8</ele>
        <time>2015-01-05T20:50:55.592Z</time>
      </trkpt>
      <trkpt lat="48.8368" lon="2.30067">
        <ele>114.1</ele>
        <time>2015-01-05T20:50:59.580Z</time>
      </trkpt>
      <trkpt lat="48.83677" lon="2.30069">
        <ele>113.9</ele>
        <time>2015-01-05T20:51:00.600Z</time>
      </trkpt>
      <trkpt lat="48.83671" lon="2.3007">
        <ele>113.6</ele>
        <time>2015-01-05T20:51:03.525Z</time>
      </trkpt>
      <trkpt lat="48.83669" lon="2.30074">
        <ele>113.6</ele>
        <time>2015-01-05T20:51:04.530Z</time>
      </trkpt>
      <trkpt lat="48.83666" lon="2.30087">
        <ele>113.3</ele>
        <time>2015-01-05T20:51:06.573Z</time>
      </trkpt>
      <trkpt lat="48.83661" lon="2.30103">
        <ele>113.9</ele>
        <time>2015-01-05T20:51:08.776Z</time>
      </trkpt>
      <trkpt lat="48.83658" lon="2.30113">
        <ele>114.1</ele>
        <time>2015-01-05T20:51:10.603Z</time>
      </trkpt>
      <trkpt lat="48.83656" lon="2.30119">
        <ele>113.9</ele>
        <time>2015-01-05T20:51:11.620Z</time>
      </trkpt>
      <trkpt lat="48.83653" lon="2.30124">
        <ele>113.8</ele>
        <time>2015-01-05T20:51:12.544Z</time>
      </trkpt>
      <trkpt lat="48.83649" lon="2.30132">
        <ele>114.3</ele>
        <time>2015-01-05T20:51:13.557Z</time>
      </trkpt>
      <trkpt lat="48.83643" lon="2.30141">
        <ele>115.1</ele>
        <time>2015-01-05T20:51:14.561Z</time>
      </trkpt>
      <trkpt lat="48.83637" lon="2.30149">
        <ele>115.7</ele>
        <time>2015-01-05T20:51:15.568Z</time>
      </trkpt>
      <trkpt lat="48.83631" lon="2.30158">
        <ele>116.6</ele>
        <time>2015-01-05T20:51:16.582Z</time>
      </trkpt>
      <trkpt lat="48.83622" lon="2.3017">
        <ele>117.6</ele>
        <time>2015-01-05T20:51:17.587Z</time>
      </trkpt>
      <trkpt lat="48.83617" lon="2.30179">
        <ele>118.6</ele>
        <time>2015-01-05T20:51:18.884Z</time>
      </trkpt>
      <trkpt lat="48.83612" lon="2.30186">
        <ele>119.6</ele>
        <time>2015-01-05T20:51:19.602Z</time>
      </trkpt>
      <trkpt lat="48.83608" lon="2.30191">
        <ele>120.5</ele>
        <time>2015-01-05T20:51:20.597Z</time>
      </trkpt>
      <trkpt lat="48.83604" lon="2.30196">
        <ele>121.3</ele>
        <time>2015-01-05T20:51:21.611Z</time>
      </trkpt>
      <trkpt lat="48.83597" lon="2.30203">
        <ele>123.2</ele>
        <time>2015-01-05T20:51:23.543Z</time>
      </trkpt>
      <trkpt lat="48.83595" lon="2.30204">
        <ele>124.1</ele>
        <time>2015-01-05T20:51:24.632Z</time>
      </trkpt>
      <trkpt lat="48.83591" lon="2.30208">
        <ele>128.9</ele>
        <time>2015-01-05T20:51:30.623Z</time>
      </trkpt>
      <trkpt lat="48.83586" lon="2.30208">
        <ele>128.2</ele>
        <time>2015-01-05T20:51:31.680Z</time>
      </trkpt>
      <trkpt lat="48.83577" lon="2.30206">
        <ele>127.4</ele>
        <time>2015-01-05T20:51:33.590Z</time>
      </trkpt>
      <trkpt lat="48.83574" lon="2.30206">
        <ele>126.7</ele>
        <time>2015-01-05T20:51:34.599Z</time>
      </trkpt>
      <trkpt lat="48.8357" lon="2.30213">
        <ele>124.9</ele>
        <time>2015-01-05T20:51:36.532Z</time>
      </trkpt>
      <trkpt lat="48.83568" lon="2.30218">
        <ele>123.7</ele>
        <time>2015-01-05T20:51:37.561Z</time>
      </trkpt>
      <trkpt lat="48.83566" lon="2.30223">
        <ele>122.9</ele>
        <time>2015-01-05T20:51:38.590Z</time>
      </trkpt>
      <trkpt lat="48.83567" lon="2.30232">
        <ele>120.3</ele>
        <time>2015-01-05T20:51:39.598Z</time>
      </trkpt>
      <trkpt lat="48.83568" lon="2.30242">
        <ele>117.5</ele>
        <time>2015-01-05T20:51:40.620Z</time>
      </trkpt>
      <trkpt lat="48.83568" lon="2.30248">
        <ele>116.3</ele>
        <time>2015-01-05T20:51:41.629Z</time>
      </trkpt>
      <trkpt lat="48.83561" lon="2.30256">
        <ele>116</ele>
        <time>2015-01-05T20:51:43.557Z</time>
      </trkpt>
      <trkpt lat="48.83558" lon="2.30265">
        <ele>117.2</ele>
        <time>2015-01-05T20:51:44.592Z</time>
      </trkpt>
      <trkpt lat="48.83554" lon="2.3027">
        <ele>118.7</ele>
        <time>2015-01-05T20:52:25.541Z</time>
      </trkpt>
      <trkpt lat="48.83552" lon="2.30279">
        <ele>120.8</ele>
        <time>2015-01-05T20:52:26.621Z</time>
      </trkpt>
      <trkpt lat="48.83547" lon="2.3028">
        <ele>117.9</ele>
        <time>2015-01-05T20:52:44.606Z</time>
      </trkpt>
      <trkpt lat="48.83532" lon="2.30269">
        <ele>113.7</ele>
        <time>2015-01-05T20:52:45.610Z</time>
      </trkpt>
      <trkpt lat="48.83524" lon="2.30273">
        <ele>113.9</ele>
        <time>2015-01-05T20:52:50.680Z</time>
      </trkpt>
      <trkpt lat="48.83522" lon="2.30273">
        <ele>114.1</ele>
        <time>2015-01-05T20:52:51.656Z</time>
      </trkpt>
      <trkpt lat="48.83516" lon="2.30273">
        <ele>114.2</ele>
        <time>2015-01-05T20:52:53.613Z</time>
      </trkpt>
      <trkpt lat="48.83513" lon="2.30271">
        <ele>114</ele>
        <time>2015-01-05T20:52:54.647Z</time>
      </trkpt>
      <trkpt lat="48.83506" lon="2.30267">
        <ele>113.4</ele>
        <time>2015-01-05T20:52:56.604Z</time>
      </trkpt>
      <trkpt lat="48.83502" lon="2.30263">
        <ele>113.5</ele>
        <time>2015-01-05T20:52:57.608Z</time>
      </trkpt>
      <trkpt lat="48.83493" lon="2.30253">
        <ele>113.5</ele>
        <time>2015-01-05T20:53:00.530Z</time>
      </trkpt>
      <trkpt lat="48.83486" lon="2.30247">
        <ele>113.7</ele>
        <time>2015-01-05T20:53:02.562Z</time>
      </trkpt>
      <trkpt lat="48.83482" lon="2.30243">
        <ele>113.8</ele>
        <time>2015-01-05T20:53:03.569Z</time>
      </trkpt>
      <trkpt lat="48.83475" lon="2.30238">
        <ele>113.9</ele>
        <time>2015-01-05T20:53:05.596Z</time>
      </trkpt>
      <trkpt lat="48.83471" lon="2.30237">
        <ele>113.9</ele>
        <time>2015-01-05T20:53:06.592Z</time>
      </trkpt>
      <trkpt lat="48.83463" lon="2.30232">
        <ele>114.3</ele>
        <time>2015-01-05T20:53:08.631Z</time>
      </trkpt>
      <trkpt lat="48.83458" lon="2.30228">
        <ele>114.6</ele>
        <time>2015-01-05T20:53:09.612Z</time>
      </trkpt>
      <trkpt lat="48.83453" lon="2.30225">
        <ele>114.8</ele>
        <time>2015-01-05T20:53:10.530Z</time>
      </trkpt>
      <trkpt lat="48.83445" lon="2.30217">
        <ele>115.4</ele>
        <time>2015-01-05T20:53:11.553Z</time>
      </trkpt>
      <trkpt lat="48.8344" lon="2.30213">
        <ele>115.6</ele>
        <time>2015-01-05T20:53:12.651Z</time>
      </trkpt>
      <trkpt lat="48.83434" lon="2.30208">
        <ele>115.8</ele>
        <time>2015-01-05T20:53:13.570Z</time>
      </trkpt>
      <trkpt lat="48.83428" lon="2.30204">
        <ele>116</ele>
        <time>2015-01-05T20:53:14.585Z</time>
      </trkpt>
      <trkpt lat="48.83422" lon="2.302">
        <ele>116.3</ele>
        <time>2015-01-05T20:53:15.613Z</time>
      </trkpt>
      <trkpt lat="48.83418" lon="2.30195">
        <ele>116.9</ele>
        <time>2015-01-05T20:53:16.556Z</time>
      </trkpt>
      <trkpt lat="48.83413" lon="2.30191">
        <ele>117.6</ele>
        <time>2015-01-05T20:53:17.558Z</time>
      </trkpt>
      <trkpt lat="48.83407" lon="2.30187">
        <ele>117.5</ele>
        <time>2015-01-05T20:53:18.563Z</time>
      </trkpt>
      <trkpt lat="48.83402" lon="2.30185">
        <ele>117.4</ele>
        <time>2015-01-05T20:53:19.575Z</time>
      </trkpt>
      <trkpt lat="48.83398" lon="2.30182">
        <ele>117.4</ele>
        <time>2015-01-05T20:53:20.592Z</time>
      </trkpt>
      <trkpt lat="48.83393" lon="2.30176">
        <ele>118</ele>
        <time>2015-01-05T20:53:21.599Z</time>
      </trkpt>
      <trkpt lat="48.83386" lon="2.30168">
        <ele>119</ele>
        <time>2015-01-05T20:53:22.605Z</time>
      </trkpt>
      <trkpt lat="48.8338" lon="2.30165">
        <ele>119.3</ele>
        <time>2015-01-05T20:53:23.630Z</time>
      </trkpt>
      <trkpt lat="48.83374" lon="2.30163">
        <ele>119.6</ele>
        <time>2015-01-05T20:53:24.645Z</time>
      </trkpt>
      <trkpt lat="48.83368" lon="2.30158">
        <ele>119.7</ele>
        <time>2015-01-05T20:53:25.552Z</time>
      </trkpt>
      <trkpt lat="48.83363" lon="2.30154">
        <ele>119.9</ele>
        <time>2015-01-05T20:53:26.656Z</time>
      </trkpt>
      <trkpt lat="48.83357" lon="2.30147">
        <ele>120.8</ele>
        <time>2015-01-05T20:53:27.587Z</time>
      </trkpt>
      <trkpt lat="48.83351" lon="2.30141">
        <ele>121.7</ele>
        <time>2015-01-05T20:53:28.620Z</time>
      </trkpt>
      <trkpt lat="48.83346" lon="2.30138">
        <ele>122</ele>
        <time>2015-01-05T20:53:29.636Z</time>
      </trkpt>
      <trkpt lat="48.83341" lon="2.30136">
        <ele>122.3</ele>
        <time>2015-01-05T20:53:30.561Z</time>
      </trkpt>
      <trkpt lat="48.83336" lon="2.30135">
        <ele>122.6</ele>
        <time>2015-01-05T20:53:31.562Z</time>
      </trkpt>
      <trkpt lat="48.83331" lon="2.30132">
        <ele>122.9</ele>
        <time>2015-01-05T20:53:32.620Z</time>
      </trkpt>
      <trkpt lat="48.83325" lon="2.30128">
        <ele>123.5</ele>
        <time>2015-01-05T20:53:33.677Z</time>
      </trkpt>
      <trkpt lat="48.8332" lon="2.30125">
        <ele>124.4</ele>
        <time>2015-01-05T20:53:34.917Z</time>
      </trkpt>
      <trkpt lat="48.83316" lon="2.30122">
        <ele>125</ele>
        <time>2015-01-05T20:53:35.546Z</time>
      </trkpt>
      <trkpt lat="48.83307" lon="2.3012">
        <ele>125.5</ele>
        <time>2015-01-05T20:53:37.570Z</time>
      </trkpt>
      <trkpt lat="48.83303" lon="2.30117">
        <ele>125.4</ele>
        <time>2015-01-05T20:53:38.585Z</time>
      </trkpt>
      <trkpt lat="48.83297" lon="2.30109">
        <ele>125.4</ele>
        <time>2015-01-05T20:53:40.549Z</time>
      </trkpt>
      <trkpt lat="48.83296" lon="2.30103">
        <ele>125.2</ele>
        <time>2015-01-05T20:53:41.558Z</time>
      </trkpt>
      <trkpt lat="48.83294" lon="2.30093">
        <ele>125.6</ele>
        <time>2015-01-05T20:53:43.593Z</time>
      </trkpt>
      <trkpt lat="48.83292" lon="2.3009">
        <ele>125.5</ele>
        <time>2015-01-05T20:53:44.609Z</time>
      </trkpt>
      <trkpt lat="48.83291" lon="2.30088">
        <ele>125.4</ele>
        <time>2015-01-05T20:54:49.569Z</time>
      </trkpt>
      <trkpt lat="48.83295" lon="2.30113">
        <ele>129.8</ele>
        <time>2015-01-05T20:54:50.632Z</time>
      </trkpt>
      <trkpt lat="48.83289" lon="2.30104">
        <ele>125.2</ele>
        <time>2015-01-05T20:54:53.578Z</time>
      </trkpt>
      <trkpt lat="48.83287" lon="2.30103">
        <ele>124.1</ele>
        <time>2015-01-05T20:54:54.611Z</time>
      </trkpt>
      <trkpt lat="48.83279" lon="2.30105">
        <ele>123.2</ele>
        <time>2015-01-05T20:54:57.672Z</time>
      </trkpt>
      <trkpt lat="48.83276" lon="2.30104">
        <ele>123</ele>
        <time>2015-01-05T20:54:58.690Z</time>
      </trkpt>
      <trkpt lat="48.83268" lon="2.30104">
        <ele>122.5</ele>
        <time>2015-01-05T20:55:01.650Z</time>
      </trkpt>
      <trkpt lat="48.83265" lon="2.30105">
        <ele>121</ele>
        <time>2015-01-05T20:55:02.671Z</time>
      </trkpt>
      <trkpt lat="48.83257" lon="2.30109">
        <ele>118.7</ele>
        <time>2015-01-05T20:55:05.579Z</time>
      </trkpt>
      <trkpt lat="48.83256" lon="2.3011">
        <ele>117.6</ele>
        <time>2015-01-05T20:55:06.601Z</time>
      </trkpt>
      <trkpt lat="48.83255" lon="2.30111">
        <ele>116.9</ele>
        <time>2015-01-05T20:55:11.613Z</time>
      </trkpt>
      <trkpt lat="48.83247" lon="2.30116">
        <ele>114.8</ele>
        <time>2015-01-05T20:55:12.624Z</time>
      </trkpt>
      <trkpt lat="48.83247" lon="2.30126">
        <ele>114.8</ele>
        <time>2015-01-05T20:55:15.645Z</time>
      </trkpt>
      <trkpt lat="48.83247" lon="2.3013">
        <ele>114.7</ele>
        <time>2015-01-05T20:55:16.555Z</time>
      </trkpt>
      <trkpt lat="48.83244" lon="2.30141">
        <ele>114.1</ele>
        <time>2015-01-05T20:55:20.616Z</time>
      </trkpt>
      <trkpt lat="48.83243" lon="2.30144">
        <ele>114.3</ele>
        <time>2015-01-05T20:55:21.542Z</time>
      </trkpt>
      <trkpt lat="48.8324" lon="2.30153">
        <ele>114.2</ele>
        <time>2015-01-05T20:55:24.686Z</time>
      </trkpt>
      <trkpt lat="48.8324" lon="2.30158">
        <ele>114</ele>
        <time>2015-01-05T20:55:25.635Z</time>
      </trkpt>
      <trkpt lat="48.83239" lon="2.30169">
        <ele>113.5</ele>
        <time>2015-01-05T20:55:28.576Z</time>
      </trkpt>
      <trkpt lat="48.83238" lon="2.30175">
        <ele>113.4</ele>
        <time>2015-01-05T20:55:29.573Z</time>
      </trkpt>
      <trkpt lat="48.83235" lon="2.30184">
        <ele>113.5</ele>
        <time>2015-01-05T20:55:31.602Z</time>
      </trkpt>
      <trkpt lat="48.83235" lon="2.30189">
        <ele>113.9</ele>
        <time>2015-01-05T20:55:32.620Z</time>
      </trkpt>
      <trkpt lat="48.83233" lon="2.30201">
        <ele>114.4</ele>
        <time>2015-01-05T20:55:34.638Z</time>
      </trkpt>
      <trkpt lat="48.83231" lon="2.30206">
        <ele>114.5</ele>
        <time>2015-01-05T20:55:35.650Z</time>
      </trkpt>
      <trkpt lat="48.83226" lon="2.30215">
        <ele>114.5</ele>
        <time>2015-01-05T20:55:38.674Z</time>
      </trkpt>
      <trkpt lat="48.83225" lon="2.30217">
        <ele>114.7</ele>
        <time>2015-01-05T20:55:39.576Z</time>
      </trkpt>
      <trkpt lat="48.83221" lon="2.30228">
        <ele>114.9</ele>
        <time>2015-01-05T20:55:42.601Z</time>
      </trkpt>
      <trkpt lat="48.83222" lon="2.30236">
        <ele>114.8</ele>
        <time>2015-01-05T20:55:43.616Z</time>
      </trkpt>
      <trkpt lat="48.83222" lon="2.30243">
        <ele>114.8</ele>
        <time>2015-01-05T20:55:44.659Z</time>
      </trkpt>
      <trkpt lat="48.83227" lon="2.30255">
        <ele>112.5</ele>
        <time>2015-01-05T20:55:45.539Z</time>
      </trkpt>
      <trkpt lat="48.83229" lon="2.30263">
        <ele>111.9</ele>
        <time>2015-01-05T20:55:53.581Z</time>
      </trkpt>
      <trkpt lat="48.83221" lon="2.30276">
        <ele>113.3</ele>
        <time>2015-01-05T20:55:54.616Z</time>
      </trkpt>
      <trkpt lat="48.8322" lon="2.30286">
        <ele>113.4</ele>
        <time>2015-01-05T20:55:56.674Z</time>
      </trkpt>
      <trkpt lat="48.83219" lon="2.3029">
        <ele>113.4</ele>
        <time>2015-01-05T20:55:57.568Z</time>
      </trkpt>
      <trkpt lat="48.83217" lon="2.30302">
        <ele>113.6</ele>
        <time>2015-01-05T20:55:59.623Z</time>
      </trkpt>
      <trkpt lat="48.83216" lon="2.30308">
        <ele>113.4</ele>
        <time>2015-01-05T20:56:00.534Z</time>
      </trkpt>
      <trkpt lat="48.83214" lon="2.30314">
        <ele>113.3</ele>
        <time>2015-01-05T20:56:01.781Z</time>
      </trkpt>
      <trkpt lat="48.83211" lon="2.30321">
        <ele>113.2</ele>
        <time>2015-01-05T20:56:02.652Z</time>
      </trkpt>
      <trkpt lat="48.8321" lon="2.3033">
        <ele>112.6</ele>
        <time>2015-01-05T20:56:03.625Z</time>
      </trkpt>
      <trkpt lat="48.83209" lon="2.30338">
        <ele>112.3</ele>
        <time>2015-01-05T20:56:04.627Z</time>
      </trkpt>
      <trkpt lat="48.83208" lon="2.30347">
        <ele>111.6</ele>
        <time>2015-01-05T20:56:05.539Z</time>
      </trkpt>
      <trkpt lat="48.83206" lon="2.30353">
        <ele>111.4</ele>
        <time>2015-01-05T20:56:06.539Z</time>
      </trkpt>
      <trkpt lat="48.83203" lon="2.30362">
        <ele>112</ele>
        <time>2015-01-05T20:56:08.589Z</time>
      </trkpt>
      <trkpt lat="48.83201" lon="2.30367">
        <ele>112.6</ele>
        <time>2015-01-05T20:56:09.599Z</time>
      </trkpt>
      <trkpt lat="48.83201" lon="2.30378">
        <ele>113.6</ele>
        <time>2015-01-05T20:56:12.633Z</time>
      </trkpt>
      <trkpt lat="48.83201" lon="2.30381">
        <ele>114.1</ele>
        <time>2015-01-05T20:56:13.562Z</time>
      </trkpt>
      <trkpt lat="48.83198" lon="2.30389">
        <ele>115.1</ele>
        <time>2015-01-05T20:56:15.599Z</time>
      </trkpt>
      <trkpt lat="48.83197" lon="2.30398">
        <ele>115.8</ele>
        <time>2015-01-05T20:56:16.606Z</time>
      </trkpt>
      <trkpt lat="48.83195" lon="2.30405">
        <ele>116.4</ele>
        <time>2015-01-05T20:56:17.630Z</time>
      </trkpt>
      <trkpt lat="48.83195" lon="2.30412">
        <ele>116.9</ele>
        <time>2015-01-05T20:56:18.550Z</time>
      </trkpt>
      <trkpt lat="48.83194" lon="2.30424">
        <ele>117.2</ele>
        <time>2015-01-05T20:56:20.585Z</time>
      </trkpt>
      <trkpt lat="48.83195" lon="2.30431">
        <ele>117.7</ele>
        <time>2015-01-05T20:56:21.592Z</time>
      </trkpt>
      <trkpt lat="48.83195" lon="2.30441">
        <ele>118.3</ele>
        <time>2015-01-05T20:56:23.632Z</time>
      </trkpt>
      <trkpt lat="48.83194" lon="2.30445">
        <ele>118.7</ele>
        <time>2015-01-05T20:56:24.639Z</time>
      </trkpt>
      <trkpt lat="48.83192" lon="2.30452">
        <ele>119</ele>
        <time>2015-01-05T20:56:26.597Z</time>
      </trkpt>
      <trkpt lat="48.83193" lon="2.30459">
        <ele>118.7</ele>
        <time>2015-01-05T20:56:27.611Z</time>
      </trkpt>
      <trkpt lat="48.83193" lon="2.30468">
        <ele>118.7</ele>
        <time>2015-01-05T20:56:28.619Z</time>
      </trkpt>
      <trkpt lat="48.83194" lon="2.30479">
        <ele>118.2</ele>
        <time>2015-01-05T20:56:29.625Z</time>
      </trkpt>
      <trkpt lat="48.83196" lon="2.30492">
        <ele>117.1</ele>
        <time>2015-01-05T20:56:30.548Z</time>
      </trkpt>
      <trkpt lat="48.83197" lon="2.30501">
        <ele>116.8</ele>
        <time>2015-01-05T20:56:31.547Z</time>
      </trkpt>
      <trkpt lat="48.83196" lon="2.30513">
        <ele>117.6</ele>
        <time>2015-01-05T20:56:33.615Z</time>
      </trkpt>
      <trkpt lat="48.83194" lon="2.30518">
        <ele>118.2</ele>
        <time>2015-01-05T20:56:34.631Z</time>
      </trkpt>
      <trkpt lat="48.83189" lon="2.30526">
        <ele>119.2</ele>
        <time>2015-01-05T20:56:37.564Z</time>
      </trkpt>
      <trkpt lat="48.83187" lon="2.30528">
        <ele>119.6</ele>
        <time>2015-01-05T20:56:38.602Z</time>
      </trkpt>
      <trkpt lat="48.83181" lon="2.30532">
        <ele>120.4</ele>
        <time>2015-01-05T20:56:40.640Z</time>
      </trkpt>
      <trkpt lat="48.83178" lon="2.30535">
        <ele>121</ele>
        <time>2015-01-05T20:56:41.610Z</time>
      </trkpt>
      <trkpt lat="48.83173" lon="2.30543">
        <ele>121.3</ele>
        <time>2015-01-05T20:56:43.556Z</time>
      </trkpt>
      <trkpt lat="48.83173" lon="2.30554">
        <ele>119.9</ele>
        <time>2015-01-05T20:56:44.612Z</time>
      </trkpt>
      <trkpt lat="48.83172" lon="2.30566">
        <ele>119.1</ele>
        <time>2015-01-05T20:56:45.571Z</time>
      </trkpt>
      <trkpt lat="48.83171" lon="2.30576">
        <ele>118.8</ele>
        <time>2015-01-05T20:56:46.579Z</time>
      </trkpt>
      <trkpt lat="48.83168" lon="2.30588">
        <ele>118.9</ele>
        <time>2015-01-05T20:56:48.607Z</time>
      </trkpt>
      <trkpt lat="48.83166" lon="2.30593">
        <ele>119.3</ele>
        <time>2015-01-05T20:56:49.640Z</time>
      </trkpt>
      <trkpt lat="48.83163" lon="2.30602">
        <ele>120.5</ele>
        <time>2015-01-05T20:56:51.535Z</time>
      </trkpt>
      <trkpt lat="48.83161" lon="2.30606">
        <ele>120.5</ele>
        <time>2015-01-05T20:56:52.601Z</time>
      </trkpt>
      <trkpt lat="48.83158" lon="2.30614">
        <ele>120.9</ele>
        <time>2015-01-05T20:56:54.613Z</time>
      </trkpt>
      <trkpt lat="48.83156" lon="2.30618">
        <ele>119.9</ele>
        <time>2015-01-05T20:56:55.614Z</time>
      </trkpt>
      <trkpt lat="48.83152" lon="2.30627">
        <ele>119.6</ele>
        <time>2015-01-05T20:56:58.577Z</time>
      </trkpt>
      <trkpt lat="48.8315" lon="2.30629">
        <ele>119.4</ele>
        <time>2015-01-05T20:56:59.582Z</time>
      </trkpt>
      <trkpt lat="48.83145" lon="2.3064">
        <ele>119.2</ele>
        <time>2015-01-05T20:57:03.557Z</time>
      </trkpt>
      <trkpt lat="48.83144" lon="2.30643">
        <ele>119</ele>
        <time>2015-01-05T20:57:04.563Z</time>
      </trkpt>
      <trkpt lat="48.83138" lon="2.30649">
        <ele>119.6</ele>
        <time>2015-01-05T20:57:07.619Z</time>
      </trkpt>
      <trkpt lat="48.83136" lon="2.30651">
        <ele>119.6</ele>
        <time>2015-01-05T20:57:08.602Z</time>
      </trkpt>
      <trkpt lat="48.83135" lon="2.30662">
        <ele>117.8</ele>
        <time>2015-01-05T20:57:10.614Z</time>
      </trkpt>
      <trkpt lat="48.83135" lon="2.30668">
        <ele>117.2</ele>
        <time>2015-01-05T20:57:11.625Z</time>
      </trkpt>
      <trkpt lat="48.83134" lon="2.3068">
        <ele>116.6</ele>
        <time>2015-01-05T20:58:05.570Z</time>
      </trkpt>
      <trkpt lat="48.83141" lon="2.30694">
        <ele>110</ele>
        <time>2015-01-05T20:58:06.581Z</time>
      </trkpt>
      <trkpt lat="48.83148" lon="2.30701">
        <ele>110.3</ele>
        <time>2015-01-05T20:58:09.619Z</time>
      </trkpt>
      <trkpt lat="48.83151" lon="2.30703">
        <ele>110.4</ele>
        <time>2015-01-05T20:58:10.634Z</time>
      </trkpt>
      <trkpt lat="48.83157" lon="2.30709">
        <ele>110.6</ele>
        <time>2015-01-05T20:58:12.546Z</time>
      </trkpt>
      <trkpt lat="48.8316" lon="2.30713">
        <ele>110.6</ele>
        <time>2015-01-05T20:58:13.578Z</time>
      </trkpt>
      <trkpt lat="48.83164" lon="2.30721">
        <ele>110.4</ele>
        <time>2015-01-05T20:58:15.623Z</time>
      </trkpt>
      <trkpt lat="48.83166" lon="2.30725">
        <ele>110.3</ele>
        <time>2015-01-05T20:58:16.558Z</time>
      </trkpt>
      <trkpt lat="48.83168" lon="2.30728">
        <ele>110.1</ele>
        <time>2015-01-05T20:58:17.568Z</time>
      </trkpt>
      <trkpt lat="48.83172" lon="2.30736">
        <ele>109.7</ele>
        <time>2015-01-05T20:58:19.516Z</time>
      </trkpt>
      <trkpt lat="48.83175" lon="2.30746">
        <ele>109.2</ele>
        <time>2015-01-05T20:58:21.572Z</time>
      </trkpt>
      <trkpt lat="48.83178" lon="2.30755">
        <ele>108.9</ele>
        <time>2015-01-05T20:58:23.645Z</time>
      </trkpt>
      <trkpt lat="48.83186" lon="2.30759">
        <ele>107.5</ele>
        <time>2015-01-05T20:58:25.570Z</time>
      </trkpt>
      <trkpt lat="48.83189" lon="2.30762">
        <ele>107.2</ele>
        <time>2015-01-05T20:58:26.565Z</time>
      </trkpt>
      <trkpt lat="48.83191" lon="2.30766">
        <ele>107</ele>
        <time>2015-01-05T20:58:27.578Z</time>
      </trkpt>
      <trkpt lat="48.83245" lon="2.3085">
        <ele>107.8</ele>
        <time>2015-01-05T20:58:46.508Z</time>
      </trkpt>
      <trkpt lat="48.83253" lon="2.30855">
        <ele>107.5</ele>
        <time>2015-01-05T20:58:48.560Z</time>
      </trkpt>
      <trkpt lat="48.83258" lon="2.30857">
        <ele>107.4</ele>
        <time>2015-01-05T20:58:49.541Z</time>
      </trkpt>
      <trkpt lat="48.83263" lon="2.30859">
        <ele>107.1</ele>
        <time>2015-01-05T20:58:50.566Z</time>
      </trkpt>
      <trkpt lat="48.83272" lon="2.30852">
        <ele>104.9</ele>
        <time>2015-01-05T20:58:51.599Z</time>
      </trkpt>
      <trkpt lat="48.83274" lon="2.30858">
        <ele>105</ele>
        <time>2015-01-05T20:58:52.531Z</time>
      </trkpt>
      <trkpt lat="48.83277" lon="2.30865">
        <ele>105.2</ele>
        <time>2015-01-05T20:58:53.547Z</time>
      </trkpt>
      <trkpt lat="48.8328" lon="2.30871">
        <ele>105.2</ele>
        <time>2015-01-05T20:58:54.560Z</time>
      </trkpt>
      <trkpt lat="48.83283" lon="2.30878">
        <ele>105.3</ele>
        <time>2015-01-05T20:58:55.603Z</time>
      </trkpt>
      <trkpt lat="48.83285" lon="2.30884">
        <ele>105.3</ele>
        <time>2015-01-05T20:58:56.559Z</time>
      </trkpt>
      <trkpt lat="48.83287" lon="2.3089">
        <ele>105.4</ele>
        <time>2015-01-05T20:58:57.555Z</time>
      </trkpt>
      <trkpt lat="48.8329" lon="2.30896">
        <ele>105.7</ele>
        <time>2015-01-05T20:58:58.568Z</time>
      </trkpt>
      <trkpt lat="48.83293" lon="2.30902">
        <ele>105.9</ele>
        <time>2015-01-05T20:58:59.575Z</time>
      </trkpt>
      <trkpt lat="48.83296" lon="2.30907">
        <ele>106</ele>
        <time>2015-01-05T20:59:00.592Z</time>
      </trkpt>
      <trkpt lat="48.833" lon="2.30913">
        <ele>106.1</ele>
        <time>2015-01-05T20:59:01.599Z</time>
      </trkpt>
      <trkpt lat="48.83317" lon="2.30927">
        <ele>106.7</ele>
        <time>2015-01-05T20:59:05.570Z</time>
      </trkpt>
      <trkpt lat="48.83324" lon="2.30927">
        <ele>106.7</ele>
        <time>2015-01-05T20:59:06.591Z</time>
      </trkpt>
      <trkpt lat="48.83331" lon="2.30928">
        <ele>106.6</ele>
        <time>2015-01-05T20:59:07.501Z</time>
      </trkpt>
      <trkpt lat="48.83335" lon="2.30928">
        <ele>106.4</ele>
        <time>2015-01-05T20:59:08.595Z</time>
      </trkpt>
      <trkpt lat="48.83341" lon="2.30926">
        <ele>105.4</ele>
        <time>2015-01-05T20:59:09.514Z</time>
      </trkpt>
      <trkpt lat="48.83344" lon="2.30937">
        <ele>110.2</ele>
        <time>2015-01-05T20:59:29.563Z</time>
      </trkpt>
      <trkpt lat="48.83344" lon="2.30941">
        <ele>110.7</ele>
        <time>2015-01-05T20:59:30.598Z</time>
      </trkpt>
      <trkpt lat="48.83343" lon="2.3095">
        <ele>111.4</ele>
        <time>2015-01-05T20:59:32.606Z</time>
      </trkpt>
      <trkpt lat="48.83345" lon="2.30959">
        <ele>110.6</ele>
        <time>2015-01-05T20:59:33.636Z</time>
      </trkpt>
      <trkpt lat="48.83346" lon="2.30969">
        <ele>110.3</ele>
        <time>2015-01-05T20:59:34.547Z</time>
      </trkpt>
      <trkpt lat="48.83348" lon="2.30977">
        <ele>110.8</ele>
        <time>2015-01-05T20:59:35.582Z</time>
      </trkpt>
      <trkpt lat="48.83353" lon="2.30986">
        <ele>111.3</ele>
        <time>2015-01-05T20:59:38.616Z</time>
      </trkpt>
      <trkpt lat="48.83353" lon="2.3099">
        <ele>111.2</ele>
        <time>2015-01-05T20:59:39.662Z</time>
      </trkpt>
      <trkpt lat="48.83356" lon="2.31">
        <ele>111.9</ele>
        <time>2015-01-05T20:59:42.617Z</time>
      </trkpt>
      <trkpt lat="48.83357" lon="2.31003">
        <ele>112.4</ele>
        <time>2015-01-05T20:59:43.623Z</time>
      </trkpt>
      <trkpt lat="48.83362" lon="2.31012">
        <ele>113.5</ele>
        <time>2015-01-05T20:59:46.570Z</time>
      </trkpt>
      <trkpt lat="48.83364" lon="2.31014">
        <ele>113.7</ele>
        <time>2015-01-05T20:59:47.560Z</time>
      </trkpt>
      <trkpt lat="48.83369" lon="2.3102">
        <ele>114.2</ele>
        <time>2015-01-05T20:59:49.578Z</time>
      </trkpt>
      <trkpt lat="48.83373" lon="2.31025">
        <ele>114.2</ele>
        <time>2015-01-05T20:59:50.565Z</time>
      </trkpt>
      <trkpt lat="48.83377" lon="2.31031">
        <ele>113.7</ele>
        <time>2015-01-05T20:59:51.570Z</time>
      </trkpt>
      <trkpt lat="48.83381" lon="2.31034">
        <ele>113.4</ele>
        <time>2015-01-05T20:59:52.575Z</time>
      </trkpt>
      <trkpt lat="48.83384" lon="2.31043">
        <ele>113.4</ele>
        <time>2015-01-05T20:59:54.524Z</time>
      </trkpt>
      <trkpt lat="48.83385" lon="2.31049">
        <ele>114.1</ele>
        <time>2015-01-05T20:59:55.537Z</time>
      </trkpt>
      <trkpt lat="48.83387" lon="2.3106">
        <ele>115.1</ele>
        <time>2015-01-05T20:59:57.556Z</time>
      </trkpt>
      <trkpt lat="48.83387" lon="2.31068">
        <ele>115.3</ele>
        <time>2015-01-05T20:59:58.567Z</time>
      </trkpt>
      <trkpt lat="48.83391" lon="2.31077">
        <ele>115.7</ele>
        <time>2015-01-05T21:00:01.232Z</time>
      </trkpt>
      <trkpt lat="48.83394" lon="2.31081">
        <ele>116.6</ele>
        <time>2015-01-05T21:00:01.591Z</time>
      </trkpt>
      <trkpt lat="48.83397" lon="2.31093">
        <ele>117.5</ele>
        <time>2015-01-05T21:00:04.473Z</time>
      </trkpt>
      <trkpt lat="48.83398" lon="2.31098">
        <ele>118.1</ele>
        <time>2015-01-05T21:00:04.551Z</time>
      </trkpt>
      <trkpt lat="48.83399" lon="2.31112">
        <ele>119.3</ele>
        <time>2015-01-05T21:00:06.540Z</time>
      </trkpt>
      <trkpt lat="48.834" lon="2.31117">
        <ele>120.1</ele>
        <time>2015-01-05T21:00:07.566Z</time>
      </trkpt>
      <trkpt lat="48.83405" lon="2.31128">
        <ele>120.7</ele>
        <time>2015-01-05T21:00:09.630Z</time>
      </trkpt>
      <trkpt lat="48.83409" lon="2.31132">
        <ele>120.9</ele>
        <time>2015-01-05T21:00:10.557Z</time>
      </trkpt>
      <trkpt lat="48.83417" lon="2.31137">
        <ele>121.1</ele>
        <time>2015-01-05T21:00:12.598Z</time>
      </trkpt>
      <trkpt lat="48.8342" lon="2.3114">
        <ele>121.1</ele>
        <time>2015-01-05T21:00:13.554Z</time>
      </trkpt>
      <trkpt lat="48.83424" lon="2.31148">
        <ele>120.9</ele>
        <time>2015-01-05T21:00:15.557Z</time>
      </trkpt>
      <trkpt lat="48.83426" lon="2.31153">
        <ele>120.9</ele>
        <time>2015-01-05T21:00:16.592Z</time>
      </trkpt>
      <trkpt lat="48.8343" lon="2.31162">
        <ele>120.9</ele>
        <time>2015-01-05T21:00:18.621Z</time>
      </trkpt>
      <trkpt lat="48.83432" lon="2.31168">
        <ele>120.8</ele>
        <time>2015-01-05T21:00:19.576Z</time>
      </trkpt>
      <trkpt lat="48.83439" lon="2.31177">
        <ele>120.7</ele>
        <time>2015-01-05T21:00:21.777Z</time>
      </trkpt>
      <trkpt lat="48.83442" lon="2.3118">
        <ele>120.6</ele>
        <time>2015-01-05T21:00:22.622Z</time>
      </trkpt>
      <trkpt lat="48.83468" lon="2.3121">
        <ele>120.2</ele>
        <time>2015-01-05T21:00:30.532Z</time>
      </trkpt>
      <trkpt lat="48.83473" lon="2.3121">
        <ele>120</ele>
        <time>2015-01-05T21:00:31.717Z</time>
      </trkpt>
      <trkpt lat="48.83481" lon="2.3121">
        <ele>119.9</ele>
        <time>2015-01-05T21:00:32.564Z</time>
      </trkpt>
      <trkpt lat="48.83488" lon="2.3121">
        <ele>119.9</ele>
        <time>2015-01-05T21:00:33.560Z</time>
      </trkpt>
      <trkpt lat="48.83494" lon="2.31209">
        <ele>120</ele>
        <time>2015-01-05T21:00:34.580Z</time>
      </trkpt>
      <trkpt lat="48.83503" lon="2.31208">
        <ele>119.9</ele>
        <time>2015-01-05T21:00:36.494Z</time>
      </trkpt>
      <trkpt lat="48.83505" lon="2.31209">
        <ele>119.8</ele>
        <time>2015-01-05T21:00:37.605Z</time>
      </trkpt>
      <trkpt lat="48.83514" lon="2.31208">
        <ele>120.3</ele>
        <time>2015-01-05T21:00:43.538Z</time>
      </trkpt>
      <trkpt lat="48.83516" lon="2.31204">
        <ele>120.9</ele>
        <time>2015-01-05T21:00:44.568Z</time>
      </trkpt>
      <trkpt lat="48.83517" lon="2.31202">
        <ele>121.2</ele>
        <time>2015-01-05T21:00:51.541Z</time>
      </trkpt>
      <trkpt lat="48.83456" lon="2.31317">
        <ele>114</ele>
        <time>2015-01-05T21:01:11.763Z</time>
      </trkpt>
      <trkpt lat="48.83458" lon="2.31301">
        <ele>112.6</ele>
        <time>2015-01-05T21:01:12.648Z</time>
      </trkpt>
      <trkpt lat="48.83455" lon="2.3131">
        <ele>108.4</ele>
        <time>2015-01-05T21:01:15.611Z</time>
      </trkpt>
      <trkpt lat="48.83453" lon="2.31315">
        <ele>107.7</ele>
        <time>2015-01-05T21:01:16.563Z</time>
      </trkpt>
      <trkpt lat="48.8345" lon="2.31324">
        <ele>107</ele>
        <time>2015-01-05T21:01:18.849Z</time>
      </trkpt>
      <trkpt lat="48.83449" lon="2.31327">
        <ele>105.8</ele>
        <time>2015-01-05T21:01:19.618Z</time>
      </trkpt>
      <trkpt lat="48.83446" lon="2.31339">
        <ele>111.2</ele>
        <time>2015-01-05T21:01:24.585Z</time>
      </trkpt>
      <trkpt lat="48.83446" lon="2.31342">
        <ele>112.5</ele>
        <time>2015-01-05T21:01:25.648Z</time>
      </trkpt>
      <trkpt lat="48.83445" lon="2.31345">
        <ele>113.5</ele>
        <time>2015-01-05T21:01:33.603Z</time>
      </trkpt>
      <trkpt lat="48.83437" lon="2.31374">
        <ele>128.7</ele>
        <time>2015-01-05T21:01:34.544Z</time>
      </trkpt>
      <trkpt lat="48.83431" lon="2.3138">
        <ele>124.1</ele>
        <time>2015-01-05T21:02:08.428Z</time>
      </trkpt>
      <trkpt lat="48.8343" lon="2.31381">
        <ele>124.3</ele>
        <time>2015-01-05T21:02:08.561Z</time>
      </trkpt>
      <trkpt lat="48.83424" lon="2.31387">
        <ele>125.5</ele>
        <time>2015-01-05T21:02:11.518Z</time>
      </trkpt>
      <trkpt lat="48.83422" lon="2.3139">
        <ele>125.7</ele>
        <time>2015-01-05T21:02:12.594Z</time>
      </trkpt>
      <trkpt lat="48.83417" lon="2.31399">
        <ele>126.4</ele>
        <time>2015-01-05T21:02:15.625Z</time>
      </trkpt>
      <trkpt lat="48.83416" lon="2.31402">
        <ele>126.6</ele>
        <time>2015-01-05T21:02:16.549Z</time>
      </trkpt>
      <trkpt lat="48.8341" lon="2.3141">
        <ele>126.3</ele>
        <time>2015-01-05T21:02:19.523Z</time>
      </trkpt>
      <trkpt lat="48.83409" lon="2.31411">
        <ele>126.2</ele>
        <time>2015-01-05T21:02:20.588Z</time>
      </trkpt>
      <trkpt lat="48.83409" lon="2.31411">
        <ele>126.2</ele>
        <time>2015-01-05T21:02:28.614Z</time>
      </trkpt>
      <trkpt lat="48.83405" lon="2.31432">
        <ele>123.5</ele>
        <time>2015-01-05T21:02:29.624Z</time>
      </trkpt>
      <trkpt lat="48.83399" lon="2.31441">
        <ele>124.2</ele>
        <time>2015-01-05T21:02:31.556Z</time>
      </trkpt>
      <trkpt lat="48.83394" lon="2.31447">
        <ele>123.7</ele>
        <time>2015-01-05T21:02:32.612Z</time>
      </trkpt>
      <trkpt lat="48.83391" lon="2.31453">
        <ele>123.7</ele>
        <time>2015-01-05T21:02:33.543Z</time>
      </trkpt>
      <trkpt lat="48.83387" lon="2.31458">
        <ele>123.4</ele>
        <time>2015-01-05T21:02:34.546Z</time>
      </trkpt>
      <trkpt lat="48.83381" lon="2.31469">
        <ele>123.1</ele>
        <time>2015-01-05T21:02:36.574Z</time>
      </trkpt>
      <trkpt lat="48.8338" lon="2.31477">
        <ele>122.7</ele>
        <time>2015-01-05T21:02:37.604Z</time>
      </trkpt>
      <trkpt lat="48.83376" lon="2.31487">
        <ele>123.3</ele>
        <time>2015-01-05T21:02:39.155Z</time>
      </trkpt>
      <trkpt lat="48.83373" lon="2.31497">
        <ele>123.3</ele>
        <time>2015-01-05T21:02:39.533Z</time>
      </trkpt>
      <trkpt lat="48.83367" lon="2.31507">
        <ele>123.3</ele>
        <time>2015-01-05T21:02:41.620Z</time>
      </trkpt>
      <trkpt lat="48.83365" lon="2.31509">
        <ele>123.9</ele>
        <time>2015-01-05T21:02:42.651Z</time>
      </trkpt>
      <trkpt lat="48.83358" lon="2.31517">
        <ele>125.6</ele>
        <time>2015-01-05T21:02:50.578Z</time>
      </trkpt>
      <trkpt lat="48.83356" lon="2.31521">
        <ele>126.1</ele>
        <time>2015-01-05T21:02:51.598Z</time>
      </trkpt>
      <trkpt lat="48.8335" lon="2.31528">
        <ele>127</ele>
        <time>2015-01-05T21:02:53.524Z</time>
      </trkpt>
      <trkpt lat="48.83346" lon="2.31531">
        <ele>126.6</ele>
        <time>2015-01-05T21:02:54.583Z</time>
      </trkpt>
      <trkpt lat="48.83342" lon="2.31541">
        <ele>125.6</ele>
        <time>2015-01-05T21:02:56.653Z</time>
      </trkpt>
      <trkpt lat="48.8334" lon="2.31545">
        <ele>125.5</ele>
        <time>2015-01-05T21:02:57.571Z</time>
      </trkpt>
      <trkpt lat="48.83339" lon="2.31549">
        <ele>125.4</ele>
        <time>2015-01-05T21:02:59.552Z</time>
      </trkpt>
      <trkpt lat="48.83339" lon="2.31549">
        <ele>125.2</ele>
        <time>2015-01-05T21:03:00.580Z</time>
      </trkpt>
      <trkpt lat="48.8334" lon="2.31549">
        <ele>125.2</ele>
        <time>2015-01-05T21:03:23.555Z</time>
      </trkpt>
      <trkpt lat="48.83336" lon="2.31544">
        <ele>126.8</ele>
        <time>2015-01-05T21:03:24.678Z</time>
      </trkpt>
      <trkpt lat="48.8333" lon="2.31548">
        <ele>126.9</ele>
        <time>2015-01-05T21:03:26.631Z</time>
      </trkpt>
      <trkpt lat="48.83327" lon="2.31551">
        <ele>127.1</ele>
        <time>2015-01-05T21:03:27.643Z</time>
      </trkpt>
      <trkpt lat="48.83323" lon="2.31559">
        <ele>127.4</ele>
        <time>2015-01-05T21:03:29.569Z</time>
      </trkpt>
      <trkpt lat="48.83321" lon="2.31563">
        <ele>127.4</ele>
        <time>2015-01-05T21:03:30.574Z</time>
      </trkpt>
      <trkpt lat="48.83315" lon="2.3157">
        <ele>127.8</ele>
        <time>2015-01-05T21:03:32.626Z</time>
      </trkpt>
      <trkpt lat="48.83313" lon="2.31573">
        <ele>128.1</ele>
        <time>2015-01-05T21:03:33.537Z</time>
      </trkpt>
      <trkpt lat="48.8331" lon="2.31578">
        <ele>128.6</ele>
        <time>2015-01-05T21:03:34.549Z</time>
      </trkpt>
      <trkpt lat="48.83305" lon="2.31585">
        <ele>129</ele>
        <time>2015-01-05T21:03:35.590Z</time>
      </trkpt>
      <trkpt lat="48.833" lon="2.31594">
        <ele>129.3</ele>
        <time>2015-01-05T21:03:36.569Z</time>
      </trkpt>
      <trkpt lat="48.83296" lon="2.31603">
        <ele>129.6</ele>
        <time>2015-01-05T21:03:37.578Z</time>
      </trkpt>
      <trkpt lat="48.83294" lon="2.31613">
        <ele>129.5</ele>
        <time>2015-01-05T21:03:38.588Z</time>
      </trkpt>
      <trkpt lat="48.83291" lon="2.31625">
        <ele>129</ele>
        <time>2015-01-05T21:03:39.617Z</time>
      </trkpt>
      <trkpt lat="48.83285" lon="2.31631">
        <ele>129.6</ele>
        <time>2015-01-05T21:03:41.551Z</time>
      </trkpt>
      <trkpt lat="48.83282" lon="2.31633">
        <ele>129.8</ele>
        <time>2015-01-05T21:03:42.559Z</time>
      </trkpt>
      <trkpt lat="48.83274" lon="2.31639">
        <ele>130.2</ele>
        <time>2015-01-05T21:03:44.688Z</time>
      </trkpt>
      <trkpt lat="48.83272" lon="2.31645">
        <ele>130</ele>
        <time>2015-01-05T21:03:45.565Z</time>
      </trkpt>
      <trkpt lat="48.83269" lon="2.31652">
        <ele>129.9</ele>
        <time>2015-01-05T21:03:46.562Z</time>
      </trkpt>
      <trkpt lat="48.83268" lon="2.31662">
        <ele>129.4</ele>
        <time>2015-01-05T21:03:47.566Z</time>
      </trkpt>
      <trkpt lat="48.83265" lon="2.31671">
        <ele>129.9</ele>
        <time>2015-01-05T21:03:49.644Z</time>
      </trkpt>
      <trkpt lat="48.83261" lon="2.31674">
        <ele>129.8</ele>
        <time>2015-01-05T21:03:50.603Z</time>
      </trkpt>
      <trkpt lat="48.83254" lon="2.3168">
        <ele>129.4</ele>
        <time>2015-01-05T21:03:52.619Z</time>
      </trkpt>
      <trkpt lat="48.83251" lon="2.31682">
        <ele>129.1</ele>
        <time>2015-01-05T21:03:53.561Z</time>
      </trkpt>
      <trkpt lat="48.83243" lon="2.31687">
        <ele>128.1</ele>
        <time>2015-01-05T21:03:55.595Z</time>
      </trkpt>
      <trkpt lat="48.83239" lon="2.31691">
        <ele>127.9</ele>
        <time>2015-01-05T21:03:56.598Z</time>
      </trkpt>
      <trkpt lat="48.83236" lon="2.31702">
        <ele>127.8</ele>
        <time>2015-01-05T21:03:59.350Z</time>
      </trkpt>
      <trkpt lat="48.83235" lon="2.31708">
        <ele>127.8</ele>
        <time>2015-01-05T21:03:59.535Z</time>
      </trkpt>
      <trkpt lat="48.83232" lon="2.31718">
        <ele>127.2</ele>
        <time>2015-01-05T21:04:01.611Z</time>
      </trkpt>
      <trkpt lat="48.8323" lon="2.31721">
        <ele>126.5</ele>
        <time>2015-01-05T21:04:02.601Z</time>
      </trkpt>
      <trkpt lat="48.83224" lon="2.31726">
        <ele>124.4</ele>
        <time>2015-01-05T21:04:06.615Z</time>
      </trkpt>
      <trkpt lat="48.83222" lon="2.31728">
        <ele>124.1</ele>
        <time>2015-01-05T21:04:07.629Z</time>
      </trkpt>
      <trkpt lat="48.83215" lon="2.31732">
        <ele>121.4</ele>
        <time>2015-01-05T21:04:12.622Z</time>
      </trkpt>
      <trkpt lat="48.83213" lon="2.31735">
        <ele>120.6</ele>
        <time>2015-01-05T21:04:13.567Z</time>
      </trkpt>
      <trkpt lat="48.83206" lon="2.31742">
        <ele>119.7</ele>
        <time>2015-01-05T21:04:17.530Z</time>
      </trkpt>
      <trkpt lat="48.83203" lon="2.31744">
        <ele>120.2</ele>
        <time>2015-01-05T21:04:18.563Z</time>
      </trkpt>
      <trkpt lat="48.83198" lon="2.31755">
        <ele>120.9</ele>
        <time>2015-01-05T21:04:20.573Z</time>
      </trkpt>
      <trkpt lat="48.83197" lon="2.3176">
        <ele>121.4</ele>
        <time>2015-01-05T21:04:21.646Z</time>
      </trkpt>
      <trkpt lat="48.83195" lon="2.3177">
        <ele>122</ele>
        <time>2015-01-05T21:04:23.564Z</time>
      </trkpt>
      <trkpt lat="48.83195" lon="2.31776">
        <ele>122.7</ele>
        <time>2015-01-05T21:04:24.564Z</time>
      </trkpt>
      <trkpt lat="48.83192" lon="2.3178">
        <ele>122.9</ele>
        <time>2015-01-05T21:04:25.575Z</time>
      </trkpt>
      <trkpt lat="48.83187" lon="2.31786">
        <ele>122.9</ele>
        <time>2015-01-05T21:04:26.717Z</time>
      </trkpt>
      <trkpt lat="48.83183" lon="2.3179">
        <ele>122.8</ele>
        <time>2015-01-05T21:04:28.007Z</time>
      </trkpt>
      <trkpt lat="48.8318" lon="2.31795">
        <ele>123.4</ele>
        <time>2015-01-05T21:04:28.571Z</time>
      </trkpt>
      <trkpt lat="48.83176" lon="2.31798">
        <ele>123.6</ele>
        <time>2015-01-05T21:04:29.586Z</time>
      </trkpt>
      <trkpt lat="48.83172" lon="2.31802">
        <ele>124.1</ele>
        <time>2015-01-05T21:04:30.608Z</time>
      </trkpt>
      <trkpt lat="48.83167" lon="2.31809">
        <ele>124.3</ele>
        <time>2015-01-05T21:04:31.537Z</time>
      </trkpt>
      <trkpt lat="48.83163" lon="2.31817">
        <ele>124.8</ele>
        <time>2015-01-05T21:04:32.660Z</time>
      </trkpt>
      <trkpt lat="48.83159" lon="2.31822">
        <ele>125</ele>
        <time>2015-01-05T21:04:33.637Z</time>
      </trkpt>
      <trkpt lat="48.83155" lon="2.31826">
        <ele>125.2</ele>
        <time>2015-01-05T21:04:34.555Z</time>
      </trkpt>
      <trkpt lat="48.8315" lon="2.3183">
        <ele>125.2</ele>
        <time>2015-01-05T21:04:35.553Z</time>
      </trkpt>
      <trkpt lat="48.83145" lon="2.31833">
        <ele>125</ele>
        <time>2015-01-05T21:04:36.554Z</time>
      </trkpt>
      <trkpt lat="48.83138" lon="2.31839">
        <ele>124.9</ele>
        <time>2015-01-05T21:04:38.640Z</time>
      </trkpt>
      <trkpt lat="48.83134" lon="2.31842">
        <ele>124.8</ele>
        <time>2015-01-05T21:04:39.662Z</time>
      </trkpt>
      <trkpt lat="48.8313" lon="2.31845">
        <ele>124.8</ele>
        <time>2015-01-05T21:04:40.550Z</time>
      </trkpt>
      <trkpt lat="48.83125" lon="2.31847">
        <ele>124.9</ele>
        <time>2015-01-05T21:04:41.615Z</time>
      </trkpt>
      <trkpt lat="48.83122" lon="2.31852">
        <ele>125</ele>
        <time>2015-01-05T21:04:43.092Z</time>
      </trkpt>
      <trkpt lat="48.83118" lon="2.31858">
        <ele>125.1</ele>
        <time>2015-01-05T21:04:43.551Z</time>
      </trkpt>
      <trkpt lat="48.83115" lon="2.31864">
        <ele>125.3</ele>
        <time>2015-01-05T21:04:44.569Z</time>
      </trkpt>
      <trkpt lat="48.8311" lon="2.3187">
        <ele>125.3</ele>
        <time>2015-01-05T21:04:45.600Z</time>
      </trkpt>
      <trkpt lat="48.83102" lon="2.31877">
        <ele>125.3</ele>
        <time>2015-01-05T21:04:48.182Z</time>
      </trkpt>
      <trkpt lat="48.83098" lon="2.31881">
        <ele>125.1</ele>
        <time>2015-01-05T21:04:48.522Z</time>
      </trkpt>
      <trkpt lat="48.83092" lon="2.31889">
        <ele>125</ele>
        <time>2015-01-05T21:04:50.610Z</time>
      </trkpt>
      <trkpt lat="48.83089" lon="2.31896">
        <ele>125.2</ele>
        <time>2015-01-05T21:04:51.623Z</time>
      </trkpt>
      <trkpt lat="48.83083" lon="2.319">
        <ele>124.7</ele>
        <time>2015-01-05T21:04:53.557Z</time>
      </trkpt>
      <trkpt lat="48.8308" lon="2.31901">
        <ele>125</ele>
        <time>2015-01-05T21:04:54.589Z</time>
      </trkpt>
      <trkpt lat="48.83074" lon="2.31904">
        <ele>124.7</ele>
        <time>2015-01-05T21:04:56.574Z</time>
      </trkpt>
      <trkpt lat="48.83071" lon="2.31907">
        <ele>124.7</ele>
        <time>2015-01-05T21:04:57.628Z</time>
      </trkpt>
      <trkpt lat="48.83066" lon="2.31912">
        <ele>125.3</ele>
        <time>2015-01-05T21:04:59.591Z</time>
      </trkpt>
      <trkpt lat="48.83063" lon="2.31914">
        <ele>125.8</ele>
        <time>2015-01-05T21:05:00.606Z</time>
      </trkpt>
      <trkpt lat="48.83064" lon="2.31924">
        <ele>124.1</ele>
        <time>2015-01-05T21:05:16.624Z</time>
      </trkpt>
      <trkpt lat="48.8307" lon="2.31937">
        <ele>120.3</ele>
        <time>2015-01-05T21:05:17.633Z</time>
      </trkpt>
      <trkpt lat="48.83107" lon="2.32013">
        <ele>119.5</ele>
        <time>2015-01-05T21:05:38.568Z</time>
      </trkpt>
      <trkpt lat="48.83112" lon="2.32011">
        <ele>118.1</ele>
        <time>2015-01-05T21:05:39.643Z</time>
      </trkpt>
      <trkpt lat="48.83117" lon="2.3201">
        <ele>116.8</ele>
        <time>2015-01-05T21:05:40.584Z</time>
      </trkpt>
      <trkpt lat="48.83121" lon="2.3202">
        <ele>117.4</ele>
        <time>2015-01-05T21:05:43.021Z</time>
      </trkpt>
      <trkpt lat="48.83124" lon="2.32025">
        <ele>118.1</ele>
        <time>2015-01-05T21:05:43.525Z</time>
      </trkpt>
      <trkpt lat="48.83128" lon="2.32029">
        <ele>118.6</ele>
        <time>2015-01-05T21:05:44.577Z</time>
      </trkpt>
      <trkpt lat="48.8313" lon="2.32035">
        <ele>120</ele>
        <time>2015-01-05T21:05:45.577Z</time>
      </trkpt>
      <trkpt lat="48.83134" lon="2.32039">
        <ele>121.2</ele>
        <time>2015-01-05T21:05:46.582Z</time>
      </trkpt>
      <trkpt lat="48.83138" lon="2.3204">
        <ele>121.8</ele>
        <time>2015-01-05T21:05:47.603Z</time>
      </trkpt>
      <trkpt lat="48.83138" lon="2.3204">
        <ele>121.8</ele>
        <time>2015-01-05T21:05:48.038Z</time>
      </trkpt>
      <trkpt lat="48.83149" lon="2.32032">
        <ele>120.6</ele>
        <time>2015-01-05T21:05:48.609Z</time>
      </trkpt>
      <trkpt lat="48.83159" lon="2.32022">
        <ele>119.3</ele>
        <time>2015-01-05T21:05:49.617Z</time>
      </trkpt>
      <trkpt lat="48.83167" lon="2.32016">
        <ele>118.4</ele>
        <time>2015-01-05T21:05:50.570Z</time>
      </trkpt>
      <trkpt lat="48.83172" lon="2.32014">
        <ele>118.1</ele>
        <time>2015-01-05T21:05:51.619Z</time>
      </trkpt>
      <trkpt lat="48.83177" lon="2.32016">
        <ele>118.2</ele>
        <time>2015-01-05T21:05:53.110Z</time>
      </trkpt>
      <trkpt lat="48.83182" lon="2.3202">
        <ele>117.9</ele>
        <time>2015-01-05T21:05:53.537Z</time>
      </trkpt>
      <trkpt lat="48.83187" lon="2.32027">
        <ele>117.9</ele>
        <time>2015-01-05T21:05:55.593Z</time>
      </trkpt>
      <trkpt lat="48.83192" lon="2.32029">
        <ele>118.4</ele>
        <time>2015-01-05T21:05:56.609Z</time>
      </trkpt>
      <trkpt lat="48.83196" lon="2.32032">
        <ele>118.7</ele>
        <time>2015-01-05T21:05:58.134Z</time>
      </trkpt>
      <trkpt lat="48.832" lon="2.32034">
        <ele>118.9</ele>
        <time>2015-01-05T21:05:58.543Z</time>
      </trkpt>
      <trkpt lat="48.83208" lon="2.32038">
        <ele>119.1</ele>
        <time>2015-01-05T21:06:00.564Z</time>
      </trkpt>
      <trkpt lat="48.83212" lon="2.32038">
        <ele>119.1</ele>
        <time>2015-01-05T21:06:01.586Z</time>
      </trkpt>
      <trkpt lat="48.83217" lon="2.32038">
        <ele>119.2</ele>
        <time>2015-01-05T21:06:03.132Z</time>
      </trkpt>
      <trkpt lat="48.83221" lon="2.32039">
        <ele>119.6</ele>
        <time>2015-01-05T21:06:03.615Z</time>
      </trkpt>
      <trkpt lat="48.8323" lon="2.32044">
        <ele>120.6</ele>
        <time>2015-01-05T21:06:05.576Z</time>
      </trkpt>
      <trkpt lat="48.83231" lon="2.32048">
        <ele>121.1</ele>
        <time>2015-01-05T21:06:06.567Z</time>
      </trkpt>
      <trkpt lat="48.83235" lon="2.32047">
        <ele>121.6</ele>
        <time>2015-01-05T21:06:08.226Z</time>
      </trkpt>
      <trkpt lat="48.83241" lon="2.32044">
        <ele>122</ele>
        <time>2015-01-05T21:06:08.576Z</time>
      </trkpt>
      <trkpt lat="48.83245" lon="2.32043">
        <ele>122.3</ele>
        <time>2015-01-05T21:06:09.605Z</time>
      </trkpt>
      <trkpt lat="48.83251" lon="2.32046">
        <ele>121.8</ele>
        <time>2015-01-05T21:06:10.520Z</time>
      </trkpt>
      <trkpt lat="48.83255" lon="2.32052">
        <ele>121.3</ele>
        <time>2015-01-05T21:06:11.544Z</time>
      </trkpt>
      <trkpt lat="48.83258" lon="2.32055">
        <ele>121.3</ele>
        <time>2015-01-05T21:06:12.567Z</time>
      </trkpt>
      <trkpt lat="48.83262" lon="2.32059">
        <ele>121.4</ele>
        <time>2015-01-05T21:06:13.855Z</time>
      </trkpt>
      <trkpt lat="48.83352" lon="2.32136">
        <ele>121</ele>
        <time>2015-01-05T21:06:37.577Z</time>
      </trkpt>
      <trkpt lat="48.83358" lon="2.32144">
        <ele>121.7</ele>
        <time>2015-01-05T21:06:39.570Z</time>
      </trkpt>
      <trkpt lat="48.8336" lon="2.3215">
        <ele>122.4</ele>
        <time>2015-01-05T21:06:40.604Z</time>
      </trkpt>
      <trkpt lat="48.83361" lon="2.32163">
        <ele>123.3</ele>
        <time>2015-01-05T21:06:42.534Z</time>
      </trkpt>
      <trkpt lat="48.8336" lon="2.32172">
        <ele>123.4</ele>
        <time>2015-01-05T21:06:43.554Z</time>
      </trkpt>
      <trkpt lat="48.8336" lon="2.32182">
        <ele>123.6</ele>
        <time>2015-01-05T21:06:44.603Z</time>
      </trkpt>
      <trkpt lat="48.83359" lon="2.32192">
        <ele>123.5</ele>
        <time>2015-01-05T21:06:45.602Z</time>
      </trkpt>
      <trkpt lat="48.83361" lon="2.32202">
        <ele>121.6</ele>
        <time>2015-01-05T21:06:46.518Z</time>
      </trkpt>
      <trkpt lat="48.83363" lon="2.32208">
        <ele>119.8</ele>
        <time>2015-01-05T21:06:47.523Z</time>
      </trkpt>
      <trkpt lat="48.83364" lon="2.32215">
        <ele>118.8</ele>
        <time>2015-01-05T21:06:48.530Z</time>
      </trkpt>
      <trkpt lat="48.83364" lon="2.32223">
        <ele>119</ele>
        <time>2015-01-05T21:06:49.537Z</time>
      </trkpt>
      <trkpt lat="48.83371" lon="2.32228">
        <ele>118.5</ele>
        <time>2015-01-05T21:06:52.605Z</time>
      </trkpt>
      <trkpt lat="48.83376" lon="2.32225">
        <ele>118.7</ele>
        <time>2015-01-05T21:06:53.570Z</time>
      </trkpt>
      <trkpt lat="48.83381" lon="2.32223">
        <ele>119.1</ele>
        <time>2015-01-05T21:06:54.538Z</time>
      </trkpt>
      <trkpt lat="48.83386" lon="2.32221">
        <ele>119.7</ele>
        <time>2015-01-05T21:06:55.567Z</time>
      </trkpt>
      <trkpt lat="48.83391" lon="2.32219">
        <ele>119.7</ele>
        <time>2015-01-05T21:06:56.585Z</time>
      </trkpt>
      <trkpt lat="48.83395" lon="2.32218">
        <ele>119.8</ele>
        <time>2015-01-05T21:06:57.583Z</time>
      </trkpt>
      <trkpt lat="48.83399" lon="2.32215">
        <ele>120</ele>
        <time>2015-01-05T21:06:58.595Z</time>
      </trkpt>
      <trkpt lat="48.83407" lon="2.32201">
        <ele>119.8</ele>
        <time>2015-01-05T21:06:59.602Z</time>
      </trkpt>
      <trkpt lat="48.83409" lon="2.32197">
        <ele>119.2</ele>
        <time>2015-01-05T21:07:03.525Z</time>
      </trkpt>
      <trkpt lat="48.83421" lon="2.32189">
        <ele>120</ele>
        <time>2015-01-05T21:07:04.540Z</time>
      </trkpt>
      <trkpt lat="48.83429" lon="2.32188">
        <ele>120.6</ele>
        <time>2015-01-05T21:07:06.544Z</time>
      </trkpt>
      <trkpt lat="48.83433" lon="2.32189">
        <ele>120.4</ele>
        <time>2015-01-05T21:07:07.557Z</time>
      </trkpt>
      <trkpt lat="48.83438" lon="2.32192">
        <ele>119.8</ele>
        <time>2015-01-05T21:07:09.617Z</time>
      </trkpt>
      <trkpt lat="48.83441" lon="2.32194">
        <ele>119.8</ele>
        <time>2015-01-05T21:07:10.529Z</time>
      </trkpt>
      <trkpt lat="48.83448" lon="2.322">
        <ele>120.2</ele>
        <time>2015-01-05T21:07:13.569Z</time>
      </trkpt>
      <trkpt lat="48.83451" lon="2.32202">
        <ele>120.8</ele>
        <time>2015-01-05T21:07:14.623Z</time>
      </trkpt>
      <trkpt lat="48.83457" lon="2.32211">
        <ele>121.1</ele>
        <time>2015-01-05T21:07:16.520Z</time>
      </trkpt>
      <trkpt lat="48.83458" lon="2.32217">
        <ele>121.2</ele>
        <time>2015-01-05T21:07:17.539Z</time>
      </trkpt>
      <trkpt lat="48.83458" lon="2.3223">
        <ele>121.5</ele>
        <time>2015-01-05T21:07:19.572Z</time>
      </trkpt>
      <trkpt lat="48.83458" lon="2.32235">
        <ele>121.6</ele>
        <time>2015-01-05T21:07:20.580Z</time>
      </trkpt>
      <trkpt lat="48.83459" lon="2.32246">
        <ele>122.1</ele>
        <time>2015-01-05T21:07:22.518Z</time>
      </trkpt>
      <trkpt lat="48.8346" lon="2.3225">
        <ele>122.6</ele>
        <time>2015-01-05T21:07:23.530Z</time>
      </trkpt>
      <trkpt lat="48.83463" lon="2.3226">
        <ele>123.7</ele>
        <time>2015-01-05T21:07:26.696Z</time>
      </trkpt>
      <trkpt lat="48.83464" lon="2.32263">
        <ele>124</ele>
        <time>2015-01-05T21:07:27.529Z</time>
      </trkpt>
      <trkpt lat="48.83468" lon="2.32274">
        <ele>123.8</ele>
        <time>2015-01-05T21:07:30.591Z</time>
      </trkpt>
      <trkpt lat="48.83468" lon="2.3228">
        <ele>123.5</ele>
        <time>2015-01-05T21:07:31.524Z</time>
      </trkpt>
      <trkpt lat="48.83468" lon="2.32287">
        <ele>123.1</ele>
        <time>2015-01-05T21:07:32.576Z</time>
      </trkpt>
      <trkpt lat="48.83471" lon="2.32312">
        <ele>122.5</ele>
        <time>2015-01-05T21:07:36.515Z</time>
      </trkpt>
      <trkpt lat="48.83476" lon="2.32318">
        <ele>121.9</ele>
        <time>2015-01-05T21:07:39.560Z</time>
      </trkpt>
      <trkpt lat="48.83482" lon="2.32316">
        <ele>121.6</ele>
        <time>2015-01-05T21:07:40.580Z</time>
      </trkpt>
      <trkpt lat="48.8349" lon="2.32318">
        <ele>121.9</ele>
        <time>2015-01-05T21:07:42.524Z</time>
      </trkpt>
      <trkpt lat="48.83494" lon="2.32321">
        <ele>121.7</ele>
        <time>2015-01-05T21:07:43.541Z</time>
      </trkpt>
      <trkpt lat="48.8351" lon="2.32334">
        <ele>122.5</ele>
        <time>2015-01-05T21:07:49.557Z</time>
      </trkpt>
      <trkpt lat="48.83517" lon="2.32333">
        <ele>122.8</ele>
        <time>2015-01-05T21:07:52.594Z</time>
      </trkpt>
      <trkpt lat="48.83519" lon="2.32335">
        <ele>122.8</ele>
        <time>2015-01-05T21:07:53.615Z</time>
      </trkpt>
      <trkpt lat="48.83522" lon="2.32347">
        <ele>123.5</ele>
        <time>2015-01-05T21:07:56.540Z</time>
      </trkpt>
      <trkpt lat="48.83522" lon="2.32353">
        <ele>124.2</ele>
        <time>2015-01-05T21:07:57.553Z</time>
      </trkpt>
      <trkpt lat="48.83523" lon="2.32364">
        <ele>125.9</ele>
        <time>2015-01-05T21:07:59.602Z</time>
      </trkpt>
      <trkpt lat="48.83523" lon="2.32371">
        <ele>127.2</ele>
        <time>2015-01-05T21:08:00.490Z</time>
      </trkpt>
      <trkpt lat="48.83523" lon="2.32382">
        <ele>129</ele>
        <time>2015-01-05T21:08:02.569Z</time>
      </trkpt>
      <trkpt lat="48.83522" lon="2.32393">
        <ele>129.9</ele>
        <time>2015-01-05T21:08:03.583Z</time>
      </trkpt>
      <trkpt lat="48.83522" lon="2.32406">
        <ele>130.6</ele>
        <time>2015-01-05T21:08:05.517Z</time>
      </trkpt>
      <trkpt lat="48.83522" lon="2.32408">
        <ele>131</ele>
        <time>2015-01-05T21:08:06.525Z</time>
      </trkpt>
      <trkpt lat="48.83525" lon="2.32409">
        <ele>132.8</ele>
        <time>2015-01-05T21:08:18.537Z</time>
      </trkpt>
      <trkpt lat="48.83543" lon="2.32394">
        <ele>138.5</ele>
        <time>2015-01-05T21:08:19.547Z</time>
      </trkpt>
      <trkpt lat="48.83549" lon="2.3239">
        <ele>139</ele>
        <time>2015-01-05T21:08:21.594Z</time>
      </trkpt>
      <trkpt lat="48.83553" lon="2.32387">
        <ele>139.3</ele>
        <time>2015-01-05T21:08:22.605Z</time>
      </trkpt>
      <trkpt lat="48.83559" lon="2.32377">
        <ele>141.4</ele>
        <time>2015-01-05T21:08:26.620Z</time>
      </trkpt>
      <trkpt lat="48.83562" lon="2.32374">
        <ele>142.6</ele>
        <time>2015-01-05T21:08:27.541Z</time>
      </trkpt>
      <trkpt lat="48.83568" lon="2.32371">
        <ele>144</ele>
        <time>2015-01-05T21:08:29.528Z</time>
      </trkpt>
      <trkpt lat="48.8357" lon="2.32371">
        <ele>144.6</ele>
        <time>2015-01-05T21:08:30.543Z</time>
      </trkpt>
      <trkpt lat="48.83577" lon="2.32372">
        <ele>143.7</ele>
        <time>2015-01-05T21:08:32.576Z</time>
      </trkpt>
      <trkpt lat="48.8358" lon="2.32373">
        <ele>143.4</ele>
        <time>2015-01-05T21:08:33.504Z</time>
      </trkpt>
      <trkpt lat="48.83588" lon="2.32372">
        <ele>143.7</ele>
        <time>2015-01-05T21:08:36.566Z</time>
      </trkpt>
      <trkpt lat="48.83589" lon="2.32371">
        <ele>144.1</ele>
        <time>2015-01-05T21:08:37.578Z</time>
      </trkpt>
      <trkpt lat="48.83597" lon="2.32368">
        <ele>145.7</ele>
        <time>2015-01-05T21:08:40.572Z</time>
      </trkpt>
      <trkpt lat="48.83599" lon="2.32367">
        <ele>146</ele>
        <time>2015-01-05T21:08:41.615Z</time>
      </trkpt>
      <trkpt lat="48.83597" lon="2.32374">
        <ele>147.8</ele>
        <time>2015-01-05T21:08:50.590Z</time>
      </trkpt>
      <trkpt lat="48.83595" lon="2.32379">
        <ele>147.9</ele>
        <time>2015-01-05T21:08:51.603Z</time>
      </trkpt>
      <trkpt lat="48.83591" lon="2.32388">
        <ele>148.5</ele>
        <time>2015-01-05T21:08:53.594Z</time>
      </trkpt>
      <trkpt lat="48.83589" lon="2.32392">
        <ele>148.4</ele>
        <time>2015-01-05T21:08:54.582Z</time>
      </trkpt>
      <trkpt lat="48.83584" lon="2.32402">
        <ele>148.9</ele>
        <time>2015-01-05T21:08:56.614Z</time>
      </trkpt>
      <trkpt lat="48.83582" lon="2.32409">
        <ele>149.4</ele>
        <time>2015-01-05T21:08:57.629Z</time>
      </trkpt>
      <trkpt lat="48.8358" lon="2.32415">
        <ele>149.6</ele>
        <time>2015-01-05T21:08:58.546Z</time>
      </trkpt>
      <trkpt lat="48.83578" lon="2.32423">
        <ele>149.6</ele>
        <time>2015-01-05T21:09:00.540Z</time>
      </trkpt>
      <trkpt lat="48.83577" lon="2.32436">
        <ele>148.4</ele>
        <time>2015-01-05T21:09:05.527Z</time>
      </trkpt>
      <trkpt lat="48.83578" lon="2.32439">
        <ele>148.1</ele>
        <time>2015-01-05T21:09:06.535Z</time>
      </trkpt>
      <trkpt lat="48.83576" lon="2.32451">
        <ele>146.5</ele>
        <time>2015-01-05T21:09:08.591Z</time>
      </trkpt>
      <trkpt lat="48.83575" lon="2.32456">
        <ele>146.1</ele>
        <time>2015-01-05T21:09:09.604Z</time>
      </trkpt>
      <trkpt lat="48.83572" lon="2.32467">
        <ele>145.7</ele>
        <time>2015-01-05T21:09:11.559Z</time>
      </trkpt>
      <trkpt lat="48.83571" lon="2.32472">
        <ele>145.6</ele>
        <time>2015-01-05T21:09:12.575Z</time>
      </trkpt>
      <trkpt lat="48.83567" lon="2.32482">
        <ele>145.3</ele>
        <time>2015-01-05T21:09:15.553Z</time>
      </trkpt>
      <trkpt lat="48.83567" lon="2.32489">
        <ele>144.3</ele>
        <time>2015-01-05T21:09:16.579Z</time>
      </trkpt>
      <trkpt lat="48.83571" lon="2.325">
        <ele>142.2</ele>
        <time>2015-01-05T21:09:18.551Z</time>
      </trkpt>
      <trkpt lat="48.83571" lon="2.32501">
        <ele>141.8</ele>
        <time>2015-01-05T21:09:19.564Z</time>
      </trkpt>
      <trkpt lat="48.83562" lon="2.32499">
        <ele>137.6</ele>
        <time>2015-01-05T21:10:38.607Z</time>
      </trkpt>
      <trkpt lat="48.83562" lon="2.32499">
        <ele>137.7</ele>
        <time>2015-01-05T21:10:39.525Z</time>
      </trkpt>
      <trkpt lat="48.8356" lon="2.32512">
        <ele>140.8</ele>
        <time>2015-01-05T21:11:44.721Z</time>
      </trkpt>
      <trkpt lat="48.8356" lon="2.32515">
        <ele>140.6</ele>
        <time>2015-01-05T21:11:45.528Z</time>
      </trkpt>
      <trkpt lat="48.8356" lon="2.32517">
        <ele>140.2</ele>
        <time>2015-01-05T21:12:07.536Z</time>
      </trkpt>
      <trkpt lat="48.83555" lon="2.32549">
        <ele>132.7</ele>
        <time>2015-01-05T21:12:08.551Z</time>
      </trkpt>
      <trkpt lat="48.83555" lon="2.32559">
        <ele>130.3</ele>
        <time>2015-01-05T21:12:15.680Z</time>
      </trkpt>
      <trkpt lat="48.83546" lon="2.32569">
        <ele>128.9</ele>
        <time>2015-01-05T21:12:16.520Z</time>
      </trkpt>
      <trkpt lat="48.83538" lon="2.32574">
        <ele>128.7</ele>
        <time>2015-01-05T21:12:19.537Z</time>
      </trkpt>
      <trkpt lat="48.83535" lon="2.32578">
        <ele>128.6</ele>
        <time>2015-01-05T21:12:20.558Z</time>
      </trkpt>
      <trkpt lat="48.83531" lon="2.32588">
        <ele>129</ele>
        <time>2015-01-05T21:12:22.520Z</time>
      </trkpt>
      <trkpt lat="48.83529" lon="2.32591">
        <ele>129.1</ele>
        <time>2015-01-05T21:12:23.530Z</time>
      </trkpt>
      <trkpt lat="48.83525" lon="2.32602">
        <ele>128.8</ele>
        <time>2015-01-05T21:12:26.639Z</time>
      </trkpt>
      <trkpt lat="48.83525" lon="2.32611">
        <ele>127.8</ele>
        <time>2015-01-05T21:12:27.533Z</time>
      </trkpt>
      <trkpt lat="48.83526" lon="2.32623">
        <ele>127.4</ele>
        <time>2015-01-05T21:12:30.578Z</time>
      </trkpt>
      <trkpt lat="48.83524" lon="2.32626">
        <ele>126.9</ele>
        <time>2015-01-05T21:12:31.696Z</time>
      </trkpt>
      <trkpt lat="48.8352" lon="2.32631">
        <ele>126.5</ele>
        <time>2015-01-05T21:12:33.586Z</time>
      </trkpt>
      <trkpt lat="48.83517" lon="2.32636">
        <ele>126.2</ele>
        <time>2015-01-05T21:12:34.604Z</time>
      </trkpt>
      <trkpt lat="48.83514" lon="2.32646">
        <ele>125.7</ele>
        <time>2015-01-05T21:12:36.545Z</time>
      </trkpt>
      <trkpt lat="48.83513" lon="2.32651">
        <ele>125.1</ele>
        <time>2015-01-05T21:12:37.520Z</time>
      </trkpt>
      <trkpt lat="48.83511" lon="2.32663">
        <ele>123.1</ele>
        <time>2015-01-05T21:12:39.551Z</time>
      </trkpt>
      <trkpt lat="48.8351" lon="2.32665">
        <ele>123</ele>
        <time>2015-01-05T21:12:40.643Z</time>
      </trkpt>
      <trkpt lat="48.83506" lon="2.32676">
        <ele>124.2</ele>
        <time>2015-01-05T21:12:45.620Z</time>
      </trkpt>
      <trkpt lat="48.83503" lon="2.32679">
        <ele>124.3</ele>
        <time>2015-01-05T21:12:46.533Z</time>
      </trkpt>
      <trkpt lat="48.83502" lon="2.32684">
        <ele>124.4</ele>
        <time>2015-01-05T21:12:48.568Z</time>
      </trkpt>
      <trkpt lat="48.83499" lon="2.32693">
        <ele>125.3</ele>
        <time>2015-01-05T21:12:49.590Z</time>
      </trkpt>
      <trkpt lat="48.83495" lon="2.32702">
        <ele>126</ele>
        <time>2015-01-05T21:12:51.523Z</time>
      </trkpt>
      <trkpt lat="48.83491" lon="2.3271">
        <ele>126</ele>
        <time>2015-01-05T21:12:52.530Z</time>
      </trkpt>
      <trkpt lat="48.83487" lon="2.32718">
        <ele>126.1</ele>
        <time>2015-01-05T21:12:53.538Z</time>
      </trkpt>
      <trkpt lat="48.83486" lon="2.32725">
        <ele>126</ele>
        <time>2015-01-05T21:12:54.543Z</time>
      </trkpt>
      <trkpt lat="48.83484" lon="2.32732">
        <ele>125.9</ele>
        <time>2015-01-05T21:12:55.573Z</time>
      </trkpt>
      <trkpt lat="48.83481" lon="2.32738">
        <ele>125.8</ele>
        <time>2015-01-05T21:12:56.569Z</time>
      </trkpt>
      <trkpt lat="48.83475" lon="2.32745">
        <ele>125.2</ele>
        <time>2015-01-05T21:12:57.486Z</time>
      </trkpt>
      <trkpt lat="48.8347" lon="2.32752">
        <ele>124.8</ele>
        <time>2015-01-05T21:12:58.517Z</time>
      </trkpt>
      <trkpt lat="48.83463" lon="2.32759">
        <ele>125.2</ele>
        <time>2015-01-05T21:13:00.537Z</time>
      </trkpt>
      <trkpt lat="48.8346" lon="2.32762">
        <ele>125.5</ele>
        <time>2015-01-05T21:13:01.540Z</time>
      </trkpt>
      <trkpt lat="48.83455" lon="2.32772">
        <ele>125.8</ele>
        <time>2015-01-05T21:13:03.573Z</time>
      </trkpt>
      <trkpt lat="48.83453" lon="2.32779">
        <ele>125.6</ele>
        <time>2015-01-05T21:13:04.581Z</time>
      </trkpt>
      <trkpt lat="48.83451" lon="2.3279">
        <ele>125.9</ele>
        <time>2015-01-05T21:13:07.209Z</time>
      </trkpt>
      <trkpt lat="48.8345" lon="2.32796">
        <ele>125.9</ele>
        <time>2015-01-05T21:13:07.561Z</time>
      </trkpt>
      <trkpt lat="48.83449" lon="2.32802">
        <ele>125.8</ele>
        <time>2015-01-05T21:13:08.571Z</time>
      </trkpt>
      <trkpt lat="48.83447" lon="2.3281">
        <ele>125.6</ele>
        <time>2015-01-05T21:13:09.574Z</time>
      </trkpt>
      <trkpt lat="48.83445" lon="2.32823">
        <ele>124.9</ele>
        <time>2015-01-05T21:13:12.311Z</time>
      </trkpt>
      <trkpt lat="48.83444" lon="2.32826">
        <ele>125.1</ele>
        <time>2015-01-05T21:13:12.524Z</time>
      </trkpt>
      <trkpt lat="48.83444" lon="2.32836">
        <ele>125.5</ele>
        <time>2015-01-05T21:13:15.573Z</time>
      </trkpt>
      <trkpt lat="48.83442" lon="2.32842">
        <ele>125.4</ele>
        <time>2015-01-05T21:13:16.580Z</time>
      </trkpt>
      <trkpt lat="48.83438" lon="2.32851">
        <ele>125.5</ele>
        <time>2015-01-05T21:13:18.591Z</time>
      </trkpt>
      <trkpt lat="48.83435" lon="2.32855">
        <ele>125.5</ele>
        <time>2015-01-05T21:13:19.591Z</time>
      </trkpt>
      <trkpt lat="48.83432" lon="2.32859">
        <ele>125.4</ele>
        <time>2015-01-05T21:13:20.625Z</time>
      </trkpt>
      <trkpt lat="48.83429" lon="2.32867">
        <ele>125.3</ele>
        <time>2015-01-05T21:13:21.508Z</time>
      </trkpt>
      <trkpt lat="48.83427" lon="2.32874">
        <ele>125.2</ele>
        <time>2015-01-05T21:13:22.504Z</time>
      </trkpt>
      <trkpt lat="48.83423" lon="2.32882">
        <ele>125.1</ele>
        <time>2015-01-05T21:13:23.512Z</time>
      </trkpt>
      <trkpt lat="48.83419" lon="2.32891">
        <ele>124.8</ele>
        <time>2015-01-05T21:13:24.518Z</time>
      </trkpt>
      <trkpt lat="48.83417" lon="2.329">
        <ele>124.9</ele>
        <time>2015-01-05T21:13:25.609Z</time>
      </trkpt>
      <trkpt lat="48.83413" lon="2.32907">
        <ele>125</ele>
        <time>2015-01-05T21:13:27.458Z</time>
      </trkpt>
      <trkpt lat="48.8341" lon="2.32912">
        <ele>125.2</ele>
        <time>2015-01-05T21:13:27.581Z</time>
      </trkpt>
      <trkpt lat="48.83405" lon="2.32915">
        <ele>125.6</ele>
        <time>2015-01-05T21:13:48.531Z</time>
      </trkpt>
      <trkpt lat="48.8341" lon="2.32928">
        <ele>127.4</ele>
        <time>2015-01-05T21:13:49.590Z</time>
      </trkpt>
      <trkpt lat="48.83404" lon="2.32933">
        <ele>128.6</ele>
        <time>2015-01-05T21:13:55.525Z</time>
      </trkpt>
      <trkpt lat="48.834" lon="2.32937">
        <ele>129</ele>
        <time>2015-01-05T21:13:56.537Z</time>
      </trkpt>
      <trkpt lat="48.83397" lon="2.32942">
        <ele>129</ele>
        <time>2015-01-05T21:13:57.547Z</time>
      </trkpt>
      <trkpt lat="48.83395" lon="2.3295">
        <ele>129.1</ele>
        <time>2015-01-05T21:13:58.568Z</time>
      </trkpt>
      <trkpt lat="48.83394" lon="2.32961">
        <ele>128.4</ele>
        <time>2015-01-05T21:13:59.477Z</time>
      </trkpt>
      <trkpt lat="48.83391" lon="2.32969">
        <ele>128.1</ele>
        <time>2015-01-05T21:14:00.516Z</time>
      </trkpt>
      <trkpt lat="48.83386" lon="2.32976">
        <ele>128.6</ele>
        <time>2015-01-05T21:14:02.564Z</time>
      </trkpt>
      <trkpt lat="48.83333" lon="2.33078">
        <ele>131.5</ele>
        <time>2015-01-05T21:14:32.597Z</time>
      </trkpt>
      <trkpt lat="48.83331" lon="2.33086">
        <ele>130.4</ele>
        <time>2015-01-05T21:14:33.559Z</time>
      </trkpt>
      <trkpt lat="48.83332" lon="2.33095">
        <ele>127.6</ele>
        <time>2015-01-05T21:14:34.517Z</time>
      </trkpt>
      <trkpt lat="48.83333" lon="2.33103">
        <ele>125.3</ele>
        <time>2015-01-05T21:14:51.554Z</time>
      </trkpt>
      <trkpt lat="48.83332" lon="2.33148">
        <ele>118.2</ele>
        <time>2015-01-05T21:14:52.516Z</time>
      </trkpt>
      <trkpt lat="48.83327" lon="2.33156">
        <ele>118.6</ele>
        <time>2015-01-05T21:14:54.545Z</time>
      </trkpt>
      <trkpt lat="48.83325" lon="2.3316">
        <ele>119.1</ele>
        <time>2015-01-05T21:14:55.542Z</time>
      </trkpt>
      <trkpt lat="48.83334" lon="2.33165">
        <ele>120.6</ele>
        <time>2015-01-05T21:15:04.512Z</time>
      </trkpt>
      <trkpt lat="48.83336" lon="2.33167">
        <ele>119.9</ele>
        <time>2015-01-05T21:15:05.650Z</time>
      </trkpt>
      <trkpt lat="48.83339" lon="2.33175">
        <ele>120</ele>
        <time>2015-01-05T21:15:08.613Z</time>
      </trkpt>
      <trkpt lat="48.8334" lon="2.3318">
        <ele>119.8</ele>
        <time>2015-01-05T21:15:08.676Z</time>
      </trkpt>
      <trkpt lat="48.83341" lon="2.33192">
        <ele>119.8</ele>
        <time>2015-01-05T21:15:10.510Z</time>
      </trkpt>
      <trkpt lat="48.83341" lon="2.33199">
        <ele>119.9</ele>
        <time>2015-01-05T21:15:11.556Z</time>
      </trkpt>
      <trkpt lat="48.8334" lon="2.33206">
        <ele>119.7</ele>
        <time>2015-01-05T21:15:12.567Z</time>
      </trkpt>
      <trkpt lat="48.83339" lon="2.33214">
        <ele>119.5</ele>
        <time>2015-01-05T21:15:13.572Z</time>
      </trkpt>
      <trkpt lat="48.83339" lon="2.33221">
        <ele>119.6</ele>
        <time>2015-01-05T21:15:14.587Z</time>
      </trkpt>
      <trkpt lat="48.83338" lon="2.33228">
        <ele>119.4</ele>
        <time>2015-01-05T21:15:15.588Z</time>
      </trkpt>
      <trkpt lat="48.83337" lon="2.33237">
        <ele>119</ele>
        <time>2015-01-05T21:15:16.614Z</time>
      </trkpt>
      <trkpt lat="48.83336" lon="2.33247">
        <ele>119</ele>
        <time>2015-01-05T21:15:17.588Z</time>
      </trkpt>
      <trkpt lat="48.8334" lon="2.33249">
        <ele>115.6</ele>
        <time>2015-01-05T21:15:20.562Z</time>
      </trkpt>
      <trkpt lat="48.83346" lon="2.33242">
        <ele>114.1</ele>
        <time>2015-01-05T21:15:21.631Z</time>
      </trkpt>
      <trkpt lat="48.83352" lon="2.33233">
        <ele>112.9</ele>
        <time>2015-01-05T21:15:22.624Z</time>
      </trkpt>
      <trkpt lat="48.83356" lon="2.33232">
        <ele>113.3</ele>
        <time>2015-01-05T21:15:23.513Z</time>
      </trkpt>
      <trkpt lat="48.83359" lon="2.33231">
        <ele>113.8</ele>
        <time>2015-01-05T21:15:27.562Z</time>
      </trkpt>
      <trkpt lat="48.83367" lon="2.33235">
        <ele>114.3</ele>
        <time>2015-01-05T21:15:28.580Z</time>
      </trkpt>
      <trkpt lat="48.83371" lon="2.33241">
        <ele>114.4</ele>
        <time>2015-01-05T21:15:30.529Z</time>
      </trkpt>
      <trkpt lat="48.83372" lon="2.33246">
        <ele>113.9</ele>
        <time>2015-01-05T21:15:31.542Z</time>
      </trkpt>
      <trkpt lat="48.83373" lon="2.33252">
        <ele>113.3</ele>
        <time>2015-01-05T21:15:32.611Z</time>
      </trkpt>
      <trkpt lat="48.83374" lon="2.3326">
        <ele>112.9</ele>
        <time>2015-01-05T21:15:33.515Z</time>
      </trkpt>
      <trkpt lat="48.8338" lon="2.33269">
        <ele>110.2</ele>
        <time>2015-01-05T21:15:36.538Z</time>
      </trkpt>
      <trkpt lat="48.83381" lon="2.33274">
        <ele>109.7</ele>
        <time>2015-01-05T21:15:37.541Z</time>
      </trkpt>
      <trkpt lat="48.83387" lon="2.33285">
        <ele>108.4</ele>
        <time>2015-01-05T21:15:40.626Z</time>
      </trkpt>
      <trkpt lat="48.83388" lon="2.33288">
        <ele>108.1</ele>
        <time>2015-01-05T21:15:41.535Z</time>
      </trkpt>
      <trkpt lat="48.83396" lon="2.33292">
        <ele>107.1</ele>
        <time>2015-01-05T21:15:44.577Z</time>
      </trkpt>
      <trkpt lat="48.83399" lon="2.33294">
        <ele>106.7</ele>
        <time>2015-01-05T21:15:45.579Z</time>
      </trkpt>
      <trkpt lat="48.83406" lon="2.33294">
        <ele>107.2</ele>
        <time>2015-01-05T21:15:47.540Z</time>
      </trkpt>
      <trkpt lat="48.8341" lon="2.33294">
        <ele>107.6</ele>
        <time>2015-01-05T21:15:48.574Z</time>
      </trkpt>
      <trkpt lat="48.8341" lon="2.33294">
        <ele>107.6</ele>
        <time>2015-01-05T21:16:07.569Z</time>
      </trkpt>
      <trkpt lat="48.83426" lon="2.33292">
        <ele>108.4</ele>
        <time>2015-01-05T21:16:08.670Z</time>
      </trkpt>
      <trkpt lat="48.83433" lon="2.33298">
        <ele>108.6</ele>
        <time>2015-01-05T21:16:12.621Z</time>
      </trkpt>
      <trkpt lat="48.83435" lon="2.33299">
        <ele>108.6</ele>
        <time>2015-01-05T21:16:13.561Z</time>
      </trkpt>
      <trkpt lat="48.83443" lon="2.33298">
        <ele>109.2</ele>
        <time>2015-01-05T21:16:16.637Z</time>
      </trkpt>
      <trkpt lat="48.83447" lon="2.33297">
        <ele>110.1</ele>
        <time>2015-01-05T21:16:17.552Z</time>
      </trkpt>
      <trkpt lat="48.83455" lon="2.33295">
        <ele>112.3</ele>
        <time>2015-01-05T21:16:19.571Z</time>
      </trkpt>
      <trkpt lat="48.83458" lon="2.33294">
        <ele>113.1</ele>
        <time>2015-01-05T21:16:20.628Z</time>
      </trkpt>
      <trkpt lat="48.83466" lon="2.33291">
        <ele>113.7</ele>
        <time>2015-01-05T21:16:22.543Z</time>
      </trkpt>
      <trkpt lat="48.83467" lon="2.33289">
        <ele>113.6</ele>
        <time>2015-01-05T21:16:23.552Z</time>
      </trkpt>
      <trkpt lat="48.83474" lon="2.33284">
        <ele>114</ele>
        <time>2015-01-05T21:16:26.625Z</time>
      </trkpt>
      <trkpt lat="48.83476" lon="2.33284">
        <ele>114.2</ele>
        <time>2015-01-05T21:16:27.548Z</time>
      </trkpt>
      <trkpt lat="48.83484" lon="2.33288">
        <ele>115.3</ele>
        <time>2015-01-05T21:16:30.586Z</time>
      </trkpt>
      <trkpt lat="48.83488" lon="2.3329">
        <ele>115.9</ele>
        <time>2015-01-05T21:16:31.594Z</time>
      </trkpt>
      <trkpt lat="48.83495" lon="2.33297">
        <ele>116.2</ele>
        <time>2015-01-05T21:16:33.627Z</time>
      </trkpt>
      <trkpt lat="48.83498" lon="2.33301">
        <ele>116.4</ele>
        <time>2015-01-05T21:16:34.547Z</time>
      </trkpt>
      <trkpt lat="48.83502" lon="2.33306">
        <ele>116.4</ele>
        <time>2015-01-05T21:16:35.571Z</time>
      </trkpt>
      <trkpt lat="48.83505" lon="2.33311">
        <ele>116.7</ele>
        <time>2015-01-05T21:16:36.577Z</time>
      </trkpt>
      <trkpt lat="48.83508" lon="2.33322">
        <ele>117.2</ele>
        <time>2015-01-05T21:16:38.573Z</time>
      </trkpt>
      <trkpt lat="48.8351" lon="2.33334">
        <ele>117.2</ele>
        <time>2015-01-05T21:16:40.590Z</time>
      </trkpt>
      <trkpt lat="48.83512" lon="2.33344">
        <ele>117.4</ele>
        <time>2015-01-05T21:16:42.550Z</time>
      </trkpt>
      <trkpt lat="48.83513" lon="2.33351">
        <ele>116.9</ele>
        <time>2015-01-05T21:16:43.559Z</time>
      </trkpt>
      <trkpt lat="48.83514" lon="2.33364">
        <ele>116.9</ele>
        <time>2015-01-05T21:16:45.524Z</time>
      </trkpt>
      <trkpt lat="48.83514" lon="2.33371">
        <ele>116.9</ele>
        <time>2015-01-05T21:16:46.535Z</time>
      </trkpt>
      <trkpt lat="48.83514" lon="2.3338">
        <ele>116.8</ele>
        <time>2015-01-05T21:16:47.561Z</time>
      </trkpt>
      <trkpt lat="48.83514" lon="2.33388">
        <ele>116.5</ele>
        <time>2015-01-05T21:16:48.571Z</time>
      </trkpt>
      <trkpt lat="48.83517" lon="2.33401">
        <ele>115.7</ele>
        <time>2015-01-05T21:16:50.591Z</time>
      </trkpt>
      <trkpt lat="48.83518" lon="2.33406">
        <ele>115.6</ele>
        <time>2015-01-05T21:16:51.611Z</time>
      </trkpt>
      <trkpt lat="48.83522" lon="2.33416">
        <ele>115.2</ele>
        <time>2015-01-05T21:16:53.541Z</time>
      </trkpt>
      <trkpt lat="48.83522" lon="2.33423">
        <ele>114.9</ele>
        <time>2015-01-05T21:16:54.556Z</time>
      </trkpt>
      <trkpt lat="48.83525" lon="2.33435">
        <ele>114.2</ele>
        <time>2015-01-05T21:16:56.603Z</time>
      </trkpt>
      <trkpt lat="48.83526" lon="2.33442">
        <ele>114.1</ele>
        <time>2015-01-05T21:16:57.616Z</time>
      </trkpt>
      <trkpt lat="48.83531" lon="2.33453">
        <ele>113.6</ele>
        <time>2015-01-05T21:16:59.528Z</time>
      </trkpt>
      <trkpt lat="48.83535" lon="2.33455">
        <ele>113.3</ele>
        <time>2015-01-05T21:17:00.542Z</time>
      </trkpt>
      <trkpt lat="48.8354" lon="2.33455">
        <ele>113.3</ele>
        <time>2015-01-05T21:17:01.559Z</time>
      </trkpt>
      <trkpt lat="48.83544" lon="2.33458">
        <ele>113.2</ele>
        <time>2015-01-05T21:17:02.577Z</time>
      </trkpt>
      <trkpt lat="48.83549" lon="2.33461">
        <ele>112.8</ele>
        <time>2015-01-05T21:17:03.576Z</time>
      </trkpt>
      <trkpt lat="48.83553" lon="2.33464">
        <ele>112.6</ele>
        <time>2015-01-05T21:17:04.590Z</time>
      </trkpt>
      <trkpt lat="48.83557" lon="2.33469">
        <ele>112.2</ele>
        <time>2015-01-05T21:17:05.597Z</time>
      </trkpt>
      <trkpt lat="48.83562" lon="2.33469">
        <ele>111.9</ele>
        <time>2015-01-05T21:17:06.611Z</time>
      </trkpt>
      <trkpt lat="48.83566" lon="2.33471">
        <ele>111.6</ele>
        <time>2015-01-05T21:17:07.520Z</time>
      </trkpt>
      <trkpt lat="48.83574" lon="2.33474">
        <ele>110.9</ele>
        <time>2015-01-05T21:17:08.556Z</time>
      </trkpt>
      <trkpt lat="48.83583" lon="2.33471">
        <ele>110.6</ele>
        <time>2015-01-05T21:17:09.568Z</time>
      </trkpt>
      <trkpt lat="48.83592" lon="2.3347">
        <ele>110.5</ele>
        <time>2015-01-05T21:17:10.536Z</time>
      </trkpt>
      <trkpt lat="48.83599" lon="2.33471">
        <ele>110.6</ele>
        <time>2015-01-05T21:17:11.532Z</time>
      </trkpt>
      <trkpt lat="48.83607" lon="2.33471">
        <ele>110.4</ele>
        <time>2015-01-05T21:17:12.570Z</time>
      </trkpt>
      <trkpt lat="48.83615" lon="2.3347">
        <ele>110.4</ele>
        <time>2015-01-05T21:17:13.575Z</time>
      </trkpt>
      <trkpt lat="48.83626" lon="2.33468">
        <ele>110.4</ele>
        <time>2015-01-05T21:17:14.620Z</time>
      </trkpt>
      <trkpt lat="48.83635" lon="2.33466">
        <ele>110.7</ele>
        <time>2015-01-05T21:17:15.527Z</time>
      </trkpt>
      <trkpt lat="48.83646" lon="2.33464">
        <ele>110.5</ele>
        <time>2015-01-05T21:17:16.526Z</time>
      </trkpt>
      <trkpt lat="48.83656" lon="2.33465">
        <ele>110.4</ele>
        <time>2015-01-05T21:17:17.535Z</time>
      </trkpt>
      <trkpt lat="48.83662" lon="2.33469">
        <ele>110.3</ele>
        <time>2015-01-05T21:17:18.539Z</time>
      </trkpt>
      <trkpt lat="48.83668" lon="2.33474">
        <ele>110.7</ele>
        <time>2015-01-05T21:17:19.541Z</time>
      </trkpt>
      <trkpt lat="48.83673" lon="2.33477">
        <ele>110.4</ele>
        <time>2015-01-05T21:17:20.572Z</time>
      </trkpt>
      <trkpt lat="48.83679" lon="2.33481">
        <ele>110.4</ele>
        <time>2015-01-05T21:17:21.585Z</time>
      </trkpt>
      <trkpt lat="48.83686" lon="2.33485">
        <ele>109.8</ele>
        <time>2015-01-05T21:17:22.520Z</time>
      </trkpt>
      <trkpt lat="48.83693" lon="2.33489">
        <ele>109.9</ele>
        <time>2015-01-05T21:17:23.526Z</time>
      </trkpt>
      <trkpt lat="48.83699" lon="2.33495">
        <ele>109.8</ele>
        <time>2015-01-05T21:17:24.606Z</time>
      </trkpt>
      <trkpt lat="48.83705" lon="2.33499">
        <ele>109</ele>
        <time>2015-01-05T21:17:25.536Z</time>
      </trkpt>
      <trkpt lat="48.83714" lon="2.33501">
        <ele>108.4</ele>
        <time>2015-01-05T21:17:26.572Z</time>
      </trkpt>
      <trkpt lat="48.83724" lon="2.33502">
        <ele>107.9</ele>
        <time>2015-01-05T21:17:27.599Z</time>
      </trkpt>
      <trkpt lat="48.83731" lon="2.33505">
        <ele>107.9</ele>
        <time>2015-01-05T21:17:28.627Z</time>
      </trkpt>
      <trkpt lat="48.83742" lon="2.33504">
        <ele>107.5</ele>
        <time>2015-01-05T21:17:29.534Z</time>
      </trkpt>
      <trkpt lat="48.83751" lon="2.33504">
        <ele>106.9</ele>
        <time>2015-01-05T21:17:30.538Z</time>
      </trkpt>
      <trkpt lat="48.8376" lon="2.33507">
        <ele>106.3</ele>
        <time>2015-01-05T21:17:31.591Z</time>
      </trkpt>
      <trkpt lat="48.83766" lon="2.33514">
        <ele>105.7</ele>
        <time>2015-01-05T21:17:32.652Z</time>
      </trkpt>
      <trkpt lat="48.83819" lon="2.33578">
        <ele>104.2</ele>
        <time>2015-01-05T21:17:41.555Z</time>
      </trkpt>
      <trkpt lat="48.83826" lon="2.33583">
        <ele>104.8</ele>
        <time>2015-01-05T21:17:42.666Z</time>
      </trkpt>
      <trkpt lat="48.83835" lon="2.33585">
        <ele>104.9</ele>
        <time>2015-01-05T21:17:43.545Z</time>
      </trkpt>
      <trkpt lat="48.8384" lon="2.33593">
        <ele>105.7</ele>
        <time>2015-01-05T21:17:44.568Z</time>
      </trkpt>
      <trkpt lat="48.83849" lon="2.33601">
        <ele>106.8</ele>
        <time>2015-01-05T21:17:45.547Z</time>
      </trkpt>
      <trkpt lat="48.83853" lon="2.33612">
        <ele>107.7</ele>
        <time>2015-01-05T21:17:46.526Z</time>
      </trkpt>
      <trkpt lat="48.83859" lon="2.33619">
        <ele>108</ele>
        <time>2015-01-05T21:17:47.529Z</time>
      </trkpt>
      <trkpt lat="48.83864" lon="2.33627">
        <ele>108</ele>
        <time>2015-01-05T21:17:48.553Z</time>
      </trkpt>
      <trkpt lat="48.83871" lon="2.33629">
        <ele>108.3</ele>
        <time>2015-01-05T21:17:49.565Z</time>
      </trkpt>
      <trkpt lat="48.8387" lon="2.33644">
        <ele>109</ele>
        <time>2015-01-05T21:17:50.583Z</time>
      </trkpt>
      <trkpt lat="48.83872" lon="2.33654">
        <ele>109.8</ele>
        <time>2015-01-05T21:17:51.596Z</time>
      </trkpt>
      <trkpt lat="48.83875" lon="2.33661">
        <ele>110.3</ele>
        <time>2015-01-05T21:17:52.606Z</time>
      </trkpt>
      <trkpt lat="48.83879" lon="2.33666">
        <ele>110.7</ele>
        <time>2015-01-05T21:17:53.670Z</time>
      </trkpt>
      <trkpt lat="48.83883" lon="2.3367">
        <ele>111.3</ele>
        <time>2015-01-05T21:17:54.533Z</time>
      </trkpt>
      <trkpt lat="48.83889" lon="2.33678">
        <ele>113</ele>
        <time>2015-01-05T21:17:56.576Z</time>
      </trkpt>
      <trkpt lat="48.83892" lon="2.33681">
        <ele>114.1</ele>
        <time>2015-01-05T21:17:57.600Z</time>
      </trkpt>
      <trkpt lat="48.83895" lon="2.33689">
        <ele>116.3</ele>
        <time>2015-01-05T21:17:59.522Z</time>
      </trkpt>
      <trkpt lat="48.83899" lon="2.33691">
        <ele>117.5</ele>
        <time>2015-01-05T21:18:00.513Z</time>
      </trkpt>
      <trkpt lat="48.83906" lon="2.33694">
        <ele>119.1</ele>
        <time>2015-01-05T21:18:02.563Z</time>
      </trkpt>
      <trkpt lat="48.83909" lon="2.33695">
        <ele>120</ele>
        <time>2015-01-05T21:18:03.576Z</time>
      </trkpt>
      <trkpt lat="48.83916" lon="2.33696">
        <ele>120.9</ele>
        <time>2015-01-05T21:18:05.502Z</time>
      </trkpt>
      <trkpt lat="48.8392" lon="2.33698">
        <ele>121.6</ele>
        <time>2015-01-05T21:18:06.532Z</time>
      </trkpt>
      <trkpt lat="48.83926" lon="2.33699">
        <ele>123.1</ele>
        <time>2015-01-05T21:18:08.570Z</time>
      </trkpt>
      <trkpt lat="48.83929" lon="2.337">
        <ele>123.8</ele>
        <time>2015-01-05T21:18:09.570Z</time>
      </trkpt>
      <trkpt lat="48.83937" lon="2.33703">
        <ele>122.1</ele>
        <time>2015-01-05T21:18:13.537Z</time>
      </trkpt>
      <trkpt lat="48.83938" lon="2.33704">
        <ele>122.3</ele>
        <time>2015-01-05T21:18:14.574Z</time>
      </trkpt>
      <trkpt lat="48.83938" lon="2.33704">
        <ele>122.3</ele>
        <time>2015-01-05T21:18:36.579Z</time>
      </trkpt>
      <trkpt lat="48.83964" lon="2.33704">
        <ele>124.3</ele>
        <time>2015-01-05T21:18:37.592Z</time>
      </trkpt>
      <trkpt lat="48.83971" lon="2.33698">
        <ele>121.1</ele>
        <time>2015-01-05T21:18:39.530Z</time>
      </trkpt>
      <trkpt lat="48.83974" lon="2.33696">
        <ele>120.4</ele>
        <time>2015-01-05T21:18:40.541Z</time>
      </trkpt>
      <trkpt lat="48.83981" lon="2.3369">
        <ele>118.9</ele>
        <time>2015-01-05T21:18:43.578Z</time>
      </trkpt>
      <trkpt lat="48.83982" lon="2.3369">
        <ele>118.3</ele>
        <time>2015-01-05T21:18:44.600Z</time>
      </trkpt>
      <trkpt lat="48.83988" lon="2.33689">
        <ele>118.2</ele>
        <time>2015-01-05T21:18:46.519Z</time>
      </trkpt>
      <trkpt lat="48.83991" lon="2.33689">
        <ele>118</ele>
        <time>2015-01-05T21:18:47.539Z</time>
      </trkpt>
      <trkpt lat="48.83999" lon="2.33692">
        <ele>117.9</ele>
        <time>2015-01-05T21:18:49.574Z</time>
      </trkpt>
      <trkpt lat="48.84002" lon="2.33693">
        <ele>117.9</ele>
        <time>2015-01-05T21:18:50.584Z</time>
      </trkpt>
      <trkpt lat="48.84009" lon="2.33696">
        <ele>117.8</ele>
        <time>2015-01-05T21:18:52.530Z</time>
      </trkpt>
      <trkpt lat="48.84011" lon="2.33699">
        <ele>117.7</ele>
        <time>2015-01-05T21:18:53.532Z</time>
      </trkpt>
      <trkpt lat="48.84016" lon="2.3371">
        <ele>118.9</ele>
        <time>2015-01-05T21:18:56.573Z</time>
      </trkpt>
      <trkpt lat="48.84017" lon="2.33714">
        <ele>119.2</ele>
        <time>2015-01-05T21:18:57.596Z</time>
      </trkpt>
      <trkpt lat="48.84024" lon="2.33723">
        <ele>120.3</ele>
        <time>2015-01-05T21:19:00.545Z</time>
      </trkpt>
      <trkpt lat="48.84027" lon="2.33724">
        <ele>120.6</ele>
        <time>2015-01-05T21:19:01.555Z</time>
      </trkpt>
      <trkpt lat="48.84035" lon="2.33728">
        <ele>121.4</ele>
        <time>2015-01-05T21:19:04.628Z</time>
      </trkpt>
      <trkpt lat="48.84038" lon="2.33729">
        <ele>121.6</ele>
        <time>2015-01-05T21:19:05.529Z</time>
      </trkpt>
      <trkpt lat="48.84044" lon="2.33732">
        <ele>121.9</ele>
        <time>2015-01-05T21:19:07.665Z</time>
      </trkpt>
      <trkpt lat="48.84048" lon="2.33734">
        <ele>122.1</ele>
        <time>2015-01-05T21:19:08.691Z</time>
      </trkpt>
      <trkpt lat="48.84055" lon="2.33735">
        <ele>122.3</ele>
        <time>2015-01-05T21:19:10.615Z</time>
      </trkpt>
      <trkpt lat="48.84058" lon="2.33733">
        <ele>121.9</ele>
        <time>2015-01-05T21:19:11.627Z</time>
      </trkpt>
      <trkpt lat="48.84065" lon="2.33728">
        <ele>121.3</ele>
        <time>2015-01-05T21:19:13.515Z</time>
      </trkpt>
      <trkpt lat="48.84068" lon="2.33728">
        <ele>121.4</ele>
        <time>2015-01-05T21:19:14.602Z</time>
      </trkpt>
      <trkpt lat="48.84076" lon="2.33731">
        <ele>122.4</ele>
        <time>2015-01-05T21:19:17.538Z</time>
      </trkpt>
      <trkpt lat="48.84079" lon="2.33732">
        <ele>122.7</ele>
        <time>2015-01-05T21:19:18.750Z</time>
      </trkpt>
      <trkpt lat="48.84087" lon="2.33733">
        <ele>123.4</ele>
        <time>2015-01-05T21:19:20.596Z</time>
      </trkpt>
      <trkpt lat="48.84092" lon="2.33734">
        <ele>123.7</ele>
        <time>2015-01-05T21:19:21.611Z</time>
      </trkpt>
      <trkpt lat="48.841" lon="2.33734">
        <ele>124.6</ele>
        <time>2015-01-05T21:19:23.525Z</time>
      </trkpt>
      <trkpt lat="48.84105" lon="2.33735">
        <ele>124.8</ele>
        <time>2015-01-05T21:19:24.538Z</time>
      </trkpt>
      <trkpt lat="48.84109" lon="2.33735">
        <ele>125.1</ele>
        <time>2015-01-05T21:19:25.559Z</time>
      </trkpt>
      <trkpt lat="48.84116" lon="2.33737">
        <ele>124.9</ele>
        <time>2015-01-05T21:19:26.568Z</time>
      </trkpt>
      <trkpt lat="48.84122" lon="2.33739">
        <ele>124.6</ele>
        <time>2015-01-05T21:19:27.583Z</time>
      </trkpt>
      <trkpt lat="48.84126" lon="2.33742">
        <ele>124.6</ele>
        <time>2015-01-05T21:19:28.593Z</time>
      </trkpt>
      <trkpt lat="48.84131" lon="2.33744">
        <ele>124.5</ele>
        <time>2015-01-05T21:19:29.607Z</time>
      </trkpt>
      <trkpt lat="48.84137" lon="2.33745">
        <ele>124.6</ele>
        <time>2015-01-05T21:19:30.506Z</time>
      </trkpt>
      <trkpt lat="48.84144" lon="2.33747">
        <ele>124.6</ele>
        <time>2015-01-05T21:19:31.519Z</time>
      </trkpt>
      <trkpt lat="48.84149" lon="2.3375">
        <ele>124.4</ele>
        <time>2015-01-05T21:19:32.582Z</time>
      </trkpt>
      <trkpt lat="48.84157" lon="2.33752">
        <ele>124.8</ele>
        <time>2015-01-05T21:19:33.592Z</time>
      </trkpt>
      <trkpt lat="48.84164" lon="2.33754">
        <ele>124.8</ele>
        <time>2015-01-05T21:19:34.614Z</time>
      </trkpt>
      <trkpt lat="48.84171" lon="2.33756">
        <ele>125.2</ele>
        <time>2015-01-05T21:19:35.620Z</time>
      </trkpt>
      <trkpt lat="48.84177" lon="2.33759">
        <ele>125.6</ele>
        <time>2015-01-05T21:19:36.623Z</time>
      </trkpt>
      <trkpt lat="48.84183" lon="2.33761">
        <ele>125.8</ele>
        <time>2015-01-05T21:19:37.655Z</time>
      </trkpt>
      <trkpt lat="48.84187" lon="2.33764">
        <ele>125.8</ele>
        <time>2015-01-05T21:19:38.657Z</time>
      </trkpt>
      <trkpt lat="48.84191" lon="2.33767">
        <ele>125.8</ele>
        <time>2015-01-05T21:19:39.688Z</time>
      </trkpt>
      <trkpt lat="48.84195" lon="2.33772">
        <ele>125.5</ele>
        <time>2015-01-05T21:19:40.699Z</time>
      </trkpt>
      <trkpt lat="48.84198" lon="2.33779">
        <ele>125.4</ele>
        <time>2015-01-05T21:19:41.520Z</time>
      </trkpt>
      <trkpt lat="48.84201" lon="2.33785">
        <ele>125.2</ele>
        <time>2015-01-05T21:19:42.525Z</time>
      </trkpt>
      <trkpt lat="48.84204" lon="2.33792">
        <ele>124.7</ele>
        <time>2015-01-05T21:19:43.535Z</time>
      </trkpt>
      <trkpt lat="48.84205" lon="2.33799">
        <ele>124.5</ele>
        <time>2015-01-05T21:19:44.558Z</time>
      </trkpt>
      <trkpt lat="48.84207" lon="2.33811">
        <ele>124.9</ele>
        <time>2015-01-05T21:19:46.600Z</time>
      </trkpt>
      <trkpt lat="48.84206" lon="2.33819">
        <ele>124.8</ele>
        <time>2015-01-05T21:19:47.521Z</time>
      </trkpt>
      <trkpt lat="48.84207" lon="2.33825">
        <ele>124.7</ele>
        <time>2015-01-05T21:19:48.650Z</time>
      </trkpt>
      <trkpt lat="48.84207" lon="2.33832">
        <ele>123.9</ele>
        <time>2015-01-05T21:19:49.530Z</time>
      </trkpt>
      <trkpt lat="48.8421" lon="2.33843">
        <ele>122.3</ele>
        <time>2015-01-05T21:19:51.569Z</time>
      </trkpt>
      <trkpt lat="48.84212" lon="2.33849">
        <ele>122.2</ele>
        <time>2015-01-05T21:19:52.498Z</time>
      </trkpt>
      <trkpt lat="48.84214" lon="2.33857">
        <ele>122.1</ele>
        <time>2015-01-05T21:19:53.518Z</time>
      </trkpt>
      <trkpt lat="48.84214" lon="2.33866">
        <ele>122.1</ele>
        <time>2015-01-05T21:19:54.529Z</time>
      </trkpt>
      <trkpt lat="48.84215" lon="2.33876">
        <ele>122</ele>
        <time>2015-01-05T21:19:55.596Z</time>
      </trkpt>
      <trkpt lat="48.84194" lon="2.34117">
        <ele>113.7</ele>
        <time>2015-01-05T21:20:17.522Z</time>
      </trkpt>
      <trkpt lat="48.84197" lon="2.34124">
        <ele>111.7</ele>
        <time>2015-01-05T21:20:19.548Z</time>
      </trkpt>
      <trkpt lat="48.84203" lon="2.34124">
        <ele>110.7</ele>
        <time>2015-01-05T21:20:20.567Z</time>
      </trkpt>
      <trkpt lat="48.8421" lon="2.34121">
        <ele>109.6</ele>
        <time>2015-01-05T21:20:21.600Z</time>
      </trkpt>
      <trkpt lat="48.84216" lon="2.34122">
        <ele>108.8</ele>
        <time>2015-01-05T21:20:22.618Z</time>
      </trkpt>
      <trkpt lat="48.84221" lon="2.34125">
        <ele>108.5</ele>
        <time>2015-01-05T21:20:23.513Z</time>
      </trkpt>
      <trkpt lat="48.84227" lon="2.34128">
        <ele>108</ele>
        <time>2015-01-05T21:20:24.520Z</time>
      </trkpt>
      <trkpt lat="48.84231" lon="2.3413">
        <ele>107.4</ele>
        <time>2015-01-05T21:20:25.525Z</time>
      </trkpt>
      <trkpt lat="48.84236" lon="2.34132">
        <ele>106.7</ele>
        <time>2015-01-05T21:20:26.562Z</time>
      </trkpt>
      <trkpt lat="48.84242" lon="2.34134">
        <ele>106.5</ele>
        <time>2015-01-05T21:20:27.589Z</time>
      </trkpt>
      <trkpt lat="48.84246" lon="2.34135">
        <ele>106.2</ele>
        <time>2015-01-05T21:20:28.510Z</time>
      </trkpt>
      <trkpt lat="48.84254" lon="2.34141">
        <ele>106</ele>
        <time>2015-01-05T21:20:30.553Z</time>
      </trkpt>
      <trkpt lat="48.84259" lon="2.34145">
        <ele>105.9</ele>
        <time>2015-01-05T21:20:31.568Z</time>
      </trkpt>
      <trkpt lat="48.84265" lon="2.34148">
        <ele>105.6</ele>
        <time>2015-01-05T21:20:32.602Z</time>
      </trkpt>
      <trkpt lat="48.8427" lon="2.34154">
        <ele>105.6</ele>
        <time>2015-01-05T21:20:33.514Z</time>
      </trkpt>
      <trkpt lat="48.84275" lon="2.34157">
        <ele>105.4</ele>
        <time>2015-01-05T21:20:34.528Z</time>
      </trkpt>
      <trkpt lat="48.84281" lon="2.3416">
        <ele>105.5</ele>
        <time>2015-01-05T21:20:35.533Z</time>
      </trkpt>
      <trkpt lat="48.84288" lon="2.34162">
        <ele>105.4</ele>
        <time>2015-01-05T21:20:36.532Z</time>
      </trkpt>
      <trkpt lat="48.84296" lon="2.34162">
        <ele>105</ele>
        <time>2015-01-05T21:20:37.546Z</time>
      </trkpt>
      <trkpt lat="48.84304" lon="2.34164">
        <ele>104.8</ele>
        <time>2015-01-05T21:20:38.549Z</time>
      </trkpt>
      <trkpt lat="48.84316" lon="2.34158">
        <ele>104.3</ele>
        <time>2015-01-05T21:20:39.565Z</time>
      </trkpt>
      <trkpt lat="48.84316" lon="2.34158">
        <ele>104.3</ele>
        <time>2015-01-05T21:20:39.882Z</time>
      </trkpt>
      <trkpt lat="48.8433" lon="2.34152">
        <ele>104</ele>
        <time>2015-01-05T21:20:40.603Z</time>
      </trkpt>
      <trkpt lat="48.84345" lon="2.34144">
        <ele>103.8</ele>
        <time>2015-01-05T21:20:41.520Z</time>
      </trkpt>
      <trkpt lat="48.84364" lon="2.3413">
        <ele>103.4</ele>
        <time>2015-01-05T21:20:42.520Z</time>
      </trkpt>
      <trkpt lat="48.84383" lon="2.34114">
        <ele>103.2</ele>
        <time>2015-01-05T21:20:43.560Z</time>
      </trkpt>
      <trkpt lat="48.84402" lon="2.341">
        <ele>103.1</ele>
        <time>2015-01-05T21:20:44.569Z</time>
      </trkpt>
      <trkpt lat="48.8442" lon="2.34089">
        <ele>103.3</ele>
        <time>2015-01-05T21:20:45.583Z</time>
      </trkpt>
      <trkpt lat="48.84447" lon="2.34065">
        <ele>103.5</ele>
        <time>2015-01-05T21:20:46.520Z</time>
      </trkpt>
      <trkpt lat="48.84467" lon="2.34053">
        <ele>103.7</ele>
        <time>2015-01-05T21:20:47.526Z</time>
      </trkpt>
      <trkpt lat="48.84484" lon="2.34043">
        <ele>104</ele>
        <time>2015-01-05T21:20:48.549Z</time>
      </trkpt>
      <trkpt lat="48.84501" lon="2.34036">
        <ele>104.9</ele>
        <time>2015-01-05T21:20:49.597Z</time>
      </trkpt>
      <trkpt lat="48.84516" lon="2.34034">
        <ele>105</ele>
        <time>2015-01-05T21:20:50.614Z</time>
      </trkpt>
      <trkpt lat="48.8453" lon="2.34034">
        <ele>105.3</ele>
        <time>2015-01-05T21:20:51.534Z</time>
      </trkpt>
      <trkpt lat="48.84543" lon="2.34032">
        <ele>105.6</ele>
        <time>2015-01-05T21:20:52.513Z</time>
      </trkpt>
      <trkpt lat="48.84569" lon="2.34016">
        <ele>106.9</ele>
        <time>2015-01-05T21:20:53.522Z</time>
      </trkpt>
      <trkpt lat="48.84588" lon="2.34008">
        <ele>107.8</ele>
        <time>2015-01-05T21:20:54.533Z</time>
      </trkpt>
      <trkpt lat="48.84603" lon="2.34004">
        <ele>108.9</ele>
        <time>2015-01-05T21:20:55.543Z</time>
      </trkpt>
      <trkpt lat="48.84615" lon="2.34001">
        <ele>110.4</ele>
        <time>2015-01-05T21:20:56.550Z</time>
      </trkpt>
      <trkpt lat="48.84623" lon="2.33999">
        <ele>111.5</ele>
        <time>2015-01-05T21:20:57.555Z</time>
      </trkpt>
      <trkpt lat="48.84629" lon="2.33998">
        <ele>112.5</ele>
        <time>2015-01-05T21:20:58.557Z</time>
      </trkpt>
      <trkpt lat="48.84637" lon="2.33999">
        <ele>114.1</ele>
        <time>2015-01-05T21:21:00.571Z</time>
      </trkpt>
      <trkpt lat="48.84642" lon="2.34">
        <ele>114.8</ele>
        <time>2015-01-05T21:21:01.584Z</time>
      </trkpt>
      <trkpt lat="48.84644" lon="2.34012">
        <ele>117.9</ele>
        <time>2015-01-05T21:21:03.608Z</time>
      </trkpt>
      <trkpt lat="48.84647" lon="2.34018">
        <ele>119.3</ele>
        <time>2015-01-05T21:21:04.619Z</time>
      </trkpt>
      <trkpt lat="48.84651" lon="2.34027">
        <ele>119.3</ele>
        <time>2015-01-05T21:21:05.526Z</time>
      </trkpt>
      <trkpt lat="48.84659" lon="2.34033">
        <ele>118</ele>
        <time>2015-01-05T21:21:06.525Z</time>
      </trkpt>
      <trkpt lat="48.84665" lon="2.34037">
        <ele>118</ele>
        <time>2015-01-05T21:21:07.541Z</time>
      </trkpt>
      <trkpt lat="48.8467" lon="2.3404">
        <ele>117.9</ele>
        <time>2015-01-05T21:21:08.566Z</time>
      </trkpt>
      <trkpt lat="48.84677" lon="2.34045">
        <ele>120.1</ele>
        <time>2015-01-05T21:21:10.589Z</time>
      </trkpt>
      <trkpt lat="48.84681" lon="2.34044">
        <ele>121.1</ele>
        <time>2015-01-05T21:21:11.608Z</time>
      </trkpt>
      <trkpt lat="48.84686" lon="2.34044">
        <ele>121.7</ele>
        <time>2015-01-05T21:21:12.515Z</time>
      </trkpt>
      <trkpt lat="48.8469" lon="2.34043">
        <ele>121.6</ele>
        <time>2015-01-05T21:21:13.517Z</time>
      </trkpt>
      <trkpt lat="48.84699" lon="2.34045">
        <ele>121.9</ele>
        <time>2015-01-05T21:21:16.578Z</time>
      </trkpt>
      <trkpt lat="48.84701" lon="2.34046">
        <ele>122.1</ele>
        <time>2015-01-05T21:21:17.616Z</time>
      </trkpt>
      <trkpt lat="48.84707" lon="2.34049">
        <ele>122.4</ele>
        <time>2015-01-05T21:21:19.533Z</time>
      </trkpt>
      <trkpt lat="48.8471" lon="2.34052">
        <ele>121.9</ele>
        <time>2015-01-05T21:21:20.571Z</time>
      </trkpt>
      <trkpt lat="48.84716" lon="2.34057">
        <ele>120.6</ele>
        <time>2015-01-05T21:21:21.586Z</time>
      </trkpt>
      <trkpt lat="48.84719" lon="2.34063">
        <ele>118.8</ele>
        <time>2015-01-05T21:21:22.593Z</time>
      </trkpt>
      <trkpt lat="48.84722" lon="2.34069">
        <ele>118.1</ele>
        <time>2015-01-05T21:21:23.615Z</time>
      </trkpt>
      <trkpt lat="48.84726" lon="2.34073">
        <ele>117.9</ele>
        <time>2015-01-05T21:21:24.529Z</time>
      </trkpt>
      <trkpt lat="48.84734" lon="2.34073">
        <ele>118.3</ele>
        <time>2015-01-05T21:21:26.565Z</time>
      </trkpt>
      <trkpt lat="48.84739" lon="2.3407">
        <ele>117.8</ele>
        <time>2015-01-05T21:21:27.587Z</time>
      </trkpt>
      <trkpt lat="48.84747" lon="2.34072">
        <ele>119</ele>
        <time>2015-01-05T21:22:33.562Z</time>
      </trkpt>
      <trkpt lat="48.84761" lon="2.34079">
        <ele>126</ele>
        <time>2015-01-05T21:22:34.572Z</time>
      </trkpt>
      <trkpt lat="48.84761" lon="2.34091">
        <ele>123.4</ele>
        <time>2015-01-05T21:22:37.565Z</time>
      </trkpt>
      <trkpt lat="48.84763" lon="2.34095">
        <ele>123.3</ele>
        <time>2015-01-05T21:22:38.578Z</time>
      </trkpt>
      <trkpt lat="48.8477" lon="2.34101">
        <ele>123.2</ele>
        <time>2015-01-05T21:22:40.518Z</time>
      </trkpt>
      <trkpt lat="48.84774" lon="2.34105">
        <ele>123.1</ele>
        <time>2015-01-05T21:22:41.532Z</time>
      </trkpt>
      <trkpt lat="48.84853" lon="2.34145">
        <ele>119.7</ele>
        <time>2015-01-05T21:22:53.550Z</time>
      </trkpt>
      <trkpt lat="48.84996" lon="2.34312">
        <ele>110.3</ele>
        <time>2015-01-05T21:23:22.569Z</time>
      </trkpt>
      <trkpt lat="48.85012" lon="2.34307">
        <ele>109.9</ele>
        <time>2015-01-05T21:23:23.601Z</time>
      </trkpt>
      <trkpt lat="48.85023" lon="2.34309">
        <ele>109.9</ele>
        <time>2015-01-05T21:23:24.512Z</time>
      </trkpt>
      <trkpt lat="48.85037" lon="2.34305">
        <ele>109.5</ele>
        <time>2015-01-05T21:23:25.527Z</time>
      </trkpt>
      <trkpt lat="48.85058" lon="2.34293">
        <ele>109.6</ele>
        <time>2015-01-05T21:23:26.566Z</time>
      </trkpt>
      <trkpt lat="48.85075" lon="2.34283">
        <ele>109.4</ele>
        <time>2015-01-05T21:23:27.603Z</time>
      </trkpt>
      <trkpt lat="48.85143" lon="2.34293">
        <ele>104.4</ele>
        <time>2015-01-05T21:23:35.531Z</time>
      </trkpt>
      <trkpt lat="48.85146" lon="2.34302">
        <ele>104.9</ele>
        <time>2015-01-05T21:23:36.575Z</time>
      </trkpt>
      <trkpt lat="48.85152" lon="2.34304">
        <ele>105.3</ele>
        <time>2015-01-05T21:23:37.582Z</time>
      </trkpt>
      <trkpt lat="48.85159" lon="2.34304">
        <ele>104.1</ele>
        <time>2015-01-05T21:23:38.599Z</time>
      </trkpt>
      <trkpt lat="48.85162" lon="2.34307">
        <ele>103.5</ele>
        <time>2015-01-05T21:23:39.615Z</time>
      </trkpt>
      <trkpt lat="48.85165" lon="2.34311">
        <ele>103.7</ele>
        <time>2015-01-05T21:23:40.518Z</time>
      </trkpt>
      <trkpt lat="48.85181" lon="2.34334">
        <ele>105.2</ele>
        <time>2015-01-05T21:23:44.590Z</time>
      </trkpt>
      <trkpt lat="48.85187" lon="2.34337">
        <ele>105.5</ele>
        <time>2015-01-05T21:23:45.512Z</time>
      </trkpt>
      <trkpt lat="48.85192" lon="2.34342">
        <ele>106.3</ele>
        <time>2015-01-05T21:23:46.512Z</time>
      </trkpt>
      <trkpt lat="48.85214" lon="2.34357">
        <ele>106.7</ele>
        <time>2015-01-05T21:23:50.609Z</time>
      </trkpt>
      <trkpt lat="48.85238" lon="2.34374">
        <ele>107.9</ele>
        <time>2015-01-05T21:23:55.515Z</time>
      </trkpt>
      <trkpt lat="48.85243" lon="2.34377">
        <ele>108.2</ele>
        <time>2015-01-05T21:23:56.554Z</time>
      </trkpt>
      <trkpt lat="48.85247" lon="2.3438">
        <ele>108.5</ele>
        <time>2015-01-05T21:23:57.575Z</time>
      </trkpt>
      <trkpt lat="48.85254" lon="2.34382">
        <ele>108.3</ele>
        <time>2015-01-05T21:23:58.954Z</time>
      </trkpt>
      <trkpt lat="48.8526" lon="2.34381">
        <ele>108.4</ele>
        <time>2015-01-05T21:23:59.597Z</time>
      </trkpt>
      <trkpt lat="48.85268" lon="2.3438">
        <ele>108.4</ele>
        <time>2015-01-05T21:24:00.484Z</time>
      </trkpt>
      <trkpt lat="48.85273" lon="2.3438">
        <ele>108.5</ele>
        <time>2015-01-05T21:24:01.505Z</time>
      </trkpt>
      <trkpt lat="48.85281" lon="2.34386">
        <ele>109.1</ele>
        <time>2015-01-05T21:24:03.584Z</time>
      </trkpt>
      <trkpt lat="48.85285" lon="2.3439">
        <ele>108.8</ele>
        <time>2015-01-05T21:24:04.608Z</time>
      </trkpt>
      <trkpt lat="48.8529" lon="2.34393">
        <ele>108.3</ele>
        <time>2015-01-05T21:24:05.516Z</time>
      </trkpt>
      <trkpt lat="48.85295" lon="2.34398">
        <ele>107.2</ele>
        <time>2015-01-05T21:24:06.521Z</time>
      </trkpt>
      <trkpt lat="48.853" lon="2.34402">
        <ele>106.2</ele>
        <time>2015-01-05T21:24:07.532Z</time>
      </trkpt>
      <trkpt lat="48.85306" lon="2.34404">
        <ele>105.4</ele>
        <time>2015-01-05T21:24:08.557Z</time>
      </trkpt>
      <trkpt lat="48.85312" lon="2.34407">
        <ele>104.7</ele>
        <time>2015-01-05T21:24:09.590Z</time>
      </trkpt>
      <trkpt lat="48.8532" lon="2.3441">
        <ele>103.9</ele>
        <time>2015-01-05T21:24:10.606Z</time>
      </trkpt>
      <trkpt lat="48.85327" lon="2.34413">
        <ele>103.2</ele>
        <time>2015-01-05T21:24:11.525Z</time>
      </trkpt>
      <trkpt lat="48.85332" lon="2.34416">
        <ele>102.7</ele>
        <time>2015-01-05T21:24:12.527Z</time>
      </trkpt>
      <trkpt lat="48.8534" lon="2.34422">
        <ele>102.2</ele>
        <time>2015-01-05T21:24:14.582Z</time>
      </trkpt>
      <trkpt lat="48.85343" lon="2.34423">
        <ele>102.1</ele>
        <time>2015-01-05T21:24:15.536Z</time>
      </trkpt>
      <trkpt lat="48.85349" lon="2.34427">
        <ele>101.9</ele>
        <time>2015-01-05T21:24:17.573Z</time>
      </trkpt>
      <trkpt lat="48.85351" lon="2.3443">
        <ele>101.5</ele>
        <time>2015-01-05T21:24:18.648Z</time>
      </trkpt>
      <trkpt lat="48.85356" lon="2.34438">
        <ele>100.7</ele>
        <time>2015-01-05T21:24:21.712Z</time>
      </trkpt>
      <trkpt lat="48.85359" lon="2.3444">
        <ele>100.9</ele>
        <time>2015-01-05T21:24:22.627Z</time>
      </trkpt>
      <trkpt lat="48.85363" lon="2.34444">
        <ele>100.1</ele>
        <time>2015-01-05T21:25:17.724Z</time>
      </trkpt>
      <trkpt lat="48.85361" lon="2.34456">
        <ele>92.2</ele>
        <time>2015-01-05T21:25:18.659Z</time>
      </trkpt>
      <trkpt lat="48.85369" lon="2.34453">
        <ele>91.6</ele>
        <time>2015-01-05T21:25:34.537Z</time>
      </trkpt>
      <trkpt lat="48.85375" lon="2.34447">
        <ele>91.1</ele>
        <time>2015-01-05T21:25:35.539Z</time>
      </trkpt>
      <trkpt lat="48.85381" lon="2.34438">
        <ele>92</ele>
        <time>2015-01-05T21:25:38.591Z</time>
      </trkpt>
      <trkpt lat="48.85382" lon="2.34435">
        <ele>91.7</ele>
        <time>2015-01-05T21:25:39.611Z</time>
      </trkpt>
      <trkpt lat="48.85388" lon="2.34439">
        <ele>91.8</ele>
        <time>2015-01-05T21:25:49.543Z</time>
      </trkpt>
      <trkpt lat="48.85391" lon="2.34441">
        <ele>91.8</ele>
        <time>2015-01-05T21:25:50.583Z</time>
      </trkpt>
      <trkpt lat="48.85398" lon="2.34448">
        <ele>91.8</ele>
        <time>2015-01-05T21:25:53.623Z</time>
      </trkpt>
      <trkpt lat="48.85401" lon="2.3445">
        <ele>91.7</ele>
        <time>2015-01-05T21:25:54.535Z</time>
      </trkpt>
      <trkpt lat="48.85407" lon="2.34458">
        <ele>90.8</ele>
        <time>2015-01-05T21:25:56.566Z</time>
      </trkpt>
      <trkpt lat="48.85411" lon="2.34461">
        <ele>90.5</ele>
        <time>2015-01-05T21:25:57.640Z</time>
      </trkpt>
      <trkpt lat="48.85416" lon="2.34462">
        <ele>90.6</ele>
        <time>2015-01-05T21:25:58.519Z</time>
      </trkpt>
      <trkpt lat="48.85421" lon="2.34465">
        <ele>90.6</ele>
        <time>2015-01-05T21:25:59.520Z</time>
      </trkpt>
      <trkpt lat="48.85426" lon="2.34468">
        <ele>90.6</ele>
        <time>2015-01-05T21:26:00.539Z</time>
      </trkpt>
      <trkpt lat="48.85432" lon="2.3447">
        <ele>91</ele>
        <time>2015-01-05T21:26:01.543Z</time>
      </trkpt>
      <trkpt lat="48.85438" lon="2.34473">
        <ele>91.4</ele>
        <time>2015-01-05T21:26:02.559Z</time>
      </trkpt>
      <trkpt lat="48.85445" lon="2.34476">
        <ele>92</ele>
        <time>2015-01-05T21:26:03.561Z</time>
      </trkpt>
      <trkpt lat="48.85452" lon="2.34479">
        <ele>92.6</ele>
        <time>2015-01-05T21:26:04.606Z</time>
      </trkpt>
      <trkpt lat="48.85455" lon="2.34483">
        <ele>92.9</ele>
        <time>2015-01-05T21:26:05.523Z</time>
      </trkpt>
      <trkpt lat="48.85461" lon="2.34493">
        <ele>92.1</ele>
        <time>2015-01-05T21:26:07.533Z</time>
      </trkpt>
      <trkpt lat="48.85462" lon="2.34499">
        <ele>91.4</ele>
        <time>2015-01-05T21:26:08.563Z</time>
      </trkpt>
      <trkpt lat="48.85466" lon="2.34504">
        <ele>90.8</ele>
        <time>2015-01-05T21:26:09.593Z</time>
      </trkpt>
      <trkpt lat="48.85468" lon="2.34511">
        <ele>90.4</ele>
        <time>2015-01-05T21:26:10.607Z</time>
      </trkpt>
      <trkpt lat="48.85471" lon="2.34518">
        <ele>90</ele>
        <time>2015-01-05T21:26:11.514Z</time>
      </trkpt>
      <trkpt lat="48.85475" lon="2.34523">
        <ele>89.5</ele>
        <time>2015-01-05T21:26:12.518Z</time>
      </trkpt>
      <trkpt lat="48.85481" lon="2.34527">
        <ele>89.2</ele>
        <time>2015-01-05T21:26:13.527Z</time>
      </trkpt>
      <trkpt lat="48.85486" lon="2.34529">
        <ele>89</ele>
        <time>2015-01-05T21:26:14.561Z</time>
      </trkpt>
      <trkpt lat="48.85491" lon="2.34531">
        <ele>88.8</ele>
        <time>2015-01-05T21:26:15.577Z</time>
      </trkpt>
      <trkpt lat="48.85496" lon="2.34535">
        <ele>88.6</ele>
        <time>2015-01-05T21:26:16.595Z</time>
      </trkpt>
      <trkpt lat="48.85503" lon="2.34536">
        <ele>88.1</ele>
        <time>2015-01-05T21:26:17.511Z</time>
      </trkpt>
      <trkpt lat="48.85512" lon="2.34533">
        <ele>87.7</ele>
        <time>2015-01-05T21:26:18.515Z</time>
      </trkpt>
      <trkpt lat="48.85519" lon="2.34534">
        <ele>87.3</ele>
        <time>2015-01-05T21:26:19.516Z</time>
      </trkpt>
      <trkpt lat="48.85526" lon="2.34535">
        <ele>87</ele>
        <time>2015-01-05T21:26:20.550Z</time>
      </trkpt>
      <trkpt lat="48.85531" lon="2.34537">
        <ele>86.7</ele>
        <time>2015-01-05T21:26:21.561Z</time>
      </trkpt>
      <trkpt lat="48.85537" lon="2.34538">
        <ele>86.4</ele>
        <time>2015-01-05T21:26:22.575Z</time>
      </trkpt>
      <trkpt lat="48.85544" lon="2.34539">
        <ele>86.4</ele>
        <time>2015-01-05T21:26:24.528Z</time>
      </trkpt>
      <trkpt lat="48.85546" lon="2.34543">
        <ele>86.7</ele>
        <time>2015-01-05T21:26:25.542Z</time>
      </trkpt>
      <trkpt lat="48.85551" lon="2.34553">
        <ele>88.3</ele>
        <time>2015-01-05T21:26:28.647Z</time>
      </trkpt>
      <trkpt lat="48.85552" lon="2.34559">
        <ele>89</ele>
        <time>2015-01-05T21:26:29.520Z</time>
      </trkpt>
      <trkpt lat="48.85555" lon="2.34564">
        <ele>89.7</ele>
        <time>2015-01-05T21:26:30.528Z</time>
      </trkpt>
      <trkpt lat="48.85556" lon="2.34571">
        <ele>90.2</ele>
        <time>2015-01-05T21:26:31.558Z</time>
      </trkpt>
      <trkpt lat="48.85559" lon="2.34579">
        <ele>90.3</ele>
        <time>2015-01-05T21:26:32.559Z</time>
      </trkpt>
      <trkpt lat="48.8556" lon="2.34586">
        <ele>90.3</ele>
        <time>2015-01-05T21:26:33.583Z</time>
      </trkpt>
      <trkpt lat="48.85561" lon="2.34594">
        <ele>90.4</ele>
        <time>2015-01-05T21:26:34.595Z</time>
      </trkpt>
      <trkpt lat="48.85562" lon="2.346">
        <ele>90.8</ele>
        <time>2015-01-05T21:26:35.604Z</time>
      </trkpt>
      <trkpt lat="48.85564" lon="2.34606">
        <ele>90.7</ele>
        <time>2015-01-05T21:26:36.483Z</time>
      </trkpt>
      <trkpt lat="48.85569" lon="2.34617">
        <ele>90</ele>
        <time>2015-01-05T21:26:37.496Z</time>
      </trkpt>
      <trkpt lat="48.85574" lon="2.34627">
        <ele>89.5</ele>
        <time>2015-01-05T21:26:38.536Z</time>
      </trkpt>
      <trkpt lat="48.85579" lon="2.34635">
        <ele>89</ele>
        <time>2015-01-05T21:26:39.555Z</time>
      </trkpt>
      <trkpt lat="48.85584" lon="2.34645">
        <ele>88.6</ele>
        <time>2015-01-05T21:26:40.465Z</time>
      </trkpt>
      <trkpt lat="48.85592" lon="2.3465">
        <ele>88.4</ele>
        <time>2015-01-05T21:26:41.505Z</time>
      </trkpt>
      <trkpt lat="48.85599" lon="2.34654">
        <ele>88.1</ele>
        <time>2015-01-05T21:26:42.957Z</time>
      </trkpt>
      <trkpt lat="48.85603" lon="2.34661">
        <ele>88</ele>
        <time>2015-01-05T21:26:43.525Z</time>
      </trkpt>
      <trkpt lat="48.85603" lon="2.34661">
        <ele>88</ele>
        <time>2015-01-05T21:26:43.561Z</time>
      </trkpt>
      <trkpt lat="48.8563" lon="2.34682">
        <ele>86.4</ele>
        <time>2015-01-05T21:26:50.531Z</time>
      </trkpt>
      <trkpt lat="48.85639" lon="2.34683">
        <ele>86.3</ele>
        <time>2015-01-05T21:26:52.586Z</time>
      </trkpt>
      <trkpt lat="48.85642" lon="2.34685">
        <ele>86.5</ele>
        <time>2015-01-05T21:26:53.600Z</time>
      </trkpt>
      <trkpt lat="48.8565" lon="2.34687">
        <ele>86.4</ele>
        <time>2015-01-05T21:26:55.666Z</time>
      </trkpt>
      <trkpt lat="48.85653" lon="2.34689">
        <ele>86.5</ele>
        <time>2015-01-05T21:26:56.680Z</time>
      </trkpt>
      <trkpt lat="48.8566" lon="2.34692">
        <ele>87.2</ele>
        <time>2015-01-05T21:26:58.620Z</time>
      </trkpt>
      <trkpt lat="48.85664" lon="2.34694">
        <ele>87.8</ele>
        <time>2015-01-05T21:26:59.634Z</time>
      </trkpt>
      <trkpt lat="48.85671" lon="2.34697">
        <ele>88</ele>
        <time>2015-01-05T21:27:01.685Z</time>
      </trkpt>
      <trkpt lat="48.85674" lon="2.34699">
        <ele>88.1</ele>
        <time>2015-01-05T21:27:02.690Z</time>
      </trkpt>
      <trkpt lat="48.8568" lon="2.34702">
        <ele>87.8</ele>
        <time>2015-01-05T21:27:04.603Z</time>
      </trkpt>
      <trkpt lat="48.85683" lon="2.34704">
        <ele>87.6</ele>
        <time>2015-01-05T21:27:05.666Z</time>
      </trkpt>
      <trkpt lat="48.8569" lon="2.34707">
        <ele>88.1</ele>
        <time>2015-01-05T21:27:07.695Z</time>
      </trkpt>
      <trkpt lat="48.85693" lon="2.34708">
        <ele>88.1</ele>
        <time>2015-01-05T21:27:08.715Z</time>
      </trkpt>
      <trkpt lat="48.85701" lon="2.34713">
        <ele>87.8</ele>
        <time>2015-01-05T21:27:11.641Z</time>
      </trkpt>
      <trkpt lat="48.85703" lon="2.34716">
        <ele>87.5</ele>
        <time>2015-01-05T21:27:12.628Z</time>
      </trkpt>
      <trkpt lat="48.8571" lon="2.34724">
        <ele>85.5</ele>
        <time>2015-01-05T21:27:16.636Z</time>
      </trkpt>
      <trkpt lat="48.85712" lon="2.34727">
        <ele>85</ele>
        <time>2015-01-05T21:27:17.529Z</time>
      </trkpt>
      <trkpt lat="48.85716" lon="2.34735">
        <ele>84.5</ele>
        <time>2015-01-05T21:27:20.603Z</time>
      </trkpt>
      <trkpt lat="48.85719" lon="2.34738">
        <ele>83.9</ele>
        <time>2015-01-05T21:27:21.520Z</time>
      </trkpt>
      <trkpt lat="48.85725" lon="2.34744">
        <ele>82.9</ele>
        <time>2015-01-05T21:27:23.583Z</time>
      </trkpt>
      <trkpt lat="48.85728" lon="2.34746">
        <ele>82.3</ele>
        <time>2015-01-05T21:27:24.590Z</time>
      </trkpt>
      <trkpt lat="48.85735" lon="2.34752">
        <ele>82.1</ele>
        <time>2015-01-05T21:27:26.631Z</time>
      </trkpt>
      <trkpt lat="48.85738" lon="2.34754">
        <ele>81.3</ele>
        <time>2015-01-05T21:27:27.535Z</time>
      </trkpt>
      <trkpt lat="48.85746" lon="2.34758">
        <ele>80.6</ele>
        <time>2015-01-05T21:27:29.533Z</time>
      </trkpt>
      <trkpt lat="48.8575" lon="2.3476">
        <ele>80.5</ele>
        <time>2015-01-05T21:27:30.547Z</time>
      </trkpt>
      <trkpt lat="48.85756" lon="2.34765">
        <ele>80.3</ele>
        <time>2015-01-05T21:27:32.587Z</time>
      </trkpt>
      <trkpt lat="48.85759" lon="2.34767">
        <ele>80.3</ele>
        <time>2015-01-05T21:27:33.615Z</time>
      </trkpt>
      <trkpt lat="48.85768" lon="2.34767">
        <ele>80.7</ele>
        <time>2015-01-05T21:27:35.634Z</time>
      </trkpt>
      <trkpt lat="48.85773" lon="2.34765">
        <ele>80.8</ele>
        <time>2015-01-05T21:27:36.642Z</time>
      </trkpt>
      <trkpt lat="48.85779" lon="2.34757">
        <ele>80.4</ele>
        <time>2015-01-05T21:27:38.664Z</time>
      </trkpt>
      <trkpt lat="48.85782" lon="2.34751">
        <ele>80.3</ele>
        <time>2015-01-05T21:27:39.671Z</time>
      </trkpt>
      <trkpt lat="48.85787" lon="2.3474">
        <ele>80.2</ele>
        <time>2015-01-05T21:27:41.611Z</time>
      </trkpt>
      <trkpt lat="48.85789" lon="2.34734">
        <ele>80.6</ele>
        <time>2015-01-05T21:27:42.617Z</time>
      </trkpt>
      <trkpt lat="48.85796" lon="2.34729">
        <ele>81.7</ele>
        <time>2015-01-05T21:27:44.508Z</time>
      </trkpt>
      <trkpt lat="48.858" lon="2.34729">
        <ele>81.8</ele>
        <time>2015-01-05T21:27:45.514Z</time>
      </trkpt>
      <trkpt lat="48.85808" lon="2.34729">
        <ele>82.3</ele>
        <time>2015-01-05T21:27:47.565Z</time>
      </trkpt>
      <trkpt lat="48.85812" lon="2.34729">
        <ele>82.6</ele>
        <time>2015-01-05T21:27:48.577Z</time>
      </trkpt>
      <trkpt lat="48.8582" lon="2.34732">
        <ele>83</ele>
        <time>2015-01-05T21:27:50.621Z</time>
      </trkpt>
      <trkpt lat="48.85825" lon="2.34733">
        <ele>83.3</ele>
        <time>2015-01-05T21:27:51.501Z</time>
      </trkpt>
      <trkpt lat="48.8583" lon="2.34734">
        <ele>83.3</ele>
        <time>2015-01-05T21:27:52.506Z</time>
      </trkpt>
      <trkpt lat="48.85837" lon="2.34735">
        <ele>83.1</ele>
        <time>2015-01-05T21:27:53.506Z</time>
      </trkpt>
      <trkpt lat="48.85843" lon="2.34734">
        <ele>83.2</ele>
        <time>2015-01-05T21:27:54.611Z</time>
      </trkpt>
      <trkpt lat="48.85848" lon="2.34735">
        <ele>83.2</ele>
        <time>2015-01-05T21:27:55.651Z</time>
      </trkpt>
      <trkpt lat="48.85852" lon="2.34736">
        <ele>83.7</ele>
        <time>2015-01-05T21:27:57.408Z</time>
      </trkpt>
      <trkpt lat="48.85859" lon="2.34735">
        <ele>84.3</ele>
        <time>2015-01-05T21:27:57.534Z</time>
      </trkpt>
      <trkpt lat="48.85867" lon="2.34733">
        <ele>84.6</ele>
        <time>2015-01-05T21:27:59.595Z</time>
      </trkpt>
      <trkpt lat="48.85871" lon="2.34734">
        <ele>85</ele>
        <time>2015-01-05T21:28:00.500Z</time>
      </trkpt>
      <trkpt lat="48.85879" lon="2.34735">
        <ele>85.7</ele>
        <time>2015-01-05T21:28:02.553Z</time>
      </trkpt>
      <trkpt lat="48.85884" lon="2.34735">
        <ele>86.2</ele>
        <time>2015-01-05T21:28:03.566Z</time>
      </trkpt>
      <trkpt lat="48.85893" lon="2.34734">
        <ele>86.5</ele>
        <time>2015-01-05T21:28:05.501Z</time>
      </trkpt>
      <trkpt lat="48.85898" lon="2.3473">
        <ele>86.9</ele>
        <time>2015-01-05T21:28:06.517Z</time>
      </trkpt>
      <trkpt lat="48.85903" lon="2.34727">
        <ele>86.8</ele>
        <time>2015-01-05T21:28:07.548Z</time>
      </trkpt>
      <trkpt lat="48.85908" lon="2.34724">
        <ele>87.1</ele>
        <time>2015-01-05T21:28:08.636Z</time>
      </trkpt>
      <trkpt lat="48.85913" lon="2.34721">
        <ele>87.1</ele>
        <time>2015-01-05T21:28:09.680Z</time>
      </trkpt>
      <trkpt lat="48.85917" lon="2.34718">
        <ele>86.9</ele>
        <time>2015-01-05T21:28:10.701Z</time>
      </trkpt>
      <trkpt lat="48.85925" lon="2.34712">
        <ele>87.9</ele>
        <time>2015-01-05T21:28:12.626Z</time>
      </trkpt>
      <trkpt lat="48.85929" lon="2.34709">
        <ele>88</ele>
        <time>2015-01-05T21:28:13.641Z</time>
      </trkpt>
      <trkpt lat="48.85937" lon="2.34705">
        <ele>88.3</ele>
        <time>2015-01-05T21:28:15.514Z</time>
      </trkpt>
      <trkpt lat="48.85941" lon="2.34703">
        <ele>88.5</ele>
        <time>2015-01-05T21:28:16.611Z</time>
      </trkpt>
      <trkpt lat="48.85947" lon="2.34705">
        <ele>89.3</ele>
        <time>2015-01-05T21:28:18.606Z</time>
      </trkpt>
      <trkpt lat="48.8595" lon="2.34706">
        <ele>90.6</ele>
        <time>2015-01-05T21:28:19.513Z</time>
      </trkpt>
    </trkseg>
  </trk>
</gpx>